<?xml version="1.0" encoding="UTF-8" standalone="no" ?>
<gpx xmlns="http://www.topografix.com/GPX/1/1" xmlns:xsi="http://www.w3.org/2001/XMLSchema-instance" xsi:schemaLocation="http://www.topografix.com/GPX/1/1 http://www.topografix.com/GPX/1/1/gpx.xsd" version="1.1" creator="VisuGPX - https://www.visugpx.com">
  <metadata>
    <name>Cadaques J6</name>
    <desc><![CDATA[File with points/tracks from Locus Map/4.25.1]]></desc>
  </metadata>
  <trk>
    <name><![CDATA[2024-09-21 Cerbère J6]]></name>
    <extensions>
      <line xmlns="http://www.topografix.com/GPX/gpx_style/0/2">
        <color>0000FF</color>
        <opacity>0.70</opacity>
        <width>6.0</width>
      </line>
    </extensions>
    <trkseg>
      <trkpt lat="42.64155" lon="2.76869">
        <ele>105.53</ele>
        <time>2024-09-21T06:58:18.999Z</time>
      </trkpt>
      <trkpt lat="42.64149" lon="2.76878">
        <ele>99.48</ele>
        <time>2024-09-21T07:00:48.999Z</time>
      </trkpt>
      <trkpt lat="42.64148" lon="2.76899">
        <ele>99.45</ele>
        <time>2024-09-21T07:00:53.999Z</time>
      </trkpt>
      <trkpt lat="42.64157" lon="2.76918">
        <ele>99.57</ele>
        <time>2024-09-21T07:00:58.999Z</time>
      </trkpt>
      <trkpt lat="42.64164" lon="2.76933">
        <ele>99.76</ele>
        <time>2024-09-21T07:01:03.999Z</time>
      </trkpt>
      <trkpt lat="42.6417" lon="2.76943">
        <ele>99.89</ele>
        <time>2024-09-21T07:01:08.999Z</time>
      </trkpt>
      <trkpt lat="42.64181" lon="2.76944">
        <ele>99.76</ele>
        <time>2024-09-21T07:04:10.999Z</time>
      </trkpt>
      <trkpt lat="42.64195" lon="2.76939">
        <ele>99.81</ele>
        <time>2024-09-21T07:04:15.999Z</time>
      </trkpt>
      <trkpt lat="42.64209" lon="2.76931">
        <ele>99.85</ele>
        <time>2024-09-21T07:04:20.999Z</time>
      </trkpt>
      <trkpt lat="42.64227" lon="2.76928">
        <ele>99.88</ele>
        <time>2024-09-21T07:04:25.999Z</time>
      </trkpt>
      <trkpt lat="42.64243" lon="2.76914">
        <ele>100.03</ele>
        <time>2024-09-21T07:04:30.999Z</time>
      </trkpt>
      <trkpt lat="42.64242" lon="2.76891">
        <ele>100.1</ele>
        <time>2024-09-21T07:04:35.999Z</time>
      </trkpt>
      <trkpt lat="42.64232" lon="2.76866">
        <ele>100.3</ele>
        <time>2024-09-21T07:04:40.999Z</time>
      </trkpt>
      <trkpt lat="42.64223" lon="2.76839">
        <ele>100.39</ele>
        <time>2024-09-21T07:04:45.999Z</time>
      </trkpt>
      <trkpt lat="42.64214" lon="2.76813">
        <ele>100.43</ele>
        <time>2024-09-21T07:04:50.999Z</time>
      </trkpt>
      <trkpt lat="42.64207" lon="2.76785">
        <ele>100.49</ele>
        <time>2024-09-21T07:04:55.999Z</time>
      </trkpt>
      <trkpt lat="42.64198" lon="2.76758">
        <ele>100.5</ele>
        <time>2024-09-21T07:05:00.999Z</time>
      </trkpt>
      <trkpt lat="42.64187" lon="2.7673">
        <ele>100.49</ele>
        <time>2024-09-21T07:05:05.999Z</time>
      </trkpt>
      <trkpt lat="42.64175" lon="2.76702">
        <ele>100.46</ele>
        <time>2024-09-21T07:05:10.999Z</time>
      </trkpt>
      <trkpt lat="42.64164" lon="2.76679">
        <ele>100.42</ele>
        <time>2024-09-21T07:05:15.999Z</time>
      </trkpt>
      <trkpt lat="42.64152" lon="2.76659">
        <ele>100.4</ele>
        <time>2024-09-21T07:05:20.999Z</time>
      </trkpt>
      <trkpt lat="42.6414" lon="2.76635">
        <ele>100.38</ele>
        <time>2024-09-21T07:05:25.999Z</time>
      </trkpt>
      <trkpt lat="42.64129" lon="2.76613">
        <ele>100.38</ele>
        <time>2024-09-21T07:05:30.999Z</time>
      </trkpt>
      <trkpt lat="42.64117" lon="2.76589">
        <ele>100.41</ele>
        <time>2024-09-21T07:05:35.999Z</time>
      </trkpt>
      <trkpt lat="42.64104" lon="2.76564">
        <ele>100.44</ele>
        <time>2024-09-21T07:05:40.999Z</time>
      </trkpt>
      <trkpt lat="42.6409" lon="2.76539">
        <ele>100.46</ele>
        <time>2024-09-21T07:05:45.999Z</time>
      </trkpt>
      <trkpt lat="42.64078" lon="2.76516">
        <ele>100.5</ele>
        <time>2024-09-21T07:05:50.999Z</time>
      </trkpt>
      <trkpt lat="42.64067" lon="2.76492">
        <ele>100.51</ele>
        <time>2024-09-21T07:05:55.999Z</time>
      </trkpt>
      <trkpt lat="42.64057" lon="2.7647">
        <ele>100.53</ele>
        <time>2024-09-21T07:06:00.999Z</time>
      </trkpt>
      <trkpt lat="42.64046" lon="2.76451">
        <ele>100.58</ele>
        <time>2024-09-21T07:06:05.999Z</time>
      </trkpt>
      <trkpt lat="42.64036" lon="2.76433">
        <ele>100.6</ele>
        <time>2024-09-21T07:06:10.999Z</time>
      </trkpt>
      <trkpt lat="42.64024" lon="2.76412">
        <ele>100.64</ele>
        <time>2024-09-21T07:06:15.999Z</time>
      </trkpt>
      <trkpt lat="42.64012" lon="2.76386">
        <ele>100.74</ele>
        <time>2024-09-21T07:06:20.999Z</time>
      </trkpt>
      <trkpt lat="42.64004" lon="2.76358">
        <ele>100.77</ele>
        <time>2024-09-21T07:06:25.999Z</time>
      </trkpt>
      <trkpt lat="42.64005" lon="2.76329">
        <ele>100.8</ele>
        <time>2024-09-21T07:06:30.999Z</time>
      </trkpt>
      <trkpt lat="42.63987" lon="2.76311">
        <ele>100.84</ele>
        <time>2024-09-21T07:06:35.999Z</time>
      </trkpt>
      <trkpt lat="42.63969" lon="2.76295">
        <ele>100.95</ele>
        <time>2024-09-21T07:06:40.999Z</time>
      </trkpt>
      <trkpt lat="42.63957" lon="2.76275">
        <ele>101.02</ele>
        <time>2024-09-21T07:06:45.999Z</time>
      </trkpt>
      <trkpt lat="42.63948" lon="2.76256">
        <ele>101.02</ele>
        <time>2024-09-21T07:06:50.999Z</time>
      </trkpt>
      <trkpt lat="42.63939" lon="2.7624">
        <ele>101.03</ele>
        <time>2024-09-21T07:06:55.999Z</time>
      </trkpt>
      <trkpt lat="42.63931" lon="2.76226">
        <ele>101.03</ele>
        <time>2024-09-21T07:07:00.999Z</time>
      </trkpt>
      <trkpt lat="42.63923" lon="2.76215">
        <ele>101.04</ele>
        <time>2024-09-21T07:07:05.999Z</time>
      </trkpt>
      <trkpt lat="42.63911" lon="2.76201">
        <ele>101.05</ele>
        <time>2024-09-21T07:07:10.999Z</time>
      </trkpt>
      <trkpt lat="42.63893" lon="2.76182">
        <ele>101.07</ele>
        <time>2024-09-21T07:07:15.999Z</time>
      </trkpt>
      <trkpt lat="42.63873" lon="2.76165">
        <ele>101.1</ele>
        <time>2024-09-21T07:07:20.999Z</time>
      </trkpt>
      <trkpt lat="42.63851" lon="2.7615">
        <ele>101.1</ele>
        <time>2024-09-21T07:07:25.999Z</time>
      </trkpt>
      <trkpt lat="42.63831" lon="2.76134">
        <ele>101.12</ele>
        <time>2024-09-21T07:07:30.999Z</time>
      </trkpt>
      <trkpt lat="42.63812" lon="2.7612">
        <ele>101.13</ele>
        <time>2024-09-21T07:07:36.000Z</time>
      </trkpt>
      <trkpt lat="42.63793" lon="2.76109">
        <ele>101.13</ele>
        <time>2024-09-21T07:07:41.000Z</time>
      </trkpt>
      <trkpt lat="42.63783" lon="2.76104">
        <ele>101.12</ele>
        <time>2024-09-21T07:07:59.000Z</time>
      </trkpt>
      <trkpt lat="42.63767" lon="2.76118">
        <ele>101.11</ele>
        <time>2024-09-21T07:08:04.000Z</time>
      </trkpt>
      <trkpt lat="42.63749" lon="2.7613">
        <ele>101.02</ele>
        <time>2024-09-21T07:08:09.000Z</time>
      </trkpt>
      <trkpt lat="42.63732" lon="2.76142">
        <ele>100.95</ele>
        <time>2024-09-21T07:08:14.000Z</time>
      </trkpt>
      <trkpt lat="42.63716" lon="2.7615">
        <ele>100.93</ele>
        <time>2024-09-21T07:08:19.000Z</time>
      </trkpt>
      <trkpt lat="42.63699" lon="2.7616">
        <ele>100.77</ele>
        <time>2024-09-21T07:08:24.000Z</time>
      </trkpt>
      <trkpt lat="42.63684" lon="2.76175">
        <ele>100.68</ele>
        <time>2024-09-21T07:08:29.000Z</time>
      </trkpt>
      <trkpt lat="42.63666" lon="2.76187">
        <ele>100.63</ele>
        <time>2024-09-21T07:08:34.000Z</time>
      </trkpt>
      <trkpt lat="42.63648" lon="2.76196">
        <ele>100.62</ele>
        <time>2024-09-21T07:08:39.000Z</time>
      </trkpt>
      <trkpt lat="42.63632" lon="2.76204">
        <ele>100.62</ele>
        <time>2024-09-21T07:08:44.000Z</time>
      </trkpt>
      <trkpt lat="42.63615" lon="2.76208">
        <ele>100.62</ele>
        <time>2024-09-21T07:08:49.000Z</time>
      </trkpt>
      <trkpt lat="42.63595" lon="2.76211">
        <ele>100.67</ele>
        <time>2024-09-21T07:08:54.000Z</time>
      </trkpt>
      <trkpt lat="42.63575" lon="2.76213">
        <ele>100.81</ele>
        <time>2024-09-21T07:08:59.000Z</time>
      </trkpt>
      <trkpt lat="42.63555" lon="2.76213">
        <ele>100.95</ele>
        <time>2024-09-21T07:09:04.000Z</time>
      </trkpt>
      <trkpt lat="42.63536" lon="2.7621">
        <ele>101.1</ele>
        <time>2024-09-21T07:09:09.000Z</time>
      </trkpt>
      <trkpt lat="42.63518" lon="2.76204">
        <ele>101.21</ele>
        <time>2024-09-21T07:09:14.000Z</time>
      </trkpt>
      <trkpt lat="42.63501" lon="2.76197">
        <ele>101.22</ele>
        <time>2024-09-21T07:09:19.000Z</time>
      </trkpt>
      <trkpt lat="42.63485" lon="2.76186">
        <ele>101.25</ele>
        <time>2024-09-21T07:09:24.000Z</time>
      </trkpt>
      <trkpt lat="42.63468" lon="2.76175">
        <ele>101.32</ele>
        <time>2024-09-21T07:09:29.000Z</time>
      </trkpt>
      <trkpt lat="42.63454" lon="2.76165">
        <ele>101.35</ele>
        <time>2024-09-21T07:09:34.000Z</time>
      </trkpt>
      <trkpt lat="42.63447" lon="2.76151">
        <ele>101.37</ele>
        <time>2024-09-21T07:09:39.000Z</time>
      </trkpt>
      <trkpt lat="42.63435" lon="2.76139">
        <ele>101.41</ele>
        <time>2024-09-21T07:09:44.000Z</time>
      </trkpt>
      <trkpt lat="42.63419" lon="2.76135">
        <ele>101.46</ele>
        <time>2024-09-21T07:09:49.000Z</time>
      </trkpt>
      <trkpt lat="42.63406" lon="2.76122">
        <ele>101.51</ele>
        <time>2024-09-21T07:09:54.000Z</time>
      </trkpt>
      <trkpt lat="42.63394" lon="2.76108">
        <ele>101.56</ele>
        <time>2024-09-21T07:09:59.000Z</time>
      </trkpt>
      <trkpt lat="42.63383" lon="2.76098">
        <ele>101.61</ele>
        <time>2024-09-21T07:10:04.000Z</time>
      </trkpt>
      <trkpt lat="42.6337" lon="2.76086">
        <ele>101.66</ele>
        <time>2024-09-21T07:10:09.000Z</time>
      </trkpt>
      <trkpt lat="42.63354" lon="2.76072">
        <ele>101.69</ele>
        <time>2024-09-21T07:10:14.000Z</time>
      </trkpt>
      <trkpt lat="42.63339" lon="2.76058">
        <ele>101.72</ele>
        <time>2024-09-21T07:10:19.000Z</time>
      </trkpt>
      <trkpt lat="42.63324" lon="2.76044">
        <ele>101.79</ele>
        <time>2024-09-21T07:10:24.000Z</time>
      </trkpt>
      <trkpt lat="42.63308" lon="2.76033">
        <ele>101.8</ele>
        <time>2024-09-21T07:10:29.000Z</time>
      </trkpt>
      <trkpt lat="42.63291" lon="2.76023">
        <ele>101.87</ele>
        <time>2024-09-21T07:10:34.000Z</time>
      </trkpt>
      <trkpt lat="42.63274" lon="2.76014">
        <ele>101.88</ele>
        <time>2024-09-21T07:10:39.000Z</time>
      </trkpt>
      <trkpt lat="42.63257" lon="2.76008">
        <ele>101.87</ele>
        <time>2024-09-21T07:10:44.000Z</time>
      </trkpt>
      <trkpt lat="42.6324" lon="2.76002">
        <ele>101.87</ele>
        <time>2024-09-21T07:10:49.000Z</time>
      </trkpt>
      <trkpt lat="42.63224" lon="2.75998">
        <ele>101.87</ele>
        <time>2024-09-21T07:10:54.000Z</time>
      </trkpt>
      <trkpt lat="42.63213" lon="2.75983">
        <ele>101.9</ele>
        <time>2024-09-21T07:10:59.000Z</time>
      </trkpt>
      <trkpt lat="42.63198" lon="2.75969">
        <ele>102.11</ele>
        <time>2024-09-21T07:11:04.000Z</time>
      </trkpt>
      <trkpt lat="42.63183" lon="2.75974">
        <ele>102.19</ele>
        <time>2024-09-21T07:11:09.000Z</time>
      </trkpt>
      <trkpt lat="42.63169" lon="2.7598">
        <ele>102.23</ele>
        <time>2024-09-21T07:11:14.000Z</time>
      </trkpt>
      <trkpt lat="42.63155" lon="2.7598">
        <ele>102.29</ele>
        <time>2024-09-21T07:11:19.000Z</time>
      </trkpt>
      <trkpt lat="42.63144" lon="2.75978">
        <ele>102.35</ele>
        <time>2024-09-21T07:11:24.000Z</time>
      </trkpt>
      <trkpt lat="42.63132" lon="2.75978">
        <ele>102.4</ele>
        <time>2024-09-21T07:11:29.000Z</time>
      </trkpt>
      <trkpt lat="42.63121" lon="2.75978">
        <ele>102.46</ele>
        <time>2024-09-21T07:11:34.000Z</time>
      </trkpt>
      <trkpt lat="42.63109" lon="2.75979">
        <ele>102.51</ele>
        <time>2024-09-21T07:11:39.000Z</time>
      </trkpt>
      <trkpt lat="42.63097" lon="2.75982">
        <ele>102.57</ele>
        <time>2024-09-21T07:11:44.000Z</time>
      </trkpt>
      <trkpt lat="42.63088" lon="2.75984">
        <ele>102.64</ele>
        <time>2024-09-21T07:11:49.000Z</time>
      </trkpt>
      <trkpt lat="42.63078" lon="2.75988">
        <ele>102.82</ele>
        <time>2024-09-21T07:12:08.000Z</time>
      </trkpt>
      <trkpt lat="42.63063" lon="2.75994">
        <ele>102.91</ele>
        <time>2024-09-21T07:12:13.000Z</time>
      </trkpt>
      <trkpt lat="42.63046" lon="2.76002">
        <ele>103.38</ele>
        <time>2024-09-21T07:12:18.000Z</time>
      </trkpt>
      <trkpt lat="42.63029" lon="2.76011">
        <ele>103.51</ele>
        <time>2024-09-21T07:12:23.000Z</time>
      </trkpt>
      <trkpt lat="42.63013" lon="2.76019">
        <ele>103.54</ele>
        <time>2024-09-21T07:12:28.000Z</time>
      </trkpt>
      <trkpt lat="42.62995" lon="2.76027">
        <ele>103.59</ele>
        <time>2024-09-21T07:12:33.000Z</time>
      </trkpt>
      <trkpt lat="42.62976" lon="2.76035">
        <ele>103.59</ele>
        <time>2024-09-21T07:12:38.000Z</time>
      </trkpt>
      <trkpt lat="42.62961" lon="2.76045">
        <ele>103.6</ele>
        <time>2024-09-21T07:12:43.000Z</time>
      </trkpt>
      <trkpt lat="42.62943" lon="2.7606">
        <ele>103.62</ele>
        <time>2024-09-21T07:12:48.000Z</time>
      </trkpt>
      <trkpt lat="42.62925" lon="2.76074">
        <ele>103.63</ele>
        <time>2024-09-21T07:12:53.000Z</time>
      </trkpt>
      <trkpt lat="42.62908" lon="2.7609">
        <ele>103.65</ele>
        <time>2024-09-21T07:12:58.000Z</time>
      </trkpt>
      <trkpt lat="42.62892" lon="2.76107">
        <ele>103.69</ele>
        <time>2024-09-21T07:13:03.000Z</time>
      </trkpt>
      <trkpt lat="42.62876" lon="2.76121">
        <ele>103.69</ele>
        <time>2024-09-21T07:13:08.000Z</time>
      </trkpt>
      <trkpt lat="42.62857" lon="2.76124">
        <ele>103.69</ele>
        <time>2024-09-21T07:13:13.000Z</time>
      </trkpt>
      <trkpt lat="42.62845" lon="2.76147">
        <ele>103.74</ele>
        <time>2024-09-21T07:13:18.000Z</time>
      </trkpt>
      <trkpt lat="42.62842" lon="2.76175">
        <ele>103.84</ele>
        <time>2024-09-21T07:13:23.000Z</time>
      </trkpt>
      <trkpt lat="42.6283" lon="2.762">
        <ele>103.92</ele>
        <time>2024-09-21T07:13:28.000Z</time>
      </trkpt>
      <trkpt lat="42.62817" lon="2.76223">
        <ele>104.02</ele>
        <time>2024-09-21T07:13:33.000Z</time>
      </trkpt>
      <trkpt lat="42.62806" lon="2.76247">
        <ele>104.1</ele>
        <time>2024-09-21T07:13:38.000Z</time>
      </trkpt>
      <trkpt lat="42.62793" lon="2.7627">
        <ele>104.12</ele>
        <time>2024-09-21T07:13:43.000Z</time>
      </trkpt>
      <trkpt lat="42.62784" lon="2.76283">
        <ele>104.12</ele>
        <time>2024-09-21T07:13:48.000Z</time>
      </trkpt>
      <trkpt lat="42.62779" lon="2.76295">
        <ele>104.13</ele>
        <time>2024-09-21T07:13:56.000Z</time>
      </trkpt>
      <trkpt lat="42.62773" lon="2.76313">
        <ele>104.14</ele>
        <time>2024-09-21T07:14:01.000Z</time>
      </trkpt>
      <trkpt lat="42.62762" lon="2.76333">
        <ele>104.15</ele>
        <time>2024-09-21T07:14:06.000Z</time>
      </trkpt>
      <trkpt lat="42.6275" lon="2.76353">
        <ele>104.2</ele>
        <time>2024-09-21T07:14:11.000Z</time>
      </trkpt>
      <trkpt lat="42.62738" lon="2.76375">
        <ele>104.25</ele>
        <time>2024-09-21T07:14:16.000Z</time>
      </trkpt>
      <trkpt lat="42.62726" lon="2.76399">
        <ele>104.27</ele>
        <time>2024-09-21T07:14:21.000Z</time>
      </trkpt>
      <trkpt lat="42.62711" lon="2.76419">
        <ele>104.25</ele>
        <time>2024-09-21T07:14:26.000Z</time>
      </trkpt>
      <trkpt lat="42.62699" lon="2.76445">
        <ele>104.24</ele>
        <time>2024-09-21T07:14:31.000Z</time>
      </trkpt>
      <trkpt lat="42.62689" lon="2.76468">
        <ele>104.27</ele>
        <time>2024-09-21T07:14:36.000Z</time>
      </trkpt>
      <trkpt lat="42.62677" lon="2.7649">
        <ele>104.27</ele>
        <time>2024-09-21T07:14:41.000Z</time>
      </trkpt>
      <trkpt lat="42.62664" lon="2.76513">
        <ele>104.24</ele>
        <time>2024-09-21T07:14:46.000Z</time>
      </trkpt>
      <trkpt lat="42.62653" lon="2.76535">
        <ele>104.2</ele>
        <time>2024-09-21T07:14:51.000Z</time>
      </trkpt>
      <trkpt lat="42.62642" lon="2.76556">
        <ele>104.18</ele>
        <time>2024-09-21T07:14:56.000Z</time>
      </trkpt>
      <trkpt lat="42.62628" lon="2.76575">
        <ele>104.16</ele>
        <time>2024-09-21T07:15:01.000Z</time>
      </trkpt>
      <trkpt lat="42.62614" lon="2.76595">
        <ele>104.13</ele>
        <time>2024-09-21T07:15:06.000Z</time>
      </trkpt>
      <trkpt lat="42.62618" lon="2.7661">
        <ele>104.13</ele>
        <time>2024-09-21T07:15:11.000Z</time>
      </trkpt>
      <trkpt lat="42.62615" lon="2.76621">
        <ele>104.15</ele>
        <time>2024-09-21T07:15:16.000Z</time>
      </trkpt>
      <trkpt lat="42.6261" lon="2.76632">
        <ele>104.18</ele>
        <time>2024-09-21T07:15:27.000Z</time>
      </trkpt>
      <trkpt lat="42.62601" lon="2.76649">
        <ele>104.19</ele>
        <time>2024-09-21T07:15:32.000Z</time>
      </trkpt>
      <trkpt lat="42.62592" lon="2.76671">
        <ele>104.21</ele>
        <time>2024-09-21T07:15:37.000Z</time>
      </trkpt>
      <trkpt lat="42.62581" lon="2.76691">
        <ele>104.26</ele>
        <time>2024-09-21T07:15:42.000Z</time>
      </trkpt>
      <trkpt lat="42.62572" lon="2.76711">
        <ele>104.31</ele>
        <time>2024-09-21T07:15:47.000Z</time>
      </trkpt>
      <trkpt lat="42.62561" lon="2.76732">
        <ele>104.37</ele>
        <time>2024-09-21T07:15:52.000Z</time>
      </trkpt>
      <trkpt lat="42.6255" lon="2.76749">
        <ele>104.37</ele>
        <time>2024-09-21T07:15:57.000Z</time>
      </trkpt>
      <trkpt lat="42.6254" lon="2.76769">
        <ele>104.38</ele>
        <time>2024-09-21T07:16:02.000Z</time>
      </trkpt>
      <trkpt lat="42.62529" lon="2.76787">
        <ele>104.38</ele>
        <time>2024-09-21T07:16:07.000Z</time>
      </trkpt>
      <trkpt lat="42.62518" lon="2.76805">
        <ele>104.37</ele>
        <time>2024-09-21T07:16:12.000Z</time>
      </trkpt>
      <trkpt lat="42.62507" lon="2.76824">
        <ele>104.37</ele>
        <time>2024-09-21T07:16:17.000Z</time>
      </trkpt>
      <trkpt lat="42.62497" lon="2.76843">
        <ele>104.36</ele>
        <time>2024-09-21T07:16:22.000Z</time>
      </trkpt>
      <trkpt lat="42.62488" lon="2.76864">
        <ele>104.36</ele>
        <time>2024-09-21T07:16:27.000Z</time>
      </trkpt>
      <trkpt lat="42.62478" lon="2.76881">
        <ele>104.35</ele>
        <time>2024-09-21T07:16:32.000Z</time>
      </trkpt>
      <trkpt lat="42.62469" lon="2.76904">
        <ele>104.35</ele>
        <time>2024-09-21T07:16:37.000Z</time>
      </trkpt>
      <trkpt lat="42.62462" lon="2.76927">
        <ele>104.37</ele>
        <time>2024-09-21T07:16:42.000Z</time>
      </trkpt>
      <trkpt lat="42.62455" lon="2.76948">
        <ele>104.38</ele>
        <time>2024-09-21T07:16:47.000Z</time>
      </trkpt>
      <trkpt lat="42.62447" lon="2.76971">
        <ele>104.47</ele>
        <time>2024-09-21T07:16:52.000Z</time>
      </trkpt>
      <trkpt lat="42.62439" lon="2.76994">
        <ele>104.51</ele>
        <time>2024-09-21T07:16:57.000Z</time>
      </trkpt>
      <trkpt lat="42.62432" lon="2.77014">
        <ele>104.55</ele>
        <time>2024-09-21T07:17:02.000Z</time>
      </trkpt>
      <trkpt lat="42.62425" lon="2.77032">
        <ele>104.6</ele>
        <time>2024-09-21T07:17:07.000Z</time>
      </trkpt>
      <trkpt lat="42.62416" lon="2.7705">
        <ele>104.66</ele>
        <time>2024-09-21T07:17:12.000Z</time>
      </trkpt>
      <trkpt lat="42.62411" lon="2.77066">
        <ele>104.72</ele>
        <time>2024-09-21T07:17:17.000Z</time>
      </trkpt>
      <trkpt lat="42.62409" lon="2.77079">
        <ele>104.99</ele>
        <time>2024-09-21T07:17:52.000Z</time>
      </trkpt>
      <trkpt lat="42.62403" lon="2.77089">
        <ele>105.08</ele>
        <time>2024-09-21T07:17:57.000Z</time>
      </trkpt>
      <trkpt lat="42.62394" lon="2.77098">
        <ele>105.33</ele>
        <time>2024-09-21T07:18:26.000Z</time>
      </trkpt>
      <trkpt lat="42.62382" lon="2.77118">
        <ele>105.86</ele>
        <time>2024-09-21T07:18:31.000Z</time>
      </trkpt>
      <trkpt lat="42.6237" lon="2.7714">
        <ele>106.26</ele>
        <time>2024-09-21T07:18:36.000Z</time>
      </trkpt>
      <trkpt lat="42.62358" lon="2.77164">
        <ele>106.44</ele>
        <time>2024-09-21T07:18:41.000Z</time>
      </trkpt>
      <trkpt lat="42.62343" lon="2.77183">
        <ele>106.6</ele>
        <time>2024-09-21T07:18:46.000Z</time>
      </trkpt>
      <trkpt lat="42.62329" lon="2.77207">
        <ele>106.72</ele>
        <time>2024-09-21T07:18:51.000Z</time>
      </trkpt>
      <trkpt lat="42.62312" lon="2.77228">
        <ele>106.79</ele>
        <time>2024-09-21T07:18:56.000Z</time>
      </trkpt>
      <trkpt lat="42.62295" lon="2.77251">
        <ele>106.77</ele>
        <time>2024-09-21T07:19:01.000Z</time>
      </trkpt>
      <trkpt lat="42.6228" lon="2.77272">
        <ele>106.71</ele>
        <time>2024-09-21T07:19:06.000Z</time>
      </trkpt>
      <trkpt lat="42.62267" lon="2.77296">
        <ele>106.68</ele>
        <time>2024-09-21T07:19:11.000Z</time>
      </trkpt>
      <trkpt lat="42.62254" lon="2.77323">
        <ele>106.6</ele>
        <time>2024-09-21T07:19:16.000Z</time>
      </trkpt>
      <trkpt lat="42.62246" lon="2.77353">
        <ele>106.52</ele>
        <time>2024-09-21T07:19:21.000Z</time>
      </trkpt>
      <trkpt lat="42.6224" lon="2.77384">
        <ele>106.43</ele>
        <time>2024-09-21T07:19:26.000Z</time>
      </trkpt>
      <trkpt lat="42.62235" lon="2.77418">
        <ele>106.38</ele>
        <time>2024-09-21T07:19:31.000Z</time>
      </trkpt>
      <trkpt lat="42.6223" lon="2.77451">
        <ele>106.38</ele>
        <time>2024-09-21T07:19:36.000Z</time>
      </trkpt>
      <trkpt lat="42.62224" lon="2.77486">
        <ele>106.44</ele>
        <time>2024-09-21T07:19:41.000Z</time>
      </trkpt>
      <trkpt lat="42.62217" lon="2.77527">
        <ele>106.49</ele>
        <time>2024-09-21T07:19:46.999Z</time>
      </trkpt>
      <trkpt lat="42.62211" lon="2.77561">
        <ele>106.48</ele>
        <time>2024-09-21T07:19:51.999Z</time>
      </trkpt>
      <trkpt lat="42.62206" lon="2.77596">
        <ele>106.39</ele>
        <time>2024-09-21T07:19:56.999Z</time>
      </trkpt>
      <trkpt lat="42.62201" lon="2.77629">
        <ele>106.32</ele>
        <time>2024-09-21T07:20:01.999Z</time>
      </trkpt>
      <trkpt lat="42.62196" lon="2.77657">
        <ele>106.3</ele>
        <time>2024-09-21T07:20:06.999Z</time>
      </trkpt>
      <trkpt lat="42.62192" lon="2.7768">
        <ele>106.3</ele>
        <time>2024-09-21T07:20:11.999Z</time>
      </trkpt>
      <trkpt lat="42.62189" lon="2.77702">
        <ele>106.29</ele>
        <time>2024-09-21T07:20:16.999Z</time>
      </trkpt>
      <trkpt lat="42.6219" lon="2.77689">
        <ele>106.23</ele>
        <time>2024-09-21T07:20:34.999Z</time>
      </trkpt>
      <trkpt lat="42.62192" lon="2.77673">
        <ele>106.19</ele>
        <time>2024-09-21T07:20:39.999Z</time>
      </trkpt>
      <trkpt lat="42.62193" lon="2.77655">
        <ele>106.13</ele>
        <time>2024-09-21T07:20:44.999Z</time>
      </trkpt>
      <trkpt lat="42.62191" lon="2.77641">
        <ele>106.08</ele>
        <time>2024-09-21T07:20:49.999Z</time>
      </trkpt>
      <trkpt lat="42.62188" lon="2.77622">
        <ele>106.02</ele>
        <time>2024-09-21T07:20:54.999Z</time>
      </trkpt>
      <trkpt lat="42.62185" lon="2.77597">
        <ele>105.76</ele>
        <time>2024-09-21T07:20:59.999Z</time>
      </trkpt>
      <trkpt lat="42.62182" lon="2.77571">
        <ele>105.55</ele>
        <time>2024-09-21T07:21:04.999Z</time>
      </trkpt>
      <trkpt lat="42.62179" lon="2.77546">
        <ele>105.44</ele>
        <time>2024-09-21T07:21:09.999Z</time>
      </trkpt>
      <trkpt lat="42.62175" lon="2.77527">
        <ele>105.42</ele>
        <time>2024-09-21T07:21:14.999Z</time>
      </trkpt>
      <trkpt lat="42.62175" lon="2.77506">
        <ele>105.39</ele>
        <time>2024-09-21T07:21:19.999Z</time>
      </trkpt>
      <trkpt lat="42.62174" lon="2.77488">
        <ele>105.37</ele>
        <time>2024-09-21T07:21:24.999Z</time>
      </trkpt>
      <trkpt lat="42.6217" lon="2.77469">
        <ele>105.36</ele>
        <time>2024-09-21T07:21:29.999Z</time>
      </trkpt>
      <trkpt lat="42.62166" lon="2.77451">
        <ele>105.35</ele>
        <time>2024-09-21T07:21:34.999Z</time>
      </trkpt>
      <trkpt lat="42.62168" lon="2.77438">
        <ele>105.36</ele>
        <time>2024-09-21T07:21:39.999Z</time>
      </trkpt>
      <trkpt lat="42.62159" lon="2.77443">
        <ele>105.19</ele>
        <time>2024-09-21T07:22:43.999Z</time>
      </trkpt>
      <trkpt lat="42.62147" lon="2.77464">
        <ele>104.95</ele>
        <time>2024-09-21T07:22:48.999Z</time>
      </trkpt>
      <trkpt lat="42.62134" lon="2.77488">
        <ele>104.63</ele>
        <time>2024-09-21T07:22:53.999Z</time>
      </trkpt>
      <trkpt lat="42.62119" lon="2.77511">
        <ele>104.55</ele>
        <time>2024-09-21T07:22:58.999Z</time>
      </trkpt>
      <trkpt lat="42.62104" lon="2.77533">
        <ele>104.59</ele>
        <time>2024-09-21T07:23:03.999Z</time>
      </trkpt>
      <trkpt lat="42.62086" lon="2.77556">
        <ele>104.67</ele>
        <time>2024-09-21T07:23:08.999Z</time>
      </trkpt>
      <trkpt lat="42.62066" lon="2.77581">
        <ele>104.66</ele>
        <time>2024-09-21T07:23:13.999Z</time>
      </trkpt>
      <trkpt lat="42.62048" lon="2.77608">
        <ele>104.56</ele>
        <time>2024-09-21T07:23:18.999Z</time>
      </trkpt>
      <trkpt lat="42.62034" lon="2.77636">
        <ele>104.39</ele>
        <time>2024-09-21T07:23:23.999Z</time>
      </trkpt>
      <trkpt lat="42.62019" lon="2.77666">
        <ele>104.21</ele>
        <time>2024-09-21T07:23:28.999Z</time>
      </trkpt>
      <trkpt lat="42.62005" lon="2.77698">
        <ele>104.02</ele>
        <time>2024-09-21T07:23:33.999Z</time>
      </trkpt>
      <trkpt lat="42.6199" lon="2.77725">
        <ele>103.84</ele>
        <time>2024-09-21T07:23:38.999Z</time>
      </trkpt>
      <trkpt lat="42.61976" lon="2.77749">
        <ele>103.66</ele>
        <time>2024-09-21T07:23:43.999Z</time>
      </trkpt>
      <trkpt lat="42.61961" lon="2.77775">
        <ele>103.49</ele>
        <time>2024-09-21T07:23:48.999Z</time>
      </trkpt>
      <trkpt lat="42.61946" lon="2.77801">
        <ele>103.32</ele>
        <time>2024-09-21T07:23:53.999Z</time>
      </trkpt>
      <trkpt lat="42.61933" lon="2.77829">
        <ele>103.15</ele>
        <time>2024-09-21T07:23:58.999Z</time>
      </trkpt>
      <trkpt lat="42.6192" lon="2.77857">
        <ele>102.96</ele>
        <time>2024-09-21T07:24:03.999Z</time>
      </trkpt>
      <trkpt lat="42.61908" lon="2.77887">
        <ele>102.8</ele>
        <time>2024-09-21T07:24:08.999Z</time>
      </trkpt>
      <trkpt lat="42.61898" lon="2.77918">
        <ele>102.64</ele>
        <time>2024-09-21T07:24:13.999Z</time>
      </trkpt>
      <trkpt lat="42.61888" lon="2.77946">
        <ele>102.48</ele>
        <time>2024-09-21T07:24:18.999Z</time>
      </trkpt>
      <trkpt lat="42.61879" lon="2.77977">
        <ele>102.31</ele>
        <time>2024-09-21T07:24:23.999Z</time>
      </trkpt>
      <trkpt lat="42.61872" lon="2.78007">
        <ele>102.18</ele>
        <time>2024-09-21T07:24:28.999Z</time>
      </trkpt>
      <trkpt lat="42.61865" lon="2.78035">
        <ele>102.05</ele>
        <time>2024-09-21T07:24:33.999Z</time>
      </trkpt>
      <trkpt lat="42.61861" lon="2.78064">
        <ele>101.92</ele>
        <time>2024-09-21T07:24:38.999Z</time>
      </trkpt>
      <trkpt lat="42.61856" lon="2.78094">
        <ele>101.84</ele>
        <time>2024-09-21T07:24:43.999Z</time>
      </trkpt>
      <trkpt lat="42.61851" lon="2.78119">
        <ele>101.88</ele>
        <time>2024-09-21T07:24:48.999Z</time>
      </trkpt>
      <trkpt lat="42.61847" lon="2.78144">
        <ele>101.88</ele>
        <time>2024-09-21T07:24:53.999Z</time>
      </trkpt>
      <trkpt lat="42.61843" lon="2.78164">
        <ele>101.9</ele>
        <time>2024-09-21T07:24:58.999Z</time>
      </trkpt>
      <trkpt lat="42.6184" lon="2.78186">
        <ele>101.92</ele>
        <time>2024-09-21T07:25:03.999Z</time>
      </trkpt>
      <trkpt lat="42.61836" lon="2.78209">
        <ele>101.94</ele>
        <time>2024-09-21T07:25:08.999Z</time>
      </trkpt>
      <trkpt lat="42.61833" lon="2.78232">
        <ele>101.97</ele>
        <time>2024-09-21T07:25:13.999Z</time>
      </trkpt>
      <trkpt lat="42.61828" lon="2.78254">
        <ele>102.01</ele>
        <time>2024-09-21T07:25:18.999Z</time>
      </trkpt>
      <trkpt lat="42.61824" lon="2.78275">
        <ele>102.05</ele>
        <time>2024-09-21T07:25:23.999Z</time>
      </trkpt>
      <trkpt lat="42.61821" lon="2.78295">
        <ele>102.1</ele>
        <time>2024-09-21T07:25:28.999Z</time>
      </trkpt>
      <trkpt lat="42.61817" lon="2.78316">
        <ele>102.16</ele>
        <time>2024-09-21T07:25:33.999Z</time>
      </trkpt>
      <trkpt lat="42.61813" lon="2.78336">
        <ele>102.23</ele>
        <time>2024-09-21T07:25:38.999Z</time>
      </trkpt>
      <trkpt lat="42.61809" lon="2.78356">
        <ele>102.3</ele>
        <time>2024-09-21T07:25:43.999Z</time>
      </trkpt>
      <trkpt lat="42.61807" lon="2.78377">
        <ele>102.39</ele>
        <time>2024-09-21T07:25:48.999Z</time>
      </trkpt>
      <trkpt lat="42.61805" lon="2.78397">
        <ele>102.49</ele>
        <time>2024-09-21T07:25:53.999Z</time>
      </trkpt>
      <trkpt lat="42.61803" lon="2.78417">
        <ele>102.6</ele>
        <time>2024-09-21T07:25:58.999Z</time>
      </trkpt>
      <trkpt lat="42.61802" lon="2.78439">
        <ele>102.73</ele>
        <time>2024-09-21T07:26:03.999Z</time>
      </trkpt>
      <trkpt lat="42.61801" lon="2.7846">
        <ele>102.88</ele>
        <time>2024-09-21T07:26:08.999Z</time>
      </trkpt>
      <trkpt lat="42.61799" lon="2.7848">
        <ele>103.04</ele>
        <time>2024-09-21T07:26:13.999Z</time>
      </trkpt>
      <trkpt lat="42.61798" lon="2.78501">
        <ele>103.2</ele>
        <time>2024-09-21T07:26:18.999Z</time>
      </trkpt>
      <trkpt lat="42.61795" lon="2.78521">
        <ele>103.36</ele>
        <time>2024-09-21T07:26:23.999Z</time>
      </trkpt>
      <trkpt lat="42.61795" lon="2.78543">
        <ele>103.54</ele>
        <time>2024-09-21T07:26:28.999Z</time>
      </trkpt>
      <trkpt lat="42.61796" lon="2.78564">
        <ele>103.72</ele>
        <time>2024-09-21T07:26:33.999Z</time>
      </trkpt>
      <trkpt lat="42.61796" lon="2.78586">
        <ele>103.92</ele>
        <time>2024-09-21T07:26:38.999Z</time>
      </trkpt>
      <trkpt lat="42.61796" lon="2.78609">
        <ele>104.13</ele>
        <time>2024-09-21T07:26:43.999Z</time>
      </trkpt>
      <trkpt lat="42.61796" lon="2.7863">
        <ele>104.34</ele>
        <time>2024-09-21T07:26:48.999Z</time>
      </trkpt>
      <trkpt lat="42.61794" lon="2.78651">
        <ele>104.56</ele>
        <time>2024-09-21T07:26:53.999Z</time>
      </trkpt>
      <trkpt lat="42.61794" lon="2.78673">
        <ele>104.79</ele>
        <time>2024-09-21T07:26:58.999Z</time>
      </trkpt>
      <trkpt lat="42.61794" lon="2.78695">
        <ele>105.03</ele>
        <time>2024-09-21T07:27:03.999Z</time>
      </trkpt>
      <trkpt lat="42.61795" lon="2.78718">
        <ele>105.27</ele>
        <time>2024-09-21T07:27:08.999Z</time>
      </trkpt>
      <trkpt lat="42.61794" lon="2.7874">
        <ele>105.53</ele>
        <time>2024-09-21T07:27:13.999Z</time>
      </trkpt>
      <trkpt lat="42.61793" lon="2.78761">
        <ele>105.8</ele>
        <time>2024-09-21T07:27:18.999Z</time>
      </trkpt>
      <trkpt lat="42.61792" lon="2.78782">
        <ele>106.08</ele>
        <time>2024-09-21T07:27:23.999Z</time>
      </trkpt>
      <trkpt lat="42.6179" lon="2.78804">
        <ele>106.36</ele>
        <time>2024-09-21T07:27:28.999Z</time>
      </trkpt>
      <trkpt lat="42.61788" lon="2.78827">
        <ele>107.02</ele>
        <time>2024-09-21T07:27:33.999Z</time>
      </trkpt>
      <trkpt lat="42.61786" lon="2.78855">
        <ele>108.75</ele>
        <time>2024-09-21T07:27:38.999Z</time>
      </trkpt>
      <trkpt lat="42.61784" lon="2.78885">
        <ele>109.54</ele>
        <time>2024-09-21T07:27:43.999Z</time>
      </trkpt>
      <trkpt lat="42.61782" lon="2.78913">
        <ele>109.98</ele>
        <time>2024-09-21T07:27:48.999Z</time>
      </trkpt>
      <trkpt lat="42.6178" lon="2.7894">
        <ele>110.3</ele>
        <time>2024-09-21T07:27:53.999Z</time>
      </trkpt>
      <trkpt lat="42.61778" lon="2.78968">
        <ele>110.6</ele>
        <time>2024-09-21T07:27:58.999Z</time>
      </trkpt>
      <trkpt lat="42.61775" lon="2.78998">
        <ele>110.87</ele>
        <time>2024-09-21T07:28:03.999Z</time>
      </trkpt>
      <trkpt lat="42.61772" lon="2.79022">
        <ele>110.99</ele>
        <time>2024-09-21T07:28:08.999Z</time>
      </trkpt>
      <trkpt lat="42.61762" lon="2.79018">
        <ele>111.08</ele>
        <time>2024-09-21T07:29:38.999Z</time>
      </trkpt>
      <trkpt lat="42.61745" lon="2.79011">
        <ele>111.11</ele>
        <time>2024-09-21T07:29:43.999Z</time>
      </trkpt>
      <trkpt lat="42.61732" lon="2.79001">
        <ele>111.15</ele>
        <time>2024-09-21T07:29:48.999Z</time>
      </trkpt>
      <trkpt lat="42.61717" lon="2.7899">
        <ele>111.21</ele>
        <time>2024-09-21T07:29:53.999Z</time>
      </trkpt>
      <trkpt lat="42.61703" lon="2.78974">
        <ele>111.29</ele>
        <time>2024-09-21T07:29:58.999Z</time>
      </trkpt>
      <trkpt lat="42.61693" lon="2.78959">
        <ele>111.39</ele>
        <time>2024-09-21T07:30:03.999Z</time>
      </trkpt>
      <trkpt lat="42.61685" lon="2.78945">
        <ele>111.5</ele>
        <time>2024-09-21T07:30:08.999Z</time>
      </trkpt>
      <trkpt lat="42.61679" lon="2.78934">
        <ele>111.62</ele>
        <time>2024-09-21T07:30:13.999Z</time>
      </trkpt>
      <trkpt lat="42.61672" lon="2.78921">
        <ele>111.76</ele>
        <time>2024-09-21T07:30:18.999Z</time>
      </trkpt>
      <trkpt lat="42.61665" lon="2.7891">
        <ele>111.91</ele>
        <time>2024-09-21T07:30:23.999Z</time>
      </trkpt>
      <trkpt lat="42.6167" lon="2.78923">
        <ele>112.07</ele>
        <time>2024-09-21T07:30:28.999Z</time>
      </trkpt>
      <trkpt lat="42.61679" lon="2.78939">
        <ele>112.24</ele>
        <time>2024-09-21T07:30:33.999Z</time>
      </trkpt>
      <trkpt lat="42.61673" lon="2.78958">
        <ele>112.41</ele>
        <time>2024-09-21T07:30:38.999Z</time>
      </trkpt>
      <trkpt lat="42.61662" lon="2.78975">
        <ele>112.56</ele>
        <time>2024-09-21T07:30:43.999Z</time>
      </trkpt>
      <trkpt lat="42.6165" lon="2.78991">
        <ele>112.7</ele>
        <time>2024-09-21T07:30:48.999Z</time>
      </trkpt>
      <trkpt lat="42.61638" lon="2.79008">
        <ele>112.84</ele>
        <time>2024-09-21T07:30:53.999Z</time>
      </trkpt>
      <trkpt lat="42.61626" lon="2.79025">
        <ele>112.96</ele>
        <time>2024-09-21T07:30:58.999Z</time>
      </trkpt>
      <trkpt lat="42.61613" lon="2.79042">
        <ele>113.07</ele>
        <time>2024-09-21T07:31:03.999Z</time>
      </trkpt>
      <trkpt lat="42.61601" lon="2.79059">
        <ele>113.17</ele>
        <time>2024-09-21T07:31:08.999Z</time>
      </trkpt>
      <trkpt lat="42.61587" lon="2.79078">
        <ele>113.8</ele>
        <time>2024-09-21T07:31:13.999Z</time>
      </trkpt>
      <trkpt lat="42.61573" lon="2.79098">
        <ele>114.03</ele>
        <time>2024-09-21T07:31:18.999Z</time>
      </trkpt>
      <trkpt lat="42.61558" lon="2.79119">
        <ele>114.1</ele>
        <time>2024-09-21T07:31:23.999Z</time>
      </trkpt>
      <trkpt lat="42.61542" lon="2.79141">
        <ele>114.13</ele>
        <time>2024-09-21T07:31:28.999Z</time>
      </trkpt>
      <trkpt lat="42.61526" lon="2.79163">
        <ele>114.13</ele>
        <time>2024-09-21T07:31:33.999Z</time>
      </trkpt>
      <trkpt lat="42.61516" lon="2.79176">
        <ele>114.13</ele>
        <time>2024-09-21T07:31:38.999Z</time>
      </trkpt>
      <trkpt lat="42.61509" lon="2.79187">
        <ele>114.13</ele>
        <time>2024-09-21T07:31:47.999Z</time>
      </trkpt>
      <trkpt lat="42.61496" lon="2.79205">
        <ele>114.12</ele>
        <time>2024-09-21T07:31:52.999Z</time>
      </trkpt>
      <trkpt lat="42.6148" lon="2.79227">
        <ele>114.09</ele>
        <time>2024-09-21T07:31:58.000Z</time>
      </trkpt>
      <trkpt lat="42.61463" lon="2.7925">
        <ele>114.07</ele>
        <time>2024-09-21T07:32:03.000Z</time>
      </trkpt>
      <trkpt lat="42.61446" lon="2.79273">
        <ele>114.05</ele>
        <time>2024-09-21T07:32:08.000Z</time>
      </trkpt>
      <trkpt lat="42.6143" lon="2.79297">
        <ele>114.02</ele>
        <time>2024-09-21T07:32:13.000Z</time>
      </trkpt>
      <trkpt lat="42.61412" lon="2.7932">
        <ele>114.01</ele>
        <time>2024-09-21T07:32:18.000Z</time>
      </trkpt>
      <trkpt lat="42.61396" lon="2.79344">
        <ele>114.02</ele>
        <time>2024-09-21T07:32:23.000Z</time>
      </trkpt>
      <trkpt lat="42.6138" lon="2.79366">
        <ele>114.04</ele>
        <time>2024-09-21T07:32:28.000Z</time>
      </trkpt>
      <trkpt lat="42.61363" lon="2.79389">
        <ele>114.06</ele>
        <time>2024-09-21T07:32:33.000Z</time>
      </trkpt>
      <trkpt lat="42.61347" lon="2.79413">
        <ele>114.07</ele>
        <time>2024-09-21T07:32:38.000Z</time>
      </trkpt>
      <trkpt lat="42.61331" lon="2.79439">
        <ele>114.1</ele>
        <time>2024-09-21T07:32:43.000Z</time>
      </trkpt>
      <trkpt lat="42.61319" lon="2.79464">
        <ele>114.13</ele>
        <time>2024-09-21T07:32:48.000Z</time>
      </trkpt>
      <trkpt lat="42.61308" lon="2.79492">
        <ele>114.17</ele>
        <time>2024-09-21T07:32:53.000Z</time>
      </trkpt>
      <trkpt lat="42.61299" lon="2.79519">
        <ele>114.22</ele>
        <time>2024-09-21T07:32:58.000Z</time>
      </trkpt>
      <trkpt lat="42.61291" lon="2.79547">
        <ele>114.25</ele>
        <time>2024-09-21T07:33:03.000Z</time>
      </trkpt>
      <trkpt lat="42.61283" lon="2.79576">
        <ele>114.28</ele>
        <time>2024-09-21T07:33:08.000Z</time>
      </trkpt>
      <trkpt lat="42.61274" lon="2.79604">
        <ele>114.3</ele>
        <time>2024-09-21T07:33:13.000Z</time>
      </trkpt>
      <trkpt lat="42.61268" lon="2.79627">
        <ele>114.32</ele>
        <time>2024-09-21T07:33:18.000Z</time>
      </trkpt>
      <trkpt lat="42.61266" lon="2.79642">
        <ele>114.33</ele>
        <time>2024-09-21T07:33:23.000Z</time>
      </trkpt>
      <trkpt lat="42.61276" lon="2.79652">
        <ele>114.35</ele>
        <time>2024-09-21T07:33:28.000Z</time>
      </trkpt>
      <trkpt lat="42.61281" lon="2.79663">
        <ele>114.39</ele>
        <time>2024-09-21T07:33:39.000Z</time>
      </trkpt>
      <trkpt lat="42.61291" lon="2.79683">
        <ele>114.49</ele>
        <time>2024-09-21T07:33:44.000Z</time>
      </trkpt>
      <trkpt lat="42.61304" lon="2.79707">
        <ele>114.78</ele>
        <time>2024-09-21T07:33:49.000Z</time>
      </trkpt>
      <trkpt lat="42.61317" lon="2.79732">
        <ele>114.94</ele>
        <time>2024-09-21T07:33:54.000Z</time>
      </trkpt>
      <trkpt lat="42.61324" lon="2.79758">
        <ele>115.01</ele>
        <time>2024-09-21T07:33:59.000Z</time>
      </trkpt>
      <trkpt lat="42.61308" lon="2.79778">
        <ele>114.98</ele>
        <time>2024-09-21T07:34:04.000Z</time>
      </trkpt>
      <trkpt lat="42.61312" lon="2.79804">
        <ele>114.98</ele>
        <time>2024-09-21T07:34:09.000Z</time>
      </trkpt>
      <trkpt lat="42.61326" lon="2.79828">
        <ele>115.02</ele>
        <time>2024-09-21T07:34:14.000Z</time>
      </trkpt>
      <trkpt lat="42.61341" lon="2.79853">
        <ele>115.07</ele>
        <time>2024-09-21T07:34:19.000Z</time>
      </trkpt>
      <trkpt lat="42.61358" lon="2.79879">
        <ele>115.11</ele>
        <time>2024-09-21T07:34:24.000Z</time>
      </trkpt>
      <trkpt lat="42.61374" lon="2.79906">
        <ele>115.15</ele>
        <time>2024-09-21T07:34:29.000Z</time>
      </trkpt>
      <trkpt lat="42.6139" lon="2.79931">
        <ele>115.18</ele>
        <time>2024-09-21T07:34:34.000Z</time>
      </trkpt>
      <trkpt lat="42.61405" lon="2.79956">
        <ele>115.22</ele>
        <time>2024-09-21T07:34:39.000Z</time>
      </trkpt>
      <trkpt lat="42.61419" lon="2.79978">
        <ele>115.28</ele>
        <time>2024-09-21T07:34:44.000Z</time>
      </trkpt>
      <trkpt lat="42.6142" lon="2.80002">
        <ele>115.3</ele>
        <time>2024-09-21T07:34:49.000Z</time>
      </trkpt>
      <trkpt lat="42.61406" lon="2.80016">
        <ele>115.29</ele>
        <time>2024-09-21T07:34:54.000Z</time>
      </trkpt>
      <trkpt lat="42.61391" lon="2.80032">
        <ele>115.27</ele>
        <time>2024-09-21T07:34:59.000Z</time>
      </trkpt>
      <trkpt lat="42.61373" lon="2.80051">
        <ele>115.25</ele>
        <time>2024-09-21T07:35:04.000Z</time>
      </trkpt>
      <trkpt lat="42.61357" lon="2.80073">
        <ele>115.24</ele>
        <time>2024-09-21T07:35:09.000Z</time>
      </trkpt>
      <trkpt lat="42.61341" lon="2.80099">
        <ele>115.22</ele>
        <time>2024-09-21T07:35:14.000Z</time>
      </trkpt>
      <trkpt lat="42.61321" lon="2.80128">
        <ele>115.15</ele>
        <time>2024-09-21T07:35:19.000Z</time>
      </trkpt>
      <trkpt lat="42.61297" lon="2.80161">
        <ele>115.06</ele>
        <time>2024-09-21T07:35:24.000Z</time>
      </trkpt>
      <trkpt lat="42.61277" lon="2.80197">
        <ele>114.97</ele>
        <time>2024-09-21T07:35:29.000Z</time>
      </trkpt>
      <trkpt lat="42.61267" lon="2.80236">
        <ele>114.82</ele>
        <time>2024-09-21T07:35:34.000Z</time>
      </trkpt>
      <trkpt lat="42.61261" lon="2.80274">
        <ele>114.68</ele>
        <time>2024-09-21T07:35:39.000Z</time>
      </trkpt>
      <trkpt lat="42.61256" lon="2.80314">
        <ele>114.49</ele>
        <time>2024-09-21T07:35:44.000Z</time>
      </trkpt>
      <trkpt lat="42.61251" lon="2.80358">
        <ele>114.26</ele>
        <time>2024-09-21T07:35:49.000Z</time>
      </trkpt>
      <trkpt lat="42.61247" lon="2.804">
        <ele>113.89</ele>
        <time>2024-09-21T07:35:54.000Z</time>
      </trkpt>
      <trkpt lat="42.61243" lon="2.80446">
        <ele>113.26</ele>
        <time>2024-09-21T07:35:59.000Z</time>
      </trkpt>
      <trkpt lat="42.61219" lon="2.8049">
        <ele>112.51</ele>
        <time>2024-09-21T07:36:04.000Z</time>
      </trkpt>
      <trkpt lat="42.61195" lon="2.80539">
        <ele>111.82</ele>
        <time>2024-09-21T07:36:09.000Z</time>
      </trkpt>
      <trkpt lat="42.61166" lon="2.80574">
        <ele>111.27</ele>
        <time>2024-09-21T07:36:14.000Z</time>
      </trkpt>
      <trkpt lat="42.61142" lon="2.8061">
        <ele>110.63</ele>
        <time>2024-09-21T07:36:19.000Z</time>
      </trkpt>
      <trkpt lat="42.61125" lon="2.80646">
        <ele>109.81</ele>
        <time>2024-09-21T07:36:24.000Z</time>
      </trkpt>
      <trkpt lat="42.61114" lon="2.80683">
        <ele>109.69</ele>
        <time>2024-09-21T07:36:29.000Z</time>
      </trkpt>
      <trkpt lat="42.61101" lon="2.80707">
        <ele>109.28</ele>
        <time>2024-09-21T07:36:34.000Z</time>
      </trkpt>
      <trkpt lat="42.61091" lon="2.80721">
        <ele>109.12</ele>
        <time>2024-09-21T07:36:39.000Z</time>
      </trkpt>
      <trkpt lat="42.61082" lon="2.80731">
        <ele>108.99</ele>
        <time>2024-09-21T07:36:44.000Z</time>
      </trkpt>
      <trkpt lat="42.61072" lon="2.80743">
        <ele>108.87</ele>
        <time>2024-09-21T07:36:49.000Z</time>
      </trkpt>
      <trkpt lat="42.61062" lon="2.80754">
        <ele>108.78</ele>
        <time>2024-09-21T07:36:54.000Z</time>
      </trkpt>
      <trkpt lat="42.61051" lon="2.80763">
        <ele>108.73</ele>
        <time>2024-09-21T07:36:59.000Z</time>
      </trkpt>
      <trkpt lat="42.61041" lon="2.80774">
        <ele>108.74</ele>
        <time>2024-09-21T07:37:04.000Z</time>
      </trkpt>
      <trkpt lat="42.61033" lon="2.80786">
        <ele>108.72</ele>
        <time>2024-09-21T07:37:09.000Z</time>
      </trkpt>
      <trkpt lat="42.61027" lon="2.80801">
        <ele>108.66</ele>
        <time>2024-09-21T07:37:14.000Z</time>
      </trkpt>
      <trkpt lat="42.6102" lon="2.80815">
        <ele>108.6</ele>
        <time>2024-09-21T07:37:19.000Z</time>
      </trkpt>
      <trkpt lat="42.61013" lon="2.80831">
        <ele>108.53</ele>
        <time>2024-09-21T07:37:24.000Z</time>
      </trkpt>
      <trkpt lat="42.61011" lon="2.80843">
        <ele>108.47</ele>
        <time>2024-09-21T07:37:29.000Z</time>
      </trkpt>
      <trkpt lat="42.61013" lon="2.80857">
        <ele>107.13</ele>
        <time>2024-09-21T07:39:18.000Z</time>
      </trkpt>
      <trkpt lat="42.61014" lon="2.80878">
        <ele>106.81</ele>
        <time>2024-09-21T07:39:23.000Z</time>
      </trkpt>
      <trkpt lat="42.61015" lon="2.80899">
        <ele>106.5</ele>
        <time>2024-09-21T07:39:28.000Z</time>
      </trkpt>
      <trkpt lat="42.61011" lon="2.80918">
        <ele>106.19</ele>
        <time>2024-09-21T07:39:33.000Z</time>
      </trkpt>
      <trkpt lat="42.61005" lon="2.80933">
        <ele>105.89</ele>
        <time>2024-09-21T07:39:38.000Z</time>
      </trkpt>
      <trkpt lat="42.60992" lon="2.80947">
        <ele>105.61</ele>
        <time>2024-09-21T07:39:43.000Z</time>
      </trkpt>
      <trkpt lat="42.60977" lon="2.80962">
        <ele>105.32</ele>
        <time>2024-09-21T07:39:48.000Z</time>
      </trkpt>
      <trkpt lat="42.60961" lon="2.80978">
        <ele>105.06</ele>
        <time>2024-09-21T07:39:53.000Z</time>
      </trkpt>
      <trkpt lat="42.60947" lon="2.80994">
        <ele>104.88</ele>
        <time>2024-09-21T07:39:58.000Z</time>
      </trkpt>
      <trkpt lat="42.60934" lon="2.81008">
        <ele>104.73</ele>
        <time>2024-09-21T07:40:03.000Z</time>
      </trkpt>
      <trkpt lat="42.60924" lon="2.81024">
        <ele>104.6</ele>
        <time>2024-09-21T07:40:08.000Z</time>
      </trkpt>
      <trkpt lat="42.60917" lon="2.81044">
        <ele>104.49</ele>
        <time>2024-09-21T07:40:13.000Z</time>
      </trkpt>
      <trkpt lat="42.60911" lon="2.81066">
        <ele>104.4</ele>
        <time>2024-09-21T07:40:18.000Z</time>
      </trkpt>
      <trkpt lat="42.60907" lon="2.81087">
        <ele>104.33</ele>
        <time>2024-09-21T07:40:23.000Z</time>
      </trkpt>
      <trkpt lat="42.60903" lon="2.81111">
        <ele>104.28</ele>
        <time>2024-09-21T07:40:28.000Z</time>
      </trkpt>
      <trkpt lat="42.60899" lon="2.81131">
        <ele>104.24</ele>
        <time>2024-09-21T07:40:33.000Z</time>
      </trkpt>
      <trkpt lat="42.60895" lon="2.81152">
        <ele>104.23</ele>
        <time>2024-09-21T07:40:38.000Z</time>
      </trkpt>
      <trkpt lat="42.6089" lon="2.81176">
        <ele>104.23</ele>
        <time>2024-09-21T07:40:43.000Z</time>
      </trkpt>
      <trkpt lat="42.60884" lon="2.81198">
        <ele>104.23</ele>
        <time>2024-09-21T07:40:48.000Z</time>
      </trkpt>
      <trkpt lat="42.60879" lon="2.8122">
        <ele>104.26</ele>
        <time>2024-09-21T07:40:53.000Z</time>
      </trkpt>
      <trkpt lat="42.60876" lon="2.81242">
        <ele>104.29</ele>
        <time>2024-09-21T07:40:58.000Z</time>
      </trkpt>
      <trkpt lat="42.60874" lon="2.81266">
        <ele>104.34</ele>
        <time>2024-09-21T07:41:03.000Z</time>
      </trkpt>
      <trkpt lat="42.60872" lon="2.8129">
        <ele>104.45</ele>
        <time>2024-09-21T07:41:08.000Z</time>
      </trkpt>
      <trkpt lat="42.60871" lon="2.81314">
        <ele>104.63</ele>
        <time>2024-09-21T07:41:13.000Z</time>
      </trkpt>
      <trkpt lat="42.60871" lon="2.81338">
        <ele>104.82</ele>
        <time>2024-09-21T07:41:18.000Z</time>
      </trkpt>
      <trkpt lat="42.6087" lon="2.81362">
        <ele>105.04</ele>
        <time>2024-09-21T07:41:23.000Z</time>
      </trkpt>
      <trkpt lat="42.60867" lon="2.81382">
        <ele>105.3</ele>
        <time>2024-09-21T07:41:28.000Z</time>
      </trkpt>
      <trkpt lat="42.60866" lon="2.81397">
        <ele>105.54</ele>
        <time>2024-09-21T07:41:33.000Z</time>
      </trkpt>
      <trkpt lat="42.6086" lon="2.81415">
        <ele>105.77</ele>
        <time>2024-09-21T07:41:38.000Z</time>
      </trkpt>
      <trkpt lat="42.60851" lon="2.81433">
        <ele>105.97</ele>
        <time>2024-09-21T07:41:43.000Z</time>
      </trkpt>
      <trkpt lat="42.60842" lon="2.81451">
        <ele>106.15</ele>
        <time>2024-09-21T07:41:48.000Z</time>
      </trkpt>
      <trkpt lat="42.60833" lon="2.81468">
        <ele>106.32</ele>
        <time>2024-09-21T07:41:53.000Z</time>
      </trkpt>
      <trkpt lat="42.60824" lon="2.81484">
        <ele>106.47</ele>
        <time>2024-09-21T07:41:58.000Z</time>
      </trkpt>
      <trkpt lat="42.60816" lon="2.815">
        <ele>106.6</ele>
        <time>2024-09-21T07:42:03.000Z</time>
      </trkpt>
      <trkpt lat="42.60808" lon="2.81515">
        <ele>106.72</ele>
        <time>2024-09-21T07:42:08.000Z</time>
      </trkpt>
      <trkpt lat="42.60799" lon="2.81531">
        <ele>106.83</ele>
        <time>2024-09-21T07:42:13.000Z</time>
      </trkpt>
      <trkpt lat="42.6079" lon="2.81551">
        <ele>106.92</ele>
        <time>2024-09-21T07:42:18.000Z</time>
      </trkpt>
      <trkpt lat="42.6078" lon="2.81571">
        <ele>107.1</ele>
        <time>2024-09-21T07:42:23.000Z</time>
      </trkpt>
      <trkpt lat="42.6077" lon="2.81594">
        <ele>107.56</ele>
        <time>2024-09-21T07:42:28.000Z</time>
      </trkpt>
      <trkpt lat="42.6076" lon="2.81619">
        <ele>107.77</ele>
        <time>2024-09-21T07:42:33.000Z</time>
      </trkpt>
      <trkpt lat="42.60749" lon="2.81642">
        <ele>107.88</ele>
        <time>2024-09-21T07:42:38.000Z</time>
      </trkpt>
      <trkpt lat="42.60737" lon="2.81665">
        <ele>107.97</ele>
        <time>2024-09-21T07:42:43.000Z</time>
      </trkpt>
      <trkpt lat="42.60726" lon="2.81687">
        <ele>108.03</ele>
        <time>2024-09-21T07:42:48.000Z</time>
      </trkpt>
      <trkpt lat="42.60717" lon="2.81709">
        <ele>108.05</ele>
        <time>2024-09-21T07:42:53.000Z</time>
      </trkpt>
      <trkpt lat="42.6071" lon="2.81731">
        <ele>108.06</ele>
        <time>2024-09-21T07:42:58.000Z</time>
      </trkpt>
      <trkpt lat="42.60703" lon="2.81752">
        <ele>108.08</ele>
        <time>2024-09-21T07:43:03.000Z</time>
      </trkpt>
      <trkpt lat="42.60695" lon="2.81773">
        <ele>108.1</ele>
        <time>2024-09-21T07:43:08.000Z</time>
      </trkpt>
      <trkpt lat="42.60686" lon="2.81794">
        <ele>108.12</ele>
        <time>2024-09-21T07:43:13.000Z</time>
      </trkpt>
      <trkpt lat="42.60675" lon="2.81815">
        <ele>108.33</ele>
        <time>2024-09-21T07:43:18.000Z</time>
      </trkpt>
      <trkpt lat="42.60664" lon="2.81836">
        <ele>108.49</ele>
        <time>2024-09-21T07:43:23.000Z</time>
      </trkpt>
      <trkpt lat="42.60652" lon="2.81859">
        <ele>108.57</ele>
        <time>2024-09-21T07:43:28.000Z</time>
      </trkpt>
      <trkpt lat="42.60643" lon="2.81888">
        <ele>108.64</ele>
        <time>2024-09-21T07:43:33.000Z</time>
      </trkpt>
      <trkpt lat="42.6064" lon="2.81918">
        <ele>108.72</ele>
        <time>2024-09-21T07:43:38.000Z</time>
      </trkpt>
      <trkpt lat="42.60641" lon="2.81947">
        <ele>108.79</ele>
        <time>2024-09-21T07:43:43.000Z</time>
      </trkpt>
      <trkpt lat="42.6064" lon="2.81968">
        <ele>108.8</ele>
        <time>2024-09-21T07:43:48.000Z</time>
      </trkpt>
      <trkpt lat="42.60639" lon="2.81984">
        <ele>108.82</ele>
        <time>2024-09-21T07:43:53.000Z</time>
      </trkpt>
      <trkpt lat="42.60634" lon="2.82001">
        <ele>108.85</ele>
        <time>2024-09-21T07:43:58.000Z</time>
      </trkpt>
      <trkpt lat="42.60624" lon="2.82021">
        <ele>108.88</ele>
        <time>2024-09-21T07:44:03.999Z</time>
      </trkpt>
      <trkpt lat="42.60618" lon="2.82035">
        <ele>108.91</ele>
        <time>2024-09-21T07:44:08.999Z</time>
      </trkpt>
      <trkpt lat="42.60611" lon="2.82047">
        <ele>108.93</ele>
        <time>2024-09-21T07:44:13.999Z</time>
      </trkpt>
      <trkpt lat="42.60604" lon="2.82057">
        <ele>108.96</ele>
        <time>2024-09-21T07:44:18.999Z</time>
      </trkpt>
      <trkpt lat="42.60597" lon="2.82069">
        <ele>108.98</ele>
        <time>2024-09-21T07:44:23.999Z</time>
      </trkpt>
      <trkpt lat="42.60588" lon="2.8208">
        <ele>109.01</ele>
        <time>2024-09-21T07:44:28.999Z</time>
      </trkpt>
      <trkpt lat="42.60579" lon="2.82091">
        <ele>109.05</ele>
        <time>2024-09-21T07:44:33.999Z</time>
      </trkpt>
      <trkpt lat="42.60569" lon="2.82102">
        <ele>109.08</ele>
        <time>2024-09-21T07:44:38.999Z</time>
      </trkpt>
      <trkpt lat="42.60559" lon="2.82112">
        <ele>109.12</ele>
        <time>2024-09-21T07:44:43.999Z</time>
      </trkpt>
      <trkpt lat="42.60548" lon="2.82122">
        <ele>109.16</ele>
        <time>2024-09-21T07:44:48.999Z</time>
      </trkpt>
      <trkpt lat="42.60537" lon="2.82132">
        <ele>109.2</ele>
        <time>2024-09-21T07:44:53.999Z</time>
      </trkpt>
      <trkpt lat="42.60524" lon="2.82141">
        <ele>109.25</ele>
        <time>2024-09-21T07:44:58.999Z</time>
      </trkpt>
      <trkpt lat="42.60509" lon="2.82154">
        <ele>109.44</ele>
        <time>2024-09-21T07:45:03.999Z</time>
      </trkpt>
      <trkpt lat="42.6049" lon="2.82169">
        <ele>109.76</ele>
        <time>2024-09-21T07:45:08.999Z</time>
      </trkpt>
      <trkpt lat="42.60467" lon="2.82186">
        <ele>109.94</ele>
        <time>2024-09-21T07:45:13.999Z</time>
      </trkpt>
      <trkpt lat="42.60441" lon="2.82206">
        <ele>110.03</ele>
        <time>2024-09-21T07:45:18.999Z</time>
      </trkpt>
      <trkpt lat="42.60413" lon="2.82227">
        <ele>110.03</ele>
        <time>2024-09-21T07:45:23.999Z</time>
      </trkpt>
      <trkpt lat="42.60388" lon="2.82254">
        <ele>110.21</ele>
        <time>2024-09-21T07:45:28.999Z</time>
      </trkpt>
      <trkpt lat="42.60373" lon="2.82291">
        <ele>110.37</ele>
        <time>2024-09-21T07:45:33.999Z</time>
      </trkpt>
      <trkpt lat="42.6036" lon="2.82327">
        <ele>110.53</ele>
        <time>2024-09-21T07:45:38.999Z</time>
      </trkpt>
      <trkpt lat="42.60349" lon="2.82357">
        <ele>110.65</ele>
        <time>2024-09-21T07:45:43.999Z</time>
      </trkpt>
      <trkpt lat="42.60336" lon="2.82384">
        <ele>110.73</ele>
        <time>2024-09-21T07:45:48.999Z</time>
      </trkpt>
      <trkpt lat="42.60317" lon="2.82411">
        <ele>110.91</ele>
        <time>2024-09-21T07:45:53.999Z</time>
      </trkpt>
      <trkpt lat="42.60293" lon="2.82433">
        <ele>110.61</ele>
        <time>2024-09-21T07:45:58.999Z</time>
      </trkpt>
      <trkpt lat="42.60267" lon="2.82444">
        <ele>110.48</ele>
        <time>2024-09-21T07:46:03.999Z</time>
      </trkpt>
      <trkpt lat="42.60241" lon="2.82448">
        <ele>110.55</ele>
        <time>2024-09-21T07:46:08.999Z</time>
      </trkpt>
      <trkpt lat="42.60215" lon="2.82454">
        <ele>110.59</ele>
        <time>2024-09-21T07:46:13.999Z</time>
      </trkpt>
      <trkpt lat="42.60192" lon="2.8247">
        <ele>110.69</ele>
        <time>2024-09-21T07:46:18.999Z</time>
      </trkpt>
      <trkpt lat="42.60172" lon="2.82492">
        <ele>110.7</ele>
        <time>2024-09-21T07:46:23.999Z</time>
      </trkpt>
      <trkpt lat="42.60156" lon="2.82514">
        <ele>110.71</ele>
        <time>2024-09-21T07:46:28.999Z</time>
      </trkpt>
      <trkpt lat="42.6014" lon="2.82536">
        <ele>110.7</ele>
        <time>2024-09-21T07:46:33.999Z</time>
      </trkpt>
      <trkpt lat="42.60122" lon="2.82554">
        <ele>110.72</ele>
        <time>2024-09-21T07:46:38.999Z</time>
      </trkpt>
      <trkpt lat="42.60102" lon="2.82568">
        <ele>110.73</ele>
        <time>2024-09-21T07:46:43.999Z</time>
      </trkpt>
      <trkpt lat="42.6008" lon="2.82581">
        <ele>110.71</ele>
        <time>2024-09-21T07:46:48.999Z</time>
      </trkpt>
      <trkpt lat="42.60058" lon="2.82595">
        <ele>110.65</ele>
        <time>2024-09-21T07:46:53.999Z</time>
      </trkpt>
      <trkpt lat="42.60032" lon="2.82608">
        <ele>110.61</ele>
        <time>2024-09-21T07:46:58.999Z</time>
      </trkpt>
      <trkpt lat="42.6" lon="2.82618">
        <ele>110.45</ele>
        <time>2024-09-21T07:47:03.999Z</time>
      </trkpt>
      <trkpt lat="42.59963" lon="2.82631">
        <ele>109.87</ele>
        <time>2024-09-21T07:47:08.999Z</time>
      </trkpt>
      <trkpt lat="42.59923" lon="2.82645">
        <ele>109.13</ele>
        <time>2024-09-21T07:47:13.999Z</time>
      </trkpt>
      <trkpt lat="42.59879" lon="2.82662">
        <ele>108.59</ele>
        <time>2024-09-21T07:47:18.999Z</time>
      </trkpt>
      <trkpt lat="42.59835" lon="2.82686">
        <ele>108.25</ele>
        <time>2024-09-21T07:47:23.999Z</time>
      </trkpt>
      <trkpt lat="42.59794" lon="2.8271">
        <ele>107.9</ele>
        <time>2024-09-21T07:47:28.999Z</time>
      </trkpt>
      <trkpt lat="42.59764" lon="2.82744">
        <ele>107.49</ele>
        <time>2024-09-21T07:47:33.999Z</time>
      </trkpt>
      <trkpt lat="42.5974" lon="2.82783">
        <ele>106.76</ele>
        <time>2024-09-21T07:47:38.999Z</time>
      </trkpt>
      <trkpt lat="42.59716" lon="2.82821">
        <ele>106.19</ele>
        <time>2024-09-21T07:47:43.999Z</time>
      </trkpt>
      <trkpt lat="42.59695" lon="2.82856">
        <ele>105.6</ele>
        <time>2024-09-21T07:47:48.999Z</time>
      </trkpt>
      <trkpt lat="42.59676" lon="2.82886">
        <ele>105.07</ele>
        <time>2024-09-21T07:47:53.999Z</time>
      </trkpt>
      <trkpt lat="42.5966" lon="2.82914">
        <ele>104.53</ele>
        <time>2024-09-21T07:47:58.999Z</time>
      </trkpt>
      <trkpt lat="42.59644" lon="2.82939">
        <ele>103.98</ele>
        <time>2024-09-21T07:48:03.999Z</time>
      </trkpt>
      <trkpt lat="42.59629" lon="2.8296">
        <ele>103.86</ele>
        <time>2024-09-21T07:48:08.999Z</time>
      </trkpt>
      <trkpt lat="42.59612" lon="2.82977">
        <ele>103.5</ele>
        <time>2024-09-21T07:48:13.999Z</time>
      </trkpt>
      <trkpt lat="42.59594" lon="2.82993">
        <ele>103.04</ele>
        <time>2024-09-21T07:48:18.999Z</time>
      </trkpt>
      <trkpt lat="42.59578" lon="2.83011">
        <ele>102.65</ele>
        <time>2024-09-21T07:48:23.999Z</time>
      </trkpt>
      <trkpt lat="42.59566" lon="2.83039">
        <ele>102.2</ele>
        <time>2024-09-21T07:48:28.999Z</time>
      </trkpt>
      <trkpt lat="42.59557" lon="2.83072">
        <ele>101.79</ele>
        <time>2024-09-21T07:48:33.999Z</time>
      </trkpt>
      <trkpt lat="42.59545" lon="2.83109">
        <ele>101.56</ele>
        <time>2024-09-21T07:48:38.999Z</time>
      </trkpt>
      <trkpt lat="42.59534" lon="2.83146">
        <ele>101.39</ele>
        <time>2024-09-21T07:48:43.999Z</time>
      </trkpt>
      <trkpt lat="42.59523" lon="2.83182">
        <ele>101.29</ele>
        <time>2024-09-21T07:48:48.999Z</time>
      </trkpt>
      <trkpt lat="42.59509" lon="2.83214">
        <ele>101.21</ele>
        <time>2024-09-21T07:48:53.999Z</time>
      </trkpt>
      <trkpt lat="42.59491" lon="2.83244">
        <ele>101.14</ele>
        <time>2024-09-21T07:48:58.999Z</time>
      </trkpt>
      <trkpt lat="42.59475" lon="2.83271">
        <ele>101.04</ele>
        <time>2024-09-21T07:49:03.999Z</time>
      </trkpt>
      <trkpt lat="42.5946" lon="2.83298">
        <ele>100.92</ele>
        <time>2024-09-21T07:49:08.999Z</time>
      </trkpt>
      <trkpt lat="42.59445" lon="2.83323">
        <ele>100.79</ele>
        <time>2024-09-21T07:49:13.999Z</time>
      </trkpt>
      <trkpt lat="42.5943" lon="2.83348">
        <ele>100.67</ele>
        <time>2024-09-21T07:49:18.999Z</time>
      </trkpt>
      <trkpt lat="42.59415" lon="2.83374">
        <ele>100.55</ele>
        <time>2024-09-21T07:49:23.999Z</time>
      </trkpt>
      <trkpt lat="42.594" lon="2.834">
        <ele>100.44</ele>
        <time>2024-09-21T07:49:28.999Z</time>
      </trkpt>
      <trkpt lat="42.59385" lon="2.83424">
        <ele>100.36</ele>
        <time>2024-09-21T07:49:33.999Z</time>
      </trkpt>
      <trkpt lat="42.59367" lon="2.83446">
        <ele>100.3</ele>
        <time>2024-09-21T07:49:38.999Z</time>
      </trkpt>
      <trkpt lat="42.59347" lon="2.83464">
        <ele>100.25</ele>
        <time>2024-09-21T07:49:43.999Z</time>
      </trkpt>
      <trkpt lat="42.59328" lon="2.83482">
        <ele>100.21</ele>
        <time>2024-09-21T07:49:48.999Z</time>
      </trkpt>
      <trkpt lat="42.59309" lon="2.835">
        <ele>100.19</ele>
        <time>2024-09-21T07:49:53.999Z</time>
      </trkpt>
      <trkpt lat="42.5929" lon="2.83516">
        <ele>100.15</ele>
        <time>2024-09-21T07:49:58.999Z</time>
      </trkpt>
      <trkpt lat="42.59273" lon="2.83533">
        <ele>100.1</ele>
        <time>2024-09-21T07:50:03.999Z</time>
      </trkpt>
      <trkpt lat="42.59253" lon="2.83548">
        <ele>100.06</ele>
        <time>2024-09-21T07:50:08.999Z</time>
      </trkpt>
      <trkpt lat="42.59231" lon="2.83555">
        <ele>100.02</ele>
        <time>2024-09-21T07:50:13.999Z</time>
      </trkpt>
      <trkpt lat="42.5921" lon="2.83558">
        <ele>99.92</ele>
        <time>2024-09-21T07:50:18.999Z</time>
      </trkpt>
      <trkpt lat="42.59187" lon="2.83562">
        <ele>99.72</ele>
        <time>2024-09-21T07:50:23.999Z</time>
      </trkpt>
      <trkpt lat="42.59163" lon="2.83567">
        <ele>99.49</ele>
        <time>2024-09-21T07:50:28.999Z</time>
      </trkpt>
      <trkpt lat="42.59139" lon="2.83572">
        <ele>99.25</ele>
        <time>2024-09-21T07:50:33.999Z</time>
      </trkpt>
      <trkpt lat="42.59117" lon="2.83581">
        <ele>98.98</ele>
        <time>2024-09-21T07:50:38.999Z</time>
      </trkpt>
      <trkpt lat="42.59097" lon="2.83595">
        <ele>98.72</ele>
        <time>2024-09-21T07:50:43.999Z</time>
      </trkpt>
      <trkpt lat="42.5908" lon="2.83606">
        <ele>98.59</ele>
        <time>2024-09-21T07:50:48.999Z</time>
      </trkpt>
      <trkpt lat="42.59062" lon="2.83617">
        <ele>98.37</ele>
        <time>2024-09-21T07:50:53.999Z</time>
      </trkpt>
      <trkpt lat="42.59046" lon="2.83628">
        <ele>98.34</ele>
        <time>2024-09-21T07:50:58.999Z</time>
      </trkpt>
      <trkpt lat="42.59036" lon="2.83642">
        <ele>98.31</ele>
        <time>2024-09-21T07:51:03.999Z</time>
      </trkpt>
      <trkpt lat="42.59024" lon="2.83653">
        <ele>98.26</ele>
        <time>2024-09-21T07:51:08.999Z</time>
      </trkpt>
      <trkpt lat="42.5901" lon="2.83652">
        <ele>98.2</ele>
        <time>2024-09-21T07:51:13.999Z</time>
      </trkpt>
      <trkpt lat="42.59004" lon="2.83664">
        <ele>98.14</ele>
        <time>2024-09-21T07:51:18.999Z</time>
      </trkpt>
      <trkpt lat="42.59" lon="2.8368">
        <ele>98.06</ele>
        <time>2024-09-21T07:51:23.999Z</time>
      </trkpt>
      <trkpt lat="42.58996" lon="2.83692">
        <ele>97.94</ele>
        <time>2024-09-21T07:51:48.999Z</time>
      </trkpt>
      <trkpt lat="42.58987" lon="2.83709">
        <ele>97.6</ele>
        <time>2024-09-21T07:51:53.999Z</time>
      </trkpt>
      <trkpt lat="42.58974" lon="2.83734">
        <ele>97.15</ele>
        <time>2024-09-21T07:51:58.999Z</time>
      </trkpt>
      <trkpt lat="42.58959" lon="2.83755">
        <ele>96.96</ele>
        <time>2024-09-21T07:52:03.999Z</time>
      </trkpt>
      <trkpt lat="42.58946" lon="2.83774">
        <ele>96.92</ele>
        <time>2024-09-21T07:52:08.999Z</time>
      </trkpt>
      <trkpt lat="42.58935" lon="2.83795">
        <ele>96.9</ele>
        <time>2024-09-21T07:52:13.999Z</time>
      </trkpt>
      <trkpt lat="42.58934" lon="2.83819">
        <ele>96.88</ele>
        <time>2024-09-21T07:52:18.999Z</time>
      </trkpt>
      <trkpt lat="42.58936" lon="2.83843">
        <ele>96.85</ele>
        <time>2024-09-21T07:52:23.999Z</time>
      </trkpt>
      <trkpt lat="42.58941" lon="2.83869">
        <ele>96.85</ele>
        <time>2024-09-21T07:52:28.999Z</time>
      </trkpt>
      <trkpt lat="42.58929" lon="2.83891">
        <ele>96.81</ele>
        <time>2024-09-21T07:52:33.999Z</time>
      </trkpt>
      <trkpt lat="42.58914" lon="2.83902">
        <ele>96.84</ele>
        <time>2024-09-21T07:52:38.999Z</time>
      </trkpt>
      <trkpt lat="42.58903" lon="2.83911">
        <ele>96.91</ele>
        <time>2024-09-21T07:52:43.999Z</time>
      </trkpt>
      <trkpt lat="42.5889" lon="2.83917">
        <ele>97</ele>
        <time>2024-09-21T07:52:48.999Z</time>
      </trkpt>
      <trkpt lat="42.58875" lon="2.83923">
        <ele>97.11</ele>
        <time>2024-09-21T07:52:53.999Z</time>
      </trkpt>
      <trkpt lat="42.58863" lon="2.83927">
        <ele>97.25</ele>
        <time>2024-09-21T07:52:58.999Z</time>
      </trkpt>
      <trkpt lat="42.58851" lon="2.83932">
        <ele>97.38</ele>
        <time>2024-09-21T07:53:03.999Z</time>
      </trkpt>
      <trkpt lat="42.58837" lon="2.83938">
        <ele>97.5</ele>
        <time>2024-09-21T07:53:08.999Z</time>
      </trkpt>
      <trkpt lat="42.58825" lon="2.83942">
        <ele>97.61</ele>
        <time>2024-09-21T07:53:13.999Z</time>
      </trkpt>
      <trkpt lat="42.58813" lon="2.83947">
        <ele>97.71</ele>
        <time>2024-09-21T07:53:18.999Z</time>
      </trkpt>
      <trkpt lat="42.58801" lon="2.83955">
        <ele>97.78</ele>
        <time>2024-09-21T07:53:23.999Z</time>
      </trkpt>
      <trkpt lat="42.58786" lon="2.83962">
        <ele>97.85</ele>
        <time>2024-09-21T07:53:28.999Z</time>
      </trkpt>
      <trkpt lat="42.58771" lon="2.8397">
        <ele>97.93</ele>
        <time>2024-09-21T07:53:33.999Z</time>
      </trkpt>
      <trkpt lat="42.58758" lon="2.83975">
        <ele>98.03</ele>
        <time>2024-09-21T07:53:38.999Z</time>
      </trkpt>
      <trkpt lat="42.58747" lon="2.83985">
        <ele>98.11</ele>
        <time>2024-09-21T07:53:43.999Z</time>
      </trkpt>
      <trkpt lat="42.58738" lon="2.83999">
        <ele>98.15</ele>
        <time>2024-09-21T07:53:48.999Z</time>
      </trkpt>
      <trkpt lat="42.58725" lon="2.84024">
        <ele>98.13</ele>
        <time>2024-09-21T07:53:53.999Z</time>
      </trkpt>
      <trkpt lat="42.58709" lon="2.84055">
        <ele>98.04</ele>
        <time>2024-09-21T07:53:58.999Z</time>
      </trkpt>
      <trkpt lat="42.5869" lon="2.84091">
        <ele>97.93</ele>
        <time>2024-09-21T07:54:03.999Z</time>
      </trkpt>
      <trkpt lat="42.58672" lon="2.84131">
        <ele>97.68</ele>
        <time>2024-09-21T07:54:08.999Z</time>
      </trkpt>
      <trkpt lat="42.58653" lon="2.8417">
        <ele>97.34</ele>
        <time>2024-09-21T07:54:13.999Z</time>
      </trkpt>
      <trkpt lat="42.58638" lon="2.84203">
        <ele>96.55</ele>
        <time>2024-09-21T07:54:18.999Z</time>
      </trkpt>
      <trkpt lat="42.58627" lon="2.84233">
        <ele>95.84</ele>
        <time>2024-09-21T07:54:23.999Z</time>
      </trkpt>
      <trkpt lat="42.58618" lon="2.84262">
        <ele>95.53</ele>
        <time>2024-09-21T07:54:28.999Z</time>
      </trkpt>
      <trkpt lat="42.58613" lon="2.84292">
        <ele>95.76</ele>
        <time>2024-09-21T07:54:33.999Z</time>
      </trkpt>
      <trkpt lat="42.5861" lon="2.84323">
        <ele>96.2</ele>
        <time>2024-09-21T07:54:38.999Z</time>
      </trkpt>
      <trkpt lat="42.58611" lon="2.84354">
        <ele>96.57</ele>
        <time>2024-09-21T07:54:43.999Z</time>
      </trkpt>
      <trkpt lat="42.58615" lon="2.84383">
        <ele>96.77</ele>
        <time>2024-09-21T07:54:48.999Z</time>
      </trkpt>
      <trkpt lat="42.58621" lon="2.84413">
        <ele>96.85</ele>
        <time>2024-09-21T07:54:53.999Z</time>
      </trkpt>
      <trkpt lat="42.58629" lon="2.8444">
        <ele>96.91</ele>
        <time>2024-09-21T07:54:58.999Z</time>
      </trkpt>
      <trkpt lat="42.58636" lon="2.84463">
        <ele>96.94</ele>
        <time>2024-09-21T07:55:03.999Z</time>
      </trkpt>
      <trkpt lat="42.58642" lon="2.84486">
        <ele>96.94</ele>
        <time>2024-09-21T07:55:08.999Z</time>
      </trkpt>
      <trkpt lat="42.58648" lon="2.84506">
        <ele>96.95</ele>
        <time>2024-09-21T07:55:13.999Z</time>
      </trkpt>
      <trkpt lat="42.58654" lon="2.84528">
        <ele>96.96</ele>
        <time>2024-09-21T07:55:18.999Z</time>
      </trkpt>
      <trkpt lat="42.58659" lon="2.84549">
        <ele>96.96</ele>
        <time>2024-09-21T07:55:23.999Z</time>
      </trkpt>
      <trkpt lat="42.58664" lon="2.8457">
        <ele>96.98</ele>
        <time>2024-09-21T07:55:28.999Z</time>
      </trkpt>
      <trkpt lat="42.58669" lon="2.84591">
        <ele>96.99</ele>
        <time>2024-09-21T07:55:33.999Z</time>
      </trkpt>
      <trkpt lat="42.58674" lon="2.84612">
        <ele>97.02</ele>
        <time>2024-09-21T07:55:38.999Z</time>
      </trkpt>
      <trkpt lat="42.58678" lon="2.84633">
        <ele>97.04</ele>
        <time>2024-09-21T07:55:43.999Z</time>
      </trkpt>
      <trkpt lat="42.58683" lon="2.84655">
        <ele>97.07</ele>
        <time>2024-09-21T07:55:48.999Z</time>
      </trkpt>
      <trkpt lat="42.58685" lon="2.84679">
        <ele>97.11</ele>
        <time>2024-09-21T07:55:53.999Z</time>
      </trkpt>
      <trkpt lat="42.58687" lon="2.84704">
        <ele>97.15</ele>
        <time>2024-09-21T07:55:58.999Z</time>
      </trkpt>
      <trkpt lat="42.58687" lon="2.84729">
        <ele>97.32</ele>
        <time>2024-09-21T07:56:03.999Z</time>
      </trkpt>
      <trkpt lat="42.58687" lon="2.84756">
        <ele>97.58</ele>
        <time>2024-09-21T07:56:08.999Z</time>
      </trkpt>
      <trkpt lat="42.58688" lon="2.84783">
        <ele>97.74</ele>
        <time>2024-09-21T07:56:14.000Z</time>
      </trkpt>
      <trkpt lat="42.58688" lon="2.8481">
        <ele>97.87</ele>
        <time>2024-09-21T07:56:19.000Z</time>
      </trkpt>
      <trkpt lat="42.58689" lon="2.84838">
        <ele>97.95</ele>
        <time>2024-09-21T07:56:24.000Z</time>
      </trkpt>
      <trkpt lat="42.58693" lon="2.84862">
        <ele>97.97</ele>
        <time>2024-09-21T07:56:29.000Z</time>
      </trkpt>
      <trkpt lat="42.58701" lon="2.84884">
        <ele>98.01</ele>
        <time>2024-09-21T07:56:34.000Z</time>
      </trkpt>
      <trkpt lat="42.58714" lon="2.84903">
        <ele>98.07</ele>
        <time>2024-09-21T07:56:39.000Z</time>
      </trkpt>
      <trkpt lat="42.5873" lon="2.84917">
        <ele>98.13</ele>
        <time>2024-09-21T07:56:44.000Z</time>
      </trkpt>
      <trkpt lat="42.5875" lon="2.84925">
        <ele>98.15</ele>
        <time>2024-09-21T07:56:49.000Z</time>
      </trkpt>
      <trkpt lat="42.5877" lon="2.84924">
        <ele>98.11</ele>
        <time>2024-09-21T07:56:54.000Z</time>
      </trkpt>
      <trkpt lat="42.58794" lon="2.84916">
        <ele>98.03</ele>
        <time>2024-09-21T07:56:59.000Z</time>
      </trkpt>
      <trkpt lat="42.58818" lon="2.84905">
        <ele>97.91</ele>
        <time>2024-09-21T07:57:04.000Z</time>
      </trkpt>
      <trkpt lat="42.58843" lon="2.84897">
        <ele>97.79</ele>
        <time>2024-09-21T07:57:09.000Z</time>
      </trkpt>
      <trkpt lat="42.58872" lon="2.84899">
        <ele>97.62</ele>
        <time>2024-09-21T07:57:14.000Z</time>
      </trkpt>
      <trkpt lat="42.58906" lon="2.84909">
        <ele>97.44</ele>
        <time>2024-09-21T07:57:19.000Z</time>
      </trkpt>
      <trkpt lat="42.58947" lon="2.84921">
        <ele>96.93</ele>
        <time>2024-09-21T07:57:24.000Z</time>
      </trkpt>
      <trkpt lat="42.58989" lon="2.84935">
        <ele>96.87</ele>
        <time>2024-09-21T07:57:29.000Z</time>
      </trkpt>
      <trkpt lat="42.59023" lon="2.84956">
        <ele>97.2</ele>
        <time>2024-09-21T07:57:34.000Z</time>
      </trkpt>
      <trkpt lat="42.59042" lon="2.84991">
        <ele>97.89</ele>
        <time>2024-09-21T07:57:39.000Z</time>
      </trkpt>
      <trkpt lat="42.59049" lon="2.85019">
        <ele>97.9</ele>
        <time>2024-09-21T07:57:44.000Z</time>
      </trkpt>
      <trkpt lat="42.59049" lon="2.85042">
        <ele>97.84</ele>
        <time>2024-09-21T07:57:49.000Z</time>
      </trkpt>
      <trkpt lat="42.59046" lon="2.85054">
        <ele>97.51</ele>
        <time>2024-09-21T07:58:16.000Z</time>
      </trkpt>
      <trkpt lat="42.59032" lon="2.85065">
        <ele>96.79</ele>
        <time>2024-09-21T07:58:21.000Z</time>
      </trkpt>
      <trkpt lat="42.59013" lon="2.85079">
        <ele>95.98</ele>
        <time>2024-09-21T07:58:26.000Z</time>
      </trkpt>
      <trkpt lat="42.58997" lon="2.85097">
        <ele>95.66</ele>
        <time>2024-09-21T07:58:31.000Z</time>
      </trkpt>
      <trkpt lat="42.58982" lon="2.85119">
        <ele>95.58</ele>
        <time>2024-09-21T07:58:36.000Z</time>
      </trkpt>
      <trkpt lat="42.5897" lon="2.85141">
        <ele>95.53</ele>
        <time>2024-09-21T07:58:41.000Z</time>
      </trkpt>
      <trkpt lat="42.58959" lon="2.85161">
        <ele>95.55</ele>
        <time>2024-09-21T07:58:46.000Z</time>
      </trkpt>
      <trkpt lat="42.58949" lon="2.85168">
        <ele>95.58</ele>
        <time>2024-09-21T07:58:51.000Z</time>
      </trkpt>
      <trkpt lat="42.58932" lon="2.85181">
        <ele>95.67</ele>
        <time>2024-09-21T07:58:56.000Z</time>
      </trkpt>
      <trkpt lat="42.58929" lon="2.8521">
        <ele>95.8</ele>
        <time>2024-09-21T07:59:01.000Z</time>
      </trkpt>
      <trkpt lat="42.5893" lon="2.85241">
        <ele>95.83</ele>
        <time>2024-09-21T07:59:06.000Z</time>
      </trkpt>
      <trkpt lat="42.58921" lon="2.85269">
        <ele>95.91</ele>
        <time>2024-09-21T07:59:11.000Z</time>
      </trkpt>
      <trkpt lat="42.58909" lon="2.85287">
        <ele>95.92</ele>
        <time>2024-09-21T07:59:16.000Z</time>
      </trkpt>
      <trkpt lat="42.58894" lon="2.85298">
        <ele>95.92</ele>
        <time>2024-09-21T07:59:21.000Z</time>
      </trkpt>
      <trkpt lat="42.58873" lon="2.85304">
        <ele>95.97</ele>
        <time>2024-09-21T07:59:26.000Z</time>
      </trkpt>
      <trkpt lat="42.58849" lon="2.85299">
        <ele>95.95</ele>
        <time>2024-09-21T07:59:31.000Z</time>
      </trkpt>
      <trkpt lat="42.58824" lon="2.85288">
        <ele>95.86</ele>
        <time>2024-09-21T07:59:36.000Z</time>
      </trkpt>
      <trkpt lat="42.58796" lon="2.85277">
        <ele>95.77</ele>
        <time>2024-09-21T07:59:41.000Z</time>
      </trkpt>
      <trkpt lat="42.58766" lon="2.85274">
        <ele>95.69</ele>
        <time>2024-09-21T07:59:46.000Z</time>
      </trkpt>
      <trkpt lat="42.58736" lon="2.85283">
        <ele>95.65</ele>
        <time>2024-09-21T07:59:51.000Z</time>
      </trkpt>
      <trkpt lat="42.5871" lon="2.85303">
        <ele>95.63</ele>
        <time>2024-09-21T07:59:56.000Z</time>
      </trkpt>
      <trkpt lat="42.58688" lon="2.85331">
        <ele>95.58</ele>
        <time>2024-09-21T08:00:01.000Z</time>
      </trkpt>
      <trkpt lat="42.58672" lon="2.85372">
        <ele>95.48</ele>
        <time>2024-09-21T08:00:06.000Z</time>
      </trkpt>
      <trkpt lat="42.58663" lon="2.85418">
        <ele>95.37</ele>
        <time>2024-09-21T08:00:11.000Z</time>
      </trkpt>
      <trkpt lat="42.58655" lon="2.85466">
        <ele>95.32</ele>
        <time>2024-09-21T08:00:16.000Z</time>
      </trkpt>
      <trkpt lat="42.58644" lon="2.85512">
        <ele>95.23</ele>
        <time>2024-09-21T08:00:21.000Z</time>
      </trkpt>
      <trkpt lat="42.58627" lon="2.85556">
        <ele>95.11</ele>
        <time>2024-09-21T08:00:26.000Z</time>
      </trkpt>
      <trkpt lat="42.58611" lon="2.856">
        <ele>94.98</ele>
        <time>2024-09-21T08:00:31.000Z</time>
      </trkpt>
      <trkpt lat="42.58595" lon="2.85645">
        <ele>94.82</ele>
        <time>2024-09-21T08:00:36.000Z</time>
      </trkpt>
      <trkpt lat="42.58579" lon="2.8569">
        <ele>94.64</ele>
        <time>2024-09-21T08:00:41.000Z</time>
      </trkpt>
      <trkpt lat="42.58563" lon="2.85735">
        <ele>94.34</ele>
        <time>2024-09-21T08:00:46.000Z</time>
      </trkpt>
      <trkpt lat="42.58541" lon="2.85774">
        <ele>94.1</ele>
        <time>2024-09-21T08:00:51.000Z</time>
      </trkpt>
      <trkpt lat="42.58512" lon="2.85803">
        <ele>93.88</ele>
        <time>2024-09-21T08:00:56.000Z</time>
      </trkpt>
      <trkpt lat="42.58484" lon="2.85828">
        <ele>93.58</ele>
        <time>2024-09-21T08:01:01.000Z</time>
      </trkpt>
      <trkpt lat="42.58456" lon="2.85851">
        <ele>93.26</ele>
        <time>2024-09-21T08:01:06.000Z</time>
      </trkpt>
      <trkpt lat="42.58432" lon="2.85881">
        <ele>93.1</ele>
        <time>2024-09-21T08:01:11.000Z</time>
      </trkpt>
      <trkpt lat="42.58411" lon="2.85915">
        <ele>92.83</ele>
        <time>2024-09-21T08:01:16.000Z</time>
      </trkpt>
      <trkpt lat="42.58391" lon="2.85952">
        <ele>92.44</ele>
        <time>2024-09-21T08:01:21.000Z</time>
      </trkpt>
      <trkpt lat="42.58371" lon="2.85988">
        <ele>92.12</ele>
        <time>2024-09-21T08:01:26.000Z</time>
      </trkpt>
      <trkpt lat="42.5835" lon="2.86024">
        <ele>91.8</ele>
        <time>2024-09-21T08:01:31.000Z</time>
      </trkpt>
      <trkpt lat="42.58331" lon="2.86064">
        <ele>91.49</ele>
        <time>2024-09-21T08:01:36.000Z</time>
      </trkpt>
      <trkpt lat="42.58314" lon="2.86106">
        <ele>91.22</ele>
        <time>2024-09-21T08:01:41.000Z</time>
      </trkpt>
      <trkpt lat="42.58298" lon="2.86148">
        <ele>91</ele>
        <time>2024-09-21T08:01:46.000Z</time>
      </trkpt>
      <trkpt lat="42.58287" lon="2.86189">
        <ele>90.75</ele>
        <time>2024-09-21T08:01:51.000Z</time>
      </trkpt>
      <trkpt lat="42.58276" lon="2.86227">
        <ele>90.55</ele>
        <time>2024-09-21T08:01:56.000Z</time>
      </trkpt>
      <trkpt lat="42.58264" lon="2.86263">
        <ele>90.5</ele>
        <time>2024-09-21T08:02:01.000Z</time>
      </trkpt>
      <trkpt lat="42.58246" lon="2.86298">
        <ele>90.32</ele>
        <time>2024-09-21T08:02:06.000Z</time>
      </trkpt>
      <trkpt lat="42.58229" lon="2.86336">
        <ele>89.95</ele>
        <time>2024-09-21T08:02:11.000Z</time>
      </trkpt>
      <trkpt lat="42.58213" lon="2.86367">
        <ele>89.71</ele>
        <time>2024-09-21T08:02:16.000Z</time>
      </trkpt>
      <trkpt lat="42.58201" lon="2.86398">
        <ele>89.53</ele>
        <time>2024-09-21T08:02:21.000Z</time>
      </trkpt>
      <trkpt lat="42.58192" lon="2.86425">
        <ele>89.47</ele>
        <time>2024-09-21T08:02:26.000Z</time>
      </trkpt>
      <trkpt lat="42.58184" lon="2.86451">
        <ele>89.3</ele>
        <time>2024-09-21T08:02:31.000Z</time>
      </trkpt>
      <trkpt lat="42.58177" lon="2.86481">
        <ele>89.25</ele>
        <time>2024-09-21T08:02:36.000Z</time>
      </trkpt>
      <trkpt lat="42.58168" lon="2.86511">
        <ele>88.73</ele>
        <time>2024-09-21T08:02:41.000Z</time>
      </trkpt>
      <trkpt lat="42.58158" lon="2.86539">
        <ele>88.25</ele>
        <time>2024-09-21T08:02:46.000Z</time>
      </trkpt>
      <trkpt lat="42.5815" lon="2.86563">
        <ele>88.18</ele>
        <time>2024-09-21T08:02:51.000Z</time>
      </trkpt>
      <trkpt lat="42.58148" lon="2.86575">
        <ele>87.98</ele>
        <time>2024-09-21T08:03:30.000Z</time>
      </trkpt>
      <trkpt lat="42.58143" lon="2.86588">
        <ele>87.84</ele>
        <time>2024-09-21T08:03:35.000Z</time>
      </trkpt>
      <trkpt lat="42.58137" lon="2.86608">
        <ele>87.48</ele>
        <time>2024-09-21T08:03:40.000Z</time>
      </trkpt>
      <trkpt lat="42.58131" lon="2.86632">
        <ele>87.28</ele>
        <time>2024-09-21T08:03:45.000Z</time>
      </trkpt>
      <trkpt lat="42.58127" lon="2.86653">
        <ele>87.15</ele>
        <time>2024-09-21T08:03:50.000Z</time>
      </trkpt>
      <trkpt lat="42.58118" lon="2.86671">
        <ele>87.02</ele>
        <time>2024-09-21T08:03:55.000Z</time>
      </trkpt>
      <trkpt lat="42.58105" lon="2.86689">
        <ele>86.47</ele>
        <time>2024-09-21T08:04:00.000Z</time>
      </trkpt>
      <trkpt lat="42.58099" lon="2.86706">
        <ele>86.37</ele>
        <time>2024-09-21T08:04:05.000Z</time>
      </trkpt>
      <trkpt lat="42.58096" lon="2.86728">
        <ele>86.22</ele>
        <time>2024-09-21T08:04:10.000Z</time>
      </trkpt>
      <trkpt lat="42.581" lon="2.86747">
        <ele>86.07</ele>
        <time>2024-09-21T08:04:15.000Z</time>
      </trkpt>
      <trkpt lat="42.58108" lon="2.86769">
        <ele>85.7</ele>
        <time>2024-09-21T08:04:20.000Z</time>
      </trkpt>
      <trkpt lat="42.58115" lon="2.86789">
        <ele>85.57</ele>
        <time>2024-09-21T08:04:25.000Z</time>
      </trkpt>
      <trkpt lat="42.58123" lon="2.86809">
        <ele>85.45</ele>
        <time>2024-09-21T08:04:30.000Z</time>
      </trkpt>
      <trkpt lat="42.5813" lon="2.86833">
        <ele>84.56</ele>
        <time>2024-09-21T08:04:35.000Z</time>
      </trkpt>
      <trkpt lat="42.58139" lon="2.86858">
        <ele>84.08</ele>
        <time>2024-09-21T08:04:40.000Z</time>
      </trkpt>
      <trkpt lat="42.58149" lon="2.86886">
        <ele>83.58</ele>
        <time>2024-09-21T08:04:45.000Z</time>
      </trkpt>
      <trkpt lat="42.58156" lon="2.86912">
        <ele>83.2</ele>
        <time>2024-09-21T08:04:50.000Z</time>
      </trkpt>
      <trkpt lat="42.58163" lon="2.8694">
        <ele>83.07</ele>
        <time>2024-09-21T08:04:55.000Z</time>
      </trkpt>
      <trkpt lat="42.58167" lon="2.86969">
        <ele>83.07</ele>
        <time>2024-09-21T08:05:00.000Z</time>
      </trkpt>
      <trkpt lat="42.58168" lon="2.87">
        <ele>83.16</ele>
        <time>2024-09-21T08:05:05.000Z</time>
      </trkpt>
      <trkpt lat="42.58179" lon="2.87028">
        <ele>83.28</ele>
        <time>2024-09-21T08:05:10.000Z</time>
      </trkpt>
      <trkpt lat="42.58182" lon="2.87056">
        <ele>83.41</ele>
        <time>2024-09-21T08:05:15.000Z</time>
      </trkpt>
      <trkpt lat="42.58187" lon="2.87089">
        <ele>83.46</ele>
        <time>2024-09-21T08:05:20.000Z</time>
      </trkpt>
      <trkpt lat="42.58192" lon="2.87121">
        <ele>83.52</ele>
        <time>2024-09-21T08:05:25.000Z</time>
      </trkpt>
      <trkpt lat="42.58197" lon="2.87154">
        <ele>83.51</ele>
        <time>2024-09-21T08:05:30.000Z</time>
      </trkpt>
      <trkpt lat="42.58202" lon="2.87189">
        <ele>83.37</ele>
        <time>2024-09-21T08:05:35.000Z</time>
      </trkpt>
      <trkpt lat="42.58207" lon="2.87222">
        <ele>83.36</ele>
        <time>2024-09-21T08:05:40.000Z</time>
      </trkpt>
      <trkpt lat="42.58215" lon="2.87254">
        <ele>83.42</ele>
        <time>2024-09-21T08:05:45.000Z</time>
      </trkpt>
      <trkpt lat="42.58225" lon="2.87285">
        <ele>83.45</ele>
        <time>2024-09-21T08:05:50.000Z</time>
      </trkpt>
      <trkpt lat="42.58235" lon="2.87316">
        <ele>83.48</ele>
        <time>2024-09-21T08:05:55.000Z</time>
      </trkpt>
      <trkpt lat="42.58245" lon="2.87349">
        <ele>83.55</ele>
        <time>2024-09-21T08:06:00.000Z</time>
      </trkpt>
      <trkpt lat="42.58246" lon="2.87386">
        <ele>83.6</ele>
        <time>2024-09-21T08:06:05.000Z</time>
      </trkpt>
      <trkpt lat="42.58238" lon="2.8742">
        <ele>83.68</ele>
        <time>2024-09-21T08:06:10.000Z</time>
      </trkpt>
      <trkpt lat="42.58227" lon="2.87451">
        <ele>83.78</ele>
        <time>2024-09-21T08:06:15.000Z</time>
      </trkpt>
      <trkpt lat="42.58217" lon="2.8748">
        <ele>83.88</ele>
        <time>2024-09-21T08:06:20.000Z</time>
      </trkpt>
      <trkpt lat="42.58208" lon="2.87507">
        <ele>83.98</ele>
        <time>2024-09-21T08:06:25.000Z</time>
      </trkpt>
      <trkpt lat="42.58199" lon="2.87532">
        <ele>84.12</ele>
        <time>2024-09-21T08:06:30.000Z</time>
      </trkpt>
      <trkpt lat="42.58192" lon="2.87555">
        <ele>84.21</ele>
        <time>2024-09-21T08:06:35.000Z</time>
      </trkpt>
      <trkpt lat="42.58184" lon="2.87578">
        <ele>84.38</ele>
        <time>2024-09-21T08:06:40.000Z</time>
      </trkpt>
      <trkpt lat="42.58175" lon="2.87598">
        <ele>84.4</ele>
        <time>2024-09-21T08:06:45.000Z</time>
      </trkpt>
      <trkpt lat="42.58162" lon="2.87618">
        <ele>84.56</ele>
        <time>2024-09-21T08:06:50.000Z</time>
      </trkpt>
      <trkpt lat="42.58147" lon="2.87633">
        <ele>84.77</ele>
        <time>2024-09-21T08:06:55.000Z</time>
      </trkpt>
      <trkpt lat="42.5813" lon="2.87647">
        <ele>84.97</ele>
        <time>2024-09-21T08:07:00.000Z</time>
      </trkpt>
      <trkpt lat="42.58113" lon="2.87664">
        <ele>85.13</ele>
        <time>2024-09-21T08:07:05.000Z</time>
      </trkpt>
      <trkpt lat="42.58095" lon="2.87679">
        <ele>85.25</ele>
        <time>2024-09-21T08:07:10.000Z</time>
      </trkpt>
      <trkpt lat="42.58078" lon="2.87695">
        <ele>85.46</ele>
        <time>2024-09-21T08:07:15.000Z</time>
      </trkpt>
      <trkpt lat="42.5806" lon="2.87712">
        <ele>85.66</ele>
        <time>2024-09-21T08:07:20.000Z</time>
      </trkpt>
      <trkpt lat="42.5804" lon="2.87729">
        <ele>85.82</ele>
        <time>2024-09-21T08:07:25.000Z</time>
      </trkpt>
      <trkpt lat="42.58019" lon="2.87747">
        <ele>85.99</ele>
        <time>2024-09-21T08:07:30.000Z</time>
      </trkpt>
      <trkpt lat="42.57997" lon="2.87768">
        <ele>86.18</ele>
        <time>2024-09-21T08:07:35.000Z</time>
      </trkpt>
      <trkpt lat="42.57972" lon="2.8779">
        <ele>86.29</ele>
        <time>2024-09-21T08:07:40.000Z</time>
      </trkpt>
      <trkpt lat="42.57949" lon="2.87815">
        <ele>86.41</ele>
        <time>2024-09-21T08:07:45.000Z</time>
      </trkpt>
      <trkpt lat="42.57924" lon="2.87842">
        <ele>86.64</ele>
        <time>2024-09-21T08:07:50.000Z</time>
      </trkpt>
      <trkpt lat="42.57901" lon="2.87869">
        <ele>86.77</ele>
        <time>2024-09-21T08:07:55.000Z</time>
      </trkpt>
      <trkpt lat="42.57878" lon="2.87895">
        <ele>87.01</ele>
        <time>2024-09-21T08:08:00.000Z</time>
      </trkpt>
      <trkpt lat="42.57855" lon="2.87919">
        <ele>87.53</ele>
        <time>2024-09-21T08:08:05.000Z</time>
      </trkpt>
      <trkpt lat="42.57831" lon="2.87943">
        <ele>87.82</ele>
        <time>2024-09-21T08:08:10.000Z</time>
      </trkpt>
      <trkpt lat="42.57807" lon="2.87967">
        <ele>87.77</ele>
        <time>2024-09-21T08:08:15.000Z</time>
      </trkpt>
      <trkpt lat="42.57783" lon="2.87991">
        <ele>87.59</ele>
        <time>2024-09-21T08:08:20.000Z</time>
      </trkpt>
      <trkpt lat="42.57752" lon="2.88021">
        <ele>87.6</ele>
        <time>2024-09-21T08:08:25.999Z</time>
      </trkpt>
      <trkpt lat="42.57726" lon="2.88046">
        <ele>87.93</ele>
        <time>2024-09-21T08:08:30.999Z</time>
      </trkpt>
      <trkpt lat="42.57698" lon="2.88069">
        <ele>87.96</ele>
        <time>2024-09-21T08:08:35.999Z</time>
      </trkpt>
      <trkpt lat="42.57671" lon="2.88089">
        <ele>87.7</ele>
        <time>2024-09-21T08:08:40.999Z</time>
      </trkpt>
      <trkpt lat="42.57645" lon="2.8811">
        <ele>87.83</ele>
        <time>2024-09-21T08:08:45.999Z</time>
      </trkpt>
      <trkpt lat="42.5762" lon="2.8813">
        <ele>88.06</ele>
        <time>2024-09-21T08:08:50.999Z</time>
      </trkpt>
      <trkpt lat="42.57597" lon="2.8815">
        <ele>88.21</ele>
        <time>2024-09-21T08:08:55.999Z</time>
      </trkpt>
      <trkpt lat="42.57574" lon="2.88169">
        <ele>88.27</ele>
        <time>2024-09-21T08:09:00.999Z</time>
      </trkpt>
      <trkpt lat="42.57552" lon="2.88187">
        <ele>88.43</ele>
        <time>2024-09-21T08:09:05.999Z</time>
      </trkpt>
      <trkpt lat="42.57526" lon="2.88202">
        <ele>88.3</ele>
        <time>2024-09-21T08:09:10.999Z</time>
      </trkpt>
      <trkpt lat="42.57496" lon="2.88214">
        <ele>87.85</ele>
        <time>2024-09-21T08:09:15.999Z</time>
      </trkpt>
      <trkpt lat="42.57464" lon="2.88227">
        <ele>87.41</ele>
        <time>2024-09-21T08:09:20.999Z</time>
      </trkpt>
      <trkpt lat="42.57431" lon="2.88241">
        <ele>87.09</ele>
        <time>2024-09-21T08:09:25.999Z</time>
      </trkpt>
      <trkpt lat="42.574" lon="2.88259">
        <ele>86.99</ele>
        <time>2024-09-21T08:09:30.999Z</time>
      </trkpt>
      <trkpt lat="42.57373" lon="2.88291">
        <ele>86.55</ele>
        <time>2024-09-21T08:09:35.999Z</time>
      </trkpt>
      <trkpt lat="42.57346" lon="2.88323">
        <ele>86.33</ele>
        <time>2024-09-21T08:09:40.999Z</time>
      </trkpt>
      <trkpt lat="42.57319" lon="2.88356">
        <ele>86.3</ele>
        <time>2024-09-21T08:09:45.999Z</time>
      </trkpt>
      <trkpt lat="42.57296" lon="2.88384">
        <ele>86.14</ele>
        <time>2024-09-21T08:09:50.999Z</time>
      </trkpt>
      <trkpt lat="42.57272" lon="2.88414">
        <ele>85.69</ele>
        <time>2024-09-21T08:09:55.999Z</time>
      </trkpt>
      <trkpt lat="42.57248" lon="2.88443">
        <ele>85.11</ele>
        <time>2024-09-21T08:10:00.999Z</time>
      </trkpt>
      <trkpt lat="42.57221" lon="2.88474">
        <ele>84.68</ele>
        <time>2024-09-21T08:10:05.999Z</time>
      </trkpt>
      <trkpt lat="42.57193" lon="2.88507">
        <ele>84.05</ele>
        <time>2024-09-21T08:10:10.999Z</time>
      </trkpt>
      <trkpt lat="42.57165" lon="2.88541">
        <ele>83.47</ele>
        <time>2024-09-21T08:10:15.999Z</time>
      </trkpt>
      <trkpt lat="42.57139" lon="2.88575">
        <ele>83.06</ele>
        <time>2024-09-21T08:10:20.999Z</time>
      </trkpt>
      <trkpt lat="42.57113" lon="2.88604">
        <ele>82.67</ele>
        <time>2024-09-21T08:10:25.999Z</time>
      </trkpt>
      <trkpt lat="42.5709" lon="2.88634">
        <ele>82.29</ele>
        <time>2024-09-21T08:10:30.999Z</time>
      </trkpt>
      <trkpt lat="42.57069" lon="2.88665">
        <ele>81.72</ele>
        <time>2024-09-21T08:10:35.999Z</time>
      </trkpt>
      <trkpt lat="42.5705" lon="2.887">
        <ele>81.05</ele>
        <time>2024-09-21T08:10:40.999Z</time>
      </trkpt>
      <trkpt lat="42.5703" lon="2.88735">
        <ele>80.45</ele>
        <time>2024-09-21T08:10:45.999Z</time>
      </trkpt>
      <trkpt lat="42.57016" lon="2.88771">
        <ele>80.11</ele>
        <time>2024-09-21T08:10:50.999Z</time>
      </trkpt>
      <trkpt lat="42.57008" lon="2.88805">
        <ele>80.07</ele>
        <time>2024-09-21T08:10:55.999Z</time>
      </trkpt>
      <trkpt lat="42.56994" lon="2.88819">
        <ele>80.02</ele>
        <time>2024-09-21T08:11:00.999Z</time>
      </trkpt>
      <trkpt lat="42.56987" lon="2.88836">
        <ele>79.94</ele>
        <time>2024-09-21T08:11:05.999Z</time>
      </trkpt>
      <trkpt lat="42.5698" lon="2.88846">
        <ele>79.89</ele>
        <time>2024-09-21T08:11:56.999Z</time>
      </trkpt>
      <trkpt lat="42.56971" lon="2.88854">
        <ele>79.95</ele>
        <time>2024-09-21T08:12:05.999Z</time>
      </trkpt>
      <trkpt lat="42.56955" lon="2.88879">
        <ele>80.02</ele>
        <time>2024-09-21T08:12:10.999Z</time>
      </trkpt>
      <trkpt lat="42.56936" lon="2.88912">
        <ele>79.86</ele>
        <time>2024-09-21T08:12:15.999Z</time>
      </trkpt>
      <trkpt lat="42.56916" lon="2.88948">
        <ele>79.59</ele>
        <time>2024-09-21T08:12:20.999Z</time>
      </trkpt>
      <trkpt lat="42.56895" lon="2.88987">
        <ele>79.12</ele>
        <time>2024-09-21T08:12:25.999Z</time>
      </trkpt>
      <trkpt lat="42.56872" lon="2.89027">
        <ele>78.47</ele>
        <time>2024-09-21T08:12:30.999Z</time>
      </trkpt>
      <trkpt lat="42.56844" lon="2.89064">
        <ele>77.85</ele>
        <time>2024-09-21T08:12:35.999Z</time>
      </trkpt>
      <trkpt lat="42.56811" lon="2.89092">
        <ele>77.37</ele>
        <time>2024-09-21T08:12:40.999Z</time>
      </trkpt>
      <trkpt lat="42.56777" lon="2.89119">
        <ele>76.74</ele>
        <time>2024-09-21T08:12:45.999Z</time>
      </trkpt>
      <trkpt lat="42.56753" lon="2.89162">
        <ele>75.86</ele>
        <time>2024-09-21T08:12:50.999Z</time>
      </trkpt>
      <trkpt lat="42.56738" lon="2.89215">
        <ele>75.43</ele>
        <time>2024-09-21T08:12:55.999Z</time>
      </trkpt>
      <trkpt lat="42.56728" lon="2.89269">
        <ele>74.74</ele>
        <time>2024-09-21T08:13:00.999Z</time>
      </trkpt>
      <trkpt lat="42.56722" lon="2.89324">
        <ele>74.04</ele>
        <time>2024-09-21T08:13:05.999Z</time>
      </trkpt>
      <trkpt lat="42.56718" lon="2.89379">
        <ele>73.44</ele>
        <time>2024-09-21T08:13:10.999Z</time>
      </trkpt>
      <trkpt lat="42.56714" lon="2.89432">
        <ele>72.82</ele>
        <time>2024-09-21T08:13:15.999Z</time>
      </trkpt>
      <trkpt lat="42.56712" lon="2.89484">
        <ele>72.19</ele>
        <time>2024-09-21T08:13:20.999Z</time>
      </trkpt>
      <trkpt lat="42.56713" lon="2.89535">
        <ele>71.44</ele>
        <time>2024-09-21T08:13:25.999Z</time>
      </trkpt>
      <trkpt lat="42.56713" lon="2.89585">
        <ele>70.86</ele>
        <time>2024-09-21T08:13:30.999Z</time>
      </trkpt>
      <trkpt lat="42.56715" lon="2.89636">
        <ele>70.32</ele>
        <time>2024-09-21T08:13:35.999Z</time>
      </trkpt>
      <trkpt lat="42.56717" lon="2.89689">
        <ele>70.06</ele>
        <time>2024-09-21T08:13:40.999Z</time>
      </trkpt>
      <trkpt lat="42.56717" lon="2.89741">
        <ele>69.71</ele>
        <time>2024-09-21T08:13:45.999Z</time>
      </trkpt>
      <trkpt lat="42.56712" lon="2.8979">
        <ele>68.96</ele>
        <time>2024-09-21T08:13:50.999Z</time>
      </trkpt>
      <trkpt lat="42.5671" lon="2.8984">
        <ele>68.33</ele>
        <time>2024-09-21T08:13:55.999Z</time>
      </trkpt>
      <trkpt lat="42.56702" lon="2.8989">
        <ele>67.85</ele>
        <time>2024-09-21T08:14:00.999Z</time>
      </trkpt>
      <trkpt lat="42.56694" lon="2.89936">
        <ele>67.39</ele>
        <time>2024-09-21T08:14:05.999Z</time>
      </trkpt>
      <trkpt lat="42.56684" lon="2.89978">
        <ele>66.7</ele>
        <time>2024-09-21T08:14:10.999Z</time>
      </trkpt>
      <trkpt lat="42.56674" lon="2.90018">
        <ele>66.11</ele>
        <time>2024-09-21T08:14:15.999Z</time>
      </trkpt>
      <trkpt lat="42.56664" lon="2.90057">
        <ele>65.7</ele>
        <time>2024-09-21T08:14:20.999Z</time>
      </trkpt>
      <trkpt lat="42.56655" lon="2.90099">
        <ele>65.42</ele>
        <time>2024-09-21T08:14:25.999Z</time>
      </trkpt>
      <trkpt lat="42.56647" lon="2.90139">
        <ele>64.78</ele>
        <time>2024-09-21T08:14:30.999Z</time>
      </trkpt>
      <trkpt lat="42.56639" lon="2.90174">
        <ele>64.26</ele>
        <time>2024-09-21T08:14:35.999Z</time>
      </trkpt>
      <trkpt lat="42.56623" lon="2.90176">
        <ele>63.82</ele>
        <time>2024-09-21T08:14:40.999Z</time>
      </trkpt>
      <trkpt lat="42.56618" lon="2.90165">
        <ele>63.74</ele>
        <time>2024-09-21T08:14:45.999Z</time>
      </trkpt>
      <trkpt lat="42.56612" lon="2.90156">
        <ele>63.65</ele>
        <time>2024-09-21T08:14:52.999Z</time>
      </trkpt>
      <trkpt lat="42.56605" lon="2.9014">
        <ele>63.56</ele>
        <time>2024-09-21T08:14:57.999Z</time>
      </trkpt>
      <trkpt lat="42.56594" lon="2.9012">
        <ele>63.51</ele>
        <time>2024-09-21T08:15:02.999Z</time>
      </trkpt>
      <trkpt lat="42.56584" lon="2.90096">
        <ele>63.46</ele>
        <time>2024-09-21T08:15:07.999Z</time>
      </trkpt>
      <trkpt lat="42.56574" lon="2.90074">
        <ele>63.24</ele>
        <time>2024-09-21T08:15:12.999Z</time>
      </trkpt>
      <trkpt lat="42.5656" lon="2.90051">
        <ele>62.74</ele>
        <time>2024-09-21T08:15:17.999Z</time>
      </trkpt>
      <trkpt lat="42.56548" lon="2.90026">
        <ele>62.35</ele>
        <time>2024-09-21T08:15:22.999Z</time>
      </trkpt>
      <trkpt lat="42.56531" lon="2.90009">
        <ele>61.96</ele>
        <time>2024-09-21T08:15:27.999Z</time>
      </trkpt>
      <trkpt lat="42.56509" lon="2.90011">
        <ele>61.72</ele>
        <time>2024-09-21T08:15:32.999Z</time>
      </trkpt>
      <trkpt lat="42.56489" lon="2.90029">
        <ele>61.61</ele>
        <time>2024-09-21T08:15:37.999Z</time>
      </trkpt>
      <trkpt lat="42.56467" lon="2.90048">
        <ele>61.52</ele>
        <time>2024-09-21T08:15:42.999Z</time>
      </trkpt>
      <trkpt lat="42.56443" lon="2.9007">
        <ele>61.47</ele>
        <time>2024-09-21T08:15:47.999Z</time>
      </trkpt>
      <trkpt lat="42.56417" lon="2.90092">
        <ele>61.32</ele>
        <time>2024-09-21T08:15:52.999Z</time>
      </trkpt>
      <trkpt lat="42.56389" lon="2.90116">
        <ele>61.07</ele>
        <time>2024-09-21T08:15:57.999Z</time>
      </trkpt>
      <trkpt lat="42.56359" lon="2.9014">
        <ele>60.66</ele>
        <time>2024-09-21T08:16:02.999Z</time>
      </trkpt>
      <trkpt lat="42.56329" lon="2.90164">
        <ele>60.39</ele>
        <time>2024-09-21T08:16:07.999Z</time>
      </trkpt>
      <trkpt lat="42.563" lon="2.90191">
        <ele>60.52</ele>
        <time>2024-09-21T08:16:12.999Z</time>
      </trkpt>
      <trkpt lat="42.5627" lon="2.90216">
        <ele>60.61</ele>
        <time>2024-09-21T08:16:17.999Z</time>
      </trkpt>
      <trkpt lat="42.56242" lon="2.90243">
        <ele>60.75</ele>
        <time>2024-09-21T08:16:22.999Z</time>
      </trkpt>
      <trkpt lat="42.56215" lon="2.90266">
        <ele>60.69</ele>
        <time>2024-09-21T08:16:27.999Z</time>
      </trkpt>
      <trkpt lat="42.5619" lon="2.90286">
        <ele>60.71</ele>
        <time>2024-09-21T08:16:32.999Z</time>
      </trkpt>
      <trkpt lat="42.56166" lon="2.90305">
        <ele>60.77</ele>
        <time>2024-09-21T08:16:37.999Z</time>
      </trkpt>
      <trkpt lat="42.56143" lon="2.90323">
        <ele>60.31</ele>
        <time>2024-09-21T08:16:42.999Z</time>
      </trkpt>
      <trkpt lat="42.5612" lon="2.90343">
        <ele>60.17</ele>
        <time>2024-09-21T08:16:47.999Z</time>
      </trkpt>
      <trkpt lat="42.56096" lon="2.90363">
        <ele>60</ele>
        <time>2024-09-21T08:16:52.999Z</time>
      </trkpt>
      <trkpt lat="42.56071" lon="2.90384">
        <ele>59.96</ele>
        <time>2024-09-21T08:16:57.999Z</time>
      </trkpt>
      <trkpt lat="42.56046" lon="2.90404">
        <ele>60.08</ele>
        <time>2024-09-21T08:17:02.999Z</time>
      </trkpt>
      <trkpt lat="42.5602" lon="2.90427">
        <ele>60.19</ele>
        <time>2024-09-21T08:17:07.999Z</time>
      </trkpt>
      <trkpt lat="42.55994" lon="2.90448">
        <ele>60.18</ele>
        <time>2024-09-21T08:17:12.999Z</time>
      </trkpt>
      <trkpt lat="42.55967" lon="2.90471">
        <ele>60.18</ele>
        <time>2024-09-21T08:17:17.999Z</time>
      </trkpt>
      <trkpt lat="42.55939" lon="2.90496">
        <ele>60.13</ele>
        <time>2024-09-21T08:17:22.999Z</time>
      </trkpt>
      <trkpt lat="42.55911" lon="2.90518">
        <ele>59.87</ele>
        <time>2024-09-21T08:17:27.999Z</time>
      </trkpt>
      <trkpt lat="42.55883" lon="2.90541">
        <ele>59.79</ele>
        <time>2024-09-21T08:17:32.999Z</time>
      </trkpt>
      <trkpt lat="42.55859" lon="2.90564">
        <ele>59.81</ele>
        <time>2024-09-21T08:17:37.999Z</time>
      </trkpt>
      <trkpt lat="42.55838" lon="2.90591">
        <ele>59.61</ele>
        <time>2024-09-21T08:17:42.999Z</time>
      </trkpt>
      <trkpt lat="42.55823" lon="2.90622">
        <ele>59.48</ele>
        <time>2024-09-21T08:17:47.999Z</time>
      </trkpt>
      <trkpt lat="42.55813" lon="2.90655">
        <ele>59.62</ele>
        <time>2024-09-21T08:17:52.999Z</time>
      </trkpt>
      <trkpt lat="42.55806" lon="2.90689">
        <ele>60.1</ele>
        <time>2024-09-21T08:17:57.999Z</time>
      </trkpt>
      <trkpt lat="42.558" lon="2.90722">
        <ele>60.12</ele>
        <time>2024-09-21T08:18:02.999Z</time>
      </trkpt>
      <trkpt lat="42.55796" lon="2.90755">
        <ele>60.16</ele>
        <time>2024-09-21T08:18:07.999Z</time>
      </trkpt>
      <trkpt lat="42.55791" lon="2.90789">
        <ele>60.03</ele>
        <time>2024-09-21T08:18:12.999Z</time>
      </trkpt>
      <trkpt lat="42.55785" lon="2.90822">
        <ele>59.87</ele>
        <time>2024-09-21T08:18:17.999Z</time>
      </trkpt>
      <trkpt lat="42.55779" lon="2.90854">
        <ele>59.88</ele>
        <time>2024-09-21T08:18:22.999Z</time>
      </trkpt>
      <trkpt lat="42.55771" lon="2.90887">
        <ele>59.91</ele>
        <time>2024-09-21T08:18:27.999Z</time>
      </trkpt>
      <trkpt lat="42.55763" lon="2.90924">
        <ele>59.93</ele>
        <time>2024-09-21T08:18:32.999Z</time>
      </trkpt>
      <trkpt lat="42.55751" lon="2.90961">
        <ele>59.98</ele>
        <time>2024-09-21T08:18:37.999Z</time>
      </trkpt>
      <trkpt lat="42.55731" lon="2.90992">
        <ele>59.95</ele>
        <time>2024-09-21T08:18:42.999Z</time>
      </trkpt>
      <trkpt lat="42.5571" lon="2.91022">
        <ele>59.86</ele>
        <time>2024-09-21T08:18:47.999Z</time>
      </trkpt>
      <trkpt lat="42.55688" lon="2.91052">
        <ele>59.78</ele>
        <time>2024-09-21T08:18:52.999Z</time>
      </trkpt>
      <trkpt lat="42.55664" lon="2.91079">
        <ele>59.31</ele>
        <time>2024-09-21T08:18:57.999Z</time>
      </trkpt>
      <trkpt lat="42.5564" lon="2.91107">
        <ele>59.1</ele>
        <time>2024-09-21T08:19:02.999Z</time>
      </trkpt>
      <trkpt lat="42.55616" lon="2.91135">
        <ele>58.94</ele>
        <time>2024-09-21T08:19:07.999Z</time>
      </trkpt>
      <trkpt lat="42.55591" lon="2.91163">
        <ele>58.69</ele>
        <time>2024-09-21T08:19:12.999Z</time>
      </trkpt>
      <trkpt lat="42.55567" lon="2.9119">
        <ele>58.23</ele>
        <time>2024-09-21T08:19:17.999Z</time>
      </trkpt>
      <trkpt lat="42.55543" lon="2.91219">
        <ele>57.99</ele>
        <time>2024-09-21T08:19:22.999Z</time>
      </trkpt>
      <trkpt lat="42.5552" lon="2.91247">
        <ele>58.02</ele>
        <time>2024-09-21T08:19:27.999Z</time>
      </trkpt>
      <trkpt lat="42.55499" lon="2.91273">
        <ele>58.26</ele>
        <time>2024-09-21T08:19:32.999Z</time>
      </trkpt>
      <trkpt lat="42.55479" lon="2.91299">
        <ele>58.52</ele>
        <time>2024-09-21T08:19:37.999Z</time>
      </trkpt>
      <trkpt lat="42.55459" lon="2.91321">
        <ele>58.56</ele>
        <time>2024-09-21T08:19:42.999Z</time>
      </trkpt>
      <trkpt lat="42.55439" lon="2.91337">
        <ele>58.64</ele>
        <time>2024-09-21T08:19:47.999Z</time>
      </trkpt>
      <trkpt lat="42.55418" lon="2.91356">
        <ele>58.76</ele>
        <time>2024-09-21T08:19:52.999Z</time>
      </trkpt>
      <trkpt lat="42.55392" lon="2.91378">
        <ele>58.94</ele>
        <time>2024-09-21T08:19:57.999Z</time>
      </trkpt>
      <trkpt lat="42.55366" lon="2.91401">
        <ele>59.36</ele>
        <time>2024-09-21T08:20:02.999Z</time>
      </trkpt>
      <trkpt lat="42.55341" lon="2.91423">
        <ele>59.71</ele>
        <time>2024-09-21T08:20:07.999Z</time>
      </trkpt>
      <trkpt lat="42.55316" lon="2.91446">
        <ele>59.76</ele>
        <time>2024-09-21T08:20:12.999Z</time>
      </trkpt>
      <trkpt lat="42.5529" lon="2.91469">
        <ele>59.85</ele>
        <time>2024-09-21T08:20:17.999Z</time>
      </trkpt>
      <trkpt lat="42.5526" lon="2.91493">
        <ele>59.83</ele>
        <time>2024-09-21T08:20:22.999Z</time>
      </trkpt>
      <trkpt lat="42.5523" lon="2.91517">
        <ele>59.88</ele>
        <time>2024-09-21T08:20:27.999Z</time>
      </trkpt>
      <trkpt lat="42.552" lon="2.91544">
        <ele>59.83</ele>
        <time>2024-09-21T08:20:33.000Z</time>
      </trkpt>
      <trkpt lat="42.5517" lon="2.91569">
        <ele>59.66</ele>
        <time>2024-09-21T08:20:38.000Z</time>
      </trkpt>
      <trkpt lat="42.5514" lon="2.91595">
        <ele>59.51</ele>
        <time>2024-09-21T08:20:43.000Z</time>
      </trkpt>
      <trkpt lat="42.55111" lon="2.91618">
        <ele>59.51</ele>
        <time>2024-09-21T08:20:48.000Z</time>
      </trkpt>
      <trkpt lat="42.55084" lon="2.91641">
        <ele>59.69</ele>
        <time>2024-09-21T08:20:53.000Z</time>
      </trkpt>
      <trkpt lat="42.55056" lon="2.91664">
        <ele>59.79</ele>
        <time>2024-09-21T08:20:58.000Z</time>
      </trkpt>
      <trkpt lat="42.55029" lon="2.91685">
        <ele>59.91</ele>
        <time>2024-09-21T08:21:03.000Z</time>
      </trkpt>
      <trkpt lat="42.55003" lon="2.91705">
        <ele>60.07</ele>
        <time>2024-09-21T08:21:08.000Z</time>
      </trkpt>
      <trkpt lat="42.54978" lon="2.91724">
        <ele>60.11</ele>
        <time>2024-09-21T08:21:13.000Z</time>
      </trkpt>
      <trkpt lat="42.54953" lon="2.91742">
        <ele>59.72</ele>
        <time>2024-09-21T08:21:18.000Z</time>
      </trkpt>
      <trkpt lat="42.54928" lon="2.91764">
        <ele>59.36</ele>
        <time>2024-09-21T08:21:23.000Z</time>
      </trkpt>
      <trkpt lat="42.54908" lon="2.9179">
        <ele>59.16</ele>
        <time>2024-09-21T08:21:28.000Z</time>
      </trkpt>
      <trkpt lat="42.54891" lon="2.91816">
        <ele>59.27</ele>
        <time>2024-09-21T08:21:33.000Z</time>
      </trkpt>
      <trkpt lat="42.54871" lon="2.91826">
        <ele>59.42</ele>
        <time>2024-09-21T08:21:38.000Z</time>
      </trkpt>
      <trkpt lat="42.54851" lon="2.91839">
        <ele>59.31</ele>
        <time>2024-09-21T08:21:43.000Z</time>
      </trkpt>
      <trkpt lat="42.54829" lon="2.91842">
        <ele>59.32</ele>
        <time>2024-09-21T08:21:48.000Z</time>
      </trkpt>
      <trkpt lat="42.5481" lon="2.91833">
        <ele>59.51</ele>
        <time>2024-09-21T08:21:53.000Z</time>
      </trkpt>
      <trkpt lat="42.54795" lon="2.91847">
        <ele>59.59</ele>
        <time>2024-09-21T08:21:58.000Z</time>
      </trkpt>
      <trkpt lat="42.54783" lon="2.91865">
        <ele>59.65</ele>
        <time>2024-09-21T08:22:03.000Z</time>
      </trkpt>
      <trkpt lat="42.54765" lon="2.9188">
        <ele>59.94</ele>
        <time>2024-09-21T08:22:08.000Z</time>
      </trkpt>
      <trkpt lat="42.54744" lon="2.9189">
        <ele>60.19</ele>
        <time>2024-09-21T08:22:13.000Z</time>
      </trkpt>
      <trkpt lat="42.54722" lon="2.91897">
        <ele>60.33</ele>
        <time>2024-09-21T08:22:18.000Z</time>
      </trkpt>
      <trkpt lat="42.54701" lon="2.91902">
        <ele>60.55</ele>
        <time>2024-09-21T08:22:23.000Z</time>
      </trkpt>
      <trkpt lat="42.54679" lon="2.91904">
        <ele>60.79</ele>
        <time>2024-09-21T08:22:28.000Z</time>
      </trkpt>
      <trkpt lat="42.54658" lon="2.9192">
        <ele>61.01</ele>
        <time>2024-09-21T08:22:33.000Z</time>
      </trkpt>
      <trkpt lat="42.54636" lon="2.9193">
        <ele>61.16</ele>
        <time>2024-09-21T08:22:38.000Z</time>
      </trkpt>
      <trkpt lat="42.54613" lon="2.91938">
        <ele>61.31</ele>
        <time>2024-09-21T08:22:43.000Z</time>
      </trkpt>
      <trkpt lat="42.5459" lon="2.91945">
        <ele>61.45</ele>
        <time>2024-09-21T08:22:48.000Z</time>
      </trkpt>
      <trkpt lat="42.54566" lon="2.91952">
        <ele>61.6</ele>
        <time>2024-09-21T08:22:53.000Z</time>
      </trkpt>
      <trkpt lat="42.54544" lon="2.91958">
        <ele>61.58</ele>
        <time>2024-09-21T08:22:58.000Z</time>
      </trkpt>
      <trkpt lat="42.54522" lon="2.91959">
        <ele>61.56</ele>
        <time>2024-09-21T08:23:03.000Z</time>
      </trkpt>
      <trkpt lat="42.54501" lon="2.91961">
        <ele>61.59</ele>
        <time>2024-09-21T08:23:08.000Z</time>
      </trkpt>
      <trkpt lat="42.54483" lon="2.91961">
        <ele>61.61</ele>
        <time>2024-09-21T08:23:13.000Z</time>
      </trkpt>
      <trkpt lat="42.54465" lon="2.9196">
        <ele>61.72</ele>
        <time>2024-09-21T08:23:18.000Z</time>
      </trkpt>
      <trkpt lat="42.54444" lon="2.91963">
        <ele>61.87</ele>
        <time>2024-09-21T08:23:23.000Z</time>
      </trkpt>
      <trkpt lat="42.54422" lon="2.91967">
        <ele>62.03</ele>
        <time>2024-09-21T08:23:28.000Z</time>
      </trkpt>
      <trkpt lat="42.54401" lon="2.91974">
        <ele>62.12</ele>
        <time>2024-09-21T08:23:33.000Z</time>
      </trkpt>
      <trkpt lat="42.54382" lon="2.9198">
        <ele>62.14</ele>
        <time>2024-09-21T08:23:38.000Z</time>
      </trkpt>
      <trkpt lat="42.54371" lon="2.91981">
        <ele>62.16</ele>
        <time>2024-09-21T08:23:43.000Z</time>
      </trkpt>
      <trkpt lat="42.54359" lon="2.91981">
        <ele>62.18</ele>
        <time>2024-09-21T08:23:48.000Z</time>
      </trkpt>
      <trkpt lat="42.54349" lon="2.91989">
        <ele>62.22</ele>
        <time>2024-09-21T08:23:53.000Z</time>
      </trkpt>
      <trkpt lat="42.54349" lon="2.92002">
        <ele>62.28</ele>
        <time>2024-09-21T08:24:08.000Z</time>
      </trkpt>
      <trkpt lat="42.54345" lon="2.9199">
        <ele>63.01</ele>
        <time>2024-09-21T08:25:12.000Z</time>
      </trkpt>
      <trkpt lat="42.5435" lon="2.92">
        <ele>63.9</ele>
        <time>2024-09-21T08:27:40.000Z</time>
      </trkpt>
      <trkpt lat="42.54354" lon="2.92014">
        <ele>63.98</ele>
        <time>2024-09-21T08:27:49.000Z</time>
      </trkpt>
      <trkpt lat="42.54359" lon="2.92037">
        <ele>64.14</ele>
        <time>2024-09-21T08:27:54.000Z</time>
      </trkpt>
      <trkpt lat="42.54366" lon="2.92066">
        <ele>64.29</ele>
        <time>2024-09-21T08:27:59.000Z</time>
      </trkpt>
      <trkpt lat="42.54375" lon="2.92101">
        <ele>64.29</ele>
        <time>2024-09-21T08:28:04.000Z</time>
      </trkpt>
      <trkpt lat="42.54382" lon="2.92137">
        <ele>64.24</ele>
        <time>2024-09-21T08:28:09.000Z</time>
      </trkpt>
      <trkpt lat="42.54388" lon="2.92167">
        <ele>64.22</ele>
        <time>2024-09-21T08:28:14.000Z</time>
      </trkpt>
      <trkpt lat="42.54393" lon="2.92198">
        <ele>64.21</ele>
        <time>2024-09-21T08:28:19.000Z</time>
      </trkpt>
      <trkpt lat="42.54398" lon="2.92232">
        <ele>64.21</ele>
        <time>2024-09-21T08:28:24.000Z</time>
      </trkpt>
      <trkpt lat="42.54404" lon="2.92271">
        <ele>64.22</ele>
        <time>2024-09-21T08:28:29.000Z</time>
      </trkpt>
      <trkpt lat="42.5441" lon="2.92313">
        <ele>64.25</ele>
        <time>2024-09-21T08:28:34.000Z</time>
      </trkpt>
      <trkpt lat="42.54415" lon="2.92354">
        <ele>64.37</ele>
        <time>2024-09-21T08:28:39.000Z</time>
      </trkpt>
      <trkpt lat="42.5442" lon="2.92391">
        <ele>64.34</ele>
        <time>2024-09-21T08:28:44.000Z</time>
      </trkpt>
      <trkpt lat="42.54425" lon="2.92425">
        <ele>64.38</ele>
        <time>2024-09-21T08:28:49.000Z</time>
      </trkpt>
      <trkpt lat="42.54431" lon="2.92464">
        <ele>64.2</ele>
        <time>2024-09-21T08:28:54.000Z</time>
      </trkpt>
      <trkpt lat="42.54437" lon="2.92503">
        <ele>63.72</ele>
        <time>2024-09-21T08:28:59.000Z</time>
      </trkpt>
      <trkpt lat="42.54442" lon="2.92541">
        <ele>63.96</ele>
        <time>2024-09-21T08:29:04.000Z</time>
      </trkpt>
      <trkpt lat="42.54447" lon="2.92576">
        <ele>64.38</ele>
        <time>2024-09-21T08:29:09.000Z</time>
      </trkpt>
      <trkpt lat="42.54448" lon="2.92611">
        <ele>64.57</ele>
        <time>2024-09-21T08:29:14.000Z</time>
      </trkpt>
      <trkpt lat="42.54439" lon="2.92643">
        <ele>64.67</ele>
        <time>2024-09-21T08:29:19.000Z</time>
      </trkpt>
      <trkpt lat="42.54456" lon="2.92666">
        <ele>64.7</ele>
        <time>2024-09-21T08:29:24.000Z</time>
      </trkpt>
      <trkpt lat="42.54467" lon="2.92702">
        <ele>64.7</ele>
        <time>2024-09-21T08:29:29.000Z</time>
      </trkpt>
      <trkpt lat="42.54473" lon="2.92743">
        <ele>64.74</ele>
        <time>2024-09-21T08:29:34.000Z</time>
      </trkpt>
      <trkpt lat="42.5448" lon="2.92788">
        <ele>64.8</ele>
        <time>2024-09-21T08:29:39.000Z</time>
      </trkpt>
      <trkpt lat="42.54485" lon="2.92834">
        <ele>64.95</ele>
        <time>2024-09-21T08:29:44.000Z</time>
      </trkpt>
      <trkpt lat="42.54492" lon="2.92882">
        <ele>65.53</ele>
        <time>2024-09-21T08:29:49.000Z</time>
      </trkpt>
      <trkpt lat="42.545" lon="2.92928">
        <ele>65.93</ele>
        <time>2024-09-21T08:29:54.000Z</time>
      </trkpt>
      <trkpt lat="42.54508" lon="2.92976">
        <ele>66.29</ele>
        <time>2024-09-21T08:29:59.000Z</time>
      </trkpt>
      <trkpt lat="42.54516" lon="2.93026">
        <ele>66.38</ele>
        <time>2024-09-21T08:30:04.000Z</time>
      </trkpt>
      <trkpt lat="42.54523" lon="2.93073">
        <ele>66.95</ele>
        <time>2024-09-21T08:30:09.000Z</time>
      </trkpt>
      <trkpt lat="42.5453" lon="2.93119">
        <ele>66.96</ele>
        <time>2024-09-21T08:30:14.000Z</time>
      </trkpt>
      <trkpt lat="42.54536" lon="2.93166">
        <ele>67.02</ele>
        <time>2024-09-21T08:30:19.000Z</time>
      </trkpt>
      <trkpt lat="42.54543" lon="2.93214">
        <ele>67.07</ele>
        <time>2024-09-21T08:30:24.000Z</time>
      </trkpt>
      <trkpt lat="42.5455" lon="2.93264">
        <ele>66.33</ele>
        <time>2024-09-21T08:30:29.000Z</time>
      </trkpt>
      <trkpt lat="42.54557" lon="2.93316">
        <ele>65.51</ele>
        <time>2024-09-21T08:30:34.000Z</time>
      </trkpt>
      <trkpt lat="42.54565" lon="2.93366">
        <ele>64.84</ele>
        <time>2024-09-21T08:30:39.000Z</time>
      </trkpt>
      <trkpt lat="42.54572" lon="2.93416">
        <ele>64.56</ele>
        <time>2024-09-21T08:30:44.000Z</time>
      </trkpt>
      <trkpt lat="42.5458" lon="2.93465">
        <ele>64.89</ele>
        <time>2024-09-21T08:30:49.000Z</time>
      </trkpt>
      <trkpt lat="42.54587" lon="2.93513">
        <ele>65.13</ele>
        <time>2024-09-21T08:30:54.000Z</time>
      </trkpt>
      <trkpt lat="42.54595" lon="2.93561">
        <ele>65.47</ele>
        <time>2024-09-21T08:30:59.000Z</time>
      </trkpt>
      <trkpt lat="42.54603" lon="2.93609">
        <ele>65.8</ele>
        <time>2024-09-21T08:31:04.000Z</time>
      </trkpt>
      <trkpt lat="42.5461" lon="2.93657">
        <ele>66.21</ele>
        <time>2024-09-21T08:31:09.000Z</time>
      </trkpt>
      <trkpt lat="42.54617" lon="2.93703">
        <ele>66.04</ele>
        <time>2024-09-21T08:31:14.000Z</time>
      </trkpt>
      <trkpt lat="42.54623" lon="2.93744">
        <ele>65.92</ele>
        <time>2024-09-21T08:31:19.000Z</time>
      </trkpt>
      <trkpt lat="42.54629" lon="2.93787">
        <ele>65.51</ele>
        <time>2024-09-21T08:31:24.000Z</time>
      </trkpt>
      <trkpt lat="42.54635" lon="2.93826">
        <ele>65.35</ele>
        <time>2024-09-21T08:31:29.000Z</time>
      </trkpt>
      <trkpt lat="42.5464" lon="2.93865">
        <ele>65.77</ele>
        <time>2024-09-21T08:31:34.000Z</time>
      </trkpt>
      <trkpt lat="42.54646" lon="2.93905">
        <ele>66.24</ele>
        <time>2024-09-21T08:31:39.000Z</time>
      </trkpt>
      <trkpt lat="42.54653" lon="2.93945">
        <ele>66.66</ele>
        <time>2024-09-21T08:31:44.000Z</time>
      </trkpt>
      <trkpt lat="42.5466" lon="2.93989">
        <ele>66.77</ele>
        <time>2024-09-21T08:31:49.000Z</time>
      </trkpt>
      <trkpt lat="42.54666" lon="2.94032">
        <ele>67.46</ele>
        <time>2024-09-21T08:31:54.000Z</time>
      </trkpt>
      <trkpt lat="42.54673" lon="2.94072">
        <ele>68.2</ele>
        <time>2024-09-21T08:31:59.000Z</time>
      </trkpt>
      <trkpt lat="42.5468" lon="2.9411">
        <ele>68.32</ele>
        <time>2024-09-21T08:32:04.000Z</time>
      </trkpt>
      <trkpt lat="42.54686" lon="2.94145">
        <ele>67.44</ele>
        <time>2024-09-21T08:32:09.000Z</time>
      </trkpt>
      <trkpt lat="42.54684" lon="2.94178">
        <ele>66.57</ele>
        <time>2024-09-21T08:32:14.000Z</time>
      </trkpt>
      <trkpt lat="42.54697" lon="2.942">
        <ele>66.17</ele>
        <time>2024-09-21T08:32:19.000Z</time>
      </trkpt>
      <trkpt lat="42.54723" lon="2.94187">
        <ele>65.26</ele>
        <time>2024-09-21T08:32:24.000Z</time>
      </trkpt>
      <trkpt lat="42.54746" lon="2.94204">
        <ele>64.57</ele>
        <time>2024-09-21T08:32:29.000Z</time>
      </trkpt>
      <trkpt lat="42.54761" lon="2.94222">
        <ele>64.38</ele>
        <time>2024-09-21T08:32:34.000Z</time>
      </trkpt>
      <trkpt lat="42.54787" lon="2.94232">
        <ele>64.2</ele>
        <time>2024-09-21T08:32:39.000Z</time>
      </trkpt>
      <trkpt lat="42.54826" lon="2.94247">
        <ele>63.92</ele>
        <time>2024-09-21T08:32:44.999Z</time>
      </trkpt>
      <trkpt lat="42.54856" lon="2.94261">
        <ele>63.85</ele>
        <time>2024-09-21T08:32:49.999Z</time>
      </trkpt>
      <trkpt lat="42.54884" lon="2.94274">
        <ele>63.54</ele>
        <time>2024-09-21T08:32:54.999Z</time>
      </trkpt>
      <trkpt lat="42.54905" lon="2.94298">
        <ele>63.37</ele>
        <time>2024-09-21T08:32:59.999Z</time>
      </trkpt>
      <trkpt lat="42.5492" lon="2.94332">
        <ele>63.48</ele>
        <time>2024-09-21T08:33:04.999Z</time>
      </trkpt>
      <trkpt lat="42.54941" lon="2.94359">
        <ele>63.35</ele>
        <time>2024-09-21T08:33:09.999Z</time>
      </trkpt>
      <trkpt lat="42.54968" lon="2.94361">
        <ele>63.03</ele>
        <time>2024-09-21T08:33:14.999Z</time>
      </trkpt>
      <trkpt lat="42.54967" lon="2.94375">
        <ele>62.99</ele>
        <time>2024-09-21T08:33:19.999Z</time>
      </trkpt>
      <trkpt lat="42.54973" lon="2.94364">
        <ele>62.83</ele>
        <time>2024-09-21T08:33:38.999Z</time>
      </trkpt>
      <trkpt lat="42.54987" lon="2.94351">
        <ele>62.59</ele>
        <time>2024-09-21T08:33:43.999Z</time>
      </trkpt>
      <trkpt lat="42.55006" lon="2.94337">
        <ele>61.98</ele>
        <time>2024-09-21T08:33:48.999Z</time>
      </trkpt>
      <trkpt lat="42.55032" lon="2.94338">
        <ele>62</ele>
        <time>2024-09-21T08:33:53.999Z</time>
      </trkpt>
      <trkpt lat="42.55054" lon="2.94321">
        <ele>61.75</ele>
        <time>2024-09-21T08:33:58.999Z</time>
      </trkpt>
      <trkpt lat="42.55071" lon="2.9433">
        <ele>61.36</ele>
        <time>2024-09-21T08:34:03.999Z</time>
      </trkpt>
      <trkpt lat="42.55086" lon="2.94359">
        <ele>61.01</ele>
        <time>2024-09-21T08:34:08.999Z</time>
      </trkpt>
      <trkpt lat="42.55104" lon="2.94384">
        <ele>60.73</ele>
        <time>2024-09-21T08:34:13.999Z</time>
      </trkpt>
      <trkpt lat="42.55124" lon="2.944">
        <ele>60.42</ele>
        <time>2024-09-21T08:34:18.999Z</time>
      </trkpt>
      <trkpt lat="42.55139" lon="2.94413">
        <ele>60.29</ele>
        <time>2024-09-21T08:34:23.999Z</time>
      </trkpt>
      <trkpt lat="42.55122" lon="2.9443">
        <ele>59.96</ele>
        <time>2024-09-21T08:34:28.999Z</time>
      </trkpt>
      <trkpt lat="42.55104" lon="2.9445">
        <ele>59.8</ele>
        <time>2024-09-21T08:34:33.999Z</time>
      </trkpt>
      <trkpt lat="42.55086" lon="2.94467">
        <ele>59.7</ele>
        <time>2024-09-21T08:34:38.999Z</time>
      </trkpt>
      <trkpt lat="42.55083" lon="2.94492">
        <ele>59.72</ele>
        <time>2024-09-21T08:34:43.999Z</time>
      </trkpt>
      <trkpt lat="42.55089" lon="2.94522">
        <ele>59.81</ele>
        <time>2024-09-21T08:34:48.999Z</time>
      </trkpt>
      <trkpt lat="42.55095" lon="2.94553">
        <ele>59.97</ele>
        <time>2024-09-21T08:34:53.999Z</time>
      </trkpt>
      <trkpt lat="42.55103" lon="2.94584">
        <ele>60.12</ele>
        <time>2024-09-21T08:34:58.999Z</time>
      </trkpt>
      <trkpt lat="42.55109" lon="2.94616">
        <ele>60.2</ele>
        <time>2024-09-21T08:35:03.999Z</time>
      </trkpt>
      <trkpt lat="42.55117" lon="2.94647">
        <ele>60.26</ele>
        <time>2024-09-21T08:35:08.999Z</time>
      </trkpt>
      <trkpt lat="42.55125" lon="2.94679">
        <ele>60.27</ele>
        <time>2024-09-21T08:35:13.999Z</time>
      </trkpt>
      <trkpt lat="42.55135" lon="2.94711">
        <ele>60.22</ele>
        <time>2024-09-21T08:35:18.999Z</time>
      </trkpt>
      <trkpt lat="42.55146" lon="2.94744">
        <ele>60.14</ele>
        <time>2024-09-21T08:35:23.999Z</time>
      </trkpt>
      <trkpt lat="42.55156" lon="2.94777">
        <ele>60.05</ele>
        <time>2024-09-21T08:35:28.999Z</time>
      </trkpt>
      <trkpt lat="42.55166" lon="2.94808">
        <ele>59.95</ele>
        <time>2024-09-21T08:35:33.999Z</time>
      </trkpt>
      <trkpt lat="42.55179" lon="2.94836">
        <ele>59.85</ele>
        <time>2024-09-21T08:35:38.999Z</time>
      </trkpt>
      <trkpt lat="42.5519" lon="2.94863">
        <ele>59.78</ele>
        <time>2024-09-21T08:35:43.999Z</time>
      </trkpt>
      <trkpt lat="42.552" lon="2.9489">
        <ele>59.73</ele>
        <time>2024-09-21T08:35:48.999Z</time>
      </trkpt>
      <trkpt lat="42.5521" lon="2.94916">
        <ele>59.69</ele>
        <time>2024-09-21T08:35:53.999Z</time>
      </trkpt>
      <trkpt lat="42.55221" lon="2.94942">
        <ele>59.66</ele>
        <time>2024-09-21T08:35:58.999Z</time>
      </trkpt>
      <trkpt lat="42.55233" lon="2.94968">
        <ele>59.64</ele>
        <time>2024-09-21T08:36:03.999Z</time>
      </trkpt>
      <trkpt lat="42.55246" lon="2.94995">
        <ele>59.62</ele>
        <time>2024-09-21T08:36:08.999Z</time>
      </trkpt>
      <trkpt lat="42.5526" lon="2.95021">
        <ele>59.58</ele>
        <time>2024-09-21T08:36:13.999Z</time>
      </trkpt>
      <trkpt lat="42.55275" lon="2.95047">
        <ele>59.52</ele>
        <time>2024-09-21T08:36:18.999Z</time>
      </trkpt>
      <trkpt lat="42.55291" lon="2.95072">
        <ele>59.47</ele>
        <time>2024-09-21T08:36:23.999Z</time>
      </trkpt>
      <trkpt lat="42.55308" lon="2.95097">
        <ele>59.4</ele>
        <time>2024-09-21T08:36:28.999Z</time>
      </trkpt>
      <trkpt lat="42.55328" lon="2.95123">
        <ele>59.3</ele>
        <time>2024-09-21T08:36:33.999Z</time>
      </trkpt>
      <trkpt lat="42.5535" lon="2.95149">
        <ele>59.19</ele>
        <time>2024-09-21T08:36:38.999Z</time>
      </trkpt>
      <trkpt lat="42.55369" lon="2.95176">
        <ele>59.06</ele>
        <time>2024-09-21T08:36:43.999Z</time>
      </trkpt>
      <trkpt lat="42.5539" lon="2.95203">
        <ele>58.97</ele>
        <time>2024-09-21T08:36:48.999Z</time>
      </trkpt>
      <trkpt lat="42.5541" lon="2.95229">
        <ele>58.89</ele>
        <time>2024-09-21T08:36:53.999Z</time>
      </trkpt>
      <trkpt lat="42.5543" lon="2.95254">
        <ele>58.69</ele>
        <time>2024-09-21T08:36:58.999Z</time>
      </trkpt>
      <trkpt lat="42.55451" lon="2.95279">
        <ele>58.52</ele>
        <time>2024-09-21T08:37:03.999Z</time>
      </trkpt>
      <trkpt lat="42.55473" lon="2.95303">
        <ele>58.39</ele>
        <time>2024-09-21T08:37:08.999Z</time>
      </trkpt>
      <trkpt lat="42.55495" lon="2.95327">
        <ele>58.28</ele>
        <time>2024-09-21T08:37:13.999Z</time>
      </trkpt>
      <trkpt lat="42.55516" lon="2.95349">
        <ele>58.21</ele>
        <time>2024-09-21T08:37:18.999Z</time>
      </trkpt>
      <trkpt lat="42.55537" lon="2.95371">
        <ele>58.1</ele>
        <time>2024-09-21T08:37:23.999Z</time>
      </trkpt>
      <trkpt lat="42.55558" lon="2.95393">
        <ele>57.98</ele>
        <time>2024-09-21T08:37:28.999Z</time>
      </trkpt>
      <trkpt lat="42.55577" lon="2.95419">
        <ele>57.88</ele>
        <time>2024-09-21T08:37:33.999Z</time>
      </trkpt>
      <trkpt lat="42.55598" lon="2.95445">
        <ele>57.81</ele>
        <time>2024-09-21T08:37:38.999Z</time>
      </trkpt>
      <trkpt lat="42.55618" lon="2.9547">
        <ele>57.78</ele>
        <time>2024-09-21T08:37:43.999Z</time>
      </trkpt>
      <trkpt lat="42.55637" lon="2.95496">
        <ele>57.72</ele>
        <time>2024-09-21T08:37:48.999Z</time>
      </trkpt>
      <trkpt lat="42.55653" lon="2.95519">
        <ele>57.56</ele>
        <time>2024-09-21T08:37:53.999Z</time>
      </trkpt>
      <trkpt lat="42.5567" lon="2.95545">
        <ele>57.41</ele>
        <time>2024-09-21T08:37:58.999Z</time>
      </trkpt>
      <trkpt lat="42.55685" lon="2.95572">
        <ele>57.26</ele>
        <time>2024-09-21T08:38:03.999Z</time>
      </trkpt>
      <trkpt lat="42.55698" lon="2.95605">
        <ele>57.13</ele>
        <time>2024-09-21T08:38:08.999Z</time>
      </trkpt>
      <trkpt lat="42.55711" lon="2.95637">
        <ele>57.01</ele>
        <time>2024-09-21T08:38:13.999Z</time>
      </trkpt>
      <trkpt lat="42.55725" lon="2.95665">
        <ele>56.9</ele>
        <time>2024-09-21T08:38:18.999Z</time>
      </trkpt>
      <trkpt lat="42.55738" lon="2.95697">
        <ele>56.83</ele>
        <time>2024-09-21T08:38:23.999Z</time>
      </trkpt>
      <trkpt lat="42.55751" lon="2.95729">
        <ele>56.79</ele>
        <time>2024-09-21T08:38:28.999Z</time>
      </trkpt>
      <trkpt lat="42.55762" lon="2.95765">
        <ele>56.81</ele>
        <time>2024-09-21T08:38:33.999Z</time>
      </trkpt>
      <trkpt lat="42.55773" lon="2.95801">
        <ele>56.83</ele>
        <time>2024-09-21T08:38:38.999Z</time>
      </trkpt>
      <trkpt lat="42.55782" lon="2.95836">
        <ele>56.82</ele>
        <time>2024-09-21T08:38:43.999Z</time>
      </trkpt>
      <trkpt lat="42.5579" lon="2.95869">
        <ele>56.8</ele>
        <time>2024-09-21T08:38:48.999Z</time>
      </trkpt>
      <trkpt lat="42.55797" lon="2.95903">
        <ele>56.73</ele>
        <time>2024-09-21T08:38:53.999Z</time>
      </trkpt>
      <trkpt lat="42.55804" lon="2.95938">
        <ele>56.63</ele>
        <time>2024-09-21T08:38:58.999Z</time>
      </trkpt>
      <trkpt lat="42.55811" lon="2.9597">
        <ele>56.56</ele>
        <time>2024-09-21T08:39:03.999Z</time>
      </trkpt>
      <trkpt lat="42.55815" lon="2.96002">
        <ele>56.49</ele>
        <time>2024-09-21T08:39:08.999Z</time>
      </trkpt>
      <trkpt lat="42.55818" lon="2.96036">
        <ele>56.42</ele>
        <time>2024-09-21T08:39:13.999Z</time>
      </trkpt>
      <trkpt lat="42.55821" lon="2.96069">
        <ele>56.31</ele>
        <time>2024-09-21T08:39:18.999Z</time>
      </trkpt>
      <trkpt lat="42.55824" lon="2.96101">
        <ele>56.21</ele>
        <time>2024-09-21T08:39:23.999Z</time>
      </trkpt>
      <trkpt lat="42.55825" lon="2.96135">
        <ele>56.11</ele>
        <time>2024-09-21T08:39:28.999Z</time>
      </trkpt>
      <trkpt lat="42.55824" lon="2.96169">
        <ele>55.92</ele>
        <time>2024-09-21T08:39:33.999Z</time>
      </trkpt>
      <trkpt lat="42.55826" lon="2.96206">
        <ele>55.75</ele>
        <time>2024-09-21T08:39:38.999Z</time>
      </trkpt>
      <trkpt lat="42.55828" lon="2.96247">
        <ele>55.62</ele>
        <time>2024-09-21T08:39:43.999Z</time>
      </trkpt>
      <trkpt lat="42.55828" lon="2.96286">
        <ele>55.5</ele>
        <time>2024-09-21T08:39:48.999Z</time>
      </trkpt>
      <trkpt lat="42.5583" lon="2.96323">
        <ele>55.41</ele>
        <time>2024-09-21T08:39:53.999Z</time>
      </trkpt>
      <trkpt lat="42.5583" lon="2.96356">
        <ele>55.33</ele>
        <time>2024-09-21T08:39:58.999Z</time>
      </trkpt>
      <trkpt lat="42.55833" lon="2.96386">
        <ele>55.16</ele>
        <time>2024-09-21T08:40:03.999Z</time>
      </trkpt>
      <trkpt lat="42.55838" lon="2.96417">
        <ele>54.82</ele>
        <time>2024-09-21T08:40:08.999Z</time>
      </trkpt>
      <trkpt lat="42.55844" lon="2.96442">
        <ele>54.66</ele>
        <time>2024-09-21T08:40:13.999Z</time>
      </trkpt>
      <trkpt lat="42.55848" lon="2.96461">
        <ele>54.64</ele>
        <time>2024-09-21T08:40:18.999Z</time>
      </trkpt>
      <trkpt lat="42.55849" lon="2.96483">
        <ele>54.61</ele>
        <time>2024-09-21T08:40:23.999Z</time>
      </trkpt>
      <trkpt lat="42.55845" lon="2.96504">
        <ele>54.58</ele>
        <time>2024-09-21T08:40:28.999Z</time>
      </trkpt>
      <trkpt lat="42.55842" lon="2.96522">
        <ele>54.54</ele>
        <time>2024-09-21T08:40:33.999Z</time>
      </trkpt>
      <trkpt lat="42.5585" lon="2.9653">
        <ele>54.47</ele>
        <time>2024-09-21T08:40:40.999Z</time>
      </trkpt>
      <trkpt lat="42.55862" lon="2.96529">
        <ele>54.35</ele>
        <time>2024-09-21T08:40:56.999Z</time>
      </trkpt>
      <trkpt lat="42.55868" lon="2.9654">
        <ele>54.26</ele>
        <time>2024-09-21T08:41:01.999Z</time>
      </trkpt>
      <trkpt lat="42.55853" lon="2.96561">
        <ele>53.68</ele>
        <time>2024-09-21T08:41:06.999Z</time>
      </trkpt>
      <trkpt lat="42.5584" lon="2.96589">
        <ele>53.46</ele>
        <time>2024-09-21T08:41:11.999Z</time>
      </trkpt>
      <trkpt lat="42.55833" lon="2.9662">
        <ele>53.38</ele>
        <time>2024-09-21T08:41:16.999Z</time>
      </trkpt>
      <trkpt lat="42.55827" lon="2.96653">
        <ele>53.34</ele>
        <time>2024-09-21T08:41:21.999Z</time>
      </trkpt>
      <trkpt lat="42.55822" lon="2.96685">
        <ele>53.36</ele>
        <time>2024-09-21T08:41:26.999Z</time>
      </trkpt>
      <trkpt lat="42.55817" lon="2.96716">
        <ele>53.39</ele>
        <time>2024-09-21T08:41:31.999Z</time>
      </trkpt>
      <trkpt lat="42.55811" lon="2.96748">
        <ele>53.39</ele>
        <time>2024-09-21T08:41:36.999Z</time>
      </trkpt>
      <trkpt lat="42.55807" lon="2.9678">
        <ele>53.39</ele>
        <time>2024-09-21T08:41:41.999Z</time>
      </trkpt>
      <trkpt lat="42.55805" lon="2.96811">
        <ele>53.35</ele>
        <time>2024-09-21T08:41:46.999Z</time>
      </trkpt>
      <trkpt lat="42.55802" lon="2.96845">
        <ele>53.25</ele>
        <time>2024-09-21T08:41:51.999Z</time>
      </trkpt>
      <trkpt lat="42.55802" lon="2.96879">
        <ele>53.08</ele>
        <time>2024-09-21T08:41:56.999Z</time>
      </trkpt>
      <trkpt lat="42.558" lon="2.96916">
        <ele>52.89</ele>
        <time>2024-09-21T08:42:01.999Z</time>
      </trkpt>
      <trkpt lat="42.55797" lon="2.96953">
        <ele>52.68</ele>
        <time>2024-09-21T08:42:06.999Z</time>
      </trkpt>
      <trkpt lat="42.55795" lon="2.96987">
        <ele>52.47</ele>
        <time>2024-09-21T08:42:11.999Z</time>
      </trkpt>
      <trkpt lat="42.55805" lon="2.97014">
        <ele>52.24</ele>
        <time>2024-09-21T08:42:16.999Z</time>
      </trkpt>
      <trkpt lat="42.55827" lon="2.9702">
        <ele>52.02</ele>
        <time>2024-09-21T08:42:21.999Z</time>
      </trkpt>
      <trkpt lat="42.55849" lon="2.97018">
        <ele>51.85</ele>
        <time>2024-09-21T08:42:26.999Z</time>
      </trkpt>
      <trkpt lat="42.5587" lon="2.97025">
        <ele>51.67</ele>
        <time>2024-09-21T08:42:31.999Z</time>
      </trkpt>
      <trkpt lat="42.55868" lon="2.97047">
        <ele>51.46</ele>
        <time>2024-09-21T08:42:36.999Z</time>
      </trkpt>
      <trkpt lat="42.55851" lon="2.97059">
        <ele>51.28</ele>
        <time>2024-09-21T08:42:41.999Z</time>
      </trkpt>
      <trkpt lat="42.5583" lon="2.97067">
        <ele>51.07</ele>
        <time>2024-09-21T08:42:46.999Z</time>
      </trkpt>
      <trkpt lat="42.55807" lon="2.97077">
        <ele>50.95</ele>
        <time>2024-09-21T08:42:51.999Z</time>
      </trkpt>
      <trkpt lat="42.55791" lon="2.97103">
        <ele>50.85</ele>
        <time>2024-09-21T08:42:56.999Z</time>
      </trkpt>
      <trkpt lat="42.55789" lon="2.97136">
        <ele>50.75</ele>
        <time>2024-09-21T08:43:01.999Z</time>
      </trkpt>
      <trkpt lat="42.55789" lon="2.97169">
        <ele>50.67</ele>
        <time>2024-09-21T08:43:06.999Z</time>
      </trkpt>
      <trkpt lat="42.55788" lon="2.97202">
        <ele>50.59</ele>
        <time>2024-09-21T08:43:11.999Z</time>
      </trkpt>
      <trkpt lat="42.55787" lon="2.9724">
        <ele>50.46</ele>
        <time>2024-09-21T08:43:16.999Z</time>
      </trkpt>
      <trkpt lat="42.55786" lon="2.97286">
        <ele>50.2</ele>
        <time>2024-09-21T08:43:21.999Z</time>
      </trkpt>
      <trkpt lat="42.55786" lon="2.97328">
        <ele>49.9</ele>
        <time>2024-09-21T08:43:26.999Z</time>
      </trkpt>
      <trkpt lat="42.55783" lon="2.97361">
        <ele>49.69</ele>
        <time>2024-09-21T08:43:31.999Z</time>
      </trkpt>
      <trkpt lat="42.55774" lon="2.9739">
        <ele>49.08</ele>
        <time>2024-09-21T08:43:36.999Z</time>
      </trkpt>
      <trkpt lat="42.55779" lon="2.97428">
        <ele>48.49</ele>
        <time>2024-09-21T08:43:41.999Z</time>
      </trkpt>
      <trkpt lat="42.55782" lon="2.97448">
        <ele>48.45</ele>
        <time>2024-09-21T08:43:46.999Z</time>
      </trkpt>
      <trkpt lat="42.5578" lon="2.97472">
        <ele>48.24</ele>
        <time>2024-09-21T08:43:51.999Z</time>
      </trkpt>
      <trkpt lat="42.5578" lon="2.97502">
        <ele>47.9</ele>
        <time>2024-09-21T08:43:56.999Z</time>
      </trkpt>
      <trkpt lat="42.55782" lon="2.97536">
        <ele>47.55</ele>
        <time>2024-09-21T08:44:01.999Z</time>
      </trkpt>
      <trkpt lat="42.55782" lon="2.97569">
        <ele>47.31</ele>
        <time>2024-09-21T08:44:06.999Z</time>
      </trkpt>
      <trkpt lat="42.55781" lon="2.97599">
        <ele>47.05</ele>
        <time>2024-09-21T08:44:11.999Z</time>
      </trkpt>
      <trkpt lat="42.5578" lon="2.97627">
        <ele>46.84</ele>
        <time>2024-09-21T08:44:16.999Z</time>
      </trkpt>
      <trkpt lat="42.55777" lon="2.97651">
        <ele>46.81</ele>
        <time>2024-09-21T08:44:21.999Z</time>
      </trkpt>
      <trkpt lat="42.55771" lon="2.97668">
        <ele>46.77</ele>
        <time>2024-09-21T08:44:26.999Z</time>
      </trkpt>
      <trkpt lat="42.55775" lon="2.9768">
        <ele>46.71</ele>
        <time>2024-09-21T08:44:41.999Z</time>
      </trkpt>
      <trkpt lat="42.55781" lon="2.97701">
        <ele>46.63</ele>
        <time>2024-09-21T08:44:46.999Z</time>
      </trkpt>
      <trkpt lat="42.55778" lon="2.97724">
        <ele>46.42</ele>
        <time>2024-09-21T08:44:51.999Z</time>
      </trkpt>
      <trkpt lat="42.55771" lon="2.97745">
        <ele>46.42</ele>
        <time>2024-09-21T08:44:57.000Z</time>
      </trkpt>
      <trkpt lat="42.55763" lon="2.97765">
        <ele>46.46</ele>
        <time>2024-09-21T08:45:02.000Z</time>
      </trkpt>
      <trkpt lat="42.55755" lon="2.97788">
        <ele>46.61</ele>
        <time>2024-09-21T08:45:07.000Z</time>
      </trkpt>
      <trkpt lat="42.55749" lon="2.9781">
        <ele>46.67</ele>
        <time>2024-09-21T08:45:12.000Z</time>
      </trkpt>
      <trkpt lat="42.55743" lon="2.97834">
        <ele>46.95</ele>
        <time>2024-09-21T08:45:17.000Z</time>
      </trkpt>
      <trkpt lat="42.5574" lon="2.97859">
        <ele>47.19</ele>
        <time>2024-09-21T08:45:22.000Z</time>
      </trkpt>
      <trkpt lat="42.5574" lon="2.97884">
        <ele>47.34</ele>
        <time>2024-09-21T08:45:27.000Z</time>
      </trkpt>
      <trkpt lat="42.55744" lon="2.9791">
        <ele>47.42</ele>
        <time>2024-09-21T08:45:32.000Z</time>
      </trkpt>
      <trkpt lat="42.55743" lon="2.97929">
        <ele>47.43</ele>
        <time>2024-09-21T08:45:37.000Z</time>
      </trkpt>
      <trkpt lat="42.55731" lon="2.97945">
        <ele>47.42</ele>
        <time>2024-09-21T08:45:42.000Z</time>
      </trkpt>
      <trkpt lat="42.55718" lon="2.97962">
        <ele>47.43</ele>
        <time>2024-09-21T08:45:47.000Z</time>
      </trkpt>
      <trkpt lat="42.55705" lon="2.97981">
        <ele>47.46</ele>
        <time>2024-09-21T08:45:52.000Z</time>
      </trkpt>
      <trkpt lat="42.55697" lon="2.98004">
        <ele>47.47</ele>
        <time>2024-09-21T08:45:57.000Z</time>
      </trkpt>
      <trkpt lat="42.55691" lon="2.98028">
        <ele>47.55</ele>
        <time>2024-09-21T08:46:02.000Z</time>
      </trkpt>
      <trkpt lat="42.55684" lon="2.98054">
        <ele>47.55</ele>
        <time>2024-09-21T08:46:07.000Z</time>
      </trkpt>
      <trkpt lat="42.55677" lon="2.98078">
        <ele>47.57</ele>
        <time>2024-09-21T08:46:12.000Z</time>
      </trkpt>
      <trkpt lat="42.55671" lon="2.981">
        <ele>47.61</ele>
        <time>2024-09-21T08:46:17.000Z</time>
      </trkpt>
      <trkpt lat="42.55664" lon="2.98126">
        <ele>47.77</ele>
        <time>2024-09-21T08:46:22.000Z</time>
      </trkpt>
      <trkpt lat="42.55657" lon="2.98152">
        <ele>47.84</ele>
        <time>2024-09-21T08:46:27.000Z</time>
      </trkpt>
      <trkpt lat="42.55648" lon="2.9818">
        <ele>47.82</ele>
        <time>2024-09-21T08:46:32.000Z</time>
      </trkpt>
      <trkpt lat="42.55639" lon="2.98213">
        <ele>47.76</ele>
        <time>2024-09-21T08:46:37.000Z</time>
      </trkpt>
      <trkpt lat="42.5563" lon="2.98244">
        <ele>47.8</ele>
        <time>2024-09-21T08:46:42.000Z</time>
      </trkpt>
      <trkpt lat="42.55622" lon="2.98272">
        <ele>47.99</ele>
        <time>2024-09-21T08:46:47.000Z</time>
      </trkpt>
      <trkpt lat="42.55614" lon="2.983">
        <ele>48.25</ele>
        <time>2024-09-21T08:46:52.000Z</time>
      </trkpt>
      <trkpt lat="42.55605" lon="2.98331">
        <ele>48.32</ele>
        <time>2024-09-21T08:46:57.000Z</time>
      </trkpt>
      <trkpt lat="42.55596" lon="2.98364">
        <ele>48.21</ele>
        <time>2024-09-21T08:47:02.000Z</time>
      </trkpt>
      <trkpt lat="42.55588" lon="2.98396">
        <ele>48.11</ele>
        <time>2024-09-21T08:47:07.000Z</time>
      </trkpt>
      <trkpt lat="42.55579" lon="2.98428">
        <ele>48.04</ele>
        <time>2024-09-21T08:47:12.000Z</time>
      </trkpt>
      <trkpt lat="42.5557" lon="2.98458">
        <ele>47.86</ele>
        <time>2024-09-21T08:47:17.000Z</time>
      </trkpt>
      <trkpt lat="42.55561" lon="2.98487">
        <ele>47.87</ele>
        <time>2024-09-21T08:47:22.000Z</time>
      </trkpt>
      <trkpt lat="42.55552" lon="2.98517">
        <ele>47.86</ele>
        <time>2024-09-21T08:47:27.000Z</time>
      </trkpt>
      <trkpt lat="42.55543" lon="2.98546">
        <ele>48</ele>
        <time>2024-09-21T08:47:32.000Z</time>
      </trkpt>
      <trkpt lat="42.55533" lon="2.98577">
        <ele>48.2</ele>
        <time>2024-09-21T08:47:37.000Z</time>
      </trkpt>
      <trkpt lat="42.55525" lon="2.98606">
        <ele>48.2</ele>
        <time>2024-09-21T08:47:42.000Z</time>
      </trkpt>
      <trkpt lat="42.55516" lon="2.98638">
        <ele>48.13</ele>
        <time>2024-09-21T08:47:47.000Z</time>
      </trkpt>
      <trkpt lat="42.55509" lon="2.98668">
        <ele>48.12</ele>
        <time>2024-09-21T08:47:52.000Z</time>
      </trkpt>
      <trkpt lat="42.55503" lon="2.98697">
        <ele>48.02</ele>
        <time>2024-09-21T08:47:57.000Z</time>
      </trkpt>
      <trkpt lat="42.55493" lon="2.98727">
        <ele>47.98</ele>
        <time>2024-09-21T08:48:02.000Z</time>
      </trkpt>
      <trkpt lat="42.55484" lon="2.98757">
        <ele>47.93</ele>
        <time>2024-09-21T08:48:07.000Z</time>
      </trkpt>
      <trkpt lat="42.55476" lon="2.98786">
        <ele>47.94</ele>
        <time>2024-09-21T08:48:12.000Z</time>
      </trkpt>
      <trkpt lat="42.55468" lon="2.98815">
        <ele>48.13</ele>
        <time>2024-09-21T08:48:17.000Z</time>
      </trkpt>
      <trkpt lat="42.55461" lon="2.98842">
        <ele>48.35</ele>
        <time>2024-09-21T08:48:22.000Z</time>
      </trkpt>
      <trkpt lat="42.55453" lon="2.98867">
        <ele>48.48</ele>
        <time>2024-09-21T08:48:27.000Z</time>
      </trkpt>
      <trkpt lat="42.55448" lon="2.98892">
        <ele>48.63</ele>
        <time>2024-09-21T08:48:32.000Z</time>
      </trkpt>
      <trkpt lat="42.5544" lon="2.98915">
        <ele>48.75</ele>
        <time>2024-09-21T08:48:37.000Z</time>
      </trkpt>
      <trkpt lat="42.55434" lon="2.98939">
        <ele>48.84</ele>
        <time>2024-09-21T08:48:42.000Z</time>
      </trkpt>
      <trkpt lat="42.55425" lon="2.98963">
        <ele>48.89</ele>
        <time>2024-09-21T08:48:47.000Z</time>
      </trkpt>
      <trkpt lat="42.55418" lon="2.98985">
        <ele>48.91</ele>
        <time>2024-09-21T08:48:52.000Z</time>
      </trkpt>
      <trkpt lat="42.55415" lon="2.98999">
        <ele>49.02</ele>
        <time>2024-09-21T08:49:21.000Z</time>
      </trkpt>
      <trkpt lat="42.55409" lon="2.99019">
        <ele>49.09</ele>
        <time>2024-09-21T08:49:26.000Z</time>
      </trkpt>
      <trkpt lat="42.55402" lon="2.99044">
        <ele>49.49</ele>
        <time>2024-09-21T08:49:31.000Z</time>
      </trkpt>
      <trkpt lat="42.55395" lon="2.99068">
        <ele>49.61</ele>
        <time>2024-09-21T08:49:36.000Z</time>
      </trkpt>
      <trkpt lat="42.55388" lon="2.99092">
        <ele>49.69</ele>
        <time>2024-09-21T08:49:41.000Z</time>
      </trkpt>
      <trkpt lat="42.55382" lon="2.99113">
        <ele>49.74</ele>
        <time>2024-09-21T08:49:46.000Z</time>
      </trkpt>
      <trkpt lat="42.55379" lon="2.99125">
        <ele>49.76</ele>
        <time>2024-09-21T08:50:56.000Z</time>
      </trkpt>
      <trkpt lat="42.55375" lon="2.99141">
        <ele>49.77</ele>
        <time>2024-09-21T08:51:01.000Z</time>
      </trkpt>
      <trkpt lat="42.55369" lon="2.99163">
        <ele>49.78</ele>
        <time>2024-09-21T08:51:06.000Z</time>
      </trkpt>
      <trkpt lat="42.55363" lon="2.9919">
        <ele>49.81</ele>
        <time>2024-09-21T08:51:11.000Z</time>
      </trkpt>
      <trkpt lat="42.55355" lon="2.99217">
        <ele>49.82</ele>
        <time>2024-09-21T08:51:16.000Z</time>
      </trkpt>
      <trkpt lat="42.55346" lon="2.99246">
        <ele>49.84</ele>
        <time>2024-09-21T08:51:21.000Z</time>
      </trkpt>
      <trkpt lat="42.55339" lon="2.99272">
        <ele>49.88</ele>
        <time>2024-09-21T08:51:26.000Z</time>
      </trkpt>
      <trkpt lat="42.55331" lon="2.99298">
        <ele>49.93</ele>
        <time>2024-09-21T08:51:31.000Z</time>
      </trkpt>
      <trkpt lat="42.55323" lon="2.99324">
        <ele>49.96</ele>
        <time>2024-09-21T08:51:36.000Z</time>
      </trkpt>
      <trkpt lat="42.55316" lon="2.99351">
        <ele>49.98</ele>
        <time>2024-09-21T08:51:41.000Z</time>
      </trkpt>
      <trkpt lat="42.55308" lon="2.99379">
        <ele>49.97</ele>
        <time>2024-09-21T08:51:46.000Z</time>
      </trkpt>
      <trkpt lat="42.55301" lon="2.99406">
        <ele>49.98</ele>
        <time>2024-09-21T08:51:51.000Z</time>
      </trkpt>
      <trkpt lat="42.55293" lon="2.99432">
        <ele>50</ele>
        <time>2024-09-21T08:51:56.000Z</time>
      </trkpt>
      <trkpt lat="42.55284" lon="2.99458">
        <ele>50.03</ele>
        <time>2024-09-21T08:52:01.000Z</time>
      </trkpt>
      <trkpt lat="42.55276" lon="2.99484">
        <ele>50.07</ele>
        <time>2024-09-21T08:52:06.000Z</time>
      </trkpt>
      <trkpt lat="42.55266" lon="2.99509">
        <ele>50.12</ele>
        <time>2024-09-21T08:52:11.000Z</time>
      </trkpt>
      <trkpt lat="42.55256" lon="2.99534">
        <ele>50.15</ele>
        <time>2024-09-21T08:52:16.000Z</time>
      </trkpt>
      <trkpt lat="42.55247" lon="2.99559">
        <ele>50.2</ele>
        <time>2024-09-21T08:52:21.000Z</time>
      </trkpt>
      <trkpt lat="42.55236" lon="2.99582">
        <ele>50.26</ele>
        <time>2024-09-21T08:52:26.000Z</time>
      </trkpt>
      <trkpt lat="42.55225" lon="2.99606">
        <ele>50.31</ele>
        <time>2024-09-21T08:52:31.000Z</time>
      </trkpt>
      <trkpt lat="42.55214" lon="2.99631">
        <ele>50.32</ele>
        <time>2024-09-21T08:52:36.000Z</time>
      </trkpt>
      <trkpt lat="42.55203" lon="2.99656">
        <ele>50.27</ele>
        <time>2024-09-21T08:52:41.000Z</time>
      </trkpt>
      <trkpt lat="42.55189" lon="2.99681">
        <ele>50.19</ele>
        <time>2024-09-21T08:52:46.000Z</time>
      </trkpt>
      <trkpt lat="42.55177" lon="2.99705">
        <ele>50.15</ele>
        <time>2024-09-21T08:52:51.000Z</time>
      </trkpt>
      <trkpt lat="42.55167" lon="2.9973">
        <ele>50.12</ele>
        <time>2024-09-21T08:52:56.000Z</time>
      </trkpt>
      <trkpt lat="42.55162" lon="2.99755">
        <ele>50.14</ele>
        <time>2024-09-21T08:53:01.000Z</time>
      </trkpt>
      <trkpt lat="42.55156" lon="2.99776">
        <ele>50.14</ele>
        <time>2024-09-21T08:53:06.000Z</time>
      </trkpt>
      <trkpt lat="42.55158" lon="2.99796">
        <ele>50.14</ele>
        <time>2024-09-21T08:53:11.000Z</time>
      </trkpt>
      <trkpt lat="42.55168" lon="2.99818">
        <ele>50.03</ele>
        <time>2024-09-21T08:53:16.000Z</time>
      </trkpt>
      <trkpt lat="42.55175" lon="2.99844">
        <ele>49.9</ele>
        <time>2024-09-21T08:53:21.000Z</time>
      </trkpt>
      <trkpt lat="42.55177" lon="2.99871">
        <ele>49.8</ele>
        <time>2024-09-21T08:53:26.000Z</time>
      </trkpt>
      <trkpt lat="42.55178" lon="2.99901">
        <ele>49.73</ele>
        <time>2024-09-21T08:53:31.000Z</time>
      </trkpt>
      <trkpt lat="42.55175" lon="2.99931">
        <ele>49.67</ele>
        <time>2024-09-21T08:53:36.000Z</time>
      </trkpt>
      <trkpt lat="42.55172" lon="2.99963">
        <ele>49.61</ele>
        <time>2024-09-21T08:53:41.000Z</time>
      </trkpt>
      <trkpt lat="42.55169" lon="2.99994">
        <ele>49.51</ele>
        <time>2024-09-21T08:53:46.000Z</time>
      </trkpt>
      <trkpt lat="42.55166" lon="3.00025">
        <ele>49.38</ele>
        <time>2024-09-21T08:53:51.000Z</time>
      </trkpt>
      <trkpt lat="42.55165" lon="3.00051">
        <ele>49.36</ele>
        <time>2024-09-21T08:53:56.000Z</time>
      </trkpt>
      <trkpt lat="42.55175" lon="3.00059">
        <ele>49.34</ele>
        <time>2024-09-21T08:54:01.000Z</time>
      </trkpt>
      <trkpt lat="42.55187" lon="3.00055">
        <ele>49.32</ele>
        <time>2024-09-21T08:54:06.000Z</time>
      </trkpt>
      <trkpt lat="42.55202" lon="3.00052">
        <ele>49.3</ele>
        <time>2024-09-21T08:54:11.000Z</time>
      </trkpt>
      <trkpt lat="42.55212" lon="3.00051">
        <ele>47.08</ele>
        <time>2024-09-21T09:01:05.999Z</time>
      </trkpt>
      <trkpt lat="42.55233" lon="3.00048">
        <ele>46.11</ele>
        <time>2024-09-21T09:01:10.999Z</time>
      </trkpt>
      <trkpt lat="42.55257" lon="3.00035">
        <ele>45.61</ele>
        <time>2024-09-21T09:01:15.999Z</time>
      </trkpt>
      <trkpt lat="42.55277" lon="3.00011">
        <ele>45.44</ele>
        <time>2024-09-21T09:01:20.999Z</time>
      </trkpt>
      <trkpt lat="42.55298" lon="2.99986">
        <ele>45.37</ele>
        <time>2024-09-21T09:01:25.999Z</time>
      </trkpt>
      <trkpt lat="42.55321" lon="2.99961">
        <ele>45.34</ele>
        <time>2024-09-21T09:01:30.999Z</time>
      </trkpt>
      <trkpt lat="42.55347" lon="2.99943">
        <ele>45.33</ele>
        <time>2024-09-21T09:01:35.999Z</time>
      </trkpt>
      <trkpt lat="42.55376" lon="2.99932">
        <ele>45.32</ele>
        <time>2024-09-21T09:01:40.999Z</time>
      </trkpt>
      <trkpt lat="42.55406" lon="2.99921">
        <ele>45.3</ele>
        <time>2024-09-21T09:01:45.999Z</time>
      </trkpt>
      <trkpt lat="42.55437" lon="2.99911">
        <ele>45.27</ele>
        <time>2024-09-21T09:01:50.999Z</time>
      </trkpt>
      <trkpt lat="42.55468" lon="2.99904">
        <ele>45.12</ele>
        <time>2024-09-21T09:01:55.999Z</time>
      </trkpt>
      <trkpt lat="42.55499" lon="2.99894">
        <ele>45.08</ele>
        <time>2024-09-21T09:02:00.999Z</time>
      </trkpt>
      <trkpt lat="42.5553" lon="2.99887">
        <ele>45.13</ele>
        <time>2024-09-21T09:02:05.999Z</time>
      </trkpt>
      <trkpt lat="42.55559" lon="2.99882">
        <ele>45.19</ele>
        <time>2024-09-21T09:02:10.999Z</time>
      </trkpt>
      <trkpt lat="42.55587" lon="2.99883">
        <ele>45.28</ele>
        <time>2024-09-21T09:02:15.999Z</time>
      </trkpt>
      <trkpt lat="42.55613" lon="2.99887">
        <ele>45.41</ele>
        <time>2024-09-21T09:02:20.999Z</time>
      </trkpt>
      <trkpt lat="42.55636" lon="2.99888">
        <ele>45.25</ele>
        <time>2024-09-21T09:02:25.999Z</time>
      </trkpt>
      <trkpt lat="42.55661" lon="2.99888">
        <ele>45.02</ele>
        <time>2024-09-21T09:02:30.999Z</time>
      </trkpt>
      <trkpt lat="42.55678" lon="2.99902">
        <ele>45.14</ele>
        <time>2024-09-21T09:02:35.999Z</time>
      </trkpt>
      <trkpt lat="42.55692" lon="2.99915">
        <ele>45.14</ele>
        <time>2024-09-21T09:02:40.999Z</time>
      </trkpt>
      <trkpt lat="42.55703" lon="2.99931">
        <ele>45.06</ele>
        <time>2024-09-21T09:02:45.999Z</time>
      </trkpt>
      <trkpt lat="42.55686" lon="2.99952">
        <ele>44.36</ele>
        <time>2024-09-21T09:02:50.999Z</time>
      </trkpt>
      <trkpt lat="42.55669" lon="2.99978">
        <ele>43.92</ele>
        <time>2024-09-21T09:02:55.999Z</time>
      </trkpt>
      <trkpt lat="42.55651" lon="3.00006">
        <ele>43.58</ele>
        <time>2024-09-21T09:03:00.999Z</time>
      </trkpt>
      <trkpt lat="42.55635" lon="3.00035">
        <ele>43.29</ele>
        <time>2024-09-21T09:03:05.999Z</time>
      </trkpt>
      <trkpt lat="42.55619" lon="3.00063">
        <ele>43.13</ele>
        <time>2024-09-21T09:03:10.999Z</time>
      </trkpt>
      <trkpt lat="42.55604" lon="3.00087">
        <ele>43.05</ele>
        <time>2024-09-21T09:03:15.999Z</time>
      </trkpt>
      <trkpt lat="42.55591" lon="3.0011">
        <ele>42.97</ele>
        <time>2024-09-21T09:03:20.999Z</time>
      </trkpt>
      <trkpt lat="42.55579" lon="3.00132">
        <ele>42.8</ele>
        <time>2024-09-21T09:03:25.999Z</time>
      </trkpt>
      <trkpt lat="42.55567" lon="3.00154">
        <ele>42.59</ele>
        <time>2024-09-21T09:03:30.999Z</time>
      </trkpt>
      <trkpt lat="42.55554" lon="3.00177">
        <ele>42.47</ele>
        <time>2024-09-21T09:03:35.999Z</time>
      </trkpt>
      <trkpt lat="42.55542" lon="3.00199">
        <ele>42.36</ele>
        <time>2024-09-21T09:03:40.999Z</time>
      </trkpt>
      <trkpt lat="42.5553" lon="3.00221">
        <ele>42.23</ele>
        <time>2024-09-21T09:03:45.999Z</time>
      </trkpt>
      <trkpt lat="42.55518" lon="3.00243">
        <ele>42.2</ele>
        <time>2024-09-21T09:03:50.999Z</time>
      </trkpt>
      <trkpt lat="42.55506" lon="3.00265">
        <ele>42.1</ele>
        <time>2024-09-21T09:03:55.999Z</time>
      </trkpt>
      <trkpt lat="42.55491" lon="3.0029">
        <ele>42.05</ele>
        <time>2024-09-21T09:04:00.999Z</time>
      </trkpt>
      <trkpt lat="42.55477" lon="3.00313">
        <ele>42.02</ele>
        <time>2024-09-21T09:04:05.999Z</time>
      </trkpt>
      <trkpt lat="42.55462" lon="3.0034">
        <ele>41.97</ele>
        <time>2024-09-21T09:04:10.999Z</time>
      </trkpt>
      <trkpt lat="42.55444" lon="3.00371">
        <ele>41.87</ele>
        <time>2024-09-21T09:04:15.999Z</time>
      </trkpt>
      <trkpt lat="42.55425" lon="3.00403">
        <ele>41.72</ele>
        <time>2024-09-21T09:04:20.999Z</time>
      </trkpt>
      <trkpt lat="42.5541" lon="3.00431">
        <ele>41.58</ele>
        <time>2024-09-21T09:04:25.999Z</time>
      </trkpt>
      <trkpt lat="42.55395" lon="3.00455">
        <ele>41.49</ele>
        <time>2024-09-21T09:04:30.999Z</time>
      </trkpt>
      <trkpt lat="42.55381" lon="3.0048">
        <ele>41.38</ele>
        <time>2024-09-21T09:04:35.999Z</time>
      </trkpt>
      <trkpt lat="42.55367" lon="3.00506">
        <ele>41.31</ele>
        <time>2024-09-21T09:04:40.999Z</time>
      </trkpt>
      <trkpt lat="42.55352" lon="3.00534">
        <ele>41.33</ele>
        <time>2024-09-21T09:04:45.999Z</time>
      </trkpt>
      <trkpt lat="42.55337" lon="3.00558">
        <ele>41.36</ele>
        <time>2024-09-21T09:04:50.999Z</time>
      </trkpt>
      <trkpt lat="42.55311" lon="3.00596">
        <ele>41.31</ele>
        <time>2024-09-21T09:04:55.999Z</time>
      </trkpt>
      <trkpt lat="42.55293" lon="3.00633">
        <ele>41.29</ele>
        <time>2024-09-21T09:05:00.999Z</time>
      </trkpt>
      <trkpt lat="42.55285" lon="3.00652">
        <ele>41.33</ele>
        <time>2024-09-21T09:05:05.999Z</time>
      </trkpt>
      <trkpt lat="42.55277" lon="3.00667">
        <ele>41.39</ele>
        <time>2024-09-21T09:05:10.999Z</time>
      </trkpt>
      <trkpt lat="42.55267" lon="3.00683">
        <ele>41.36</ele>
        <time>2024-09-21T09:05:15.999Z</time>
      </trkpt>
      <trkpt lat="42.55255" lon="3.00703">
        <ele>40.66</ele>
        <time>2024-09-21T09:05:20.999Z</time>
      </trkpt>
      <trkpt lat="42.55242" lon="3.00727">
        <ele>39.69</ele>
        <time>2024-09-21T09:05:25.999Z</time>
      </trkpt>
      <trkpt lat="42.55227" lon="3.00752">
        <ele>39.34</ele>
        <time>2024-09-21T09:05:30.999Z</time>
      </trkpt>
      <trkpt lat="42.55213" lon="3.00777">
        <ele>39.15</ele>
        <time>2024-09-21T09:05:35.999Z</time>
      </trkpt>
      <trkpt lat="42.55199" lon="3.00802">
        <ele>39.15</ele>
        <time>2024-09-21T09:05:40.999Z</time>
      </trkpt>
      <trkpt lat="42.55184" lon="3.00827">
        <ele>39.18</ele>
        <time>2024-09-21T09:05:45.999Z</time>
      </trkpt>
      <trkpt lat="42.55169" lon="3.00851">
        <ele>39.21</ele>
        <time>2024-09-21T09:05:50.999Z</time>
      </trkpt>
      <trkpt lat="42.55156" lon="3.00876">
        <ele>39.18</ele>
        <time>2024-09-21T09:05:55.999Z</time>
      </trkpt>
      <trkpt lat="42.55147" lon="3.00904">
        <ele>39.15</ele>
        <time>2024-09-21T09:06:00.999Z</time>
      </trkpt>
      <trkpt lat="42.5515" lon="3.00931">
        <ele>39.15</ele>
        <time>2024-09-21T09:06:05.999Z</time>
      </trkpt>
      <trkpt lat="42.55156" lon="3.00953">
        <ele>39.14</ele>
        <time>2024-09-21T09:06:10.999Z</time>
      </trkpt>
      <trkpt lat="42.55159" lon="3.00969">
        <ele>39.12</ele>
        <time>2024-09-21T09:06:15.999Z</time>
      </trkpt>
      <trkpt lat="42.5516" lon="3.00983">
        <ele>39.07</ele>
        <time>2024-09-21T09:06:21.999Z</time>
      </trkpt>
      <trkpt lat="42.55149" lon="3.00984">
        <ele>38.99</ele>
        <time>2024-09-21T09:06:34.999Z</time>
      </trkpt>
      <trkpt lat="42.55137" lon="3.00985">
        <ele>38.97</ele>
        <time>2024-09-21T09:06:39.999Z</time>
      </trkpt>
      <trkpt lat="42.55128" lon="3.01002">
        <ele>38.95</ele>
        <time>2024-09-21T09:06:44.999Z</time>
      </trkpt>
      <trkpt lat="42.55127" lon="3.01024">
        <ele>38.93</ele>
        <time>2024-09-21T09:06:49.999Z</time>
      </trkpt>
      <trkpt lat="42.55119" lon="3.01042">
        <ele>38.93</ele>
        <time>2024-09-21T09:06:54.999Z</time>
      </trkpt>
      <trkpt lat="42.55109" lon="3.01062">
        <ele>38.93</ele>
        <time>2024-09-21T09:06:59.999Z</time>
      </trkpt>
      <trkpt lat="42.55098" lon="3.0108">
        <ele>38.93</ele>
        <time>2024-09-21T09:07:04.999Z</time>
      </trkpt>
      <trkpt lat="42.55085" lon="3.01101">
        <ele>38.92</ele>
        <time>2024-09-21T09:07:09.999Z</time>
      </trkpt>
      <trkpt lat="42.55071" lon="3.01123">
        <ele>38.93</ele>
        <time>2024-09-21T09:07:14.999Z</time>
      </trkpt>
      <trkpt lat="42.55056" lon="3.01147">
        <ele>38.95</ele>
        <time>2024-09-21T09:07:19.999Z</time>
      </trkpt>
      <trkpt lat="42.55041" lon="3.0117">
        <ele>38.97</ele>
        <time>2024-09-21T09:07:24.999Z</time>
      </trkpt>
      <trkpt lat="42.55028" lon="3.01195">
        <ele>38.96</ele>
        <time>2024-09-21T09:07:29.999Z</time>
      </trkpt>
      <trkpt lat="42.55018" lon="3.01215">
        <ele>38.95</ele>
        <time>2024-09-21T09:07:34.999Z</time>
      </trkpt>
      <trkpt lat="42.55009" lon="3.01232">
        <ele>38.95</ele>
        <time>2024-09-21T09:07:39.999Z</time>
      </trkpt>
      <trkpt lat="42.55" lon="3.0124">
        <ele>38.95</ele>
        <time>2024-09-21T09:07:44.999Z</time>
      </trkpt>
      <trkpt lat="42.55008" lon="3.01256">
        <ele>38.94</ele>
        <time>2024-09-21T09:07:49.999Z</time>
      </trkpt>
      <trkpt lat="42.55005" lon="3.01283">
        <ele>38.72</ele>
        <time>2024-09-21T09:07:54.999Z</time>
      </trkpt>
      <trkpt lat="42.55004" lon="3.01313">
        <ele>38.47</ele>
        <time>2024-09-21T09:07:59.999Z</time>
      </trkpt>
      <trkpt lat="42.55002" lon="3.0134">
        <ele>38.27</ele>
        <time>2024-09-21T09:08:04.999Z</time>
      </trkpt>
      <trkpt lat="42.55002" lon="3.01369">
        <ele>38.16</ele>
        <time>2024-09-21T09:08:09.999Z</time>
      </trkpt>
      <trkpt lat="42.55" lon="3.01402">
        <ele>38.13</ele>
        <time>2024-09-21T09:08:14.999Z</time>
      </trkpt>
      <trkpt lat="42.54998" lon="3.01437">
        <ele>38.05</ele>
        <time>2024-09-21T09:08:19.999Z</time>
      </trkpt>
      <trkpt lat="42.54996" lon="3.01476">
        <ele>37.91</ele>
        <time>2024-09-21T09:08:24.999Z</time>
      </trkpt>
      <trkpt lat="42.54994" lon="3.0151">
        <ele>37.74</ele>
        <time>2024-09-21T09:08:29.999Z</time>
      </trkpt>
      <trkpt lat="42.54993" lon="3.01546">
        <ele>37.57</ele>
        <time>2024-09-21T09:08:34.999Z</time>
      </trkpt>
      <trkpt lat="42.5499" lon="3.01583">
        <ele>37.36</ele>
        <time>2024-09-21T09:08:39.999Z</time>
      </trkpt>
      <trkpt lat="42.54988" lon="3.01616">
        <ele>37.19</ele>
        <time>2024-09-21T09:08:44.999Z</time>
      </trkpt>
      <trkpt lat="42.54987" lon="3.01645">
        <ele>37.05</ele>
        <time>2024-09-21T09:08:49.999Z</time>
      </trkpt>
      <trkpt lat="42.54986" lon="3.01675">
        <ele>36.92</ele>
        <time>2024-09-21T09:08:54.999Z</time>
      </trkpt>
      <trkpt lat="42.54984" lon="3.01707">
        <ele>36.78</ele>
        <time>2024-09-21T09:08:59.999Z</time>
      </trkpt>
      <trkpt lat="42.54982" lon="3.01739">
        <ele>36.63</ele>
        <time>2024-09-21T09:09:04.999Z</time>
      </trkpt>
      <trkpt lat="42.54982" lon="3.0177">
        <ele>36.46</ele>
        <time>2024-09-21T09:09:09.999Z</time>
      </trkpt>
      <trkpt lat="42.54981" lon="3.01802">
        <ele>36.27</ele>
        <time>2024-09-21T09:09:15.000Z</time>
      </trkpt>
      <trkpt lat="42.54979" lon="3.01831">
        <ele>36.15</ele>
        <time>2024-09-21T09:09:20.000Z</time>
      </trkpt>
      <trkpt lat="42.5497" lon="3.01856">
        <ele>36.01</ele>
        <time>2024-09-21T09:09:25.000Z</time>
      </trkpt>
      <trkpt lat="42.54951" lon="3.01873">
        <ele>35.85</ele>
        <time>2024-09-21T09:09:30.000Z</time>
      </trkpt>
      <trkpt lat="42.54934" lon="3.0189">
        <ele>35.74</ele>
        <time>2024-09-21T09:09:35.000Z</time>
      </trkpt>
      <trkpt lat="42.54921" lon="3.01904">
        <ele>35.7</ele>
        <time>2024-09-21T09:09:40.000Z</time>
      </trkpt>
      <trkpt lat="42.54908" lon="3.01914">
        <ele>35.69</ele>
        <time>2024-09-21T09:09:45.000Z</time>
      </trkpt>
      <trkpt lat="42.54893" lon="3.01928">
        <ele>35.67</ele>
        <time>2024-09-21T09:09:50.000Z</time>
      </trkpt>
      <trkpt lat="42.54875" lon="3.01947">
        <ele>35.56</ele>
        <time>2024-09-21T09:09:55.000Z</time>
      </trkpt>
      <trkpt lat="42.5486" lon="3.0196">
        <ele>35.54</ele>
        <time>2024-09-21T09:10:00.000Z</time>
      </trkpt>
      <trkpt lat="42.5485" lon="3.01969">
        <ele>35.47</ele>
        <time>2024-09-21T09:10:19.000Z</time>
      </trkpt>
      <trkpt lat="42.54834" lon="3.01984">
        <ele>35.33</ele>
        <time>2024-09-21T09:10:24.000Z</time>
      </trkpt>
      <trkpt lat="42.54818" lon="3.01999">
        <ele>35.29</ele>
        <time>2024-09-21T09:10:29.000Z</time>
      </trkpt>
      <trkpt lat="42.54803" lon="3.02012">
        <ele>35.26</ele>
        <time>2024-09-21T09:10:34.000Z</time>
      </trkpt>
      <trkpt lat="42.54788" lon="3.02025">
        <ele>35.25</ele>
        <time>2024-09-21T09:10:39.000Z</time>
      </trkpt>
      <trkpt lat="42.54776" lon="3.02035">
        <ele>35.24</ele>
        <time>2024-09-21T09:10:44.000Z</time>
      </trkpt>
      <trkpt lat="42.54761" lon="3.02047">
        <ele>35.24</ele>
        <time>2024-09-21T09:10:49.000Z</time>
      </trkpt>
      <trkpt lat="42.5475" lon="3.02058">
        <ele>35.23</ele>
        <time>2024-09-21T09:10:54.000Z</time>
      </trkpt>
      <trkpt lat="42.54737" lon="3.02069">
        <ele>35.23</ele>
        <time>2024-09-21T09:10:59.000Z</time>
      </trkpt>
      <trkpt lat="42.54727" lon="3.02078">
        <ele>35.18</ele>
        <time>2024-09-21T09:11:19.000Z</time>
      </trkpt>
      <trkpt lat="42.54714" lon="3.02098">
        <ele>35</ele>
        <time>2024-09-21T09:11:24.000Z</time>
      </trkpt>
      <trkpt lat="42.54701" lon="3.02111">
        <ele>34.96</ele>
        <time>2024-09-21T09:11:29.000Z</time>
      </trkpt>
      <trkpt lat="42.54684" lon="3.02125">
        <ele>34.78</ele>
        <time>2024-09-21T09:11:34.000Z</time>
      </trkpt>
      <trkpt lat="42.54667" lon="3.0214">
        <ele>34.49</ele>
        <time>2024-09-21T09:11:39.000Z</time>
      </trkpt>
      <trkpt lat="42.5465" lon="3.02156">
        <ele>34.28</ele>
        <time>2024-09-21T09:11:44.000Z</time>
      </trkpt>
      <trkpt lat="42.54634" lon="3.0217">
        <ele>34.25</ele>
        <time>2024-09-21T09:11:49.000Z</time>
      </trkpt>
      <trkpt lat="42.54621" lon="3.02182">
        <ele>34.22</ele>
        <time>2024-09-21T09:11:54.000Z</time>
      </trkpt>
      <trkpt lat="42.54606" lon="3.02195">
        <ele>34.18</ele>
        <time>2024-09-21T09:11:59.000Z</time>
      </trkpt>
      <trkpt lat="42.54594" lon="3.02207">
        <ele>34.14</ele>
        <time>2024-09-21T09:12:04.000Z</time>
      </trkpt>
      <trkpt lat="42.54588" lon="3.02216">
        <ele>34.08</ele>
        <time>2024-09-21T09:12:11.000Z</time>
      </trkpt>
      <trkpt lat="42.54584" lon="3.02228">
        <ele>33.99</ele>
        <time>2024-09-21T09:12:18.000Z</time>
      </trkpt>
      <trkpt lat="42.54579" lon="3.02217">
        <ele>33.47</ele>
        <time>2024-09-21T09:13:23.000Z</time>
      </trkpt>
      <trkpt lat="42.5457" lon="3.02215">
        <ele>32.97</ele>
        <time>2024-09-21T09:14:43.000Z</time>
      </trkpt>
      <trkpt lat="42.54575" lon="3.02225">
        <ele>16.12</ele>
        <time>2024-09-21T09:40:21.000Z</time>
      </trkpt>
      <trkpt lat="42.54578" lon="3.02238">
        <ele>16.11</ele>
        <time>2024-09-21T09:40:43.000Z</time>
      </trkpt>
      <trkpt lat="42.54572" lon="3.02248">
        <ele>16.13</ele>
        <time>2024-09-21T09:40:54.000Z</time>
      </trkpt>
      <trkpt lat="42.54566" lon="3.02258">
        <ele>16.16</ele>
        <time>2024-09-21T09:41:04.000Z</time>
      </trkpt>
      <trkpt lat="42.54557" lon="3.02268">
        <ele>16.24</ele>
        <time>2024-09-21T09:41:10.000Z</time>
      </trkpt>
      <trkpt lat="42.54543" lon="3.02287">
        <ele>16.31</ele>
        <time>2024-09-21T09:41:15.000Z</time>
      </trkpt>
      <trkpt lat="42.54524" lon="3.02313">
        <ele>16.5</ele>
        <time>2024-09-21T09:41:20.000Z</time>
      </trkpt>
      <trkpt lat="42.54503" lon="3.02342">
        <ele>16.69</ele>
        <time>2024-09-21T09:41:25.000Z</time>
      </trkpt>
      <trkpt lat="42.54481" lon="3.02378">
        <ele>17.05</ele>
        <time>2024-09-21T09:41:30.000Z</time>
      </trkpt>
      <trkpt lat="42.54463" lon="3.02409">
        <ele>18.15</ele>
        <time>2024-09-21T09:41:35.000Z</time>
      </trkpt>
      <trkpt lat="42.54448" lon="3.02436">
        <ele>19.46</ele>
        <time>2024-09-21T09:41:40.000Z</time>
      </trkpt>
      <trkpt lat="42.54433" lon="3.02455">
        <ele>20.9</ele>
        <time>2024-09-21T09:41:45.000Z</time>
      </trkpt>
      <trkpt lat="42.54418" lon="3.02476">
        <ele>22.63</ele>
        <time>2024-09-21T09:41:50.000Z</time>
      </trkpt>
      <trkpt lat="42.54405" lon="3.02499">
        <ele>23.63</ele>
        <time>2024-09-21T09:41:55.000Z</time>
      </trkpt>
      <trkpt lat="42.54403" lon="3.02519">
        <ele>24.23</ele>
        <time>2024-09-21T09:42:00.000Z</time>
      </trkpt>
      <trkpt lat="42.54406" lon="3.02535">
        <ele>25.02</ele>
        <time>2024-09-21T09:42:05.000Z</time>
      </trkpt>
      <trkpt lat="42.5441" lon="3.02548">
        <ele>25.77</ele>
        <time>2024-09-21T09:42:10.000Z</time>
      </trkpt>
      <trkpt lat="42.54402" lon="3.02538">
        <ele>28.15</ele>
        <time>2024-09-21T09:42:30.000Z</time>
      </trkpt>
      <trkpt lat="42.54389" lon="3.02551">
        <ele>28.7</ele>
        <time>2024-09-21T09:42:35.000Z</time>
      </trkpt>
      <trkpt lat="42.54378" lon="3.02573">
        <ele>29.2</ele>
        <time>2024-09-21T09:42:40.000Z</time>
      </trkpt>
      <trkpt lat="42.54369" lon="3.02597">
        <ele>29.61</ele>
        <time>2024-09-21T09:42:45.000Z</time>
      </trkpt>
      <trkpt lat="42.54359" lon="3.02623">
        <ele>31.31</ele>
        <time>2024-09-21T09:42:50.000Z</time>
      </trkpt>
      <trkpt lat="42.54349" lon="3.02655">
        <ele>32.45</ele>
        <time>2024-09-21T09:42:55.000Z</time>
      </trkpt>
      <trkpt lat="42.54342" lon="3.02682">
        <ele>32.66</ele>
        <time>2024-09-21T09:43:00.000Z</time>
      </trkpt>
      <trkpt lat="42.54332" lon="3.0271">
        <ele>32.72</ele>
        <time>2024-09-21T09:43:05.000Z</time>
      </trkpt>
      <trkpt lat="42.54323" lon="3.0274">
        <ele>32.78</ele>
        <time>2024-09-21T09:43:10.000Z</time>
      </trkpt>
      <trkpt lat="42.54312" lon="3.02772">
        <ele>32.76</ele>
        <time>2024-09-21T09:43:15.000Z</time>
      </trkpt>
      <trkpt lat="42.54301" lon="3.02802">
        <ele>32.69</ele>
        <time>2024-09-21T09:43:20.000Z</time>
      </trkpt>
      <trkpt lat="42.54291" lon="3.02833">
        <ele>32.63</ele>
        <time>2024-09-21T09:43:25.000Z</time>
      </trkpt>
      <trkpt lat="42.54281" lon="3.0286">
        <ele>32.7</ele>
        <time>2024-09-21T09:43:30.000Z</time>
      </trkpt>
      <trkpt lat="42.54274" lon="3.02885">
        <ele>32.7</ele>
        <time>2024-09-21T09:43:35.000Z</time>
      </trkpt>
      <trkpt lat="42.54276" lon="3.02905">
        <ele>32.69</ele>
        <time>2024-09-21T09:43:40.000Z</time>
      </trkpt>
      <trkpt lat="42.54278" lon="3.02923">
        <ele>32.67</ele>
        <time>2024-09-21T09:43:45.000Z</time>
      </trkpt>
      <trkpt lat="42.5428" lon="3.02938">
        <ele>32.59</ele>
        <time>2024-09-21T09:44:13.000Z</time>
      </trkpt>
      <trkpt lat="42.54284" lon="3.02969">
        <ele>32.38</ele>
        <time>2024-09-21T09:44:18.000Z</time>
      </trkpt>
      <trkpt lat="42.54286" lon="3.03001">
        <ele>32.21</ele>
        <time>2024-09-21T09:44:23.000Z</time>
      </trkpt>
      <trkpt lat="42.54291" lon="3.03036">
        <ele>32.06</ele>
        <time>2024-09-21T09:44:28.000Z</time>
      </trkpt>
      <trkpt lat="42.54297" lon="3.0307">
        <ele>31.91</ele>
        <time>2024-09-21T09:44:33.000Z</time>
      </trkpt>
      <trkpt lat="42.54305" lon="3.03103">
        <ele>31.72</ele>
        <time>2024-09-21T09:44:38.000Z</time>
      </trkpt>
      <trkpt lat="42.54313" lon="3.03137">
        <ele>31.53</ele>
        <time>2024-09-21T09:44:43.000Z</time>
      </trkpt>
      <trkpt lat="42.54321" lon="3.03167">
        <ele>31.35</ele>
        <time>2024-09-21T09:44:48.000Z</time>
      </trkpt>
      <trkpt lat="42.54326" lon="3.03191">
        <ele>31.28</ele>
        <time>2024-09-21T09:44:53.000Z</time>
      </trkpt>
      <trkpt lat="42.5433" lon="3.03221">
        <ele>31.05</ele>
        <time>2024-09-21T09:44:58.000Z</time>
      </trkpt>
      <trkpt lat="42.5433" lon="3.0325">
        <ele>30.9</ele>
        <time>2024-09-21T09:45:03.000Z</time>
      </trkpt>
      <trkpt lat="42.54329" lon="3.0328">
        <ele>30.79</ele>
        <time>2024-09-21T09:45:08.000Z</time>
      </trkpt>
      <trkpt lat="42.54324" lon="3.03315">
        <ele>30.67</ele>
        <time>2024-09-21T09:45:13.999Z</time>
      </trkpt>
      <trkpt lat="42.54319" lon="3.03344">
        <ele>30.6</ele>
        <time>2024-09-21T09:45:18.999Z</time>
      </trkpt>
      <trkpt lat="42.54309" lon="3.03375">
        <ele>30.52</ele>
        <time>2024-09-21T09:45:23.999Z</time>
      </trkpt>
      <trkpt lat="42.54298" lon="3.03401">
        <ele>30.44</ele>
        <time>2024-09-21T09:45:28.999Z</time>
      </trkpt>
      <trkpt lat="42.54286" lon="3.03429">
        <ele>30.4</ele>
        <time>2024-09-21T09:45:33.999Z</time>
      </trkpt>
      <trkpt lat="42.54271" lon="3.03458">
        <ele>30.35</ele>
        <time>2024-09-21T09:45:38.999Z</time>
      </trkpt>
      <trkpt lat="42.54259" lon="3.03488">
        <ele>30.36</ele>
        <time>2024-09-21T09:45:43.999Z</time>
      </trkpt>
      <trkpt lat="42.54251" lon="3.03512">
        <ele>30.4</ele>
        <time>2024-09-21T09:45:48.999Z</time>
      </trkpt>
      <trkpt lat="42.54246" lon="3.03537">
        <ele>30.41</ele>
        <time>2024-09-21T09:45:53.999Z</time>
      </trkpt>
      <trkpt lat="42.5424" lon="3.03562">
        <ele>30.41</ele>
        <time>2024-09-21T09:45:58.999Z</time>
      </trkpt>
      <trkpt lat="42.54233" lon="3.03585">
        <ele>30.39</ele>
        <time>2024-09-21T09:46:03.999Z</time>
      </trkpt>
      <trkpt lat="42.54226" lon="3.03611">
        <ele>30.17</ele>
        <time>2024-09-21T09:46:08.999Z</time>
      </trkpt>
      <trkpt lat="42.5422" lon="3.03638">
        <ele>30.04</ele>
        <time>2024-09-21T09:46:13.999Z</time>
      </trkpt>
      <trkpt lat="42.54214" lon="3.03662">
        <ele>30.01</ele>
        <time>2024-09-21T09:46:18.999Z</time>
      </trkpt>
      <trkpt lat="42.54207" lon="3.03685">
        <ele>29.84</ele>
        <time>2024-09-21T09:46:23.999Z</time>
      </trkpt>
      <trkpt lat="42.54202" lon="3.03708">
        <ele>29.72</ele>
        <time>2024-09-21T09:46:28.999Z</time>
      </trkpt>
      <trkpt lat="42.54199" lon="3.03731">
        <ele>29.51</ele>
        <time>2024-09-21T09:46:33.999Z</time>
      </trkpt>
      <trkpt lat="42.54188" lon="3.03762">
        <ele>29.15</ele>
        <time>2024-09-21T09:46:38.999Z</time>
      </trkpt>
      <trkpt lat="42.54174" lon="3.03789">
        <ele>28.92</ele>
        <time>2024-09-21T09:46:43.999Z</time>
      </trkpt>
      <trkpt lat="42.54159" lon="3.0381">
        <ele>28.77</ele>
        <time>2024-09-21T09:46:48.999Z</time>
      </trkpt>
      <trkpt lat="42.54141" lon="3.03818">
        <ele>28.71</ele>
        <time>2024-09-21T09:46:53.999Z</time>
      </trkpt>
      <trkpt lat="42.54128" lon="3.03822">
        <ele>28.69</ele>
        <time>2024-09-21T09:46:58.999Z</time>
      </trkpt>
      <trkpt lat="42.54117" lon="3.03814">
        <ele>28.66</ele>
        <time>2024-09-21T09:47:03.999Z</time>
      </trkpt>
      <trkpt lat="42.54115" lon="3.038">
        <ele>28.62</ele>
        <time>2024-09-21T09:47:08.999Z</time>
      </trkpt>
      <trkpt lat="42.54113" lon="3.03786">
        <ele>28.56</ele>
        <time>2024-09-21T09:47:26.999Z</time>
      </trkpt>
      <trkpt lat="42.54106" lon="3.03767">
        <ele>28.53</ele>
        <time>2024-09-21T09:47:31.999Z</time>
      </trkpt>
      <trkpt lat="42.54097" lon="3.03749">
        <ele>28.5</ele>
        <time>2024-09-21T09:47:36.999Z</time>
      </trkpt>
      <trkpt lat="42.54084" lon="3.03734">
        <ele>28.47</ele>
        <time>2024-09-21T09:47:41.999Z</time>
      </trkpt>
      <trkpt lat="42.5407" lon="3.03719">
        <ele>28.44</ele>
        <time>2024-09-21T09:47:46.999Z</time>
      </trkpt>
      <trkpt lat="42.54055" lon="3.03705">
        <ele>28.29</ele>
        <time>2024-09-21T09:47:51.999Z</time>
      </trkpt>
      <trkpt lat="42.54037" lon="3.03694">
        <ele>28.18</ele>
        <time>2024-09-21T09:47:56.999Z</time>
      </trkpt>
      <trkpt lat="42.54016" lon="3.03694">
        <ele>28.16</ele>
        <time>2024-09-21T09:48:01.999Z</time>
      </trkpt>
      <trkpt lat="42.53997" lon="3.03701">
        <ele>28.19</ele>
        <time>2024-09-21T09:48:06.999Z</time>
      </trkpt>
      <trkpt lat="42.53986" lon="3.03717">
        <ele>28.21</ele>
        <time>2024-09-21T09:48:11.999Z</time>
      </trkpt>
      <trkpt lat="42.53977" lon="3.03738">
        <ele>28.26</ele>
        <time>2024-09-21T09:48:16.999Z</time>
      </trkpt>
      <trkpt lat="42.53965" lon="3.03761">
        <ele>28.33</ele>
        <time>2024-09-21T09:48:21.999Z</time>
      </trkpt>
      <trkpt lat="42.53953" lon="3.03786">
        <ele>28.39</ele>
        <time>2024-09-21T09:48:26.999Z</time>
      </trkpt>
      <trkpt lat="42.53942" lon="3.03813">
        <ele>28.39</ele>
        <time>2024-09-21T09:48:31.999Z</time>
      </trkpt>
      <trkpt lat="42.53932" lon="3.03839">
        <ele>28.37</ele>
        <time>2024-09-21T09:48:36.999Z</time>
      </trkpt>
      <trkpt lat="42.53921" lon="3.03867">
        <ele>28.36</ele>
        <time>2024-09-21T09:48:41.999Z</time>
      </trkpt>
      <trkpt lat="42.53909" lon="3.03896">
        <ele>28.34</ele>
        <time>2024-09-21T09:48:46.999Z</time>
      </trkpt>
      <trkpt lat="42.53898" lon="3.03925">
        <ele>28.31</ele>
        <time>2024-09-21T09:48:51.999Z</time>
      </trkpt>
      <trkpt lat="42.53886" lon="3.03955">
        <ele>28.31</ele>
        <time>2024-09-21T09:48:56.999Z</time>
      </trkpt>
      <trkpt lat="42.53876" lon="3.03984">
        <ele>28.33</ele>
        <time>2024-09-21T09:49:01.999Z</time>
      </trkpt>
      <trkpt lat="42.53864" lon="3.04016">
        <ele>28.31</ele>
        <time>2024-09-21T09:49:06.999Z</time>
      </trkpt>
      <trkpt lat="42.53852" lon="3.04047">
        <ele>28.24</ele>
        <time>2024-09-21T09:49:11.999Z</time>
      </trkpt>
      <trkpt lat="42.53842" lon="3.04078">
        <ele>28.22</ele>
        <time>2024-09-21T09:49:16.999Z</time>
      </trkpt>
      <trkpt lat="42.53829" lon="3.0411">
        <ele>28.22</ele>
        <time>2024-09-21T09:49:21.999Z</time>
      </trkpt>
      <trkpt lat="42.53818" lon="3.04142">
        <ele>28.22</ele>
        <time>2024-09-21T09:49:26.999Z</time>
      </trkpt>
      <trkpt lat="42.53806" lon="3.04172">
        <ele>28.2</ele>
        <time>2024-09-21T09:49:31.999Z</time>
      </trkpt>
      <trkpt lat="42.53794" lon="3.04203">
        <ele>28.18</ele>
        <time>2024-09-21T09:49:36.999Z</time>
      </trkpt>
      <trkpt lat="42.53782" lon="3.04235">
        <ele>28.15</ele>
        <time>2024-09-21T09:49:41.999Z</time>
      </trkpt>
      <trkpt lat="42.53769" lon="3.04267">
        <ele>28.1</ele>
        <time>2024-09-21T09:49:46.999Z</time>
      </trkpt>
      <trkpt lat="42.53756" lon="3.043">
        <ele>28.04</ele>
        <time>2024-09-21T09:49:51.999Z</time>
      </trkpt>
      <trkpt lat="42.53744" lon="3.04333">
        <ele>27.98</ele>
        <time>2024-09-21T09:49:56.999Z</time>
      </trkpt>
      <trkpt lat="42.53732" lon="3.04363">
        <ele>27.93</ele>
        <time>2024-09-21T09:50:01.999Z</time>
      </trkpt>
      <trkpt lat="42.53721" lon="3.04393">
        <ele>27.89</ele>
        <time>2024-09-21T09:50:06.999Z</time>
      </trkpt>
      <trkpt lat="42.53712" lon="3.04417">
        <ele>27.88</ele>
        <time>2024-09-21T09:50:11.999Z</time>
      </trkpt>
      <trkpt lat="42.53703" lon="3.04441">
        <ele>27.89</ele>
        <time>2024-09-21T09:50:16.999Z</time>
      </trkpt>
      <trkpt lat="42.53692" lon="3.04468">
        <ele>27.92</ele>
        <time>2024-09-21T09:50:21.999Z</time>
      </trkpt>
      <trkpt lat="42.53682" lon="3.04498">
        <ele>27.93</ele>
        <time>2024-09-21T09:50:26.999Z</time>
      </trkpt>
      <trkpt lat="42.5367" lon="3.0453">
        <ele>27.98</ele>
        <time>2024-09-21T09:50:31.999Z</time>
      </trkpt>
      <trkpt lat="42.53657" lon="3.04562">
        <ele>28.04</ele>
        <time>2024-09-21T09:50:36.999Z</time>
      </trkpt>
      <trkpt lat="42.53645" lon="3.04594">
        <ele>28.08</ele>
        <time>2024-09-21T09:50:41.999Z</time>
      </trkpt>
      <trkpt lat="42.53634" lon="3.04623">
        <ele>28.11</ele>
        <time>2024-09-21T09:50:46.999Z</time>
      </trkpt>
      <trkpt lat="42.53624" lon="3.04648">
        <ele>28.14</ele>
        <time>2024-09-21T09:50:51.999Z</time>
      </trkpt>
      <trkpt lat="42.53615" lon="3.04672">
        <ele>28.17</ele>
        <time>2024-09-21T09:50:56.999Z</time>
      </trkpt>
      <trkpt lat="42.53605" lon="3.04698">
        <ele>28.21</ele>
        <time>2024-09-21T09:51:01.999Z</time>
      </trkpt>
      <trkpt lat="42.53595" lon="3.04723">
        <ele>28.26</ele>
        <time>2024-09-21T09:51:06.999Z</time>
      </trkpt>
      <trkpt lat="42.53586" lon="3.04746">
        <ele>28.31</ele>
        <time>2024-09-21T09:51:11.999Z</time>
      </trkpt>
      <trkpt lat="42.53579" lon="3.04769">
        <ele>28.32</ele>
        <time>2024-09-21T09:51:16.999Z</time>
      </trkpt>
      <trkpt lat="42.53579" lon="3.04787">
        <ele>28.33</ele>
        <time>2024-09-21T09:51:21.999Z</time>
      </trkpt>
      <trkpt lat="42.53579" lon="3.048">
        <ele>28.36</ele>
        <time>2024-09-21T09:51:56.999Z</time>
      </trkpt>
      <trkpt lat="42.53572" lon="3.04792">
        <ele>28.39</ele>
        <time>2024-09-21T09:52:01.999Z</time>
      </trkpt>
      <trkpt lat="42.53563" lon="3.04799">
        <ele>28.42</ele>
        <time>2024-09-21T09:52:06.999Z</time>
      </trkpt>
      <trkpt lat="42.53551" lon="3.04823">
        <ele>28.63</ele>
        <time>2024-09-21T09:52:11.999Z</time>
      </trkpt>
      <trkpt lat="42.53537" lon="3.04855">
        <ele>28.78</ele>
        <time>2024-09-21T09:52:16.999Z</time>
      </trkpt>
      <trkpt lat="42.53526" lon="3.04889">
        <ele>28.85</ele>
        <time>2024-09-21T09:52:21.999Z</time>
      </trkpt>
      <trkpt lat="42.5352" lon="3.04924">
        <ele>28.95</ele>
        <time>2024-09-21T09:52:26.999Z</time>
      </trkpt>
      <trkpt lat="42.53513" lon="3.04954">
        <ele>29.03</ele>
        <time>2024-09-21T09:52:31.999Z</time>
      </trkpt>
      <trkpt lat="42.53502" lon="3.04978">
        <ele>29.14</ele>
        <time>2024-09-21T09:52:36.999Z</time>
      </trkpt>
      <trkpt lat="42.53489" lon="3.04998">
        <ele>29.21</ele>
        <time>2024-09-21T09:52:41.999Z</time>
      </trkpt>
      <trkpt lat="42.53473" lon="3.05014">
        <ele>29.25</ele>
        <time>2024-09-21T09:52:46.999Z</time>
      </trkpt>
      <trkpt lat="42.53466" lon="3.05029">
        <ele>29.26</ele>
        <time>2024-09-21T09:52:51.999Z</time>
      </trkpt>
      <trkpt lat="42.53457" lon="3.05042">
        <ele>29.27</ele>
        <time>2024-09-21T09:52:56.999Z</time>
      </trkpt>
      <trkpt lat="42.53445" lon="3.05058">
        <ele>29.28</ele>
        <time>2024-09-21T09:53:01.999Z</time>
      </trkpt>
      <trkpt lat="42.53434" lon="3.05075">
        <ele>29.3</ele>
        <time>2024-09-21T09:53:06.999Z</time>
      </trkpt>
      <trkpt lat="42.53427" lon="3.05092">
        <ele>29.32</ele>
        <time>2024-09-21T09:53:11.999Z</time>
      </trkpt>
      <trkpt lat="42.53417" lon="3.05108">
        <ele>29.36</ele>
        <time>2024-09-21T09:53:16.999Z</time>
      </trkpt>
      <trkpt lat="42.53406" lon="3.05125">
        <ele>29.41</ele>
        <time>2024-09-21T09:53:21.999Z</time>
      </trkpt>
      <trkpt lat="42.53396" lon="3.0514">
        <ele>29.46</ele>
        <time>2024-09-21T09:53:26.999Z</time>
      </trkpt>
      <trkpt lat="42.53387" lon="3.05156">
        <ele>29.52</ele>
        <time>2024-09-21T09:53:31.999Z</time>
      </trkpt>
      <trkpt lat="42.53379" lon="3.05169">
        <ele>29.59</ele>
        <time>2024-09-21T09:53:36.999Z</time>
      </trkpt>
      <trkpt lat="42.5337" lon="3.05182">
        <ele>29.65</ele>
        <time>2024-09-21T09:53:41.999Z</time>
      </trkpt>
      <trkpt lat="42.53361" lon="3.05196">
        <ele>29.73</ele>
        <time>2024-09-21T09:53:46.999Z</time>
      </trkpt>
      <trkpt lat="42.53353" lon="3.0521">
        <ele>29.81</ele>
        <time>2024-09-21T09:53:51.999Z</time>
      </trkpt>
      <trkpt lat="42.53345" lon="3.05224">
        <ele>29.89</ele>
        <time>2024-09-21T09:53:56.999Z</time>
      </trkpt>
      <trkpt lat="42.53334" lon="3.05238">
        <ele>29.98</ele>
        <time>2024-09-21T09:54:01.999Z</time>
      </trkpt>
      <trkpt lat="42.53324" lon="3.05251">
        <ele>30.07</ele>
        <time>2024-09-21T09:54:06.999Z</time>
      </trkpt>
      <trkpt lat="42.53315" lon="3.05261">
        <ele>30.17</ele>
        <time>2024-09-21T09:54:11.999Z</time>
      </trkpt>
      <trkpt lat="42.53308" lon="3.05274">
        <ele>30.28</ele>
        <time>2024-09-21T09:54:16.999Z</time>
      </trkpt>
      <trkpt lat="42.533" lon="3.05287">
        <ele>30.4</ele>
        <time>2024-09-21T09:54:21.999Z</time>
      </trkpt>
      <trkpt lat="42.53293" lon="3.053">
        <ele>30.54</ele>
        <time>2024-09-21T09:54:26.999Z</time>
      </trkpt>
      <trkpt lat="42.53286" lon="3.05313">
        <ele>30.69</ele>
        <time>2024-09-21T09:54:31.999Z</time>
      </trkpt>
      <trkpt lat="42.53278" lon="3.05325">
        <ele>30.86</ele>
        <time>2024-09-21T09:54:36.999Z</time>
      </trkpt>
      <trkpt lat="42.53272" lon="3.05339">
        <ele>31.03</ele>
        <time>2024-09-21T09:54:41.999Z</time>
      </trkpt>
      <trkpt lat="42.53264" lon="3.05353">
        <ele>31.22</ele>
        <time>2024-09-21T09:54:46.999Z</time>
      </trkpt>
      <trkpt lat="42.53259" lon="3.05368">
        <ele>31.4</ele>
        <time>2024-09-21T09:54:51.999Z</time>
      </trkpt>
      <trkpt lat="42.53254" lon="3.05383">
        <ele>31.6</ele>
        <time>2024-09-21T09:54:56.999Z</time>
      </trkpt>
      <trkpt lat="42.5325" lon="3.05399">
        <ele>31.81</ele>
        <time>2024-09-21T09:55:01.999Z</time>
      </trkpt>
      <trkpt lat="42.53245" lon="3.05413">
        <ele>32.02</ele>
        <time>2024-09-21T09:55:06.999Z</time>
      </trkpt>
      <trkpt lat="42.53241" lon="3.05429">
        <ele>32.23</ele>
        <time>2024-09-21T09:55:11.999Z</time>
      </trkpt>
      <trkpt lat="42.53235" lon="3.05444">
        <ele>32.45</ele>
        <time>2024-09-21T09:55:16.999Z</time>
      </trkpt>
      <trkpt lat="42.5323" lon="3.05458">
        <ele>32.68</ele>
        <time>2024-09-21T09:55:21.999Z</time>
      </trkpt>
      <trkpt lat="42.53222" lon="3.05469">
        <ele>32.91</ele>
        <time>2024-09-21T09:55:26.999Z</time>
      </trkpt>
      <trkpt lat="42.53211" lon="3.05476">
        <ele>33.14</ele>
        <time>2024-09-21T09:55:31.999Z</time>
      </trkpt>
      <trkpt lat="42.53199" lon="3.05476">
        <ele>33.38</ele>
        <time>2024-09-21T09:55:36.999Z</time>
      </trkpt>
      <trkpt lat="42.53189" lon="3.05469">
        <ele>33.62</ele>
        <time>2024-09-21T09:55:41.999Z</time>
      </trkpt>
      <trkpt lat="42.53179" lon="3.0546">
        <ele>33.86</ele>
        <time>2024-09-21T09:55:46.999Z</time>
      </trkpt>
      <trkpt lat="42.53165" lon="3.05459">
        <ele>34.1</ele>
        <time>2024-09-21T09:55:51.999Z</time>
      </trkpt>
      <trkpt lat="42.53152" lon="3.05467">
        <ele>34.34</ele>
        <time>2024-09-21T09:55:56.999Z</time>
      </trkpt>
      <trkpt lat="42.53143" lon="3.05485">
        <ele>34.58</ele>
        <time>2024-09-21T09:56:01.999Z</time>
      </trkpt>
      <trkpt lat="42.53139" lon="3.05504">
        <ele>34.84</ele>
        <time>2024-09-21T09:56:06.999Z</time>
      </trkpt>
      <trkpt lat="42.53144" lon="3.0552">
        <ele>35.09</ele>
        <time>2024-09-21T09:56:11.999Z</time>
      </trkpt>
      <trkpt lat="42.53155" lon="3.05533">
        <ele>35.33</ele>
        <time>2024-09-21T09:56:16.999Z</time>
      </trkpt>
      <trkpt lat="42.53168" lon="3.05544">
        <ele>35.59</ele>
        <time>2024-09-21T09:56:21.999Z</time>
      </trkpt>
      <trkpt lat="42.53172" lon="3.05558">
        <ele>35.83</ele>
        <time>2024-09-21T09:56:26.999Z</time>
      </trkpt>
      <trkpt lat="42.53174" lon="3.05574">
        <ele>36.07</ele>
        <time>2024-09-21T09:56:31.999Z</time>
      </trkpt>
      <trkpt lat="42.53175" lon="3.05586">
        <ele>36.29</ele>
        <time>2024-09-21T09:56:37.999Z</time>
      </trkpt>
      <trkpt lat="42.53176" lon="3.05601">
        <ele>37.37</ele>
        <time>2024-09-21T09:57:42.000Z</time>
      </trkpt>
      <trkpt lat="42.53182" lon="3.05627">
        <ele>41.06</ele>
        <time>2024-09-21T09:57:47.000Z</time>
      </trkpt>
      <trkpt lat="42.5319" lon="3.05656">
        <ele>42.53</ele>
        <time>2024-09-21T09:57:52.000Z</time>
      </trkpt>
      <trkpt lat="42.53203" lon="3.05684">
        <ele>43.23</ele>
        <time>2024-09-21T09:57:57.000Z</time>
      </trkpt>
      <trkpt lat="42.53216" lon="3.05709">
        <ele>43.63</ele>
        <time>2024-09-21T09:58:02.000Z</time>
      </trkpt>
      <trkpt lat="42.53228" lon="3.05732">
        <ele>43.95</ele>
        <time>2024-09-21T09:58:07.000Z</time>
      </trkpt>
      <trkpt lat="42.53242" lon="3.05752">
        <ele>44.21</ele>
        <time>2024-09-21T09:58:12.000Z</time>
      </trkpt>
      <trkpt lat="42.53259" lon="3.05786">
        <ele>44.53</ele>
        <time>2024-09-21T09:58:17.000Z</time>
      </trkpt>
      <trkpt lat="42.53278" lon="3.05819">
        <ele>44.91</ele>
        <time>2024-09-21T09:58:22.000Z</time>
      </trkpt>
      <trkpt lat="42.53298" lon="3.05852">
        <ele>45.15</ele>
        <time>2024-09-21T09:58:27.000Z</time>
      </trkpt>
      <trkpt lat="42.53317" lon="3.05889">
        <ele>45.42</ele>
        <time>2024-09-21T09:58:32.000Z</time>
      </trkpt>
      <trkpt lat="42.53335" lon="3.05933">
        <ele>45.47</ele>
        <time>2024-09-21T09:58:37.000Z</time>
      </trkpt>
      <trkpt lat="42.53353" lon="3.05979">
        <ele>45.49</ele>
        <time>2024-09-21T09:58:42.000Z</time>
      </trkpt>
      <trkpt lat="42.53368" lon="3.06032">
        <ele>45.21</ele>
        <time>2024-09-21T09:58:47.000Z</time>
      </trkpt>
      <trkpt lat="42.53383" lon="3.06091">
        <ele>44.74</ele>
        <time>2024-09-21T09:58:52.000Z</time>
      </trkpt>
      <trkpt lat="42.53398" lon="3.06149">
        <ele>44.48</ele>
        <time>2024-09-21T09:58:57.000Z</time>
      </trkpt>
      <trkpt lat="42.53412" lon="3.06203">
        <ele>44.2</ele>
        <time>2024-09-21T09:59:02.000Z</time>
      </trkpt>
      <trkpt lat="42.53427" lon="3.0625">
        <ele>43.94</ele>
        <time>2024-09-21T09:59:07.000Z</time>
      </trkpt>
      <trkpt lat="42.53435" lon="3.063">
        <ele>43.71</ele>
        <time>2024-09-21T09:59:12.000Z</time>
      </trkpt>
      <trkpt lat="42.53434" lon="3.06352">
        <ele>43.09</ele>
        <time>2024-09-21T09:59:17.000Z</time>
      </trkpt>
      <trkpt lat="42.53427" lon="3.06403">
        <ele>42.13</ele>
        <time>2024-09-21T09:59:22.000Z</time>
      </trkpt>
      <trkpt lat="42.53418" lon="3.06457">
        <ele>41.44</ele>
        <time>2024-09-21T09:59:27.000Z</time>
      </trkpt>
      <trkpt lat="42.53407" lon="3.06509">
        <ele>40.71</ele>
        <time>2024-09-21T09:59:32.000Z</time>
      </trkpt>
      <trkpt lat="42.53394" lon="3.06562">
        <ele>40.39</ele>
        <time>2024-09-21T09:59:37.000Z</time>
      </trkpt>
      <trkpt lat="42.53377" lon="3.06611">
        <ele>39.85</ele>
        <time>2024-09-21T09:59:42.000Z</time>
      </trkpt>
      <trkpt lat="42.53359" lon="3.06653">
        <ele>39.18</ele>
        <time>2024-09-21T09:59:47.000Z</time>
      </trkpt>
      <trkpt lat="42.53342" lon="3.06691">
        <ele>38.62</ele>
        <time>2024-09-21T09:59:52.000Z</time>
      </trkpt>
      <trkpt lat="42.5332" lon="3.06714">
        <ele>38.32</ele>
        <time>2024-09-21T09:59:57.000Z</time>
      </trkpt>
      <trkpt lat="42.53299" lon="3.0672">
        <ele>38.06</ele>
        <time>2024-09-21T10:00:02.000Z</time>
      </trkpt>
      <trkpt lat="42.5328" lon="3.06723">
        <ele>37.77</ele>
        <time>2024-09-21T10:00:07.000Z</time>
      </trkpt>
      <trkpt lat="42.53262" lon="3.06728">
        <ele>37.7</ele>
        <time>2024-09-21T10:00:12.000Z</time>
      </trkpt>
      <trkpt lat="42.53251" lon="3.06726">
        <ele>37.64</ele>
        <time>2024-09-21T10:00:17.000Z</time>
      </trkpt>
      <trkpt lat="42.5324" lon="3.06723">
        <ele>37.64</ele>
        <time>2024-09-21T10:00:22.000Z</time>
      </trkpt>
      <trkpt lat="42.5323" lon="3.06719">
        <ele>37.78</ele>
        <time>2024-09-21T10:00:27.000Z</time>
      </trkpt>
      <trkpt lat="42.53219" lon="3.06713">
        <ele>37.98</ele>
        <time>2024-09-21T10:00:32.000Z</time>
      </trkpt>
      <trkpt lat="42.53205" lon="3.06708">
        <ele>38.19</ele>
        <time>2024-09-21T10:00:37.000Z</time>
      </trkpt>
      <trkpt lat="42.5319" lon="3.06713">
        <ele>38.38</ele>
        <time>2024-09-21T10:00:42.000Z</time>
      </trkpt>
      <trkpt lat="42.53177" lon="3.06727">
        <ele>38.6</ele>
        <time>2024-09-21T10:00:47.000Z</time>
      </trkpt>
      <trkpt lat="42.5317" lon="3.06744">
        <ele>38.84</ele>
        <time>2024-09-21T10:00:52.000Z</time>
      </trkpt>
      <trkpt lat="42.53167" lon="3.06767">
        <ele>39.09</ele>
        <time>2024-09-21T10:00:57.000Z</time>
      </trkpt>
      <trkpt lat="42.53172" lon="3.06788">
        <ele>39.3</ele>
        <time>2024-09-21T10:01:02.000Z</time>
      </trkpt>
      <trkpt lat="42.53183" lon="3.06809">
        <ele>40.3</ele>
        <time>2024-09-21T10:01:07.000Z</time>
      </trkpt>
      <trkpt lat="42.53194" lon="3.06833">
        <ele>40.66</ele>
        <time>2024-09-21T10:01:12.000Z</time>
      </trkpt>
      <trkpt lat="42.53202" lon="3.06859">
        <ele>40.82</ele>
        <time>2024-09-21T10:01:17.000Z</time>
      </trkpt>
      <trkpt lat="42.53201" lon="3.06885">
        <ele>40.95</ele>
        <time>2024-09-21T10:01:22.000Z</time>
      </trkpt>
      <trkpt lat="42.53193" lon="3.06909">
        <ele>40.93</ele>
        <time>2024-09-21T10:01:27.000Z</time>
      </trkpt>
      <trkpt lat="42.53181" lon="3.06928">
        <ele>40.97</ele>
        <time>2024-09-21T10:01:32.000Z</time>
      </trkpt>
      <trkpt lat="42.53167" lon="3.06941">
        <ele>41</ele>
        <time>2024-09-21T10:01:37.000Z</time>
      </trkpt>
      <trkpt lat="42.5315" lon="3.06943">
        <ele>41.06</ele>
        <time>2024-09-21T10:01:42.000Z</time>
      </trkpt>
      <trkpt lat="42.53133" lon="3.06939">
        <ele>41.2</ele>
        <time>2024-09-21T10:01:47.000Z</time>
      </trkpt>
      <trkpt lat="42.53118" lon="3.06931">
        <ele>41.39</ele>
        <time>2024-09-21T10:01:52.000Z</time>
      </trkpt>
      <trkpt lat="42.53103" lon="3.06923">
        <ele>41.61</ele>
        <time>2024-09-21T10:01:57.000Z</time>
      </trkpt>
      <trkpt lat="42.53089" lon="3.06915">
        <ele>41.84</ele>
        <time>2024-09-21T10:02:02.000Z</time>
      </trkpt>
      <trkpt lat="42.53073" lon="3.06909">
        <ele>42.05</ele>
        <time>2024-09-21T10:02:07.000Z</time>
      </trkpt>
      <trkpt lat="42.53057" lon="3.06907">
        <ele>42.28</ele>
        <time>2024-09-21T10:02:12.000Z</time>
      </trkpt>
      <trkpt lat="42.53041" lon="3.0691">
        <ele>42.52</ele>
        <time>2024-09-21T10:02:17.000Z</time>
      </trkpt>
      <trkpt lat="42.53025" lon="3.06917">
        <ele>42.77</ele>
        <time>2024-09-21T10:02:22.000Z</time>
      </trkpt>
      <trkpt lat="42.53009" lon="3.06932">
        <ele>43.09</ele>
        <time>2024-09-21T10:02:27.000Z</time>
      </trkpt>
      <trkpt lat="42.52997" lon="3.0695">
        <ele>43.44</ele>
        <time>2024-09-21T10:02:32.000Z</time>
      </trkpt>
      <trkpt lat="42.52987" lon="3.06968">
        <ele>43.81</ele>
        <time>2024-09-21T10:02:37.000Z</time>
      </trkpt>
      <trkpt lat="42.52981" lon="3.06988">
        <ele>44.17</ele>
        <time>2024-09-21T10:02:42.000Z</time>
      </trkpt>
      <trkpt lat="42.52975" lon="3.0701">
        <ele>44.55</ele>
        <time>2024-09-21T10:02:47.000Z</time>
      </trkpt>
      <trkpt lat="42.52968" lon="3.0703">
        <ele>44.94</ele>
        <time>2024-09-21T10:02:52.000Z</time>
      </trkpt>
      <trkpt lat="42.52958" lon="3.07047">
        <ele>45.34</ele>
        <time>2024-09-21T10:02:57.000Z</time>
      </trkpt>
      <trkpt lat="42.52945" lon="3.07061">
        <ele>45.76</ele>
        <time>2024-09-21T10:03:02.000Z</time>
      </trkpt>
      <trkpt lat="42.52931" lon="3.07072">
        <ele>46.21</ele>
        <time>2024-09-21T10:03:07.000Z</time>
      </trkpt>
      <trkpt lat="42.52917" lon="3.07083">
        <ele>46.69</ele>
        <time>2024-09-21T10:03:12.000Z</time>
      </trkpt>
      <trkpt lat="42.52905" lon="3.07095">
        <ele>47.2</ele>
        <time>2024-09-21T10:03:17.000Z</time>
      </trkpt>
      <trkpt lat="42.52897" lon="3.07117">
        <ele>47.75</ele>
        <time>2024-09-21T10:03:22.000Z</time>
      </trkpt>
      <trkpt lat="42.52893" lon="3.07137">
        <ele>48.3</ele>
        <time>2024-09-21T10:03:27.000Z</time>
      </trkpt>
      <trkpt lat="42.52894" lon="3.0716">
        <ele>48.82</ele>
        <time>2024-09-21T10:03:32.000Z</time>
      </trkpt>
      <trkpt lat="42.52901" lon="3.07181">
        <ele>49.33</ele>
        <time>2024-09-21T10:03:37.000Z</time>
      </trkpt>
      <trkpt lat="42.52913" lon="3.07196">
        <ele>49.8</ele>
        <time>2024-09-21T10:03:42.000Z</time>
      </trkpt>
      <trkpt lat="42.5293" lon="3.07202">
        <ele>50.27</ele>
        <time>2024-09-21T10:03:47.000Z</time>
      </trkpt>
      <trkpt lat="42.52948" lon="3.07198">
        <ele>50.75</ele>
        <time>2024-09-21T10:03:52.000Z</time>
      </trkpt>
      <trkpt lat="42.52964" lon="3.07191">
        <ele>51.25</ele>
        <time>2024-09-21T10:03:57.000Z</time>
      </trkpt>
      <trkpt lat="42.52981" lon="3.07183">
        <ele>51.73</ele>
        <time>2024-09-21T10:04:02.000Z</time>
      </trkpt>
      <trkpt lat="42.52997" lon="3.07175">
        <ele>52.21</ele>
        <time>2024-09-21T10:04:07.000Z</time>
      </trkpt>
      <trkpt lat="42.53015" lon="3.07172">
        <ele>54.04</ele>
        <time>2024-09-21T10:04:12.000Z</time>
      </trkpt>
      <trkpt lat="42.53033" lon="3.07182">
        <ele>55.64</ele>
        <time>2024-09-21T10:04:17.000Z</time>
      </trkpt>
      <trkpt lat="42.53044" lon="3.07199">
        <ele>55.9</ele>
        <time>2024-09-21T10:04:22.000Z</time>
      </trkpt>
      <trkpt lat="42.53052" lon="3.07219">
        <ele>56.16</ele>
        <time>2024-09-21T10:04:27.000Z</time>
      </trkpt>
      <trkpt lat="42.53058" lon="3.0724">
        <ele>56.42</ele>
        <time>2024-09-21T10:04:32.000Z</time>
      </trkpt>
      <trkpt lat="42.53062" lon="3.07263">
        <ele>56.67</ele>
        <time>2024-09-21T10:04:37.000Z</time>
      </trkpt>
      <trkpt lat="42.53058" lon="3.07285">
        <ele>56.93</ele>
        <time>2024-09-21T10:04:42.000Z</time>
      </trkpt>
      <trkpt lat="42.53049" lon="3.07304">
        <ele>57.21</ele>
        <time>2024-09-21T10:04:47.000Z</time>
      </trkpt>
      <trkpt lat="42.53038" lon="3.07319">
        <ele>57.47</ele>
        <time>2024-09-21T10:04:52.000Z</time>
      </trkpt>
      <trkpt lat="42.53027" lon="3.07335">
        <ele>57.74</ele>
        <time>2024-09-21T10:04:57.000Z</time>
      </trkpt>
      <trkpt lat="42.53015" lon="3.0735">
        <ele>58</ele>
        <time>2024-09-21T10:05:02.000Z</time>
      </trkpt>
      <trkpt lat="42.53003" lon="3.07366">
        <ele>58.28</ele>
        <time>2024-09-21T10:05:07.000Z</time>
      </trkpt>
      <trkpt lat="42.52992" lon="3.07383">
        <ele>58.57</ele>
        <time>2024-09-21T10:05:12.000Z</time>
      </trkpt>
      <trkpt lat="42.52982" lon="3.074">
        <ele>58.88</ele>
        <time>2024-09-21T10:05:17.000Z</time>
      </trkpt>
      <trkpt lat="42.52976" lon="3.07422">
        <ele>59.19</ele>
        <time>2024-09-21T10:05:22.000Z</time>
      </trkpt>
      <trkpt lat="42.52973" lon="3.07446">
        <ele>59.51</ele>
        <time>2024-09-21T10:05:27.000Z</time>
      </trkpt>
      <trkpt lat="42.52971" lon="3.07469">
        <ele>59.83</ele>
        <time>2024-09-21T10:05:32.000Z</time>
      </trkpt>
      <trkpt lat="42.52968" lon="3.07492">
        <ele>61.04</ele>
        <time>2024-09-21T10:05:37.000Z</time>
      </trkpt>
      <trkpt lat="42.52965" lon="3.07515">
        <ele>61.73</ele>
        <time>2024-09-21T10:05:42.000Z</time>
      </trkpt>
      <trkpt lat="42.52963" lon="3.0754">
        <ele>61.9</ele>
        <time>2024-09-21T10:05:47.000Z</time>
      </trkpt>
      <trkpt lat="42.52959" lon="3.07563">
        <ele>62.07</ele>
        <time>2024-09-21T10:05:52.000Z</time>
      </trkpt>
      <trkpt lat="42.52957" lon="3.07587">
        <ele>62.25</ele>
        <time>2024-09-21T10:05:57.000Z</time>
      </trkpt>
      <trkpt lat="42.52954" lon="3.07613">
        <ele>62.66</ele>
        <time>2024-09-21T10:06:02.000Z</time>
      </trkpt>
      <trkpt lat="42.52952" lon="3.07638">
        <ele>63.48</ele>
        <time>2024-09-21T10:06:07.000Z</time>
      </trkpt>
      <trkpt lat="42.52951" lon="3.07664">
        <ele>63.95</ele>
        <time>2024-09-21T10:06:12.000Z</time>
      </trkpt>
      <trkpt lat="42.52938" lon="3.07689">
        <ele>64.5</ele>
        <time>2024-09-21T10:06:17.000Z</time>
      </trkpt>
      <trkpt lat="42.5295" lon="3.07702">
        <ele>64.7</ele>
        <time>2024-09-21T10:06:22.000Z</time>
      </trkpt>
      <trkpt lat="42.52961" lon="3.07705">
        <ele>64.75</ele>
        <time>2024-09-21T10:06:27.000Z</time>
      </trkpt>
      <trkpt lat="42.52968" lon="3.07713">
        <ele>64.89</ele>
        <time>2024-09-21T10:06:48.000Z</time>
      </trkpt>
      <trkpt lat="42.52978" lon="3.07716">
        <ele>66.03</ele>
        <time>2024-09-21T10:09:23.000Z</time>
      </trkpt>
      <trkpt lat="42.52987" lon="3.07728">
        <ele>66.13</ele>
        <time>2024-09-21T10:09:28.000Z</time>
      </trkpt>
      <trkpt lat="42.52996" lon="3.07744">
        <ele>66.24</ele>
        <time>2024-09-21T10:09:33.000Z</time>
      </trkpt>
      <trkpt lat="42.53" lon="3.07763">
        <ele>66.37</ele>
        <time>2024-09-21T10:09:38.999Z</time>
      </trkpt>
      <trkpt lat="42.53001" lon="3.07783">
        <ele>66.48</ele>
        <time>2024-09-21T10:09:43.999Z</time>
      </trkpt>
      <trkpt lat="42.52997" lon="3.07808">
        <ele>66.6</ele>
        <time>2024-09-21T10:09:48.999Z</time>
      </trkpt>
      <trkpt lat="42.52992" lon="3.07831">
        <ele>66.91</ele>
        <time>2024-09-21T10:09:53.999Z</time>
      </trkpt>
      <trkpt lat="42.52982" lon="3.07857">
        <ele>67.73</ele>
        <time>2024-09-21T10:09:58.999Z</time>
      </trkpt>
      <trkpt lat="42.52971" lon="3.07872">
        <ele>67.82</ele>
        <time>2024-09-21T10:10:03.999Z</time>
      </trkpt>
      <trkpt lat="42.52957" lon="3.0789">
        <ele>68.04</ele>
        <time>2024-09-21T10:10:08.999Z</time>
      </trkpt>
      <trkpt lat="42.52943" lon="3.07914">
        <ele>68.38</ele>
        <time>2024-09-21T10:10:13.999Z</time>
      </trkpt>
      <trkpt lat="42.52923" lon="3.07939">
        <ele>68.51</ele>
        <time>2024-09-21T10:10:18.999Z</time>
      </trkpt>
      <trkpt lat="42.529" lon="3.07966">
        <ele>68.51</ele>
        <time>2024-09-21T10:10:23.999Z</time>
      </trkpt>
      <trkpt lat="42.52869" lon="3.07997">
        <ele>68.48</ele>
        <time>2024-09-21T10:10:28.999Z</time>
      </trkpt>
      <trkpt lat="42.52829" lon="3.08031">
        <ele>67.79</ele>
        <time>2024-09-21T10:10:33.999Z</time>
      </trkpt>
      <trkpt lat="42.52784" lon="3.08063">
        <ele>66.11</ele>
        <time>2024-09-21T10:10:38.999Z</time>
      </trkpt>
      <trkpt lat="42.52755" lon="3.08109">
        <ele>64.55</ele>
        <time>2024-09-21T10:10:43.999Z</time>
      </trkpt>
      <trkpt lat="42.52768" lon="3.08175">
        <ele>61.76</ele>
        <time>2024-09-21T10:10:48.999Z</time>
      </trkpt>
      <trkpt lat="42.5277" lon="3.08231">
        <ele>58.07</ele>
        <time>2024-09-21T10:10:53.999Z</time>
      </trkpt>
      <trkpt lat="42.52739" lon="3.08243">
        <ele>54.42</ele>
        <time>2024-09-21T10:10:58.999Z</time>
      </trkpt>
      <trkpt lat="42.5271" lon="3.08248">
        <ele>52.21</ele>
        <time>2024-09-21T10:11:03.999Z</time>
      </trkpt>
      <trkpt lat="42.52692" lon="3.08253">
        <ele>50.96</ele>
        <time>2024-09-21T10:11:08.999Z</time>
      </trkpt>
      <trkpt lat="42.52683" lon="3.08257">
        <ele>50.71</ele>
        <time>2024-09-21T10:11:13.999Z</time>
      </trkpt>
      <trkpt lat="42.52673" lon="3.08262">
        <ele>49.96</ele>
        <time>2024-09-21T10:11:19.999Z</time>
      </trkpt>
      <trkpt lat="42.52662" lon="3.08266">
        <ele>49.07</ele>
        <time>2024-09-21T10:11:24.999Z</time>
      </trkpt>
      <trkpt lat="42.52655" lon="3.08275">
        <ele>47.92</ele>
        <time>2024-09-21T10:11:29.999Z</time>
      </trkpt>
      <trkpt lat="42.52642" lon="3.08292">
        <ele>46.49</ele>
        <time>2024-09-21T10:11:34.999Z</time>
      </trkpt>
      <trkpt lat="42.52633" lon="3.08302">
        <ele>45.43</ele>
        <time>2024-09-21T10:11:39.999Z</time>
      </trkpt>
      <trkpt lat="42.5262" lon="3.08302">
        <ele>44.74</ele>
        <time>2024-09-21T10:11:44.999Z</time>
      </trkpt>
      <trkpt lat="42.52606" lon="3.083">
        <ele>44.12</ele>
        <time>2024-09-21T10:11:49.999Z</time>
      </trkpt>
      <trkpt lat="42.52591" lon="3.08299">
        <ele>42.75</ele>
        <time>2024-09-21T10:11:54.999Z</time>
      </trkpt>
      <trkpt lat="42.52577" lon="3.08311">
        <ele>45.82</ele>
        <time>2024-09-21T10:12:22.999Z</time>
      </trkpt>
      <trkpt lat="42.52568" lon="3.08302">
        <ele>56.98</ele>
        <time>2024-09-21T10:13:26.999Z</time>
      </trkpt>
      <trkpt lat="42.52551" lon="3.0829">
        <ele>58.4</ele>
        <time>2024-09-21T10:13:31.999Z</time>
      </trkpt>
      <trkpt lat="42.52534" lon="3.0828">
        <ele>59.29</ele>
        <time>2024-09-21T10:13:36.999Z</time>
      </trkpt>
      <trkpt lat="42.5252" lon="3.0827">
        <ele>60.04</ele>
        <time>2024-09-21T10:13:41.999Z</time>
      </trkpt>
      <trkpt lat="42.52507" lon="3.08261">
        <ele>60.61</ele>
        <time>2024-09-21T10:13:46.999Z</time>
      </trkpt>
      <trkpt lat="42.52496" lon="3.08255">
        <ele>61.03</ele>
        <time>2024-09-21T10:13:51.999Z</time>
      </trkpt>
      <trkpt lat="42.52484" lon="3.08252">
        <ele>61.27</ele>
        <time>2024-09-21T10:13:56.999Z</time>
      </trkpt>
      <trkpt lat="42.52473" lon="3.08249">
        <ele>61.31</ele>
        <time>2024-09-21T10:14:01.999Z</time>
      </trkpt>
      <trkpt lat="42.52462" lon="3.08237">
        <ele>61.25</ele>
        <time>2024-09-21T10:14:06.999Z</time>
      </trkpt>
      <trkpt lat="42.52454" lon="3.08229">
        <ele>61.05</ele>
        <time>2024-09-21T10:14:12.999Z</time>
      </trkpt>
      <trkpt lat="42.52442" lon="3.08231">
        <ele>60.83</ele>
        <time>2024-09-21T10:14:17.999Z</time>
      </trkpt>
      <trkpt lat="42.5243" lon="3.08251">
        <ele>59.92</ele>
        <time>2024-09-21T10:14:22.999Z</time>
      </trkpt>
      <trkpt lat="42.52421" lon="3.08278">
        <ele>58.56</ele>
        <time>2024-09-21T10:14:27.999Z</time>
      </trkpt>
      <trkpt lat="42.52417" lon="3.08315">
        <ele>57.63</ele>
        <time>2024-09-21T10:14:32.999Z</time>
      </trkpt>
      <trkpt lat="42.52413" lon="3.08349">
        <ele>55.71</ele>
        <time>2024-09-21T10:14:37.999Z</time>
      </trkpt>
      <trkpt lat="42.52409" lon="3.08384">
        <ele>53.32</ele>
        <time>2024-09-21T10:14:42.999Z</time>
      </trkpt>
      <trkpt lat="42.52403" lon="3.08412">
        <ele>50.76</ele>
        <time>2024-09-21T10:14:47.999Z</time>
      </trkpt>
      <trkpt lat="42.52397" lon="3.08444">
        <ele>49.05</ele>
        <time>2024-09-21T10:14:52.999Z</time>
      </trkpt>
      <trkpt lat="42.5239" lon="3.0847">
        <ele>48.3</ele>
        <time>2024-09-21T10:14:57.999Z</time>
      </trkpt>
      <trkpt lat="42.52387" lon="3.08491">
        <ele>48</ele>
        <time>2024-09-21T10:15:02.999Z</time>
      </trkpt>
      <trkpt lat="42.52382" lon="3.08507">
        <ele>47.7</ele>
        <time>2024-09-21T10:15:07.999Z</time>
      </trkpt>
      <trkpt lat="42.52377" lon="3.08518">
        <ele>47.33</ele>
        <time>2024-09-21T10:15:12.999Z</time>
      </trkpt>
      <trkpt lat="42.52373" lon="3.0853">
        <ele>46.78</ele>
        <time>2024-09-21T10:15:17.999Z</time>
      </trkpt>
      <trkpt lat="42.52381" lon="3.08545">
        <ele>43.1</ele>
        <time>2024-09-21T10:15:49.999Z</time>
      </trkpt>
      <trkpt lat="42.52393" lon="3.0855">
        <ele>41.32</ele>
        <time>2024-09-21T10:16:09.999Z</time>
      </trkpt>
      <trkpt lat="42.52396" lon="3.08562">
        <ele>34.1</ele>
        <time>2024-09-21T10:19:37.999Z</time>
      </trkpt>
      <trkpt lat="42.52395" lon="3.08575">
        <ele>32.59</ele>
        <time>2024-09-21T10:19:49.999Z</time>
      </trkpt>
      <trkpt lat="42.52393" lon="3.08588">
        <ele>31.21</ele>
        <time>2024-09-21T10:20:02.999Z</time>
      </trkpt>
      <trkpt lat="42.52393" lon="3.08601">
        <ele>30.32</ele>
        <time>2024-09-21T10:20:12.999Z</time>
      </trkpt>
      <trkpt lat="42.52389" lon="3.08613">
        <ele>29.73</ele>
        <time>2024-09-21T10:20:20.999Z</time>
      </trkpt>
      <trkpt lat="42.52385" lon="3.08625">
        <ele>29.29</ele>
        <time>2024-09-21T10:20:27.999Z</time>
      </trkpt>
      <trkpt lat="42.52381" lon="3.08637">
        <ele>28.88</ele>
        <time>2024-09-21T10:20:35.999Z</time>
      </trkpt>
      <trkpt lat="42.52378" lon="3.08649">
        <ele>28.56</ele>
        <time>2024-09-21T10:20:43.999Z</time>
      </trkpt>
      <trkpt lat="42.52375" lon="3.08661">
        <ele>28.3</ele>
        <time>2024-09-21T10:20:52.999Z</time>
      </trkpt>
      <trkpt lat="42.52372" lon="3.08673">
        <ele>28.14</ele>
        <time>2024-09-21T10:21:00.999Z</time>
      </trkpt>
      <trkpt lat="42.52373" lon="3.08686">
        <ele>28.04</ele>
        <time>2024-09-21T10:21:09.999Z</time>
      </trkpt>
      <trkpt lat="42.52375" lon="3.08698">
        <ele>27.99</ele>
        <time>2024-09-21T10:21:18.999Z</time>
      </trkpt>
      <trkpt lat="42.52377" lon="3.0871">
        <ele>28.01</ele>
        <time>2024-09-21T10:21:38.999Z</time>
      </trkpt>
      <trkpt lat="42.52381" lon="3.08722">
        <ele>28.06</ele>
        <time>2024-09-21T10:21:48.999Z</time>
      </trkpt>
      <trkpt lat="42.52386" lon="3.08732">
        <ele>28.09</ele>
        <time>2024-09-21T10:22:33.000Z</time>
      </trkpt>
      <trkpt lat="42.52394" lon="3.0874">
        <ele>28.06</ele>
        <time>2024-09-21T10:23:36.000Z</time>
      </trkpt>
      <trkpt lat="42.52393" lon="3.08727">
        <ele>27.71</ele>
        <time>2024-09-21T10:26:04.000Z</time>
      </trkpt>
      <trkpt lat="42.52385" lon="3.08731">
        <ele>27.35</ele>
        <time>2024-09-21T10:48:06.000Z</time>
      </trkpt>
      <trkpt lat="42.52393" lon="3.08727">
        <ele>26.5</ele>
        <time>2024-09-21T10:54:15.000Z</time>
      </trkpt>
      <trkpt lat="42.52385" lon="3.0873">
        <ele>24.74</ele>
        <time>2024-09-21T11:05:16.999Z</time>
      </trkpt>
      <trkpt lat="42.52377" lon="3.08722">
        <ele>18.88</ele>
        <time>2024-09-21T11:31:50.999Z</time>
      </trkpt>
      <trkpt lat="42.52386" lon="3.08727">
        <ele>15.24</ele>
        <time>2024-09-21T11:35:30.000Z</time>
      </trkpt>
      <trkpt lat="42.52391" lon="3.08737">
        <ele>16.01</ele>
        <time>2024-09-21T11:36:36.000Z</time>
      </trkpt>
      <trkpt lat="42.52395" lon="3.08693">
        <ele>16.86</ele>
        <time>2024-09-21T11:52:03.000Z</time>
      </trkpt>
      <trkpt lat="42.52392" lon="3.08681">
        <ele>16.07</ele>
        <time>2024-09-21T11:52:11.000Z</time>
      </trkpt>
      <trkpt lat="42.52386" lon="3.08672">
        <ele>24.64</ele>
        <time>2024-09-21T12:06:53.999Z</time>
      </trkpt>
      <trkpt lat="42.52394" lon="3.08677">
        <ele>23.84</ele>
        <time>2024-09-21T12:18:59.000Z</time>
      </trkpt>
      <trkpt lat="42.52398" lon="3.08689">
        <ele>23.86</ele>
        <time>2024-09-21T12:19:07.000Z</time>
      </trkpt>
      <trkpt lat="42.52395" lon="3.08701">
        <ele>23.88</ele>
        <time>2024-09-21T12:19:19.000Z</time>
      </trkpt>
      <trkpt lat="42.52395" lon="3.08714">
        <ele>23.9</ele>
        <time>2024-09-21T12:19:30.000Z</time>
      </trkpt>
      <trkpt lat="42.52395" lon="3.08727">
        <ele>23.88</ele>
        <time>2024-09-21T12:20:03.000Z</time>
      </trkpt>
      <trkpt lat="42.52389" lon="3.08717">
        <ele>25.67</ele>
        <time>2024-09-21T12:27:29.000Z</time>
      </trkpt>
      <trkpt lat="42.52383" lon="3.08707">
        <ele>25.81</ele>
        <time>2024-09-21T12:27:38.000Z</time>
      </trkpt>
      <trkpt lat="42.52374" lon="3.08703">
        <ele>25.98</ele>
        <time>2024-09-21T12:27:48.999Z</time>
      </trkpt>
      <trkpt lat="42.52365" lon="3.08709">
        <ele>26.17</ele>
        <time>2024-09-21T12:28:00.999Z</time>
      </trkpt>
      <trkpt lat="42.52365" lon="3.08722">
        <ele>26.36</ele>
        <time>2024-09-21T12:28:21.999Z</time>
      </trkpt>
      <trkpt lat="42.52366" lon="3.08736">
        <ele>26.44</ele>
        <time>2024-09-21T12:28:26.999Z</time>
      </trkpt>
      <trkpt lat="42.52368" lon="3.08751">
        <ele>26.52</ele>
        <time>2024-09-21T12:28:31.999Z</time>
      </trkpt>
      <trkpt lat="42.52372" lon="3.08766">
        <ele>26.59</ele>
        <time>2024-09-21T12:28:36.999Z</time>
      </trkpt>
      <trkpt lat="42.52378" lon="3.08776">
        <ele>26.66</ele>
        <time>2024-09-21T12:28:41.999Z</time>
      </trkpt>
      <trkpt lat="42.52388" lon="3.08785">
        <ele>26.73</ele>
        <time>2024-09-21T12:28:46.999Z</time>
      </trkpt>
      <trkpt lat="42.52397" lon="3.0879">
        <ele>26.8</ele>
        <time>2024-09-21T12:28:51.999Z</time>
      </trkpt>
      <trkpt lat="42.52406" lon="3.08792">
        <ele>26.86</ele>
        <time>2024-09-21T12:28:56.999Z</time>
      </trkpt>
      <trkpt lat="42.52418" lon="3.08792">
        <ele>26.91</ele>
        <time>2024-09-21T12:29:01.999Z</time>
      </trkpt>
      <trkpt lat="42.5243" lon="3.0879">
        <ele>26.97</ele>
        <time>2024-09-21T12:29:06.999Z</time>
      </trkpt>
      <trkpt lat="42.52441" lon="3.08796">
        <ele>27.02</ele>
        <time>2024-09-21T12:29:11.999Z</time>
      </trkpt>
      <trkpt lat="42.52448" lon="3.08807">
        <ele>27.06</ele>
        <time>2024-09-21T12:29:16.999Z</time>
      </trkpt>
      <trkpt lat="42.5245" lon="3.08821">
        <ele>27.11</ele>
        <time>2024-09-21T12:29:21.999Z</time>
      </trkpt>
      <trkpt lat="42.52448" lon="3.08837">
        <ele>27.15</ele>
        <time>2024-09-21T12:29:26.999Z</time>
      </trkpt>
      <trkpt lat="42.52444" lon="3.08851">
        <ele>27.19</ele>
        <time>2024-09-21T12:29:31.999Z</time>
      </trkpt>
      <trkpt lat="42.5244" lon="3.08863">
        <ele>27.22</ele>
        <time>2024-09-21T12:29:36.999Z</time>
      </trkpt>
      <trkpt lat="42.52436" lon="3.08876">
        <ele>27.25</ele>
        <time>2024-09-21T12:29:41.999Z</time>
      </trkpt>
      <trkpt lat="42.52431" lon="3.08889">
        <ele>27.29</ele>
        <time>2024-09-21T12:29:46.999Z</time>
      </trkpt>
      <trkpt lat="42.52427" lon="3.08903">
        <ele>27.32</ele>
        <time>2024-09-21T12:29:51.999Z</time>
      </trkpt>
      <trkpt lat="42.52423" lon="3.08917">
        <ele>27.36</ele>
        <time>2024-09-21T12:29:56.999Z</time>
      </trkpt>
      <trkpt lat="42.52421" lon="3.08933">
        <ele>27.4</ele>
        <time>2024-09-21T12:30:01.999Z</time>
      </trkpt>
      <trkpt lat="42.52423" lon="3.08949">
        <ele>27.45</ele>
        <time>2024-09-21T12:30:06.999Z</time>
      </trkpt>
      <trkpt lat="42.52427" lon="3.08964">
        <ele>27.5</ele>
        <time>2024-09-21T12:30:11.999Z</time>
      </trkpt>
      <trkpt lat="42.52431" lon="3.08976">
        <ele>27.56</ele>
        <time>2024-09-21T12:30:16.999Z</time>
      </trkpt>
      <trkpt lat="42.52437" lon="3.08987">
        <ele>27.63</ele>
        <time>2024-09-21T12:30:21.999Z</time>
      </trkpt>
      <trkpt lat="42.52446" lon="3.08992">
        <ele>27.71</ele>
        <time>2024-09-21T12:30:26.999Z</time>
      </trkpt>
      <trkpt lat="42.52457" lon="3.08995">
        <ele>27.79</ele>
        <time>2024-09-21T12:30:31.999Z</time>
      </trkpt>
      <trkpt lat="42.52468" lon="3.08997">
        <ele>27.87</ele>
        <time>2024-09-21T12:30:36.999Z</time>
      </trkpt>
      <trkpt lat="42.5248" lon="3.08999">
        <ele>27.95</ele>
        <time>2024-09-21T12:30:41.999Z</time>
      </trkpt>
      <trkpt lat="42.52492" lon="3.09">
        <ele>28.04</ele>
        <time>2024-09-21T12:30:46.999Z</time>
      </trkpt>
      <trkpt lat="42.52503" lon="3.09005">
        <ele>28.13</ele>
        <time>2024-09-21T12:30:51.999Z</time>
      </trkpt>
      <trkpt lat="42.52512" lon="3.09019">
        <ele>28.23</ele>
        <time>2024-09-21T12:30:56.999Z</time>
      </trkpt>
      <trkpt lat="42.52517" lon="3.09036">
        <ele>28.35</ele>
        <time>2024-09-21T12:31:01.999Z</time>
      </trkpt>
      <trkpt lat="42.52517" lon="3.09052">
        <ele>28.48</ele>
        <time>2024-09-21T12:31:06.999Z</time>
      </trkpt>
      <trkpt lat="42.52518" lon="3.09068">
        <ele>28.61</ele>
        <time>2024-09-21T12:31:11.999Z</time>
      </trkpt>
      <trkpt lat="42.52523" lon="3.09085">
        <ele>28.73</ele>
        <time>2024-09-21T12:31:16.999Z</time>
      </trkpt>
      <trkpt lat="42.52528" lon="3.09103">
        <ele>28.87</ele>
        <time>2024-09-21T12:31:21.999Z</time>
      </trkpt>
      <trkpt lat="42.52532" lon="3.09123">
        <ele>29.02</ele>
        <time>2024-09-21T12:31:26.999Z</time>
      </trkpt>
      <trkpt lat="42.5253" lon="3.09146">
        <ele>29.17</ele>
        <time>2024-09-21T12:31:31.999Z</time>
      </trkpt>
      <trkpt lat="42.5252" lon="3.09164">
        <ele>29.33</ele>
        <time>2024-09-21T12:31:36.999Z</time>
      </trkpt>
      <trkpt lat="42.52506" lon="3.09177">
        <ele>29.48</ele>
        <time>2024-09-21T12:31:41.999Z</time>
      </trkpt>
      <trkpt lat="42.52492" lon="3.09187">
        <ele>29.63</ele>
        <time>2024-09-21T12:31:46.999Z</time>
      </trkpt>
      <trkpt lat="42.52476" lon="3.09201">
        <ele>30.49</ele>
        <time>2024-09-21T12:31:51.999Z</time>
      </trkpt>
      <trkpt lat="42.52459" lon="3.09216">
        <ele>30.98</ele>
        <time>2024-09-21T12:31:56.999Z</time>
      </trkpt>
      <trkpt lat="42.52438" lon="3.0923">
        <ele>31.2</ele>
        <time>2024-09-21T12:32:01.999Z</time>
      </trkpt>
      <trkpt lat="42.52415" lon="3.0924">
        <ele>31.34</ele>
        <time>2024-09-21T12:32:06.999Z</time>
      </trkpt>
      <trkpt lat="42.52389" lon="3.09248">
        <ele>31.46</ele>
        <time>2024-09-21T12:32:11.999Z</time>
      </trkpt>
      <trkpt lat="42.52368" lon="3.09265">
        <ele>31.54</ele>
        <time>2024-09-21T12:32:16.999Z</time>
      </trkpt>
      <trkpt lat="42.52362" lon="3.09303">
        <ele>31.6</ele>
        <time>2024-09-21T12:32:21.999Z</time>
      </trkpt>
      <trkpt lat="42.52376" lon="3.09334">
        <ele>31.67</ele>
        <time>2024-09-21T12:32:26.999Z</time>
      </trkpt>
      <trkpt lat="42.52382" lon="3.09364">
        <ele>31.76</ele>
        <time>2024-09-21T12:32:31.999Z</time>
      </trkpt>
      <trkpt lat="42.52375" lon="3.09391">
        <ele>31.82</ele>
        <time>2024-09-21T12:32:36.999Z</time>
      </trkpt>
      <trkpt lat="42.52356" lon="3.09408">
        <ele>31.87</ele>
        <time>2024-09-21T12:32:41.999Z</time>
      </trkpt>
      <trkpt lat="42.52332" lon="3.09411">
        <ele>31.93</ele>
        <time>2024-09-21T12:32:46.999Z</time>
      </trkpt>
      <trkpt lat="42.52308" lon="3.09413">
        <ele>31.98</ele>
        <time>2024-09-21T12:32:51.999Z</time>
      </trkpt>
      <trkpt lat="42.52289" lon="3.09428">
        <ele>32.15</ele>
        <time>2024-09-21T12:32:56.999Z</time>
      </trkpt>
      <trkpt lat="42.52286" lon="3.09461">
        <ele>32.46</ele>
        <time>2024-09-21T12:33:01.999Z</time>
      </trkpt>
      <trkpt lat="42.52301" lon="3.09486">
        <ele>32.76</ele>
        <time>2024-09-21T12:33:06.999Z</time>
      </trkpt>
      <trkpt lat="42.5232" lon="3.09507">
        <ele>33.53</ele>
        <time>2024-09-21T12:33:11.999Z</time>
      </trkpt>
      <trkpt lat="42.52333" lon="3.09533">
        <ele>34.76</ele>
        <time>2024-09-21T12:33:16.999Z</time>
      </trkpt>
      <trkpt lat="42.5234" lon="3.09558">
        <ele>35.75</ele>
        <time>2024-09-21T12:33:21.999Z</time>
      </trkpt>
      <trkpt lat="42.52343" lon="3.09585">
        <ele>36.47</ele>
        <time>2024-09-21T12:33:26.999Z</time>
      </trkpt>
      <trkpt lat="42.5234" lon="3.09612">
        <ele>36.93</ele>
        <time>2024-09-21T12:33:31.999Z</time>
      </trkpt>
      <trkpt lat="42.52339" lon="3.0964">
        <ele>37.58</ele>
        <time>2024-09-21T12:33:36.999Z</time>
      </trkpt>
      <trkpt lat="42.52336" lon="3.09668">
        <ele>38.35</ele>
        <time>2024-09-21T12:33:41.999Z</time>
      </trkpt>
      <trkpt lat="42.52333" lon="3.09698">
        <ele>38.85</ele>
        <time>2024-09-21T12:33:46.999Z</time>
      </trkpt>
      <trkpt lat="42.52329" lon="3.09728">
        <ele>38.96</ele>
        <time>2024-09-21T12:33:51.999Z</time>
      </trkpt>
      <trkpt lat="42.52325" lon="3.0976">
        <ele>38.91</ele>
        <time>2024-09-21T12:33:56.999Z</time>
      </trkpt>
      <trkpt lat="42.52323" lon="3.09792">
        <ele>38.94</ele>
        <time>2024-09-21T12:34:01.999Z</time>
      </trkpt>
      <trkpt lat="42.52318" lon="3.0982">
        <ele>38.98</ele>
        <time>2024-09-21T12:34:06.999Z</time>
      </trkpt>
      <trkpt lat="42.52315" lon="3.09849">
        <ele>39.04</ele>
        <time>2024-09-21T12:34:11.999Z</time>
      </trkpt>
      <trkpt lat="42.52313" lon="3.09877">
        <ele>39.1</ele>
        <time>2024-09-21T12:34:16.999Z</time>
      </trkpt>
      <trkpt lat="42.5231" lon="3.09907">
        <ele>39.16</ele>
        <time>2024-09-21T12:34:21.999Z</time>
      </trkpt>
      <trkpt lat="42.5231" lon="3.09935">
        <ele>39.2</ele>
        <time>2024-09-21T12:34:26.999Z</time>
      </trkpt>
      <trkpt lat="42.52312" lon="3.09962">
        <ele>39.22</ele>
        <time>2024-09-21T12:34:31.999Z</time>
      </trkpt>
      <trkpt lat="42.52313" lon="3.09989">
        <ele>39.22</ele>
        <time>2024-09-21T12:34:36.999Z</time>
      </trkpt>
      <trkpt lat="42.52314" lon="3.10012">
        <ele>39.23</ele>
        <time>2024-09-21T12:34:41.999Z</time>
      </trkpt>
      <trkpt lat="42.52315" lon="3.10031">
        <ele>39.24</ele>
        <time>2024-09-21T12:34:46.999Z</time>
      </trkpt>
      <trkpt lat="42.52315" lon="3.10047">
        <ele>39.26</ele>
        <time>2024-09-21T12:34:51.999Z</time>
      </trkpt>
      <trkpt lat="42.52315" lon="3.10062">
        <ele>39.28</ele>
        <time>2024-09-21T12:34:56.999Z</time>
      </trkpt>
      <trkpt lat="42.52316" lon="3.10076">
        <ele>39.31</ele>
        <time>2024-09-21T12:35:01.999Z</time>
      </trkpt>
      <trkpt lat="42.52317" lon="3.1009">
        <ele>39.35</ele>
        <time>2024-09-21T12:35:06.999Z</time>
      </trkpt>
      <trkpt lat="42.52316" lon="3.10104">
        <ele>39.4</ele>
        <time>2024-09-21T12:35:11.999Z</time>
      </trkpt>
      <trkpt lat="42.52316" lon="3.10117">
        <ele>39.44</ele>
        <time>2024-09-21T12:35:16.999Z</time>
      </trkpt>
      <trkpt lat="42.52316" lon="3.1013">
        <ele>39.49</ele>
        <time>2024-09-21T12:35:21.999Z</time>
      </trkpt>
      <trkpt lat="42.52315" lon="3.10145">
        <ele>39.55</ele>
        <time>2024-09-21T12:35:26.999Z</time>
      </trkpt>
      <trkpt lat="42.52313" lon="3.10159">
        <ele>39.63</ele>
        <time>2024-09-21T12:35:31.999Z</time>
      </trkpt>
      <trkpt lat="42.52308" lon="3.10173">
        <ele>39.71</ele>
        <time>2024-09-21T12:35:36.999Z</time>
      </trkpt>
      <trkpt lat="42.52302" lon="3.10183">
        <ele>39.86</ele>
        <time>2024-09-21T12:35:51.999Z</time>
      </trkpt>
      <trkpt lat="42.52295" lon="3.10197">
        <ele>39.96</ele>
        <time>2024-09-21T12:35:56.999Z</time>
      </trkpt>
      <trkpt lat="42.52286" lon="3.10211">
        <ele>40.06</ele>
        <time>2024-09-21T12:36:01.999Z</time>
      </trkpt>
      <trkpt lat="42.52277" lon="3.10227">
        <ele>40.15</ele>
        <time>2024-09-21T12:36:06.999Z</time>
      </trkpt>
      <trkpt lat="42.52267" lon="3.10244">
        <ele>40.24</ele>
        <time>2024-09-21T12:36:11.999Z</time>
      </trkpt>
      <trkpt lat="42.52256" lon="3.10262">
        <ele>40.33</ele>
        <time>2024-09-21T12:36:16.999Z</time>
      </trkpt>
      <trkpt lat="42.52246" lon="3.10281">
        <ele>40.55</ele>
        <time>2024-09-21T12:36:21.999Z</time>
      </trkpt>
      <trkpt lat="42.52235" lon="3.10301">
        <ele>40.88</ele>
        <time>2024-09-21T12:36:26.999Z</time>
      </trkpt>
      <trkpt lat="42.52225" lon="3.10325">
        <ele>41.18</ele>
        <time>2024-09-21T12:36:31.999Z</time>
      </trkpt>
      <trkpt lat="42.52215" lon="3.10347">
        <ele>41.26</ele>
        <time>2024-09-21T12:36:36.999Z</time>
      </trkpt>
      <trkpt lat="42.52204" lon="3.1037">
        <ele>41.35</ele>
        <time>2024-09-21T12:36:41.999Z</time>
      </trkpt>
      <trkpt lat="42.52193" lon="3.10394">
        <ele>41.39</ele>
        <time>2024-09-21T12:36:46.999Z</time>
      </trkpt>
      <trkpt lat="42.52182" lon="3.1042">
        <ele>41.38</ele>
        <time>2024-09-21T12:36:51.999Z</time>
      </trkpt>
      <trkpt lat="42.52169" lon="3.10448">
        <ele>41.36</ele>
        <time>2024-09-21T12:36:56.999Z</time>
      </trkpt>
      <trkpt lat="42.52158" lon="3.10475">
        <ele>41.34</ele>
        <time>2024-09-21T12:37:01.999Z</time>
      </trkpt>
      <trkpt lat="42.52143" lon="3.10506">
        <ele>41.29</ele>
        <time>2024-09-21T12:37:06.999Z</time>
      </trkpt>
      <trkpt lat="42.52122" lon="3.10526">
        <ele>41.2</ele>
        <time>2024-09-21T12:37:11.999Z</time>
      </trkpt>
      <trkpt lat="42.52092" lon="3.10539">
        <ele>41.07</ele>
        <time>2024-09-21T12:37:16.999Z</time>
      </trkpt>
      <trkpt lat="42.52072" lon="3.10582">
        <ele>40.9</ele>
        <time>2024-09-21T12:37:21.999Z</time>
      </trkpt>
      <trkpt lat="42.52051" lon="3.10626">
        <ele>40.8</ele>
        <time>2024-09-21T12:37:26.999Z</time>
      </trkpt>
      <trkpt lat="42.52034" lon="3.10664">
        <ele>40.36</ele>
        <time>2024-09-21T12:37:31.999Z</time>
      </trkpt>
      <trkpt lat="42.52021" lon="3.1069">
        <ele>38.65</ele>
        <time>2024-09-21T12:37:36.999Z</time>
      </trkpt>
      <trkpt lat="42.52008" lon="3.10712">
        <ele>37.79</ele>
        <time>2024-09-21T12:37:41.999Z</time>
      </trkpt>
      <trkpt lat="42.51994" lon="3.10721">
        <ele>37.62</ele>
        <time>2024-09-21T12:37:46.999Z</time>
      </trkpt>
      <trkpt lat="42.51979" lon="3.10731">
        <ele>37.36</ele>
        <time>2024-09-21T12:37:51.999Z</time>
      </trkpt>
      <trkpt lat="42.51964" lon="3.10742">
        <ele>37.01</ele>
        <time>2024-09-21T12:37:56.999Z</time>
      </trkpt>
      <trkpt lat="42.51948" lon="3.10752">
        <ele>35.79</ele>
        <time>2024-09-21T12:38:01.999Z</time>
      </trkpt>
      <trkpt lat="42.51927" lon="3.10763">
        <ele>34.51</ele>
        <time>2024-09-21T12:38:06.999Z</time>
      </trkpt>
      <trkpt lat="42.51905" lon="3.10761">
        <ele>34.21</ele>
        <time>2024-09-21T12:38:11.999Z</time>
      </trkpt>
      <trkpt lat="42.51883" lon="3.10752">
        <ele>33.99</ele>
        <time>2024-09-21T12:38:16.999Z</time>
      </trkpt>
      <trkpt lat="42.51863" lon="3.10736">
        <ele>33.9</ele>
        <time>2024-09-21T12:38:21.999Z</time>
      </trkpt>
      <trkpt lat="42.51844" lon="3.10719">
        <ele>33.71</ele>
        <time>2024-09-21T12:38:26.999Z</time>
      </trkpt>
      <trkpt lat="42.51824" lon="3.10701">
        <ele>33.49</ele>
        <time>2024-09-21T12:38:31.999Z</time>
      </trkpt>
      <trkpt lat="42.51804" lon="3.10681">
        <ele>33.23</ele>
        <time>2024-09-21T12:38:36.999Z</time>
      </trkpt>
      <trkpt lat="42.51782" lon="3.10661">
        <ele>32.91</ele>
        <time>2024-09-21T12:38:41.999Z</time>
      </trkpt>
      <trkpt lat="42.51761" lon="3.10642">
        <ele>32.08</ele>
        <time>2024-09-21T12:38:46.999Z</time>
      </trkpt>
      <trkpt lat="42.5174" lon="3.10624">
        <ele>30.69</ele>
        <time>2024-09-21T12:38:51.999Z</time>
      </trkpt>
      <trkpt lat="42.51721" lon="3.10607">
        <ele>29.45</ele>
        <time>2024-09-21T12:38:56.999Z</time>
      </trkpt>
      <trkpt lat="42.51702" lon="3.10589">
        <ele>28.44</ele>
        <time>2024-09-21T12:39:01.999Z</time>
      </trkpt>
      <trkpt lat="42.51683" lon="3.1057">
        <ele>27.67</ele>
        <time>2024-09-21T12:39:06.999Z</time>
      </trkpt>
      <trkpt lat="42.51662" lon="3.10553">
        <ele>27.29</ele>
        <time>2024-09-21T12:39:11.999Z</time>
      </trkpt>
      <trkpt lat="42.5164" lon="3.10551">
        <ele>27.21</ele>
        <time>2024-09-21T12:39:16.999Z</time>
      </trkpt>
      <trkpt lat="42.51625" lon="3.10569">
        <ele>27.21</ele>
        <time>2024-09-21T12:39:21.999Z</time>
      </trkpt>
      <trkpt lat="42.51618" lon="3.1058">
        <ele>27.22</ele>
        <time>2024-09-21T12:39:26.999Z</time>
      </trkpt>
      <trkpt lat="42.51608" lon="3.1058">
        <ele>26.94</ele>
        <time>2024-09-21T12:40:47.000Z</time>
      </trkpt>
      <trkpt lat="42.51593" lon="3.10596">
        <ele>26.39</ele>
        <time>2024-09-21T12:40:52.000Z</time>
      </trkpt>
      <trkpt lat="42.51579" lon="3.10613">
        <ele>26.08</ele>
        <time>2024-09-21T12:40:57.000Z</time>
      </trkpt>
      <trkpt lat="42.51572" lon="3.10626">
        <ele>26.04</ele>
        <time>2024-09-21T12:41:02.000Z</time>
      </trkpt>
      <trkpt lat="42.51565" lon="3.10639">
        <ele>26</ele>
        <time>2024-09-21T12:41:07.000Z</time>
      </trkpt>
      <trkpt lat="42.51557" lon="3.1065">
        <ele>25.97</ele>
        <time>2024-09-21T12:41:12.000Z</time>
      </trkpt>
      <trkpt lat="42.51549" lon="3.10663">
        <ele>25.93</ele>
        <time>2024-09-21T12:41:17.000Z</time>
      </trkpt>
      <trkpt lat="42.51542" lon="3.10676">
        <ele>25.92</ele>
        <time>2024-09-21T12:41:22.000Z</time>
      </trkpt>
      <trkpt lat="42.51533" lon="3.10688">
        <ele>25.93</ele>
        <time>2024-09-21T12:41:27.000Z</time>
      </trkpt>
      <trkpt lat="42.51525" lon="3.10698">
        <ele>25.95</ele>
        <time>2024-09-21T12:41:32.000Z</time>
      </trkpt>
      <trkpt lat="42.51525" lon="3.10711">
        <ele>26</ele>
        <time>2024-09-21T12:41:37.000Z</time>
      </trkpt>
      <trkpt lat="42.51536" lon="3.10718">
        <ele>26.11</ele>
        <time>2024-09-21T12:41:42.000Z</time>
      </trkpt>
      <trkpt lat="42.51547" lon="3.10728">
        <ele>26.29</ele>
        <time>2024-09-21T12:41:47.000Z</time>
      </trkpt>
      <trkpt lat="42.51556" lon="3.10737">
        <ele>26.61</ele>
        <time>2024-09-21T12:41:52.000Z</time>
      </trkpt>
      <trkpt lat="42.51563" lon="3.10747">
        <ele>27.01</ele>
        <time>2024-09-21T12:41:57.000Z</time>
      </trkpt>
      <trkpt lat="42.51564" lon="3.10761">
        <ele>27.49</ele>
        <time>2024-09-21T12:42:02.000Z</time>
      </trkpt>
      <trkpt lat="42.51562" lon="3.10773">
        <ele>28.01</ele>
        <time>2024-09-21T12:42:07.000Z</time>
      </trkpt>
      <trkpt lat="42.51559" lon="3.10786">
        <ele>28.61</ele>
        <time>2024-09-21T12:42:13.000Z</time>
      </trkpt>
      <trkpt lat="42.51556" lon="3.10799">
        <ele>29.17</ele>
        <time>2024-09-21T12:42:19.000Z</time>
      </trkpt>
      <trkpt lat="42.51556" lon="3.10813">
        <ele>29.7</ele>
        <time>2024-09-21T12:42:25.000Z</time>
      </trkpt>
      <trkpt lat="42.51561" lon="3.10826">
        <ele>30.24</ele>
        <time>2024-09-21T12:42:31.000Z</time>
      </trkpt>
      <trkpt lat="42.51565" lon="3.10838">
        <ele>30.81</ele>
        <time>2024-09-21T12:42:37.000Z</time>
      </trkpt>
      <trkpt lat="42.51567" lon="3.10851">
        <ele>31.41</ele>
        <time>2024-09-21T12:42:43.000Z</time>
      </trkpt>
      <trkpt lat="42.51565" lon="3.10864">
        <ele>32.07</ele>
        <time>2024-09-21T12:42:49.000Z</time>
      </trkpt>
      <trkpt lat="42.51559" lon="3.10873">
        <ele>32.78</ele>
        <time>2024-09-21T12:42:55.000Z</time>
      </trkpt>
      <trkpt lat="42.5155" lon="3.10877">
        <ele>33.56</ele>
        <time>2024-09-21T12:43:01.000Z</time>
      </trkpt>
      <trkpt lat="42.51539" lon="3.10867">
        <ele>35.26</ele>
        <time>2024-09-21T12:43:23.000Z</time>
      </trkpt>
      <trkpt lat="42.51529" lon="3.10874">
        <ele>36.09</ele>
        <time>2024-09-21T12:43:29.000Z</time>
      </trkpt>
      <trkpt lat="42.51522" lon="3.10884">
        <ele>36.86</ele>
        <time>2024-09-21T12:43:35.000Z</time>
      </trkpt>
      <trkpt lat="42.51509" lon="3.10883">
        <ele>37.46</ele>
        <time>2024-09-21T12:43:40.000Z</time>
      </trkpt>
      <trkpt lat="42.51498" lon="3.10885">
        <ele>38.05</ele>
        <time>2024-09-21T12:43:45.000Z</time>
      </trkpt>
      <trkpt lat="42.51487" lon="3.10888">
        <ele>38.74</ele>
        <time>2024-09-21T12:43:51.000Z</time>
      </trkpt>
      <trkpt lat="42.51477" lon="3.10892">
        <ele>39.32</ele>
        <time>2024-09-21T12:43:56.000Z</time>
      </trkpt>
      <trkpt lat="42.51467" lon="3.10897">
        <ele>39.87</ele>
        <time>2024-09-21T12:44:01.000Z</time>
      </trkpt>
      <trkpt lat="42.5146" lon="3.10904">
        <ele>40.38</ele>
        <time>2024-09-21T12:44:06.000Z</time>
      </trkpt>
      <trkpt lat="42.5145" lon="3.1091">
        <ele>40.83</ele>
        <time>2024-09-21T12:44:11.000Z</time>
      </trkpt>
      <trkpt lat="42.5144" lon="3.10916">
        <ele>41.23</ele>
        <time>2024-09-21T12:44:16.000Z</time>
      </trkpt>
      <trkpt lat="42.51431" lon="3.10923">
        <ele>41.61</ele>
        <time>2024-09-21T12:44:21.000Z</time>
      </trkpt>
      <trkpt lat="42.51424" lon="3.10929">
        <ele>41.98</ele>
        <time>2024-09-21T12:44:26.000Z</time>
      </trkpt>
      <trkpt lat="42.51414" lon="3.10938">
        <ele>42.39</ele>
        <time>2024-09-21T12:44:31.000Z</time>
      </trkpt>
      <trkpt lat="42.51405" lon="3.10944">
        <ele>42.83</ele>
        <time>2024-09-21T12:44:36.000Z</time>
      </trkpt>
      <trkpt lat="42.51397" lon="3.10951">
        <ele>43.3</ele>
        <time>2024-09-21T12:44:41.000Z</time>
      </trkpt>
      <trkpt lat="42.51389" lon="3.10957">
        <ele>43.76</ele>
        <time>2024-09-21T12:44:46.000Z</time>
      </trkpt>
      <trkpt lat="42.51379" lon="3.10965">
        <ele>44.2</ele>
        <time>2024-09-21T12:44:51.000Z</time>
      </trkpt>
      <trkpt lat="42.51369" lon="3.10972">
        <ele>44.66</ele>
        <time>2024-09-21T12:44:56.000Z</time>
      </trkpt>
      <trkpt lat="42.5136" lon="3.10972">
        <ele>45.21</ele>
        <time>2024-09-21T12:45:01.000Z</time>
      </trkpt>
      <trkpt lat="42.5135" lon="3.10973">
        <ele>45.83</ele>
        <time>2024-09-21T12:45:06.000Z</time>
      </trkpt>
      <trkpt lat="42.51339" lon="3.10972">
        <ele>46.52</ele>
        <time>2024-09-21T12:45:11.000Z</time>
      </trkpt>
      <trkpt lat="42.5133" lon="3.10969">
        <ele>47.22</ele>
        <time>2024-09-21T12:45:16.000Z</time>
      </trkpt>
      <trkpt lat="42.51321" lon="3.10962">
        <ele>47.95</ele>
        <time>2024-09-21T12:45:21.000Z</time>
      </trkpt>
      <trkpt lat="42.51316" lon="3.10951">
        <ele>48.72</ele>
        <time>2024-09-21T12:45:26.000Z</time>
      </trkpt>
      <trkpt lat="42.51309" lon="3.1096">
        <ele>51.52</ele>
        <time>2024-09-21T12:46:01.000Z</time>
      </trkpt>
      <trkpt lat="42.51299" lon="3.10959">
        <ele>52.76</ele>
        <time>2024-09-21T12:46:10.000Z</time>
      </trkpt>
      <trkpt lat="42.51289" lon="3.10956">
        <ele>53.6</ele>
        <time>2024-09-21T12:46:17.000Z</time>
      </trkpt>
      <trkpt lat="42.51282" lon="3.10963">
        <ele>54.73</ele>
        <time>2024-09-21T12:46:36.000Z</time>
      </trkpt>
      <trkpt lat="42.51276" lon="3.10975">
        <ele>55.2</ele>
        <time>2024-09-21T12:46:42.000Z</time>
      </trkpt>
      <trkpt lat="42.51271" lon="3.10987">
        <ele>55.55</ele>
        <time>2024-09-21T12:46:47.000Z</time>
      </trkpt>
      <trkpt lat="42.51268" lon="3.10999">
        <ele>55.88</ele>
        <time>2024-09-21T12:46:52.000Z</time>
      </trkpt>
      <trkpt lat="42.51266" lon="3.11012">
        <ele>56.18</ele>
        <time>2024-09-21T12:46:57.000Z</time>
      </trkpt>
      <trkpt lat="42.51267" lon="3.11026">
        <ele>56.57</ele>
        <time>2024-09-21T12:47:08.000Z</time>
      </trkpt>
      <trkpt lat="42.51269" lon="3.11039">
        <ele>56.81</ele>
        <time>2024-09-21T12:47:13.000Z</time>
      </trkpt>
      <trkpt lat="42.51275" lon="3.11051">
        <ele>57.03</ele>
        <time>2024-09-21T12:47:18.000Z</time>
      </trkpt>
      <trkpt lat="42.51281" lon="3.11061">
        <ele>57.25</ele>
        <time>2024-09-21T12:47:23.000Z</time>
      </trkpt>
      <trkpt lat="42.51289" lon="3.1107">
        <ele>57.46</ele>
        <time>2024-09-21T12:47:28.000Z</time>
      </trkpt>
      <trkpt lat="42.51295" lon="3.11081">
        <ele>57.65</ele>
        <time>2024-09-21T12:47:33.000Z</time>
      </trkpt>
      <trkpt lat="42.513" lon="3.11093">
        <ele>57.85</ele>
        <time>2024-09-21T12:47:38.000Z</time>
      </trkpt>
      <trkpt lat="42.51305" lon="3.11107">
        <ele>58.03</ele>
        <time>2024-09-21T12:47:43.000Z</time>
      </trkpt>
      <trkpt lat="42.51307" lon="3.1112">
        <ele>58.22</ele>
        <time>2024-09-21T12:47:48.000Z</time>
      </trkpt>
      <trkpt lat="42.51309" lon="3.11135">
        <ele>58.41</ele>
        <time>2024-09-21T12:47:53.000Z</time>
      </trkpt>
      <trkpt lat="42.51308" lon="3.11153">
        <ele>58.6</ele>
        <time>2024-09-21T12:47:58.000Z</time>
      </trkpt>
      <trkpt lat="42.51304" lon="3.11177">
        <ele>59.35</ele>
        <time>2024-09-21T12:48:03.000Z</time>
      </trkpt>
      <trkpt lat="42.51298" lon="3.11202">
        <ele>60.15</ele>
        <time>2024-09-21T12:48:08.000Z</time>
      </trkpt>
      <trkpt lat="42.51292" lon="3.11226">
        <ele>60.44</ele>
        <time>2024-09-21T12:48:13.000Z</time>
      </trkpt>
      <trkpt lat="42.51287" lon="3.11254">
        <ele>60.84</ele>
        <time>2024-09-21T12:48:18.000Z</time>
      </trkpt>
      <trkpt lat="42.51283" lon="3.11282">
        <ele>61.04</ele>
        <time>2024-09-21T12:48:23.000Z</time>
      </trkpt>
      <trkpt lat="42.51282" lon="3.11311">
        <ele>61.15</ele>
        <time>2024-09-21T12:48:28.000Z</time>
      </trkpt>
      <trkpt lat="42.51281" lon="3.11343">
        <ele>61.21</ele>
        <time>2024-09-21T12:48:33.000Z</time>
      </trkpt>
      <trkpt lat="42.51279" lon="3.11376">
        <ele>61.23</ele>
        <time>2024-09-21T12:48:38.000Z</time>
      </trkpt>
      <trkpt lat="42.51276" lon="3.11388">
        <ele>61.22</ele>
        <time>2024-09-21T12:49:06.000Z</time>
      </trkpt>
      <trkpt lat="42.51276" lon="3.11375">
        <ele>61.21</ele>
        <time>2024-09-21T12:49:23.000Z</time>
      </trkpt>
      <trkpt lat="42.51278" lon="3.11362">
        <ele>61.19</ele>
        <time>2024-09-21T12:49:30.000Z</time>
      </trkpt>
      <trkpt lat="42.51279" lon="3.11349">
        <ele>61.16</ele>
        <time>2024-09-21T12:49:38.000Z</time>
      </trkpt>
      <trkpt lat="42.51277" lon="3.11337">
        <ele>61.13</ele>
        <time>2024-09-21T12:49:53.000Z</time>
      </trkpt>
      <trkpt lat="42.51274" lon="3.11349">
        <ele>61.09</ele>
        <time>2024-09-21T12:50:03.000Z</time>
      </trkpt>
      <trkpt lat="42.51273" lon="3.11361">
        <ele>61.07</ele>
        <time>2024-09-21T12:50:13.000Z</time>
      </trkpt>
      <trkpt lat="42.5127" lon="3.11373">
        <ele>61.06</ele>
        <time>2024-09-21T12:50:23.000Z</time>
      </trkpt>
      <trkpt lat="42.51267" lon="3.11384">
        <ele>61.07</ele>
        <time>2024-09-21T12:50:34.000Z</time>
      </trkpt>
      <trkpt lat="42.51263" lon="3.11396">
        <ele>61.11</ele>
        <time>2024-09-21T12:50:45.000Z</time>
      </trkpt>
      <trkpt lat="42.51261" lon="3.11409">
        <ele>61.24</ele>
        <time>2024-09-21T12:51:00.000Z</time>
      </trkpt>
      <trkpt lat="42.51258" lon="3.11424">
        <ele>61.41</ele>
        <time>2024-09-21T12:51:22.000Z</time>
      </trkpt>
      <trkpt lat="42.51256" lon="3.11443">
        <ele>61.51</ele>
        <time>2024-09-21T12:51:27.000Z</time>
      </trkpt>
      <trkpt lat="42.51251" lon="3.11454">
        <ele>61.6</ele>
        <time>2024-09-21T12:51:32.000Z</time>
      </trkpt>
      <trkpt lat="42.51245" lon="3.11466">
        <ele>61.7</ele>
        <time>2024-09-21T12:51:37.000Z</time>
      </trkpt>
      <trkpt lat="42.5124" lon="3.11478">
        <ele>61.82</ele>
        <time>2024-09-21T12:51:43.000Z</time>
      </trkpt>
      <trkpt lat="42.51236" lon="3.11492">
        <ele>61.93</ele>
        <time>2024-09-21T12:51:49.000Z</time>
      </trkpt>
      <trkpt lat="42.51234" lon="3.11504">
        <ele>62.05</ele>
        <time>2024-09-21T12:51:54.999Z</time>
      </trkpt>
      <trkpt lat="42.5123" lon="3.11515">
        <ele>62.17</ele>
        <time>2024-09-21T12:52:00.999Z</time>
      </trkpt>
      <trkpt lat="42.51225" lon="3.11527">
        <ele>62.32</ele>
        <time>2024-09-21T12:52:07.999Z</time>
      </trkpt>
      <trkpt lat="42.51217" lon="3.11536">
        <ele>62.5</ele>
        <time>2024-09-21T12:52:15.999Z</time>
      </trkpt>
      <trkpt lat="42.51211" lon="3.11546">
        <ele>62.68</ele>
        <time>2024-09-21T12:52:21.999Z</time>
      </trkpt>
      <trkpt lat="42.51204" lon="3.11556">
        <ele>62.93</ele>
        <time>2024-09-21T12:52:28.999Z</time>
      </trkpt>
      <trkpt lat="42.512" lon="3.11569">
        <ele>63.2</ele>
        <time>2024-09-21T12:52:34.999Z</time>
      </trkpt>
      <trkpt lat="42.51196" lon="3.11582">
        <ele>63.56</ele>
        <time>2024-09-21T12:52:40.999Z</time>
      </trkpt>
      <trkpt lat="42.51193" lon="3.11595">
        <ele>63.98</ele>
        <time>2024-09-21T12:52:45.999Z</time>
      </trkpt>
      <trkpt lat="42.51191" lon="3.11608">
        <ele>64.54</ele>
        <time>2024-09-21T12:52:51.999Z</time>
      </trkpt>
      <trkpt lat="42.51189" lon="3.11621">
        <ele>65.15</ele>
        <time>2024-09-21T12:52:58.999Z</time>
      </trkpt>
      <trkpt lat="42.51186" lon="3.11633">
        <ele>65.74</ele>
        <time>2024-09-21T12:53:05.999Z</time>
      </trkpt>
      <trkpt lat="42.51182" lon="3.11645">
        <ele>66.44</ele>
        <time>2024-09-21T12:53:12.999Z</time>
      </trkpt>
      <trkpt lat="42.51178" lon="3.11656">
        <ele>67.24</ele>
        <time>2024-09-21T12:53:19.999Z</time>
      </trkpt>
      <trkpt lat="42.51173" lon="3.11667">
        <ele>68.76</ele>
        <time>2024-09-21T12:53:33.999Z</time>
      </trkpt>
      <trkpt lat="42.51167" lon="3.11677">
        <ele>70.39</ele>
        <time>2024-09-21T12:53:45.999Z</time>
      </trkpt>
      <trkpt lat="42.51158" lon="3.11679">
        <ele>71.89</ele>
        <time>2024-09-21T12:53:56.999Z</time>
      </trkpt>
      <trkpt lat="42.51149" lon="3.11674">
        <ele>73.53</ele>
        <time>2024-09-21T12:54:09.999Z</time>
      </trkpt>
      <trkpt lat="42.51143" lon="3.11665">
        <ele>75.23</ele>
        <time>2024-09-21T12:54:40.999Z</time>
      </trkpt>
      <trkpt lat="42.51137" lon="3.11655">
        <ele>84.47</ele>
        <time>2024-09-21T12:59:26.999Z</time>
      </trkpt>
      <trkpt lat="42.51126" lon="3.11643">
        <ele>84.97</ele>
        <time>2024-09-21T12:59:31.999Z</time>
      </trkpt>
      <trkpt lat="42.51105" lon="3.11635">
        <ele>88.01</ele>
        <time>2024-09-21T12:59:36.999Z</time>
      </trkpt>
      <trkpt lat="42.51081" lon="3.11633">
        <ele>89.15</ele>
        <time>2024-09-21T12:59:41.999Z</time>
      </trkpt>
      <trkpt lat="42.5105" lon="3.11624">
        <ele>89.51</ele>
        <time>2024-09-21T12:59:46.999Z</time>
      </trkpt>
      <trkpt lat="42.5102" lon="3.11596">
        <ele>89.4</ele>
        <time>2024-09-21T12:59:51.999Z</time>
      </trkpt>
      <trkpt lat="42.51003" lon="3.1154">
        <ele>89.28</ele>
        <time>2024-09-21T12:59:56.999Z</time>
      </trkpt>
      <trkpt lat="42.5096" lon="3.11526">
        <ele>89.06</ele>
        <time>2024-09-21T13:00:01.999Z</time>
      </trkpt>
      <trkpt lat="42.50916" lon="3.11537">
        <ele>88.75</ele>
        <time>2024-09-21T13:00:06.999Z</time>
      </trkpt>
      <trkpt lat="42.50884" lon="3.11581">
        <ele>88.03</ele>
        <time>2024-09-21T13:00:11.999Z</time>
      </trkpt>
      <trkpt lat="42.50859" lon="3.11631">
        <ele>87.07</ele>
        <time>2024-09-21T13:00:16.999Z</time>
      </trkpt>
      <trkpt lat="42.50819" lon="3.11651">
        <ele>86.06</ele>
        <time>2024-09-21T13:00:21.999Z</time>
      </trkpt>
      <trkpt lat="42.50782" lon="3.11677">
        <ele>84.79</ele>
        <time>2024-09-21T13:00:26.999Z</time>
      </trkpt>
      <trkpt lat="42.50752" lon="3.11719">
        <ele>83.01</ele>
        <time>2024-09-21T13:00:31.999Z</time>
      </trkpt>
      <trkpt lat="42.50711" lon="3.1173">
        <ele>81.39</ele>
        <time>2024-09-21T13:00:36.999Z</time>
      </trkpt>
      <trkpt lat="42.50671" lon="3.11701">
        <ele>79.41</ele>
        <time>2024-09-21T13:00:41.999Z</time>
      </trkpt>
      <trkpt lat="42.5066" lon="3.11632">
        <ele>76.87</ele>
        <time>2024-09-21T13:00:46.999Z</time>
      </trkpt>
      <trkpt lat="42.50661" lon="3.11562">
        <ele>74.04</ele>
        <time>2024-09-21T13:00:51.999Z</time>
      </trkpt>
      <trkpt lat="42.5063" lon="3.11547">
        <ele>71.26</ele>
        <time>2024-09-21T13:00:56.999Z</time>
      </trkpt>
      <trkpt lat="42.5062" lon="3.11598">
        <ele>67.97</ele>
        <time>2024-09-21T13:01:01.999Z</time>
      </trkpt>
      <trkpt lat="42.50615" lon="3.11655">
        <ele>64.36</ele>
        <time>2024-09-21T13:01:06.999Z</time>
      </trkpt>
      <trkpt lat="42.50614" lon="3.11714">
        <ele>61.24</ele>
        <time>2024-09-21T13:01:11.999Z</time>
      </trkpt>
      <trkpt lat="42.50611" lon="3.1177">
        <ele>57.92</ele>
        <time>2024-09-21T13:01:16.999Z</time>
      </trkpt>
      <trkpt lat="42.5061" lon="3.11822">
        <ele>54.63</ele>
        <time>2024-09-21T13:01:21.999Z</time>
      </trkpt>
      <trkpt lat="42.50611" lon="3.11868">
        <ele>52.22</ele>
        <time>2024-09-21T13:01:26.999Z</time>
      </trkpt>
      <trkpt lat="42.50604" lon="3.11913">
        <ele>49.74</ele>
        <time>2024-09-21T13:01:31.999Z</time>
      </trkpt>
      <trkpt lat="42.50584" lon="3.11958">
        <ele>47.32</ele>
        <time>2024-09-21T13:01:36.999Z</time>
      </trkpt>
      <trkpt lat="42.50562" lon="3.12005">
        <ele>45.33</ele>
        <time>2024-09-21T13:01:41.999Z</time>
      </trkpt>
      <trkpt lat="42.50542" lon="3.12052">
        <ele>43.31</ele>
        <time>2024-09-21T13:01:46.999Z</time>
      </trkpt>
      <trkpt lat="42.50516" lon="3.12086">
        <ele>41.5</ele>
        <time>2024-09-21T13:01:51.999Z</time>
      </trkpt>
      <trkpt lat="42.50486" lon="3.12101">
        <ele>40.13</ele>
        <time>2024-09-21T13:01:56.999Z</time>
      </trkpt>
      <trkpt lat="42.50458" lon="3.12108">
        <ele>38.69</ele>
        <time>2024-09-21T13:02:01.999Z</time>
      </trkpt>
      <trkpt lat="42.50431" lon="3.12116">
        <ele>37.26</ele>
        <time>2024-09-21T13:02:06.999Z</time>
      </trkpt>
      <trkpt lat="42.50406" lon="3.12123">
        <ele>36.23</ele>
        <time>2024-09-21T13:02:11.999Z</time>
      </trkpt>
      <trkpt lat="42.50383" lon="3.12129">
        <ele>35.33</ele>
        <time>2024-09-21T13:02:16.999Z</time>
      </trkpt>
      <trkpt lat="42.50359" lon="3.12133">
        <ele>34.37</ele>
        <time>2024-09-21T13:02:21.999Z</time>
      </trkpt>
      <trkpt lat="42.50334" lon="3.12128">
        <ele>33.68</ele>
        <time>2024-09-21T13:02:26.999Z</time>
      </trkpt>
      <trkpt lat="42.5031" lon="3.12121">
        <ele>32.91</ele>
        <time>2024-09-21T13:02:31.999Z</time>
      </trkpt>
      <trkpt lat="42.50286" lon="3.12114">
        <ele>32.17</ele>
        <time>2024-09-21T13:02:36.999Z</time>
      </trkpt>
      <trkpt lat="42.50264" lon="3.12101">
        <ele>31.52</ele>
        <time>2024-09-21T13:02:41.999Z</time>
      </trkpt>
      <trkpt lat="42.50245" lon="3.12084">
        <ele>30.91</ele>
        <time>2024-09-21T13:02:46.999Z</time>
      </trkpt>
      <trkpt lat="42.50232" lon="3.12061">
        <ele>30.58</ele>
        <time>2024-09-21T13:02:51.999Z</time>
      </trkpt>
      <trkpt lat="42.50237" lon="3.12047">
        <ele>30.5</ele>
        <time>2024-09-21T13:03:10.999Z</time>
      </trkpt>
      <trkpt lat="42.50232" lon="3.12031">
        <ele>30.51</ele>
        <time>2024-09-21T13:03:15.999Z</time>
      </trkpt>
      <trkpt lat="42.50213" lon="3.12038">
        <ele>30.42</ele>
        <time>2024-09-21T13:03:20.999Z</time>
      </trkpt>
      <trkpt lat="42.5019" lon="3.12052">
        <ele>30.23</ele>
        <time>2024-09-21T13:03:25.999Z</time>
      </trkpt>
      <trkpt lat="42.50165" lon="3.12063">
        <ele>29.95</ele>
        <time>2024-09-21T13:03:30.999Z</time>
      </trkpt>
      <trkpt lat="42.50139" lon="3.12072">
        <ele>29.68</ele>
        <time>2024-09-21T13:03:35.999Z</time>
      </trkpt>
      <trkpt lat="42.50114" lon="3.12082">
        <ele>29.43</ele>
        <time>2024-09-21T13:03:40.999Z</time>
      </trkpt>
      <trkpt lat="42.50088" lon="3.12086">
        <ele>29.18</ele>
        <time>2024-09-21T13:03:45.999Z</time>
      </trkpt>
      <trkpt lat="42.50062" lon="3.12076">
        <ele>28.96</ele>
        <time>2024-09-21T13:03:50.999Z</time>
      </trkpt>
      <trkpt lat="42.50038" lon="3.12058">
        <ele>28.77</ele>
        <time>2024-09-21T13:03:56.000Z</time>
      </trkpt>
      <trkpt lat="42.5002" lon="3.12038">
        <ele>28.71</ele>
        <time>2024-09-21T13:04:01.000Z</time>
      </trkpt>
      <trkpt lat="42.50011" lon="3.12021">
        <ele>28.7</ele>
        <time>2024-09-21T13:04:06.000Z</time>
      </trkpt>
      <trkpt lat="42.50005" lon="3.12006">
        <ele>28.7</ele>
        <time>2024-09-21T13:04:11.000Z</time>
      </trkpt>
      <trkpt lat="42.49999" lon="3.11991">
        <ele>28.69</ele>
        <time>2024-09-21T13:04:16.000Z</time>
      </trkpt>
      <trkpt lat="42.49992" lon="3.11978">
        <ele>28.69</ele>
        <time>2024-09-21T13:04:21.000Z</time>
      </trkpt>
      <trkpt lat="42.49984" lon="3.11966">
        <ele>28.7</ele>
        <time>2024-09-21T13:04:26.000Z</time>
      </trkpt>
      <trkpt lat="42.49976" lon="3.11954">
        <ele>28.72</ele>
        <time>2024-09-21T13:04:31.000Z</time>
      </trkpt>
      <trkpt lat="42.49966" lon="3.11946">
        <ele>28.77</ele>
        <time>2024-09-21T13:04:36.000Z</time>
      </trkpt>
      <trkpt lat="42.49954" lon="3.11941">
        <ele>28.84</ele>
        <time>2024-09-21T13:04:41.000Z</time>
      </trkpt>
      <trkpt lat="42.49942" lon="3.11939">
        <ele>28.93</ele>
        <time>2024-09-21T13:04:46.000Z</time>
      </trkpt>
      <trkpt lat="42.4993" lon="3.11939">
        <ele>29.03</ele>
        <time>2024-09-21T13:04:51.000Z</time>
      </trkpt>
      <trkpt lat="42.49918" lon="3.11941">
        <ele>29.14</ele>
        <time>2024-09-21T13:04:56.000Z</time>
      </trkpt>
      <trkpt lat="42.49907" lon="3.11942">
        <ele>29.27</ele>
        <time>2024-09-21T13:05:01.000Z</time>
      </trkpt>
      <trkpt lat="42.49897" lon="3.11943">
        <ele>29.42</ele>
        <time>2024-09-21T13:05:06.000Z</time>
      </trkpt>
      <trkpt lat="42.49886" lon="3.11945">
        <ele>29.57</ele>
        <time>2024-09-21T13:05:11.000Z</time>
      </trkpt>
      <trkpt lat="42.49876" lon="3.11947">
        <ele>29.74</ele>
        <time>2024-09-21T13:05:16.000Z</time>
      </trkpt>
      <trkpt lat="42.49864" lon="3.11948">
        <ele>29.92</ele>
        <time>2024-09-21T13:05:21.000Z</time>
      </trkpt>
      <trkpt lat="42.49853" lon="3.11948">
        <ele>30.1</ele>
        <time>2024-09-21T13:05:26.000Z</time>
      </trkpt>
      <trkpt lat="42.49843" lon="3.11947">
        <ele>30.29</ele>
        <time>2024-09-21T13:05:31.000Z</time>
      </trkpt>
      <trkpt lat="42.49832" lon="3.11947">
        <ele>30.5</ele>
        <time>2024-09-21T13:05:36.000Z</time>
      </trkpt>
      <trkpt lat="42.4982" lon="3.11947">
        <ele>30.71</ele>
        <time>2024-09-21T13:05:41.000Z</time>
      </trkpt>
      <trkpt lat="42.4981" lon="3.11947">
        <ele>30.93</ele>
        <time>2024-09-21T13:05:46.000Z</time>
      </trkpt>
      <trkpt lat="42.49799" lon="3.11946">
        <ele>31.16</ele>
        <time>2024-09-21T13:05:51.000Z</time>
      </trkpt>
      <trkpt lat="42.49789" lon="3.11946">
        <ele>31.4</ele>
        <time>2024-09-21T13:05:56.000Z</time>
      </trkpt>
      <trkpt lat="42.49779" lon="3.11945">
        <ele>31.65</ele>
        <time>2024-09-21T13:06:01.000Z</time>
      </trkpt>
      <trkpt lat="42.49769" lon="3.11945">
        <ele>31.9</ele>
        <time>2024-09-21T13:06:06.000Z</time>
      </trkpt>
      <trkpt lat="42.49758" lon="3.11945">
        <ele>32.17</ele>
        <time>2024-09-21T13:06:11.000Z</time>
      </trkpt>
      <trkpt lat="42.49747" lon="3.11945">
        <ele>32.45</ele>
        <time>2024-09-21T13:06:16.000Z</time>
      </trkpt>
      <trkpt lat="42.49736" lon="3.11945">
        <ele>32.73</ele>
        <time>2024-09-21T13:06:21.000Z</time>
      </trkpt>
      <trkpt lat="42.49726" lon="3.11946">
        <ele>33.03</ele>
        <time>2024-09-21T13:06:26.000Z</time>
      </trkpt>
      <trkpt lat="42.49716" lon="3.11943">
        <ele>33.46</ele>
        <time>2024-09-21T13:06:33.000Z</time>
      </trkpt>
      <trkpt lat="42.49707" lon="3.11941">
        <ele>33.84</ele>
        <time>2024-09-21T13:06:39.000Z</time>
      </trkpt>
      <trkpt lat="42.49697" lon="3.11938">
        <ele>34.23</ele>
        <time>2024-09-21T13:06:45.000Z</time>
      </trkpt>
      <trkpt lat="42.49688" lon="3.11932">
        <ele>34.63</ele>
        <time>2024-09-21T13:06:51.000Z</time>
      </trkpt>
      <trkpt lat="42.4968" lon="3.11926">
        <ele>35.03</ele>
        <time>2024-09-21T13:06:57.000Z</time>
      </trkpt>
      <trkpt lat="42.49673" lon="3.11917">
        <ele>35.44</ele>
        <time>2024-09-21T13:07:03.000Z</time>
      </trkpt>
      <trkpt lat="42.49666" lon="3.11907">
        <ele>35.85</ele>
        <time>2024-09-21T13:07:09.000Z</time>
      </trkpt>
      <trkpt lat="42.49659" lon="3.11897">
        <ele>36.25</ele>
        <time>2024-09-21T13:07:15.000Z</time>
      </trkpt>
      <trkpt lat="42.49651" lon="3.11888">
        <ele>36.65</ele>
        <time>2024-09-21T13:07:21.000Z</time>
      </trkpt>
      <trkpt lat="42.49645" lon="3.11879">
        <ele>37.04</ele>
        <time>2024-09-21T13:07:27.000Z</time>
      </trkpt>
      <trkpt lat="42.49638" lon="3.11871">
        <ele>37.44</ele>
        <time>2024-09-21T13:07:33.000Z</time>
      </trkpt>
      <trkpt lat="42.49631" lon="3.11862">
        <ele>37.77</ele>
        <time>2024-09-21T13:07:38.000Z</time>
      </trkpt>
      <trkpt lat="42.49624" lon="3.11854">
        <ele>38.09</ele>
        <time>2024-09-21T13:07:43.000Z</time>
      </trkpt>
      <trkpt lat="42.49617" lon="3.11845">
        <ele>38.47</ele>
        <time>2024-09-21T13:07:49.000Z</time>
      </trkpt>
      <trkpt lat="42.49608" lon="3.11837">
        <ele>38.91</ele>
        <time>2024-09-21T13:07:56.000Z</time>
      </trkpt>
      <trkpt lat="42.49599" lon="3.11832">
        <ele>39.24</ele>
        <time>2024-09-21T13:08:01.000Z</time>
      </trkpt>
      <trkpt lat="42.49591" lon="3.11826">
        <ele>39.65</ele>
        <time>2024-09-21T13:08:07.000Z</time>
      </trkpt>
      <trkpt lat="42.49581" lon="3.11821">
        <ele>40.13</ele>
        <time>2024-09-21T13:08:14.000Z</time>
      </trkpt>
      <trkpt lat="42.49572" lon="3.11818">
        <ele>40.49</ele>
        <time>2024-09-21T13:08:19.000Z</time>
      </trkpt>
      <trkpt lat="42.49563" lon="3.11817">
        <ele>40.85</ele>
        <time>2024-09-21T13:08:24.000Z</time>
      </trkpt>
      <trkpt lat="42.49553" lon="3.11816">
        <ele>41.3</ele>
        <time>2024-09-21T13:08:30.000Z</time>
      </trkpt>
      <trkpt lat="42.49544" lon="3.11816">
        <ele>41.76</ele>
        <time>2024-09-21T13:08:36.000Z</time>
      </trkpt>
      <trkpt lat="42.49535" lon="3.11816">
        <ele>42.22</ele>
        <time>2024-09-21T13:08:42.000Z</time>
      </trkpt>
      <trkpt lat="42.49525" lon="3.11816">
        <ele>42.7</ele>
        <time>2024-09-21T13:08:48.000Z</time>
      </trkpt>
      <trkpt lat="42.49516" lon="3.11818">
        <ele>43.17</ele>
        <time>2024-09-21T13:08:54.000Z</time>
      </trkpt>
      <trkpt lat="42.49508" lon="3.11822">
        <ele>43.57</ele>
        <time>2024-09-21T13:08:59.000Z</time>
      </trkpt>
      <trkpt lat="42.49498" lon="3.11827">
        <ele>43.97</ele>
        <time>2024-09-21T13:09:04.000Z</time>
      </trkpt>
      <trkpt lat="42.49488" lon="3.11833">
        <ele>44.43</ele>
        <time>2024-09-21T13:09:10.000Z</time>
      </trkpt>
      <trkpt lat="42.4948" lon="3.1184">
        <ele>44.89</ele>
        <time>2024-09-21T13:09:16.000Z</time>
      </trkpt>
      <trkpt lat="42.49471" lon="3.11846">
        <ele>45.32</ele>
        <time>2024-09-21T13:09:22.000Z</time>
      </trkpt>
      <trkpt lat="42.49463" lon="3.11852">
        <ele>45.73</ele>
        <time>2024-09-21T13:09:28.000Z</time>
      </trkpt>
      <trkpt lat="42.49454" lon="3.1186">
        <ele>46.18</ele>
        <time>2024-09-21T13:09:35.000Z</time>
      </trkpt>
      <trkpt lat="42.49446" lon="3.11867">
        <ele>46.61</ele>
        <time>2024-09-21T13:09:42.000Z</time>
      </trkpt>
      <trkpt lat="42.49439" lon="3.11875">
        <ele>46.97</ele>
        <time>2024-09-21T13:09:48.000Z</time>
      </trkpt>
      <trkpt lat="42.49431" lon="3.11881">
        <ele>47.38</ele>
        <time>2024-09-21T13:09:55.000Z</time>
      </trkpt>
      <trkpt lat="42.49423" lon="3.11888">
        <ele>47.67</ele>
        <time>2024-09-21T13:10:00.000Z</time>
      </trkpt>
      <trkpt lat="42.49415" lon="3.11896">
        <ele>48</ele>
        <time>2024-09-21T13:10:06.000Z</time>
      </trkpt>
      <trkpt lat="42.49407" lon="3.11902">
        <ele>48.27</ele>
        <time>2024-09-21T13:10:11.000Z</time>
      </trkpt>
      <trkpt lat="42.49397" lon="3.11909">
        <ele>48.57</ele>
        <time>2024-09-21T13:10:17.000Z</time>
      </trkpt>
      <trkpt lat="42.49389" lon="3.11914">
        <ele>48.81</ele>
        <time>2024-09-21T13:10:22.000Z</time>
      </trkpt>
      <trkpt lat="42.49379" lon="3.11917">
        <ele>49.09</ele>
        <time>2024-09-21T13:10:28.000Z</time>
      </trkpt>
      <trkpt lat="42.49369" lon="3.11919">
        <ele>49.31</ele>
        <time>2024-09-21T13:10:33.000Z</time>
      </trkpt>
      <trkpt lat="42.4936" lon="3.11922">
        <ele>49.54</ele>
        <time>2024-09-21T13:10:38.000Z</time>
      </trkpt>
      <trkpt lat="42.4935" lon="3.11923">
        <ele>49.83</ele>
        <time>2024-09-21T13:10:44.000Z</time>
      </trkpt>
      <trkpt lat="42.4934" lon="3.11925">
        <ele>50.13</ele>
        <time>2024-09-21T13:10:50.000Z</time>
      </trkpt>
      <trkpt lat="42.49331" lon="3.11926">
        <ele>50.45</ele>
        <time>2024-09-21T13:10:56.000Z</time>
      </trkpt>
      <trkpt lat="42.49321" lon="3.1193">
        <ele>50.79</ele>
        <time>2024-09-21T13:11:02.000Z</time>
      </trkpt>
      <trkpt lat="42.49311" lon="3.11929">
        <ele>51.17</ele>
        <time>2024-09-21T13:11:08.000Z</time>
      </trkpt>
      <trkpt lat="42.49302" lon="3.11928">
        <ele>51.59</ele>
        <time>2024-09-21T13:11:14.000Z</time>
      </trkpt>
      <trkpt lat="42.49292" lon="3.11926">
        <ele>52.06</ele>
        <time>2024-09-21T13:11:20.000Z</time>
      </trkpt>
      <trkpt lat="42.49281" lon="3.11924">
        <ele>52.55</ele>
        <time>2024-09-21T13:11:26.000Z</time>
      </trkpt>
      <trkpt lat="42.49273" lon="3.11922">
        <ele>52.98</ele>
        <time>2024-09-21T13:11:31.000Z</time>
      </trkpt>
      <trkpt lat="42.49263" lon="3.11918">
        <ele>53.42</ele>
        <time>2024-09-21T13:11:36.000Z</time>
      </trkpt>
      <trkpt lat="42.49252" lon="3.11913">
        <ele>53.86</ele>
        <time>2024-09-21T13:11:41.000Z</time>
      </trkpt>
      <trkpt lat="42.49244" lon="3.11907">
        <ele>54.33</ele>
        <time>2024-09-21T13:11:46.000Z</time>
      </trkpt>
      <trkpt lat="42.49234" lon="3.11899">
        <ele>54.96</ele>
        <time>2024-09-21T13:11:51.000Z</time>
      </trkpt>
      <trkpt lat="42.49228" lon="3.11888">
        <ele>55.74</ele>
        <time>2024-09-21T13:11:56.000Z</time>
      </trkpt>
      <trkpt lat="42.4922" lon="3.11878">
        <ele>59.94</ele>
        <time>2024-09-21T13:13:11.000Z</time>
      </trkpt>
      <trkpt lat="42.49212" lon="3.11876">
        <ele>65.75</ele>
        <time>2024-09-21T13:14:55.000Z</time>
      </trkpt>
      <trkpt lat="42.49203" lon="3.11887">
        <ele>67.19</ele>
        <time>2024-09-21T13:15:00.000Z</time>
      </trkpt>
      <trkpt lat="42.49186" lon="3.1189">
        <ele>68.51</ele>
        <time>2024-09-21T13:15:05.000Z</time>
      </trkpt>
      <trkpt lat="42.49165" lon="3.11891">
        <ele>75.55</ele>
        <time>2024-09-21T13:15:10.000Z</time>
      </trkpt>
      <trkpt lat="42.49135" lon="3.11893">
        <ele>79.19</ele>
        <time>2024-09-21T13:15:15.000Z</time>
      </trkpt>
      <trkpt lat="42.49102" lon="3.11905">
        <ele>80.34</ele>
        <time>2024-09-21T13:15:20.000Z</time>
      </trkpt>
      <trkpt lat="42.49073" lon="3.11934">
        <ele>80.48</ele>
        <time>2024-09-21T13:15:25.000Z</time>
      </trkpt>
      <trkpt lat="42.49046" lon="3.11978">
        <ele>80.14</ele>
        <time>2024-09-21T13:15:30.000Z</time>
      </trkpt>
      <trkpt lat="42.49023" lon="3.12026">
        <ele>79.51</ele>
        <time>2024-09-21T13:15:35.000Z</time>
      </trkpt>
      <trkpt lat="42.49001" lon="3.12072">
        <ele>78.52</ele>
        <time>2024-09-21T13:15:40.000Z</time>
      </trkpt>
      <trkpt lat="42.48979" lon="3.12118">
        <ele>77.53</ele>
        <time>2024-09-21T13:15:45.000Z</time>
      </trkpt>
      <trkpt lat="42.48952" lon="3.12177">
        <ele>76.18</ele>
        <time>2024-09-21T13:15:50.999Z</time>
      </trkpt>
      <trkpt lat="42.48931" lon="3.12225">
        <ele>75.02</ele>
        <time>2024-09-21T13:15:55.999Z</time>
      </trkpt>
      <trkpt lat="42.48912" lon="3.12271">
        <ele>73.39</ele>
        <time>2024-09-21T13:16:00.999Z</time>
      </trkpt>
      <trkpt lat="42.48892" lon="3.12318">
        <ele>71.47</ele>
        <time>2024-09-21T13:16:05.999Z</time>
      </trkpt>
      <trkpt lat="42.48871" lon="3.12364">
        <ele>69.77</ele>
        <time>2024-09-21T13:16:10.999Z</time>
      </trkpt>
      <trkpt lat="42.48858" lon="3.12415">
        <ele>67.58</ele>
        <time>2024-09-21T13:16:15.999Z</time>
      </trkpt>
      <trkpt lat="42.48869" lon="3.12471">
        <ele>64.83</ele>
        <time>2024-09-21T13:16:20.999Z</time>
      </trkpt>
      <trkpt lat="42.48872" lon="3.12536">
        <ele>61.54</ele>
        <time>2024-09-21T13:16:25.999Z</time>
      </trkpt>
      <trkpt lat="42.48869" lon="3.12606">
        <ele>58.48</ele>
        <time>2024-09-21T13:16:30.999Z</time>
      </trkpt>
      <trkpt lat="42.48868" lon="3.12673">
        <ele>55.68</ele>
        <time>2024-09-21T13:16:35.999Z</time>
      </trkpt>
      <trkpt lat="42.48848" lon="3.12722">
        <ele>52.07</ele>
        <time>2024-09-21T13:16:40.999Z</time>
      </trkpt>
      <trkpt lat="42.48808" lon="3.12716">
        <ele>49.3</ele>
        <time>2024-09-21T13:16:45.999Z</time>
      </trkpt>
      <trkpt lat="42.48777" lon="3.12699">
        <ele>46.48</ele>
        <time>2024-09-21T13:16:50.999Z</time>
      </trkpt>
      <trkpt lat="42.48755" lon="3.12679">
        <ele>43.71</ele>
        <time>2024-09-21T13:16:55.999Z</time>
      </trkpt>
      <trkpt lat="42.48745" lon="3.12679">
        <ele>42.69</ele>
        <time>2024-09-21T13:17:19.999Z</time>
      </trkpt>
      <trkpt lat="42.48736" lon="3.12695">
        <ele>42.07</ele>
        <time>2024-09-21T13:17:24.999Z</time>
      </trkpt>
      <trkpt lat="42.48718" lon="3.12708">
        <ele>38.54</ele>
        <time>2024-09-21T13:17:29.999Z</time>
      </trkpt>
      <trkpt lat="42.487" lon="3.12714">
        <ele>37.8</ele>
        <time>2024-09-21T13:17:34.999Z</time>
      </trkpt>
      <trkpt lat="42.48687" lon="3.12721">
        <ele>37.35</ele>
        <time>2024-09-21T13:17:39.999Z</time>
      </trkpt>
      <trkpt lat="42.48672" lon="3.12725">
        <ele>36.88</ele>
        <time>2024-09-21T13:17:44.999Z</time>
      </trkpt>
      <trkpt lat="42.48659" lon="3.12727">
        <ele>36.43</ele>
        <time>2024-09-21T13:17:49.999Z</time>
      </trkpt>
      <trkpt lat="42.48648" lon="3.12726">
        <ele>35.97</ele>
        <time>2024-09-21T13:17:54.999Z</time>
      </trkpt>
      <trkpt lat="42.48657" lon="3.12728">
        <ele>35.08</ele>
        <time>2024-09-21T13:18:06.999Z</time>
      </trkpt>
      <trkpt lat="42.48672" lon="3.12729">
        <ele>34.67</ele>
        <time>2024-09-21T13:18:11.999Z</time>
      </trkpt>
      <trkpt lat="42.48689" lon="3.12722">
        <ele>34.25</ele>
        <time>2024-09-21T13:18:16.999Z</time>
      </trkpt>
      <trkpt lat="42.48702" lon="3.12716">
        <ele>33.84</ele>
        <time>2024-09-21T13:18:21.999Z</time>
      </trkpt>
      <trkpt lat="42.48715" lon="3.12713">
        <ele>33.43</ele>
        <time>2024-09-21T13:18:26.999Z</time>
      </trkpt>
      <trkpt lat="42.4873" lon="3.12707">
        <ele>33.04</ele>
        <time>2024-09-21T13:18:31.999Z</time>
      </trkpt>
      <trkpt lat="42.48742" lon="3.12702">
        <ele>32.69</ele>
        <time>2024-09-21T13:18:36.999Z</time>
      </trkpt>
      <trkpt lat="42.48753" lon="3.12697">
        <ele>32.36</ele>
        <time>2024-09-21T13:18:41.999Z</time>
      </trkpt>
      <trkpt lat="42.48752" lon="3.12684">
        <ele>31.81</ele>
        <time>2024-09-21T13:18:59.999Z</time>
      </trkpt>
      <trkpt lat="42.48739" lon="3.1267">
        <ele>30.28</ele>
        <time>2024-09-21T13:19:04.999Z</time>
      </trkpt>
      <trkpt lat="42.48716" lon="3.12653">
        <ele>29.14</ele>
        <time>2024-09-21T13:19:09.999Z</time>
      </trkpt>
      <trkpt lat="42.48695" lon="3.12636">
        <ele>28.83</ele>
        <time>2024-09-21T13:19:14.999Z</time>
      </trkpt>
      <trkpt lat="42.48678" lon="3.12622">
        <ele>28.96</ele>
        <time>2024-09-21T13:19:19.999Z</time>
      </trkpt>
      <trkpt lat="42.48663" lon="3.12611">
        <ele>29.01</ele>
        <time>2024-09-21T13:19:24.999Z</time>
      </trkpt>
      <trkpt lat="42.48651" lon="3.12605">
        <ele>29.05</ele>
        <time>2024-09-21T13:19:29.999Z</time>
      </trkpt>
      <trkpt lat="42.48638" lon="3.12603">
        <ele>29.11</ele>
        <time>2024-09-21T13:19:34.999Z</time>
      </trkpt>
      <trkpt lat="42.48625" lon="3.12605">
        <ele>29.2</ele>
        <time>2024-09-21T13:19:39.999Z</time>
      </trkpt>
      <trkpt lat="42.48614" lon="3.12606">
        <ele>29.31</ele>
        <time>2024-09-21T13:19:44.999Z</time>
      </trkpt>
      <trkpt lat="42.48602" lon="3.12608">
        <ele>29.46</ele>
        <time>2024-09-21T13:19:49.999Z</time>
      </trkpt>
      <trkpt lat="42.4859" lon="3.1261">
        <ele>29.63</ele>
        <time>2024-09-21T13:19:54.999Z</time>
      </trkpt>
      <trkpt lat="42.48577" lon="3.12604">
        <ele>29.84</ele>
        <time>2024-09-21T13:19:59.999Z</time>
      </trkpt>
      <trkpt lat="42.48564" lon="3.12604">
        <ele>30.08</ele>
        <time>2024-09-21T13:20:04.999Z</time>
      </trkpt>
      <trkpt lat="42.48552" lon="3.12602">
        <ele>30.33</ele>
        <time>2024-09-21T13:20:09.999Z</time>
      </trkpt>
      <trkpt lat="42.48543" lon="3.12598">
        <ele>30.73</ele>
        <time>2024-09-21T13:20:24.999Z</time>
      </trkpt>
      <trkpt lat="42.48533" lon="3.12594">
        <ele>30.96</ele>
        <time>2024-09-21T13:20:29.999Z</time>
      </trkpt>
      <trkpt lat="42.48522" lon="3.1259">
        <ele>31.21</ele>
        <time>2024-09-21T13:20:34.999Z</time>
      </trkpt>
      <trkpt lat="42.48511" lon="3.12588">
        <ele>31.46</ele>
        <time>2024-09-21T13:20:39.999Z</time>
      </trkpt>
      <trkpt lat="42.485" lon="3.12587">
        <ele>31.74</ele>
        <time>2024-09-21T13:20:44.999Z</time>
      </trkpt>
      <trkpt lat="42.48489" lon="3.12586">
        <ele>32.06</ele>
        <time>2024-09-21T13:20:49.999Z</time>
      </trkpt>
      <trkpt lat="42.48478" lon="3.12586">
        <ele>32.41</ele>
        <time>2024-09-21T13:20:54.999Z</time>
      </trkpt>
      <trkpt lat="42.48468" lon="3.12585">
        <ele>32.79</ele>
        <time>2024-09-21T13:20:59.999Z</time>
      </trkpt>
      <trkpt lat="42.48458" lon="3.12582">
        <ele>33.21</ele>
        <time>2024-09-21T13:21:04.999Z</time>
      </trkpt>
      <trkpt lat="42.48448" lon="3.12581">
        <ele>33.65</ele>
        <time>2024-09-21T13:21:09.999Z</time>
      </trkpt>
      <trkpt lat="42.48437" lon="3.12582">
        <ele>34.12</ele>
        <time>2024-09-21T13:21:14.999Z</time>
      </trkpt>
      <trkpt lat="42.48427" lon="3.1258">
        <ele>34.77</ele>
        <time>2024-09-21T13:21:20.999Z</time>
      </trkpt>
      <trkpt lat="42.48415" lon="3.1258">
        <ele>35.41</ele>
        <time>2024-09-21T13:21:25.999Z</time>
      </trkpt>
      <trkpt lat="42.48405" lon="3.1258">
        <ele>36.12</ele>
        <time>2024-09-21T13:21:30.999Z</time>
      </trkpt>
      <trkpt lat="42.48395" lon="3.12578">
        <ele>36.88</ele>
        <time>2024-09-21T13:21:35.999Z</time>
      </trkpt>
      <trkpt lat="42.48383" lon="3.12575">
        <ele>37.62</ele>
        <time>2024-09-21T13:21:40.999Z</time>
      </trkpt>
      <trkpt lat="42.4837" lon="3.12576">
        <ele>38.36</ele>
        <time>2024-09-21T13:21:45.999Z</time>
      </trkpt>
      <trkpt lat="42.48361" lon="3.12581">
        <ele>39.12</ele>
        <time>2024-09-21T13:21:50.999Z</time>
      </trkpt>
      <trkpt lat="42.48354" lon="3.12589">
        <ele>39.93</ele>
        <time>2024-09-21T13:21:55.999Z</time>
      </trkpt>
      <trkpt lat="42.48352" lon="3.1261">
        <ele>40.71</ele>
        <time>2024-09-21T13:22:00.999Z</time>
      </trkpt>
      <trkpt lat="42.48355" lon="3.12637">
        <ele>44.13</ele>
        <time>2024-09-21T13:22:05.999Z</time>
      </trkpt>
      <trkpt lat="42.48348" lon="3.12659">
        <ele>45.35</ele>
        <time>2024-09-21T13:22:10.999Z</time>
      </trkpt>
      <trkpt lat="42.4834" lon="3.12679">
        <ele>45.6</ele>
        <time>2024-09-21T13:22:15.999Z</time>
      </trkpt>
      <trkpt lat="42.48331" lon="3.12697">
        <ele>45.82</ele>
        <time>2024-09-21T13:22:20.999Z</time>
      </trkpt>
      <trkpt lat="42.48321" lon="3.12697">
        <ele>46.02</ele>
        <time>2024-09-21T13:22:25.999Z</time>
      </trkpt>
      <trkpt lat="42.48305" lon="3.12693">
        <ele>46.18</ele>
        <time>2024-09-21T13:22:30.999Z</time>
      </trkpt>
      <trkpt lat="42.48296" lon="3.12686">
        <ele>46.26</ele>
        <time>2024-09-21T13:22:35.999Z</time>
      </trkpt>
      <trkpt lat="42.48296" lon="3.12668">
        <ele>45.95</ele>
        <time>2024-09-21T13:23:23.999Z</time>
      </trkpt>
      <trkpt lat="42.48298" lon="3.12635">
        <ele>44.91</ele>
        <time>2024-09-21T13:23:28.999Z</time>
      </trkpt>
      <trkpt lat="42.48286" lon="3.1261">
        <ele>44.45</ele>
        <time>2024-09-21T13:23:33.999Z</time>
      </trkpt>
      <trkpt lat="42.48278" lon="3.12588">
        <ele>44.28</ele>
        <time>2024-09-21T13:23:38.999Z</time>
      </trkpt>
      <trkpt lat="42.48284" lon="3.12559">
        <ele>44.23</ele>
        <time>2024-09-21T13:23:43.999Z</time>
      </trkpt>
      <trkpt lat="42.48288" lon="3.12548">
        <ele>44.12</ele>
        <time>2024-09-21T13:24:00.999Z</time>
      </trkpt>
      <trkpt lat="42.48278" lon="3.12539">
        <ele>44.05</ele>
        <time>2024-09-21T13:24:05.999Z</time>
      </trkpt>
      <trkpt lat="42.48257" lon="3.12535">
        <ele>43.74</ele>
        <time>2024-09-21T13:24:10.999Z</time>
      </trkpt>
      <trkpt lat="42.48229" lon="3.12526">
        <ele>43.58</ele>
        <time>2024-09-21T13:24:15.999Z</time>
      </trkpt>
      <trkpt lat="42.48199" lon="3.12517">
        <ele>43.38</ele>
        <time>2024-09-21T13:24:20.999Z</time>
      </trkpt>
      <trkpt lat="42.48167" lon="3.1251">
        <ele>43</ele>
        <time>2024-09-21T13:24:25.999Z</time>
      </trkpt>
      <trkpt lat="42.48145" lon="3.12516">
        <ele>42.41</ele>
        <time>2024-09-21T13:24:30.999Z</time>
      </trkpt>
      <trkpt lat="42.4815" lon="3.1253">
        <ele>41.35</ele>
        <time>2024-09-21T13:25:04.999Z</time>
      </trkpt>
      <trkpt lat="42.48169" lon="3.12553">
        <ele>37.74</ele>
        <time>2024-09-21T13:25:09.999Z</time>
      </trkpt>
      <trkpt lat="42.48165" lon="3.12583">
        <ele>35.37</ele>
        <time>2024-09-21T13:25:14.999Z</time>
      </trkpt>
      <trkpt lat="42.48162" lon="3.12616">
        <ele>33.93</ele>
        <time>2024-09-21T13:25:19.999Z</time>
      </trkpt>
      <trkpt lat="42.48158" lon="3.1264">
        <ele>33.67</ele>
        <time>2024-09-21T13:25:24.999Z</time>
      </trkpt>
      <trkpt lat="42.48148" lon="3.12648">
        <ele>33.33</ele>
        <time>2024-09-21T13:25:29.999Z</time>
      </trkpt>
      <trkpt lat="42.4814" lon="3.12658">
        <ele>32.96</ele>
        <time>2024-09-21T13:25:34.999Z</time>
      </trkpt>
      <trkpt lat="42.48131" lon="3.12675">
        <ele>32.6</ele>
        <time>2024-09-21T13:25:39.999Z</time>
      </trkpt>
      <trkpt lat="42.48122" lon="3.12692">
        <ele>32.26</ele>
        <time>2024-09-21T13:25:44.999Z</time>
      </trkpt>
      <trkpt lat="42.48113" lon="3.12709">
        <ele>31.95</ele>
        <time>2024-09-21T13:25:49.999Z</time>
      </trkpt>
      <trkpt lat="42.48104" lon="3.12726">
        <ele>31.66</ele>
        <time>2024-09-21T13:25:54.999Z</time>
      </trkpt>
      <trkpt lat="42.48092" lon="3.12734">
        <ele>31.38</ele>
        <time>2024-09-21T13:25:59.999Z</time>
      </trkpt>
      <trkpt lat="42.48082" lon="3.12723">
        <ele>31.07</ele>
        <time>2024-09-21T13:26:04.999Z</time>
      </trkpt>
      <trkpt lat="42.48067" lon="3.12718">
        <ele>30.74</ele>
        <time>2024-09-21T13:26:09.999Z</time>
      </trkpt>
      <trkpt lat="42.48048" lon="3.12726">
        <ele>30.41</ele>
        <time>2024-09-21T13:26:14.999Z</time>
      </trkpt>
      <trkpt lat="42.48039" lon="3.12732">
        <ele>30.11</ele>
        <time>2024-09-21T13:26:19.999Z</time>
      </trkpt>
      <trkpt lat="42.48034" lon="3.12749">
        <ele>29.84</ele>
        <time>2024-09-21T13:26:24.999Z</time>
      </trkpt>
      <trkpt lat="42.48028" lon="3.12771">
        <ele>29.06</ele>
        <time>2024-09-21T13:26:29.999Z</time>
      </trkpt>
      <trkpt lat="42.4802" lon="3.12798">
        <ele>28.6</ele>
        <time>2024-09-21T13:26:34.999Z</time>
      </trkpt>
      <trkpt lat="42.48012" lon="3.12823">
        <ele>28.18</ele>
        <time>2024-09-21T13:26:39.999Z</time>
      </trkpt>
      <trkpt lat="42.47991" lon="3.1282">
        <ele>27.9</ele>
        <time>2024-09-21T13:26:44.999Z</time>
      </trkpt>
      <trkpt lat="42.47968" lon="3.12814">
        <ele>27.42</ele>
        <time>2024-09-21T13:26:49.999Z</time>
      </trkpt>
      <trkpt lat="42.47947" lon="3.12809">
        <ele>27.04</ele>
        <time>2024-09-21T13:26:54.999Z</time>
      </trkpt>
      <trkpt lat="42.47928" lon="3.12801">
        <ele>26.86</ele>
        <time>2024-09-21T13:26:59.999Z</time>
      </trkpt>
      <trkpt lat="42.47911" lon="3.12796">
        <ele>26.88</ele>
        <time>2024-09-21T13:27:04.999Z</time>
      </trkpt>
      <trkpt lat="42.47902" lon="3.12796">
        <ele>26.92</ele>
        <time>2024-09-21T13:27:09.999Z</time>
      </trkpt>
      <trkpt lat="42.47911" lon="3.12799">
        <ele>27.07</ele>
        <time>2024-09-21T13:27:53.999Z</time>
      </trkpt>
      <trkpt lat="42.47931" lon="3.12807">
        <ele>27.15</ele>
        <time>2024-09-21T13:27:59.000Z</time>
      </trkpt>
      <trkpt lat="42.47943" lon="3.12821">
        <ele>27.17</ele>
        <time>2024-09-21T13:28:04.000Z</time>
      </trkpt>
      <trkpt lat="42.47941" lon="3.12845">
        <ele>27.17</ele>
        <time>2024-09-21T13:28:09.000Z</time>
      </trkpt>
      <trkpt lat="42.4794" lon="3.12868">
        <ele>27.16</ele>
        <time>2024-09-21T13:28:14.000Z</time>
      </trkpt>
      <trkpt lat="42.4794" lon="3.12891">
        <ele>27.13</ele>
        <time>2024-09-21T13:28:19.000Z</time>
      </trkpt>
      <trkpt lat="42.47939" lon="3.12909">
        <ele>27.1</ele>
        <time>2024-09-21T13:28:24.000Z</time>
      </trkpt>
      <trkpt lat="42.47938" lon="3.12923">
        <ele>27.07</ele>
        <time>2024-09-21T13:28:34.000Z</time>
      </trkpt>
      <trkpt lat="42.47937" lon="3.12938">
        <ele>27.05</ele>
        <time>2024-09-21T13:28:39.000Z</time>
      </trkpt>
      <trkpt lat="42.47938" lon="3.12951">
        <ele>26.98</ele>
        <time>2024-09-21T13:28:50.000Z</time>
      </trkpt>
      <trkpt lat="42.47937" lon="3.12963">
        <ele>26.88</ele>
        <time>2024-09-21T13:29:00.000Z</time>
      </trkpt>
      <trkpt lat="42.47937" lon="3.12976">
        <ele>26.75</ele>
        <time>2024-09-21T13:29:09.000Z</time>
      </trkpt>
      <trkpt lat="42.47936" lon="3.12989">
        <ele>26.62</ele>
        <time>2024-09-21T13:29:16.000Z</time>
      </trkpt>
      <trkpt lat="42.47936" lon="3.13001">
        <ele>26.44</ele>
        <time>2024-09-21T13:29:24.000Z</time>
      </trkpt>
      <trkpt lat="42.47935" lon="3.13013">
        <ele>26.19</ele>
        <time>2024-09-21T13:29:45.000Z</time>
      </trkpt>
      <trkpt lat="42.47943" lon="3.1302">
        <ele>25.67</ele>
        <time>2024-09-21T13:30:33.000Z</time>
      </trkpt>
      <trkpt lat="42.47954" lon="3.1303">
        <ele>25.54</ele>
        <time>2024-09-21T13:30:38.000Z</time>
      </trkpt>
      <trkpt lat="42.47969" lon="3.13037">
        <ele>25.43</ele>
        <time>2024-09-21T13:30:43.000Z</time>
      </trkpt>
      <trkpt lat="42.47982" lon="3.13045">
        <ele>25.33</ele>
        <time>2024-09-21T13:30:48.000Z</time>
      </trkpt>
      <trkpt lat="42.47994" lon="3.13056">
        <ele>25.23</ele>
        <time>2024-09-21T13:30:53.000Z</time>
      </trkpt>
      <trkpt lat="42.48006" lon="3.13076">
        <ele>25</ele>
        <time>2024-09-21T13:30:58.000Z</time>
      </trkpt>
      <trkpt lat="42.48016" lon="3.13095">
        <ele>24.92</ele>
        <time>2024-09-21T13:31:03.000Z</time>
      </trkpt>
      <trkpt lat="42.48027" lon="3.13112">
        <ele>24.86</ele>
        <time>2024-09-21T13:31:08.000Z</time>
      </trkpt>
      <trkpt lat="42.48032" lon="3.13129">
        <ele>24.81</ele>
        <time>2024-09-21T13:31:13.000Z</time>
      </trkpt>
      <trkpt lat="42.48032" lon="3.1315">
        <ele>24.77</ele>
        <time>2024-09-21T13:31:18.000Z</time>
      </trkpt>
      <trkpt lat="42.48037" lon="3.13168">
        <ele>24.74</ele>
        <time>2024-09-21T13:31:23.000Z</time>
      </trkpt>
      <trkpt lat="42.48047" lon="3.13172">
        <ele>24.71</ele>
        <time>2024-09-21T13:31:28.000Z</time>
      </trkpt>
      <trkpt lat="42.48052" lon="3.13183">
        <ele>24.65</ele>
        <time>2024-09-21T13:31:38.000Z</time>
      </trkpt>
      <trkpt lat="42.48051" lon="3.13202">
        <ele>24.63</ele>
        <time>2024-09-21T13:31:43.000Z</time>
      </trkpt>
      <trkpt lat="42.48045" lon="3.13224">
        <ele>24.61</ele>
        <time>2024-09-21T13:31:48.000Z</time>
      </trkpt>
      <trkpt lat="42.4804" lon="3.13248">
        <ele>24.61</ele>
        <time>2024-09-21T13:31:53.000Z</time>
      </trkpt>
      <trkpt lat="42.48035" lon="3.13275">
        <ele>24.6</ele>
        <time>2024-09-21T13:31:58.000Z</time>
      </trkpt>
      <trkpt lat="42.48028" lon="3.13301">
        <ele>24.59</ele>
        <time>2024-09-21T13:32:03.000Z</time>
      </trkpt>
      <trkpt lat="42.4802" lon="3.13328">
        <ele>24.56</ele>
        <time>2024-09-21T13:32:08.000Z</time>
      </trkpt>
      <trkpt lat="42.48013" lon="3.13354">
        <ele>24.48</ele>
        <time>2024-09-21T13:32:13.000Z</time>
      </trkpt>
      <trkpt lat="42.48006" lon="3.1338">
        <ele>24.44</ele>
        <time>2024-09-21T13:32:18.000Z</time>
      </trkpt>
      <trkpt lat="42.48" lon="3.13406">
        <ele>24.39</ele>
        <time>2024-09-21T13:32:23.000Z</time>
      </trkpt>
      <trkpt lat="42.47995" lon="3.13434">
        <ele>24.34</ele>
        <time>2024-09-21T13:32:28.000Z</time>
      </trkpt>
      <trkpt lat="42.47991" lon="3.13463">
        <ele>24.3</ele>
        <time>2024-09-21T13:32:33.000Z</time>
      </trkpt>
      <trkpt lat="42.47989" lon="3.13493">
        <ele>24.27</ele>
        <time>2024-09-21T13:32:38.000Z</time>
      </trkpt>
      <trkpt lat="42.4799" lon="3.1352">
        <ele>24.25</ele>
        <time>2024-09-21T13:32:43.000Z</time>
      </trkpt>
      <trkpt lat="42.47995" lon="3.13545">
        <ele>24.26</ele>
        <time>2024-09-21T13:32:48.000Z</time>
      </trkpt>
      <trkpt lat="42.48002" lon="3.13571">
        <ele>24.25</ele>
        <time>2024-09-21T13:32:53.000Z</time>
      </trkpt>
      <trkpt lat="42.48007" lon="3.13595">
        <ele>24.25</ele>
        <time>2024-09-21T13:32:58.000Z</time>
      </trkpt>
      <trkpt lat="42.48011" lon="3.1362">
        <ele>24.25</ele>
        <time>2024-09-21T13:33:03.000Z</time>
      </trkpt>
      <trkpt lat="42.48007" lon="3.13642">
        <ele>24.25</ele>
        <time>2024-09-21T13:33:08.000Z</time>
      </trkpt>
      <trkpt lat="42.48" lon="3.13657">
        <ele>24.24</ele>
        <time>2024-09-21T13:33:13.000Z</time>
      </trkpt>
      <trkpt lat="42.4799" lon="3.1367">
        <ele>24.23</ele>
        <time>2024-09-21T13:33:18.000Z</time>
      </trkpt>
      <trkpt lat="42.47979" lon="3.13682">
        <ele>24.23</ele>
        <time>2024-09-21T13:33:23.000Z</time>
      </trkpt>
      <trkpt lat="42.47971" lon="3.13691">
        <ele>24.23</ele>
        <time>2024-09-21T13:33:28.000Z</time>
      </trkpt>
      <trkpt lat="42.47962" lon="3.137">
        <ele>24.25</ele>
        <time>2024-09-21T13:33:34.000Z</time>
      </trkpt>
      <trkpt lat="42.47953" lon="3.1371">
        <ele>24.27</ele>
        <time>2024-09-21T13:33:39.000Z</time>
      </trkpt>
      <trkpt lat="42.47948" lon="3.13723">
        <ele>24.29</ele>
        <time>2024-09-21T13:33:44.000Z</time>
      </trkpt>
      <trkpt lat="42.47948" lon="3.13738">
        <ele>24.3</ele>
        <time>2024-09-21T13:33:49.000Z</time>
      </trkpt>
      <trkpt lat="42.47954" lon="3.13749">
        <ele>24.33</ele>
        <time>2024-09-21T13:33:54.000Z</time>
      </trkpt>
      <trkpt lat="42.47965" lon="3.13753">
        <ele>24.37</ele>
        <time>2024-09-21T13:33:59.000Z</time>
      </trkpt>
      <trkpt lat="42.47976" lon="3.13749">
        <ele>24.43</ele>
        <time>2024-09-21T13:34:04.000Z</time>
      </trkpt>
      <trkpt lat="42.47986" lon="3.13739">
        <ele>24.51</ele>
        <time>2024-09-21T13:34:09.000Z</time>
      </trkpt>
      <trkpt lat="42.47994" lon="3.13729">
        <ele>24.59</ele>
        <time>2024-09-21T13:34:14.000Z</time>
      </trkpt>
      <trkpt lat="42.48004" lon="3.13717">
        <ele>24.67</ele>
        <time>2024-09-21T13:34:19.000Z</time>
      </trkpt>
      <trkpt lat="42.48016" lon="3.1371">
        <ele>24.74</ele>
        <time>2024-09-21T13:34:24.000Z</time>
      </trkpt>
      <trkpt lat="42.48027" lon="3.13712">
        <ele>24.83</ele>
        <time>2024-09-21T13:34:29.000Z</time>
      </trkpt>
      <trkpt lat="42.48037" lon="3.1372">
        <ele>24.95</ele>
        <time>2024-09-21T13:34:34.000Z</time>
      </trkpt>
      <trkpt lat="42.48045" lon="3.13731">
        <ele>25.11</ele>
        <time>2024-09-21T13:34:39.000Z</time>
      </trkpt>
      <trkpt lat="42.48049" lon="3.13744">
        <ele>25.3</ele>
        <time>2024-09-21T13:34:44.000Z</time>
      </trkpt>
      <trkpt lat="42.48049" lon="3.13757">
        <ele>25.55</ele>
        <time>2024-09-21T13:34:50.000Z</time>
      </trkpt>
      <trkpt lat="42.48048" lon="3.13771">
        <ele>25.8</ele>
        <time>2024-09-21T13:34:56.000Z</time>
      </trkpt>
      <trkpt lat="42.48047" lon="3.13784">
        <ele>26.07</ele>
        <time>2024-09-21T13:35:02.000Z</time>
      </trkpt>
      <trkpt lat="42.48048" lon="3.13797">
        <ele>26.37</ele>
        <time>2024-09-21T13:35:08.000Z</time>
      </trkpt>
      <trkpt lat="42.48049" lon="3.1381">
        <ele>26.71</ele>
        <time>2024-09-21T13:35:14.000Z</time>
      </trkpt>
      <trkpt lat="42.48049" lon="3.13824">
        <ele>27.01</ele>
        <time>2024-09-21T13:35:19.000Z</time>
      </trkpt>
      <trkpt lat="42.4805" lon="3.13837">
        <ele>27.38</ele>
        <time>2024-09-21T13:35:25.000Z</time>
      </trkpt>
      <trkpt lat="42.48048" lon="3.1385">
        <ele>27.75</ele>
        <time>2024-09-21T13:35:31.000Z</time>
      </trkpt>
      <trkpt lat="42.48044" lon="3.13861">
        <ele>28.12</ele>
        <time>2024-09-21T13:35:37.000Z</time>
      </trkpt>
      <trkpt lat="42.48037" lon="3.13872">
        <ele>28.49</ele>
        <time>2024-09-21T13:35:43.000Z</time>
      </trkpt>
      <trkpt lat="42.4803" lon="3.13881">
        <ele>28.8</ele>
        <time>2024-09-21T13:35:48.000Z</time>
      </trkpt>
      <trkpt lat="42.4802" lon="3.13892">
        <ele>29.12</ele>
        <time>2024-09-21T13:35:53.000Z</time>
      </trkpt>
      <trkpt lat="42.4801" lon="3.13903">
        <ele>29.44</ele>
        <time>2024-09-21T13:35:58.000Z</time>
      </trkpt>
      <trkpt lat="42.48001" lon="3.13914">
        <ele>29.76</ele>
        <time>2024-09-21T13:36:03.000Z</time>
      </trkpt>
      <trkpt lat="42.47996" lon="3.1393">
        <ele>30.08</ele>
        <time>2024-09-21T13:36:08.000Z</time>
      </trkpt>
      <trkpt lat="42.48001" lon="3.13948">
        <ele>30.4</ele>
        <time>2024-09-21T13:36:13.000Z</time>
      </trkpt>
      <trkpt lat="42.48006" lon="3.13961">
        <ele>30.71</ele>
        <time>2024-09-21T13:36:18.000Z</time>
      </trkpt>
      <trkpt lat="42.48007" lon="3.13975">
        <ele>31.02</ele>
        <time>2024-09-21T13:36:23.000Z</time>
      </trkpt>
      <trkpt lat="42.48001" lon="3.13985">
        <ele>31.34</ele>
        <time>2024-09-21T13:36:28.000Z</time>
      </trkpt>
      <trkpt lat="42.47991" lon="3.13987">
        <ele>31.73</ele>
        <time>2024-09-21T13:36:34.000Z</time>
      </trkpt>
      <trkpt lat="42.47981" lon="3.13985">
        <ele>32.14</ele>
        <time>2024-09-21T13:36:40.000Z</time>
      </trkpt>
      <trkpt lat="42.47972" lon="3.13982">
        <ele>32.48</ele>
        <time>2024-09-21T13:36:45.000Z</time>
      </trkpt>
      <trkpt lat="42.47962" lon="3.13979">
        <ele>32.81</ele>
        <time>2024-09-21T13:36:50.000Z</time>
      </trkpt>
      <trkpt lat="42.47952" lon="3.13975">
        <ele>33.14</ele>
        <time>2024-09-21T13:36:55.000Z</time>
      </trkpt>
      <trkpt lat="42.47942" lon="3.13971">
        <ele>33.48</ele>
        <time>2024-09-21T13:37:00.000Z</time>
      </trkpt>
      <trkpt lat="42.47932" lon="3.1397">
        <ele>33.82</ele>
        <time>2024-09-21T13:37:05.000Z</time>
      </trkpt>
      <trkpt lat="42.47921" lon="3.13971">
        <ele>34.16</ele>
        <time>2024-09-21T13:37:10.000Z</time>
      </trkpt>
      <trkpt lat="42.47912" lon="3.1398">
        <ele>34.5</ele>
        <time>2024-09-21T13:37:15.000Z</time>
      </trkpt>
      <trkpt lat="42.47908" lon="3.13997">
        <ele>34.84</ele>
        <time>2024-09-21T13:37:20.000Z</time>
      </trkpt>
      <trkpt lat="42.47912" lon="3.14011">
        <ele>35.18</ele>
        <time>2024-09-21T13:37:25.000Z</time>
      </trkpt>
      <trkpt lat="42.47918" lon="3.14024">
        <ele>35.52</ele>
        <time>2024-09-21T13:37:30.000Z</time>
      </trkpt>
      <trkpt lat="42.47924" lon="3.14036">
        <ele>35.86</ele>
        <time>2024-09-21T13:37:35.000Z</time>
      </trkpt>
      <trkpt lat="42.47928" lon="3.14049">
        <ele>36.19</ele>
        <time>2024-09-21T13:37:40.000Z</time>
      </trkpt>
      <trkpt lat="42.47929" lon="3.14063">
        <ele>36.6</ele>
        <time>2024-09-21T13:37:46.000Z</time>
      </trkpt>
      <trkpt lat="42.47929" lon="3.14077">
        <ele>36.95</ele>
        <time>2024-09-21T13:37:51.000Z</time>
      </trkpt>
      <trkpt lat="42.47929" lon="3.1409">
        <ele>37.29</ele>
        <time>2024-09-21T13:37:56.000Z</time>
      </trkpt>
      <trkpt lat="42.47928" lon="3.14103">
        <ele>37.63</ele>
        <time>2024-09-21T13:38:01.000Z</time>
      </trkpt>
      <trkpt lat="42.47927" lon="3.14117">
        <ele>38.03</ele>
        <time>2024-09-21T13:38:07.000Z</time>
      </trkpt>
      <trkpt lat="42.47927" lon="3.1413">
        <ele>38.37</ele>
        <time>2024-09-21T13:38:12.000Z</time>
      </trkpt>
      <trkpt lat="42.47927" lon="3.14143">
        <ele>38.71</ele>
        <time>2024-09-21T13:38:17.000Z</time>
      </trkpt>
      <trkpt lat="42.47927" lon="3.14157">
        <ele>39.06</ele>
        <time>2024-09-21T13:38:22.000Z</time>
      </trkpt>
      <trkpt lat="42.47926" lon="3.1417">
        <ele>39.42</ele>
        <time>2024-09-21T13:38:27.000Z</time>
      </trkpt>
      <trkpt lat="42.47922" lon="3.14182">
        <ele>39.78</ele>
        <time>2024-09-21T13:38:32.000Z</time>
      </trkpt>
      <trkpt lat="42.47916" lon="3.14192">
        <ele>40.13</ele>
        <time>2024-09-21T13:38:37.000Z</time>
      </trkpt>
      <trkpt lat="42.47908" lon="3.14199">
        <ele>40.55</ele>
        <time>2024-09-21T13:38:43.000Z</time>
      </trkpt>
      <trkpt lat="42.47899" lon="3.14206">
        <ele>40.93</ele>
        <time>2024-09-21T13:38:48.000Z</time>
      </trkpt>
      <trkpt lat="42.47889" lon="3.1421">
        <ele>41.33</ele>
        <time>2024-09-21T13:38:53.000Z</time>
      </trkpt>
      <trkpt lat="42.47879" lon="3.14213">
        <ele>41.85</ele>
        <time>2024-09-21T13:38:59.000Z</time>
      </trkpt>
      <trkpt lat="42.4787" lon="3.14214">
        <ele>42.3</ele>
        <time>2024-09-21T13:39:04.000Z</time>
      </trkpt>
      <trkpt lat="42.47859" lon="3.14222">
        <ele>42.75</ele>
        <time>2024-09-21T13:39:09.000Z</time>
      </trkpt>
      <trkpt lat="42.47849" lon="3.14232">
        <ele>43.21</ele>
        <time>2024-09-21T13:39:14.000Z</time>
      </trkpt>
      <trkpt lat="42.47841" lon="3.14241">
        <ele>43.66</ele>
        <time>2024-09-21T13:39:19.000Z</time>
      </trkpt>
      <trkpt lat="42.47834" lon="3.14251">
        <ele>44.09</ele>
        <time>2024-09-21T13:39:24.000Z</time>
      </trkpt>
      <trkpt lat="42.47827" lon="3.14262">
        <ele>44.58</ele>
        <time>2024-09-21T13:39:30.000Z</time>
      </trkpt>
      <trkpt lat="42.47819" lon="3.1427">
        <ele>44.98</ele>
        <time>2024-09-21T13:39:35.000Z</time>
      </trkpt>
      <trkpt lat="42.47809" lon="3.14274">
        <ele>45.39</ele>
        <time>2024-09-21T13:39:40.000Z</time>
      </trkpt>
      <trkpt lat="42.47799" lon="3.14266">
        <ele>45.79</ele>
        <time>2024-09-21T13:39:45.000Z</time>
      </trkpt>
      <trkpt lat="42.47794" lon="3.14253">
        <ele>46.21</ele>
        <time>2024-09-21T13:39:50.000Z</time>
      </trkpt>
      <trkpt lat="42.47793" lon="3.14241">
        <ele>46.64</ele>
        <time>2024-09-21T13:39:55.000Z</time>
      </trkpt>
      <trkpt lat="42.47791" lon="3.14229">
        <ele>47.07</ele>
        <time>2024-09-21T13:40:00.000Z</time>
      </trkpt>
      <trkpt lat="42.47786" lon="3.14216">
        <ele>47.6</ele>
        <time>2024-09-21T13:40:06.000Z</time>
      </trkpt>
      <trkpt lat="42.47776" lon="3.14208">
        <ele>48.14</ele>
        <time>2024-09-21T13:40:11.999Z</time>
      </trkpt>
      <trkpt lat="42.47766" lon="3.14205">
        <ele>48.72</ele>
        <time>2024-09-21T13:40:17.999Z</time>
      </trkpt>
      <trkpt lat="42.47756" lon="3.14202">
        <ele>49.31</ele>
        <time>2024-09-21T13:40:23.999Z</time>
      </trkpt>
      <trkpt lat="42.47746" lon="3.14198">
        <ele>49.92</ele>
        <time>2024-09-21T13:40:29.999Z</time>
      </trkpt>
      <trkpt lat="42.47735" lon="3.14199">
        <ele>50.55</ele>
        <time>2024-09-21T13:40:35.999Z</time>
      </trkpt>
      <trkpt lat="42.47726" lon="3.14207">
        <ele>51.07</ele>
        <time>2024-09-21T13:40:40.999Z</time>
      </trkpt>
      <trkpt lat="42.47718" lon="3.14216">
        <ele>51.57</ele>
        <time>2024-09-21T13:40:45.999Z</time>
      </trkpt>
      <trkpt lat="42.47714" lon="3.14228">
        <ele>52.05</ele>
        <time>2024-09-21T13:40:50.999Z</time>
      </trkpt>
      <trkpt lat="42.47713" lon="3.14241">
        <ele>52.52</ele>
        <time>2024-09-21T13:40:55.999Z</time>
      </trkpt>
      <trkpt lat="42.4771" lon="3.14254">
        <ele>53</ele>
        <time>2024-09-21T13:41:00.999Z</time>
      </trkpt>
      <trkpt lat="42.47707" lon="3.14267">
        <ele>53.55</ele>
        <time>2024-09-21T13:41:06.999Z</time>
      </trkpt>
      <trkpt lat="42.47701" lon="3.14278">
        <ele>53.98</ele>
        <time>2024-09-21T13:41:11.999Z</time>
      </trkpt>
      <trkpt lat="42.47695" lon="3.14288">
        <ele>54.39</ele>
        <time>2024-09-21T13:41:16.999Z</time>
      </trkpt>
      <trkpt lat="42.47688" lon="3.14297">
        <ele>54.85</ele>
        <time>2024-09-21T13:41:22.999Z</time>
      </trkpt>
      <trkpt lat="42.47678" lon="3.14306">
        <ele>55.21</ele>
        <time>2024-09-21T13:41:27.999Z</time>
      </trkpt>
      <trkpt lat="42.4767" lon="3.1431">
        <ele>55.59</ele>
        <time>2024-09-21T13:41:32.999Z</time>
      </trkpt>
      <trkpt lat="42.4766" lon="3.1431">
        <ele>55.99</ele>
        <time>2024-09-21T13:41:37.999Z</time>
      </trkpt>
      <trkpt lat="42.47651" lon="3.14308">
        <ele>56.4</ele>
        <time>2024-09-21T13:41:42.999Z</time>
      </trkpt>
      <trkpt lat="42.47642" lon="3.14303">
        <ele>56.81</ele>
        <time>2024-09-21T13:41:47.999Z</time>
      </trkpt>
      <trkpt lat="42.47633" lon="3.14297">
        <ele>57.24</ele>
        <time>2024-09-21T13:41:52.999Z</time>
      </trkpt>
      <trkpt lat="42.47628" lon="3.14286">
        <ele>57.67</ele>
        <time>2024-09-21T13:41:57.999Z</time>
      </trkpt>
      <trkpt lat="42.47625" lon="3.14274">
        <ele>58.1</ele>
        <time>2024-09-21T13:42:02.999Z</time>
      </trkpt>
      <trkpt lat="42.47623" lon="3.14262">
        <ele>58.54</ele>
        <time>2024-09-21T13:42:07.999Z</time>
      </trkpt>
      <trkpt lat="42.47621" lon="3.14248">
        <ele>58.95</ele>
        <time>2024-09-21T13:42:12.999Z</time>
      </trkpt>
      <trkpt lat="42.47622" lon="3.14231">
        <ele>59.35</ele>
        <time>2024-09-21T13:42:17.999Z</time>
      </trkpt>
      <trkpt lat="42.47621" lon="3.14214">
        <ele>59.75</ele>
        <time>2024-09-21T13:42:22.999Z</time>
      </trkpt>
      <trkpt lat="42.47619" lon="3.14198">
        <ele>60.14</ele>
        <time>2024-09-21T13:42:27.999Z</time>
      </trkpt>
      <trkpt lat="42.47612" lon="3.14186">
        <ele>60.54</ele>
        <time>2024-09-21T13:42:32.999Z</time>
      </trkpt>
      <trkpt lat="42.47596" lon="3.1418">
        <ele>60.95</ele>
        <time>2024-09-21T13:42:37.999Z</time>
      </trkpt>
      <trkpt lat="42.47584" lon="3.14179">
        <ele>61.37</ele>
        <time>2024-09-21T13:42:42.999Z</time>
      </trkpt>
      <trkpt lat="42.47577" lon="3.14188">
        <ele>63.89</ele>
        <time>2024-09-21T13:45:01.999Z</time>
      </trkpt>
      <trkpt lat="42.47568" lon="3.14201">
        <ele>64.48</ele>
        <time>2024-09-21T13:45:06.999Z</time>
      </trkpt>
      <trkpt lat="42.47555" lon="3.14213">
        <ele>65.02</ele>
        <time>2024-09-21T13:45:11.999Z</time>
      </trkpt>
      <trkpt lat="42.4754" lon="3.14215">
        <ele>65.53</ele>
        <time>2024-09-21T13:45:16.999Z</time>
      </trkpt>
      <trkpt lat="42.47526" lon="3.14207">
        <ele>65.99</ele>
        <time>2024-09-21T13:45:21.999Z</time>
      </trkpt>
      <trkpt lat="42.47514" lon="3.14197">
        <ele>66.42</ele>
        <time>2024-09-21T13:45:26.999Z</time>
      </trkpt>
      <trkpt lat="42.47502" lon="3.14193">
        <ele>66.82</ele>
        <time>2024-09-21T13:45:31.999Z</time>
      </trkpt>
      <trkpt lat="42.47489" lon="3.142">
        <ele>67.24</ele>
        <time>2024-09-21T13:45:36.999Z</time>
      </trkpt>
      <trkpt lat="42.47481" lon="3.14212">
        <ele>67.66</ele>
        <time>2024-09-21T13:45:41.999Z</time>
      </trkpt>
      <trkpt lat="42.47471" lon="3.14222">
        <ele>68.08</ele>
        <time>2024-09-21T13:45:46.999Z</time>
      </trkpt>
      <trkpt lat="42.47461" lon="3.14225">
        <ele>68.51</ele>
        <time>2024-09-21T13:45:51.999Z</time>
      </trkpt>
      <trkpt lat="42.47451" lon="3.14229">
        <ele>68.95</ele>
        <time>2024-09-21T13:45:56.999Z</time>
      </trkpt>
      <trkpt lat="42.4744" lon="3.14231">
        <ele>69.38</ele>
        <time>2024-09-21T13:46:01.999Z</time>
      </trkpt>
      <trkpt lat="42.47429" lon="3.14236">
        <ele>69.82</ele>
        <time>2024-09-21T13:46:06.999Z</time>
      </trkpt>
      <trkpt lat="42.47418" lon="3.1424">
        <ele>70.27</ele>
        <time>2024-09-21T13:46:11.999Z</time>
      </trkpt>
      <trkpt lat="42.47408" lon="3.14246">
        <ele>70.71</ele>
        <time>2024-09-21T13:46:16.999Z</time>
      </trkpt>
      <trkpt lat="42.47399" lon="3.14257">
        <ele>71.16</ele>
        <time>2024-09-21T13:46:21.999Z</time>
      </trkpt>
      <trkpt lat="42.47393" lon="3.14273">
        <ele>71.6</ele>
        <time>2024-09-21T13:46:26.999Z</time>
      </trkpt>
      <trkpt lat="42.47387" lon="3.14291">
        <ele>72.02</ele>
        <time>2024-09-21T13:46:31.999Z</time>
      </trkpt>
      <trkpt lat="42.47378" lon="3.14305">
        <ele>72.43</ele>
        <time>2024-09-21T13:46:36.999Z</time>
      </trkpt>
      <trkpt lat="42.47371" lon="3.14316">
        <ele>72.84</ele>
        <time>2024-09-21T13:46:41.999Z</time>
      </trkpt>
      <trkpt lat="42.47363" lon="3.1433">
        <ele>73.24</ele>
        <time>2024-09-21T13:46:46.999Z</time>
      </trkpt>
      <trkpt lat="42.47358" lon="3.14345">
        <ele>73.65</ele>
        <time>2024-09-21T13:46:51.999Z</time>
      </trkpt>
      <trkpt lat="42.47353" lon="3.14364">
        <ele>74.05</ele>
        <time>2024-09-21T13:46:56.999Z</time>
      </trkpt>
      <trkpt lat="42.4735" lon="3.1438">
        <ele>74.46</ele>
        <time>2024-09-21T13:47:01.999Z</time>
      </trkpt>
      <trkpt lat="42.47349" lon="3.14395">
        <ele>74.86</ele>
        <time>2024-09-21T13:47:06.999Z</time>
      </trkpt>
      <trkpt lat="42.47351" lon="3.1441">
        <ele>75.25</ele>
        <time>2024-09-21T13:47:11.999Z</time>
      </trkpt>
      <trkpt lat="42.47357" lon="3.14425">
        <ele>75.65</ele>
        <time>2024-09-21T13:47:16.999Z</time>
      </trkpt>
      <trkpt lat="42.47366" lon="3.14436">
        <ele>76.04</ele>
        <time>2024-09-21T13:47:21.999Z</time>
      </trkpt>
      <trkpt lat="42.47375" lon="3.14444">
        <ele>76.42</ele>
        <time>2024-09-21T13:47:26.999Z</time>
      </trkpt>
      <trkpt lat="42.47382" lon="3.14453">
        <ele>76.79</ele>
        <time>2024-09-21T13:47:31.999Z</time>
      </trkpt>
      <trkpt lat="42.47388" lon="3.14465">
        <ele>77.14</ele>
        <time>2024-09-21T13:47:36.999Z</time>
      </trkpt>
      <trkpt lat="42.47394" lon="3.14477">
        <ele>77.48</ele>
        <time>2024-09-21T13:47:41.999Z</time>
      </trkpt>
      <trkpt lat="42.47399" lon="3.14489">
        <ele>77.82</ele>
        <time>2024-09-21T13:47:46.999Z</time>
      </trkpt>
      <trkpt lat="42.47404" lon="3.14501">
        <ele>78.15</ele>
        <time>2024-09-21T13:47:51.999Z</time>
      </trkpt>
      <trkpt lat="42.47405" lon="3.14516">
        <ele>78.48</ele>
        <time>2024-09-21T13:47:56.999Z</time>
      </trkpt>
      <trkpt lat="42.47402" lon="3.14529">
        <ele>78.87</ele>
        <time>2024-09-21T13:48:02.999Z</time>
      </trkpt>
      <trkpt lat="42.47396" lon="3.14539">
        <ele>79.19</ele>
        <time>2024-09-21T13:48:07.999Z</time>
      </trkpt>
      <trkpt lat="42.47389" lon="3.14547">
        <ele>79.63</ele>
        <time>2024-09-21T13:48:14.999Z</time>
      </trkpt>
      <trkpt lat="42.47383" lon="3.14555">
        <ele>80</ele>
        <time>2024-09-21T13:48:20.999Z</time>
      </trkpt>
      <trkpt lat="42.47377" lon="3.14567">
        <ele>80.3</ele>
        <time>2024-09-21T13:48:25.999Z</time>
      </trkpt>
      <trkpt lat="42.47373" lon="3.14579">
        <ele>80.59</ele>
        <time>2024-09-21T13:48:30.999Z</time>
      </trkpt>
      <trkpt lat="42.47373" lon="3.14591">
        <ele>80.88</ele>
        <time>2024-09-21T13:48:35.999Z</time>
      </trkpt>
      <trkpt lat="42.47375" lon="3.14605">
        <ele>81.18</ele>
        <time>2024-09-21T13:48:40.999Z</time>
      </trkpt>
      <trkpt lat="42.47376" lon="3.14619">
        <ele>81.48</ele>
        <time>2024-09-21T13:48:45.999Z</time>
      </trkpt>
      <trkpt lat="42.47376" lon="3.14633">
        <ele>81.84</ele>
        <time>2024-09-21T13:48:51.999Z</time>
      </trkpt>
      <trkpt lat="42.47374" lon="3.14647">
        <ele>82.14</ele>
        <time>2024-09-21T13:48:56.999Z</time>
      </trkpt>
      <trkpt lat="42.47369" lon="3.1466">
        <ele>82.49</ele>
        <time>2024-09-21T13:49:02.999Z</time>
      </trkpt>
      <trkpt lat="42.47363" lon="3.14671">
        <ele>82.82</ele>
        <time>2024-09-21T13:49:08.999Z</time>
      </trkpt>
      <trkpt lat="42.47356" lon="3.1468">
        <ele>83.24</ele>
        <time>2024-09-21T13:49:16.999Z</time>
      </trkpt>
      <trkpt lat="42.47348" lon="3.14688">
        <ele>83.6</ele>
        <time>2024-09-21T13:49:23.999Z</time>
      </trkpt>
      <trkpt lat="42.4734" lon="3.14697">
        <ele>83.97</ele>
        <time>2024-09-21T13:49:30.999Z</time>
      </trkpt>
      <trkpt lat="42.47331" lon="3.14704">
        <ele>84.3</ele>
        <time>2024-09-21T13:49:36.999Z</time>
      </trkpt>
      <trkpt lat="42.47321" lon="3.14708">
        <ele>84.63</ele>
        <time>2024-09-21T13:49:42.999Z</time>
      </trkpt>
      <trkpt lat="42.47311" lon="3.1471">
        <ele>85.04</ele>
        <time>2024-09-21T13:49:49.999Z</time>
      </trkpt>
      <trkpt lat="42.47302" lon="3.14713">
        <ele>85.45</ele>
        <time>2024-09-21T13:49:56.999Z</time>
      </trkpt>
      <trkpt lat="42.47293" lon="3.14719">
        <ele>85.75</ele>
        <time>2024-09-21T13:50:01.999Z</time>
      </trkpt>
      <trkpt lat="42.47288" lon="3.14728">
        <ele>86.21</ele>
        <time>2024-09-21T13:50:09.999Z</time>
      </trkpt>
      <trkpt lat="42.47282" lon="3.1474">
        <ele>86.49</ele>
        <time>2024-09-21T13:50:14.999Z</time>
      </trkpt>
      <trkpt lat="42.47277" lon="3.14752">
        <ele>86.82</ele>
        <time>2024-09-21T13:50:20.999Z</time>
      </trkpt>
      <trkpt lat="42.4727" lon="3.14762">
        <ele>87.14</ele>
        <time>2024-09-21T13:50:26.999Z</time>
      </trkpt>
      <trkpt lat="42.47261" lon="3.14766">
        <ele>87.45</ele>
        <time>2024-09-21T13:50:32.999Z</time>
      </trkpt>
      <trkpt lat="42.47251" lon="3.14764">
        <ele>87.82</ele>
        <time>2024-09-21T13:50:39.999Z</time>
      </trkpt>
      <trkpt lat="42.47242" lon="3.14763">
        <ele>88.14</ele>
        <time>2024-09-21T13:50:45.999Z</time>
      </trkpt>
      <trkpt lat="42.47233" lon="3.14765">
        <ele>88.47</ele>
        <time>2024-09-21T13:50:51.999Z</time>
      </trkpt>
      <trkpt lat="42.47224" lon="3.14772">
        <ele>88.81</ele>
        <time>2024-09-21T13:50:57.999Z</time>
      </trkpt>
      <trkpt lat="42.47216" lon="3.14782">
        <ele>89.1</ele>
        <time>2024-09-21T13:51:02.999Z</time>
      </trkpt>
      <trkpt lat="42.4721" lon="3.14793">
        <ele>89.4</ele>
        <time>2024-09-21T13:51:07.999Z</time>
      </trkpt>
      <trkpt lat="42.47203" lon="3.14802">
        <ele>89.7</ele>
        <time>2024-09-21T13:51:12.999Z</time>
      </trkpt>
      <trkpt lat="42.47195" lon="3.14811">
        <ele>90.08</ele>
        <time>2024-09-21T13:51:18.999Z</time>
      </trkpt>
      <trkpt lat="42.47188" lon="3.1482">
        <ele>90.42</ele>
        <time>2024-09-21T13:51:23.999Z</time>
      </trkpt>
      <trkpt lat="42.4718" lon="3.1483">
        <ele>90.85</ele>
        <time>2024-09-21T13:51:29.999Z</time>
      </trkpt>
      <trkpt lat="42.47173" lon="3.1484">
        <ele>91.21</ele>
        <time>2024-09-21T13:51:34.999Z</time>
      </trkpt>
      <trkpt lat="42.47166" lon="3.1485">
        <ele>91.58</ele>
        <time>2024-09-21T13:51:39.999Z</time>
      </trkpt>
      <trkpt lat="42.47158" lon="3.14858">
        <ele>92.09</ele>
        <time>2024-09-21T13:51:46.999Z</time>
      </trkpt>
      <trkpt lat="42.47149" lon="3.14861">
        <ele>92.57</ele>
        <time>2024-09-21T13:51:52.999Z</time>
      </trkpt>
      <trkpt lat="42.47138" lon="3.14858">
        <ele>93.14</ele>
        <time>2024-09-21T13:51:59.999Z</time>
      </trkpt>
      <trkpt lat="42.4713" lon="3.14852">
        <ele>93.66</ele>
        <time>2024-09-21T13:52:05.999Z</time>
      </trkpt>
      <trkpt lat="42.47122" lon="3.14846">
        <ele>94.21</ele>
        <time>2024-09-21T13:52:11.999Z</time>
      </trkpt>
      <trkpt lat="42.47112" lon="3.14842">
        <ele>94.67</ele>
        <time>2024-09-21T13:52:16.999Z</time>
      </trkpt>
      <trkpt lat="42.47103" lon="3.14839">
        <ele>95.34</ele>
        <time>2024-09-21T13:52:24.000Z</time>
      </trkpt>
      <trkpt lat="42.47092" lon="3.14839">
        <ele>96.13</ele>
        <time>2024-09-21T13:52:31.000Z</time>
      </trkpt>
      <trkpt lat="42.47082" lon="3.14838">
        <ele>96.88</ele>
        <time>2024-09-21T13:52:37.000Z</time>
      </trkpt>
      <trkpt lat="42.47073" lon="3.14834">
        <ele>97.54</ele>
        <time>2024-09-21T13:52:42.000Z</time>
      </trkpt>
      <trkpt lat="42.47065" lon="3.14829">
        <ele>98.36</ele>
        <time>2024-09-21T13:52:48.000Z</time>
      </trkpt>
      <trkpt lat="42.47056" lon="3.14824">
        <ele>99.2</ele>
        <time>2024-09-21T13:52:54.000Z</time>
      </trkpt>
      <trkpt lat="42.47045" lon="3.14821">
        <ele>100.04</ele>
        <time>2024-09-21T13:53:00.000Z</time>
      </trkpt>
      <trkpt lat="42.47036" lon="3.14821">
        <ele>100.74</ele>
        <time>2024-09-21T13:53:05.000Z</time>
      </trkpt>
      <trkpt lat="42.47026" lon="3.14823">
        <ele>101.58</ele>
        <time>2024-09-21T13:53:11.000Z</time>
      </trkpt>
      <trkpt lat="42.47017" lon="3.1483">
        <ele>102.39</ele>
        <time>2024-09-21T13:53:17.000Z</time>
      </trkpt>
      <trkpt lat="42.47009" lon="3.14841">
        <ele>103.03</ele>
        <time>2024-09-21T13:53:22.000Z</time>
      </trkpt>
      <trkpt lat="42.47006" lon="3.14854">
        <ele>103.65</ele>
        <time>2024-09-21T13:53:27.000Z</time>
      </trkpt>
      <trkpt lat="42.47005" lon="3.1487">
        <ele>104.26</ele>
        <time>2024-09-21T13:53:32.000Z</time>
      </trkpt>
      <trkpt lat="42.47003" lon="3.14889">
        <ele>104.86</ele>
        <time>2024-09-21T13:53:37.000Z</time>
      </trkpt>
      <trkpt lat="42.47" lon="3.14903">
        <ele>105.44</ele>
        <time>2024-09-21T13:53:42.000Z</time>
      </trkpt>
      <trkpt lat="42.46997" lon="3.14914">
        <ele>106.02</ele>
        <time>2024-09-21T13:53:47.000Z</time>
      </trkpt>
      <trkpt lat="42.46992" lon="3.14926">
        <ele>106.72</ele>
        <time>2024-09-21T13:53:53.000Z</time>
      </trkpt>
      <trkpt lat="42.46987" lon="3.14936">
        <ele>107.3</ele>
        <time>2024-09-21T13:53:58.000Z</time>
      </trkpt>
      <trkpt lat="42.46979" lon="3.14946">
        <ele>107.87</ele>
        <time>2024-09-21T13:54:03.000Z</time>
      </trkpt>
      <trkpt lat="42.4697" lon="3.14953">
        <ele>108.4</ele>
        <time>2024-09-21T13:54:08.000Z</time>
      </trkpt>
      <trkpt lat="42.46961" lon="3.1496">
        <ele>108.89</ele>
        <time>2024-09-21T13:54:13.000Z</time>
      </trkpt>
      <trkpt lat="42.46952" lon="3.14964">
        <ele>109.34</ele>
        <time>2024-09-21T13:54:18.000Z</time>
      </trkpt>
      <trkpt lat="42.46939" lon="3.1497">
        <ele>109.8</ele>
        <time>2024-09-21T13:54:23.000Z</time>
      </trkpt>
      <trkpt lat="42.46926" lon="3.14984">
        <ele>110.26</ele>
        <time>2024-09-21T13:54:28.000Z</time>
      </trkpt>
      <trkpt lat="42.46914" lon="3.14999">
        <ele>110.71</ele>
        <time>2024-09-21T13:54:33.000Z</time>
      </trkpt>
      <trkpt lat="42.46898" lon="3.14999">
        <ele>111.15</ele>
        <time>2024-09-21T13:54:38.000Z</time>
      </trkpt>
      <trkpt lat="42.46883" lon="3.15005">
        <ele>111.56</ele>
        <time>2024-09-21T13:54:43.000Z</time>
      </trkpt>
      <trkpt lat="42.46868" lon="3.15021">
        <ele>114</ele>
        <time>2024-09-21T13:54:48.000Z</time>
      </trkpt>
      <trkpt lat="42.46855" lon="3.15042">
        <ele>115.05</ele>
        <time>2024-09-21T13:54:53.000Z</time>
      </trkpt>
      <trkpt lat="42.46849" lon="3.15068">
        <ele>115.69</ele>
        <time>2024-09-21T13:54:58.000Z</time>
      </trkpt>
      <trkpt lat="42.46854" lon="3.15095">
        <ele>116.24</ele>
        <time>2024-09-21T13:55:03.000Z</time>
      </trkpt>
      <trkpt lat="42.4686" lon="3.15122">
        <ele>117.02</ele>
        <time>2024-09-21T13:55:08.000Z</time>
      </trkpt>
      <trkpt lat="42.46855" lon="3.15146">
        <ele>117.49</ele>
        <time>2024-09-21T13:55:13.000Z</time>
      </trkpt>
      <trkpt lat="42.4684" lon="3.15162">
        <ele>117.8</ele>
        <time>2024-09-21T13:55:18.000Z</time>
      </trkpt>
      <trkpt lat="42.46827" lon="3.15177">
        <ele>117.93</ele>
        <time>2024-09-21T13:55:23.000Z</time>
      </trkpt>
      <trkpt lat="42.46822" lon="3.15201">
        <ele>118.09</ele>
        <time>2024-09-21T13:55:28.000Z</time>
      </trkpt>
      <trkpt lat="42.46825" lon="3.15225">
        <ele>118.28</ele>
        <time>2024-09-21T13:55:33.000Z</time>
      </trkpt>
      <trkpt lat="42.46833" lon="3.15247">
        <ele>118.49</ele>
        <time>2024-09-21T13:55:38.000Z</time>
      </trkpt>
      <trkpt lat="42.4684" lon="3.15268">
        <ele>118.74</ele>
        <time>2024-09-21T13:55:43.000Z</time>
      </trkpt>
      <trkpt lat="42.46842" lon="3.15291">
        <ele>119.03</ele>
        <time>2024-09-21T13:55:48.000Z</time>
      </trkpt>
      <trkpt lat="42.46842" lon="3.15314">
        <ele>119.36</ele>
        <time>2024-09-21T13:55:53.000Z</time>
      </trkpt>
      <trkpt lat="42.46847" lon="3.15332">
        <ele>119.73</ele>
        <time>2024-09-21T13:55:58.000Z</time>
      </trkpt>
      <trkpt lat="42.4684" lon="3.15321">
        <ele>146.74</ele>
        <time>2024-09-21T14:22:32.000Z</time>
      </trkpt>
      <trkpt lat="42.46822" lon="3.1533">
        <ele>146.65</ele>
        <time>2024-09-21T14:22:37.000Z</time>
      </trkpt>
      <trkpt lat="42.46805" lon="3.15349">
        <ele>146.57</ele>
        <time>2024-09-21T14:22:42.000Z</time>
      </trkpt>
      <trkpt lat="42.46787" lon="3.15371">
        <ele>146.54</ele>
        <time>2024-09-21T14:22:47.000Z</time>
      </trkpt>
      <trkpt lat="42.46777" lon="3.15403">
        <ele>146.52</ele>
        <time>2024-09-21T14:22:52.000Z</time>
      </trkpt>
      <trkpt lat="42.46777" lon="3.15439">
        <ele>146.52</ele>
        <time>2024-09-21T14:22:57.000Z</time>
      </trkpt>
      <trkpt lat="42.46777" lon="3.15477">
        <ele>146.51</ele>
        <time>2024-09-21T14:23:02.000Z</time>
      </trkpt>
      <trkpt lat="42.46777" lon="3.15514">
        <ele>146.49</ele>
        <time>2024-09-21T14:23:07.000Z</time>
      </trkpt>
      <trkpt lat="42.46771" lon="3.15545">
        <ele>146.47</ele>
        <time>2024-09-21T14:23:12.000Z</time>
      </trkpt>
      <trkpt lat="42.46748" lon="3.15563">
        <ele>146.46</ele>
        <time>2024-09-21T14:23:17.000Z</time>
      </trkpt>
      <trkpt lat="42.46721" lon="3.15549">
        <ele>146.45</ele>
        <time>2024-09-21T14:23:22.000Z</time>
      </trkpt>
      <trkpt lat="42.46698" lon="3.15525">
        <ele>146.44</ele>
        <time>2024-09-21T14:23:27.000Z</time>
      </trkpt>
      <trkpt lat="42.46672" lon="3.15508">
        <ele>146.41</ele>
        <time>2024-09-21T14:23:32.000Z</time>
      </trkpt>
      <trkpt lat="42.46642" lon="3.15519">
        <ele>146.27</ele>
        <time>2024-09-21T14:23:37.000Z</time>
      </trkpt>
      <trkpt lat="42.46612" lon="3.15546">
        <ele>145.8</ele>
        <time>2024-09-21T14:23:42.000Z</time>
      </trkpt>
      <trkpt lat="42.46577" lon="3.15549">
        <ele>145.01</ele>
        <time>2024-09-21T14:23:47.000Z</time>
      </trkpt>
      <trkpt lat="42.46546" lon="3.15523">
        <ele>144.12</ele>
        <time>2024-09-21T14:23:52.000Z</time>
      </trkpt>
      <trkpt lat="42.4652" lon="3.15487">
        <ele>143.3</ele>
        <time>2024-09-21T14:23:57.000Z</time>
      </trkpt>
      <trkpt lat="42.46508" lon="3.15435">
        <ele>142.38</ele>
        <time>2024-09-21T14:24:02.000Z</time>
      </trkpt>
      <trkpt lat="42.46497" lon="3.1538">
        <ele>141.57</ele>
        <time>2024-09-21T14:24:07.000Z</time>
      </trkpt>
      <trkpt lat="42.46491" lon="3.15323">
        <ele>140.42</ele>
        <time>2024-09-21T14:24:12.000Z</time>
      </trkpt>
      <trkpt lat="42.46511" lon="3.15265">
        <ele>138.57</ele>
        <time>2024-09-21T14:24:17.000Z</time>
      </trkpt>
      <trkpt lat="42.46539" lon="3.15211">
        <ele>135.85</ele>
        <time>2024-09-21T14:24:22.000Z</time>
      </trkpt>
      <trkpt lat="42.46553" lon="3.15148">
        <ele>133.52</ele>
        <time>2024-09-21T14:24:27.000Z</time>
      </trkpt>
      <trkpt lat="42.46512" lon="3.15125">
        <ele>131.85</ele>
        <time>2024-09-21T14:24:32.000Z</time>
      </trkpt>
      <trkpt lat="42.46466" lon="3.15144">
        <ele>130.14</ele>
        <time>2024-09-21T14:24:37.000Z</time>
      </trkpt>
      <trkpt lat="42.46423" lon="3.15143">
        <ele>128.38</ele>
        <time>2024-09-21T14:24:42.000Z</time>
      </trkpt>
      <trkpt lat="42.4638" lon="3.15137">
        <ele>126.52</ele>
        <time>2024-09-21T14:24:47.000Z</time>
      </trkpt>
      <trkpt lat="42.46341" lon="3.15117">
        <ele>124.77</ele>
        <time>2024-09-21T14:24:52.000Z</time>
      </trkpt>
      <trkpt lat="42.46307" lon="3.15082">
        <ele>123.11</ele>
        <time>2024-09-21T14:24:57.000Z</time>
      </trkpt>
      <trkpt lat="42.46282" lon="3.15031">
        <ele>121.57</ele>
        <time>2024-09-21T14:25:02.000Z</time>
      </trkpt>
      <trkpt lat="42.46255" lon="3.14983">
        <ele>119.9</ele>
        <time>2024-09-21T14:25:07.000Z</time>
      </trkpt>
      <trkpt lat="42.46212" lon="3.14962">
        <ele>118.44</ele>
        <time>2024-09-21T14:25:12.000Z</time>
      </trkpt>
      <trkpt lat="42.462" lon="3.14908">
        <ele>116.97</ele>
        <time>2024-09-21T14:25:17.000Z</time>
      </trkpt>
      <trkpt lat="42.46195" lon="3.14855">
        <ele>115.14</ele>
        <time>2024-09-21T14:25:22.000Z</time>
      </trkpt>
      <trkpt lat="42.46156" lon="3.14866">
        <ele>112.74</ele>
        <time>2024-09-21T14:25:27.000Z</time>
      </trkpt>
      <trkpt lat="42.46126" lon="3.14899">
        <ele>110.31</ele>
        <time>2024-09-21T14:25:32.000Z</time>
      </trkpt>
      <trkpt lat="42.46104" lon="3.14941">
        <ele>108.3</ele>
        <time>2024-09-21T14:25:37.000Z</time>
      </trkpt>
      <trkpt lat="42.46106" lon="3.14994">
        <ele>105.73</ele>
        <time>2024-09-21T14:25:42.000Z</time>
      </trkpt>
      <trkpt lat="42.46083" lon="3.1503">
        <ele>102.14</ele>
        <time>2024-09-21T14:25:47.000Z</time>
      </trkpt>
      <trkpt lat="42.46045" lon="3.1501">
        <ele>99.55</ele>
        <time>2024-09-21T14:25:52.000Z</time>
      </trkpt>
      <trkpt lat="42.46024" lon="3.14967">
        <ele>98.96</ele>
        <time>2024-09-21T14:25:57.000Z</time>
      </trkpt>
      <trkpt lat="42.46026" lon="3.14911">
        <ele>98.4</ele>
        <time>2024-09-21T14:26:02.000Z</time>
      </trkpt>
      <trkpt lat="42.46025" lon="3.14855">
        <ele>97.45</ele>
        <time>2024-09-21T14:26:07.000Z</time>
      </trkpt>
      <trkpt lat="42.46009" lon="3.14803">
        <ele>96.58</ele>
        <time>2024-09-21T14:26:12.000Z</time>
      </trkpt>
      <trkpt lat="42.46017" lon="3.14743">
        <ele>95.68</ele>
        <time>2024-09-21T14:26:17.000Z</time>
      </trkpt>
      <trkpt lat="42.45982" lon="3.14731">
        <ele>93.83</ele>
        <time>2024-09-21T14:26:22.000Z</time>
      </trkpt>
      <trkpt lat="42.4596" lon="3.14772">
        <ele>91.51</ele>
        <time>2024-09-21T14:26:27.000Z</time>
      </trkpt>
      <trkpt lat="42.4594" lon="3.14816">
        <ele>88.99</ele>
        <time>2024-09-21T14:26:32.000Z</time>
      </trkpt>
      <trkpt lat="42.45943" lon="3.14865">
        <ele>86.69</ele>
        <time>2024-09-21T14:26:37.000Z</time>
      </trkpt>
      <trkpt lat="42.45925" lon="3.149">
        <ele>84.22</ele>
        <time>2024-09-21T14:26:42.000Z</time>
      </trkpt>
      <trkpt lat="42.45891" lon="3.14883">
        <ele>83.11</ele>
        <time>2024-09-21T14:26:47.000Z</time>
      </trkpt>
      <trkpt lat="42.45858" lon="3.14863">
        <ele>82.56</ele>
        <time>2024-09-21T14:26:52.000Z</time>
      </trkpt>
      <trkpt lat="42.45826" lon="3.14871">
        <ele>81.85</ele>
        <time>2024-09-21T14:26:57.000Z</time>
      </trkpt>
      <trkpt lat="42.45825" lon="3.14914">
        <ele>80.55</ele>
        <time>2024-09-21T14:27:02.000Z</time>
      </trkpt>
      <trkpt lat="42.45826" lon="3.14961">
        <ele>79.11</ele>
        <time>2024-09-21T14:27:07.000Z</time>
      </trkpt>
      <trkpt lat="42.45822" lon="3.15009">
        <ele>77.93</ele>
        <time>2024-09-21T14:27:12.000Z</time>
      </trkpt>
      <trkpt lat="42.45839" lon="3.15049">
        <ele>77.22</ele>
        <time>2024-09-21T14:27:17.000Z</time>
      </trkpt>
      <trkpt lat="42.45863" lon="3.15075">
        <ele>76.07</ele>
        <time>2024-09-21T14:27:22.000Z</time>
      </trkpt>
      <trkpt lat="42.45879" lon="3.15107">
        <ele>75.62</ele>
        <time>2024-09-21T14:27:27.000Z</time>
      </trkpt>
      <trkpt lat="42.45889" lon="3.15143">
        <ele>75.6</ele>
        <time>2024-09-21T14:27:32.000Z</time>
      </trkpt>
      <trkpt lat="42.45898" lon="3.1518">
        <ele>75.31</ele>
        <time>2024-09-21T14:27:37.000Z</time>
      </trkpt>
      <trkpt lat="42.45901" lon="3.15219">
        <ele>75.19</ele>
        <time>2024-09-21T14:27:42.000Z</time>
      </trkpt>
      <trkpt lat="42.45898" lon="3.15261">
        <ele>74.92</ele>
        <time>2024-09-21T14:27:47.000Z</time>
      </trkpt>
      <trkpt lat="42.45899" lon="3.15304">
        <ele>75.11</ele>
        <time>2024-09-21T14:27:52.000Z</time>
      </trkpt>
      <trkpt lat="42.45906" lon="3.15347">
        <ele>74.97</ele>
        <time>2024-09-21T14:27:57.000Z</time>
      </trkpt>
      <trkpt lat="42.45893" lon="3.15383">
        <ele>74.75</ele>
        <time>2024-09-21T14:28:02.000Z</time>
      </trkpt>
      <trkpt lat="42.45865" lon="3.1539">
        <ele>74.63</ele>
        <time>2024-09-21T14:28:07.000Z</time>
      </trkpt>
      <trkpt lat="42.45838" lon="3.15378">
        <ele>74.38</ele>
        <time>2024-09-21T14:28:12.000Z</time>
      </trkpt>
      <trkpt lat="42.45815" lon="3.15364">
        <ele>75.11</ele>
        <time>2024-09-21T14:28:17.000Z</time>
      </trkpt>
      <trkpt lat="42.45791" lon="3.15361">
        <ele>76.13</ele>
        <time>2024-09-21T14:28:22.000Z</time>
      </trkpt>
      <trkpt lat="42.45769" lon="3.15376">
        <ele>75.16</ele>
        <time>2024-09-21T14:28:27.000Z</time>
      </trkpt>
      <trkpt lat="42.4575" lon="3.15399">
        <ele>73.88</ele>
        <time>2024-09-21T14:28:32.000Z</time>
      </trkpt>
      <trkpt lat="42.45729" lon="3.15423">
        <ele>73.31</ele>
        <time>2024-09-21T14:28:37.000Z</time>
      </trkpt>
      <trkpt lat="42.45708" lon="3.15446">
        <ele>72.89</ele>
        <time>2024-09-21T14:28:42.000Z</time>
      </trkpt>
      <trkpt lat="42.45684" lon="3.1547">
        <ele>72.43</ele>
        <time>2024-09-21T14:28:47.000Z</time>
      </trkpt>
      <trkpt lat="42.45662" lon="3.15498">
        <ele>72.03</ele>
        <time>2024-09-21T14:28:52.000Z</time>
      </trkpt>
      <trkpt lat="42.45657" lon="3.1554">
        <ele>71.96</ele>
        <time>2024-09-21T14:28:57.000Z</time>
      </trkpt>
      <trkpt lat="42.45674" lon="3.15582">
        <ele>72.34</ele>
        <time>2024-09-21T14:29:02.999Z</time>
      </trkpt>
      <trkpt lat="42.45692" lon="3.15608">
        <ele>72.78</ele>
        <time>2024-09-21T14:29:07.999Z</time>
      </trkpt>
      <trkpt lat="42.45707" lon="3.15633">
        <ele>73.35</ele>
        <time>2024-09-21T14:29:12.999Z</time>
      </trkpt>
      <trkpt lat="42.45705" lon="3.15662">
        <ele>73.54</ele>
        <time>2024-09-21T14:29:17.999Z</time>
      </trkpt>
      <trkpt lat="42.4569" lon="3.15686">
        <ele>73.26</ele>
        <time>2024-09-21T14:29:22.999Z</time>
      </trkpt>
      <trkpt lat="42.45678" lon="3.15716">
        <ele>72.6</ele>
        <time>2024-09-21T14:29:27.999Z</time>
      </trkpt>
      <trkpt lat="42.45664" lon="3.15749">
        <ele>72.45</ele>
        <time>2024-09-21T14:29:32.999Z</time>
      </trkpt>
      <trkpt lat="42.45655" lon="3.15778">
        <ele>72.39</ele>
        <time>2024-09-21T14:29:37.999Z</time>
      </trkpt>
      <trkpt lat="42.45645" lon="3.15793">
        <ele>72.44</ele>
        <time>2024-09-21T14:29:42.999Z</time>
      </trkpt>
      <trkpt lat="42.45635" lon="3.15807">
        <ele>72.54</ele>
        <time>2024-09-21T14:29:47.999Z</time>
      </trkpt>
      <trkpt lat="42.45626" lon="3.15817">
        <ele>72.65</ele>
        <time>2024-09-21T14:29:52.999Z</time>
      </trkpt>
      <trkpt lat="42.45617" lon="3.15826">
        <ele>72.77</ele>
        <time>2024-09-21T14:29:57.999Z</time>
      </trkpt>
      <trkpt lat="42.45606" lon="3.15836">
        <ele>72.93</ele>
        <time>2024-09-21T14:30:02.999Z</time>
      </trkpt>
      <trkpt lat="42.45595" lon="3.15845">
        <ele>73.1</ele>
        <time>2024-09-21T14:30:07.999Z</time>
      </trkpt>
      <trkpt lat="42.45584" lon="3.15855">
        <ele>73.29</ele>
        <time>2024-09-21T14:30:12.999Z</time>
      </trkpt>
      <trkpt lat="42.45573" lon="3.15863">
        <ele>73.48</ele>
        <time>2024-09-21T14:30:17.999Z</time>
      </trkpt>
      <trkpt lat="42.45561" lon="3.15871">
        <ele>73.67</ele>
        <time>2024-09-21T14:30:22.999Z</time>
      </trkpt>
      <trkpt lat="42.45548" lon="3.15874">
        <ele>73.88</ele>
        <time>2024-09-21T14:30:27.999Z</time>
      </trkpt>
      <trkpt lat="42.45535" lon="3.15868">
        <ele>74.1</ele>
        <time>2024-09-21T14:30:32.999Z</time>
      </trkpt>
      <trkpt lat="42.45525" lon="3.15852">
        <ele>74.35</ele>
        <time>2024-09-21T14:30:37.999Z</time>
      </trkpt>
      <trkpt lat="42.45513" lon="3.15832">
        <ele>75.04</ele>
        <time>2024-09-21T14:30:42.999Z</time>
      </trkpt>
      <trkpt lat="42.45495" lon="3.15824">
        <ele>75.4</ele>
        <time>2024-09-21T14:30:47.999Z</time>
      </trkpt>
      <trkpt lat="42.45476" lon="3.15827">
        <ele>76.26</ele>
        <time>2024-09-21T14:30:52.999Z</time>
      </trkpt>
      <trkpt lat="42.45458" lon="3.15835">
        <ele>76.6</ele>
        <time>2024-09-21T14:30:57.999Z</time>
      </trkpt>
      <trkpt lat="42.45441" lon="3.15846">
        <ele>76.84</ele>
        <time>2024-09-21T14:31:02.999Z</time>
      </trkpt>
      <trkpt lat="42.45426" lon="3.15857">
        <ele>77.06</ele>
        <time>2024-09-21T14:31:07.999Z</time>
      </trkpt>
      <trkpt lat="42.45409" lon="3.1587">
        <ele>77.35</ele>
        <time>2024-09-21T14:31:12.999Z</time>
      </trkpt>
      <trkpt lat="42.45392" lon="3.1588">
        <ele>77.5</ele>
        <time>2024-09-21T14:31:17.999Z</time>
      </trkpt>
      <trkpt lat="42.45378" lon="3.15884">
        <ele>77.56</ele>
        <time>2024-09-21T14:31:22.999Z</time>
      </trkpt>
      <trkpt lat="42.45364" lon="3.15884">
        <ele>77.65</ele>
        <time>2024-09-21T14:31:27.999Z</time>
      </trkpt>
      <trkpt lat="42.45349" lon="3.15881">
        <ele>77.79</ele>
        <time>2024-09-21T14:31:32.999Z</time>
      </trkpt>
      <trkpt lat="42.45334" lon="3.15874">
        <ele>77.98</ele>
        <time>2024-09-21T14:31:37.999Z</time>
      </trkpt>
      <trkpt lat="42.45321" lon="3.1586">
        <ele>78.62</ele>
        <time>2024-09-21T14:31:42.999Z</time>
      </trkpt>
      <trkpt lat="42.45308" lon="3.15843">
        <ele>79.62</ele>
        <time>2024-09-21T14:31:47.999Z</time>
      </trkpt>
      <trkpt lat="42.45293" lon="3.15827">
        <ele>81.03</ele>
        <time>2024-09-21T14:31:52.999Z</time>
      </trkpt>
      <trkpt lat="42.45278" lon="3.15809">
        <ele>81.87</ele>
        <time>2024-09-21T14:31:57.999Z</time>
      </trkpt>
      <trkpt lat="42.45265" lon="3.15792">
        <ele>82.01</ele>
        <time>2024-09-21T14:32:02.999Z</time>
      </trkpt>
      <trkpt lat="42.45255" lon="3.15774">
        <ele>82.18</ele>
        <time>2024-09-21T14:32:07.999Z</time>
      </trkpt>
      <trkpt lat="42.45239" lon="3.15757">
        <ele>83.6</ele>
        <time>2024-09-21T14:32:12.999Z</time>
      </trkpt>
      <trkpt lat="42.45218" lon="3.15758">
        <ele>84.58</ele>
        <time>2024-09-21T14:32:17.999Z</time>
      </trkpt>
      <trkpt lat="42.45193" lon="3.15769">
        <ele>85.06</ele>
        <time>2024-09-21T14:32:22.999Z</time>
      </trkpt>
      <trkpt lat="42.45169" lon="3.15779">
        <ele>85.43</ele>
        <time>2024-09-21T14:32:27.999Z</time>
      </trkpt>
      <trkpt lat="42.45145" lon="3.15787">
        <ele>85.49</ele>
        <time>2024-09-21T14:32:32.999Z</time>
      </trkpt>
      <trkpt lat="42.45119" lon="3.15779">
        <ele>84.93</ele>
        <time>2024-09-21T14:32:37.999Z</time>
      </trkpt>
      <trkpt lat="42.45107" lon="3.15748">
        <ele>84.68</ele>
        <time>2024-09-21T14:32:42.999Z</time>
      </trkpt>
      <trkpt lat="42.45109" lon="3.15716">
        <ele>84.98</ele>
        <time>2024-09-21T14:32:47.999Z</time>
      </trkpt>
      <trkpt lat="42.45109" lon="3.15687">
        <ele>85.12</ele>
        <time>2024-09-21T14:32:52.999Z</time>
      </trkpt>
      <trkpt lat="42.45094" lon="3.15671">
        <ele>85.02</ele>
        <time>2024-09-21T14:32:57.999Z</time>
      </trkpt>
      <trkpt lat="42.45073" lon="3.1568">
        <ele>84.83</ele>
        <time>2024-09-21T14:33:02.999Z</time>
      </trkpt>
      <trkpt lat="42.45055" lon="3.15709">
        <ele>84.61</ele>
        <time>2024-09-21T14:33:07.999Z</time>
      </trkpt>
      <trkpt lat="42.45028" lon="3.15733">
        <ele>84.34</ele>
        <time>2024-09-21T14:33:12.999Z</time>
      </trkpt>
      <trkpt lat="42.44999" lon="3.15755">
        <ele>83.96</ele>
        <time>2024-09-21T14:33:17.999Z</time>
      </trkpt>
      <trkpt lat="42.44973" lon="3.15786">
        <ele>83.48</ele>
        <time>2024-09-21T14:33:22.999Z</time>
      </trkpt>
      <trkpt lat="42.44964" lon="3.15829">
        <ele>82.56</ele>
        <time>2024-09-21T14:33:27.999Z</time>
      </trkpt>
      <trkpt lat="42.44962" lon="3.15872">
        <ele>81.56</ele>
        <time>2024-09-21T14:33:32.999Z</time>
      </trkpt>
      <trkpt lat="42.44961" lon="3.15912">
        <ele>81.05</ele>
        <time>2024-09-21T14:33:37.999Z</time>
      </trkpt>
      <trkpt lat="42.4496" lon="3.1595">
        <ele>80.54</ele>
        <time>2024-09-21T14:33:42.999Z</time>
      </trkpt>
      <trkpt lat="42.44955" lon="3.15987">
        <ele>79.93</ele>
        <time>2024-09-21T14:33:47.999Z</time>
      </trkpt>
      <trkpt lat="42.44932" lon="3.16007">
        <ele>79.54</ele>
        <time>2024-09-21T14:33:52.999Z</time>
      </trkpt>
      <trkpt lat="42.44905" lon="3.16009">
        <ele>79.26</ele>
        <time>2024-09-21T14:33:57.999Z</time>
      </trkpt>
      <trkpt lat="42.44879" lon="3.16012">
        <ele>79.26</ele>
        <time>2024-09-21T14:34:02.999Z</time>
      </trkpt>
      <trkpt lat="42.4486" lon="3.16036">
        <ele>78.98</ele>
        <time>2024-09-21T14:34:07.999Z</time>
      </trkpt>
      <trkpt lat="42.4486" lon="3.16072">
        <ele>78.78</ele>
        <time>2024-09-21T14:34:12.999Z</time>
      </trkpt>
      <trkpt lat="42.44871" lon="3.16106">
        <ele>78.62</ele>
        <time>2024-09-21T14:34:17.999Z</time>
      </trkpt>
      <trkpt lat="42.44882" lon="3.1614">
        <ele>78.57</ele>
        <time>2024-09-21T14:34:22.999Z</time>
      </trkpt>
      <trkpt lat="42.44891" lon="3.16176">
        <ele>78.43</ele>
        <time>2024-09-21T14:34:27.999Z</time>
      </trkpt>
      <trkpt lat="42.44895" lon="3.16211">
        <ele>78.4</ele>
        <time>2024-09-21T14:34:32.999Z</time>
      </trkpt>
      <trkpt lat="42.44888" lon="3.16241">
        <ele>78.39</ele>
        <time>2024-09-21T14:34:37.999Z</time>
      </trkpt>
      <trkpt lat="42.44878" lon="3.16258">
        <ele>78.37</ele>
        <time>2024-09-21T14:34:42.999Z</time>
      </trkpt>
      <trkpt lat="42.44872" lon="3.16268">
        <ele>77.89</ele>
        <time>2024-09-21T14:35:57.999Z</time>
      </trkpt>
      <trkpt lat="42.44874" lon="3.16254">
        <ele>77.3</ele>
        <time>2024-09-21T14:38:21.999Z</time>
      </trkpt>
      <trkpt lat="42.44876" lon="3.16241">
        <ele>77.19</ele>
        <time>2024-09-21T14:38:29.999Z</time>
      </trkpt>
      <trkpt lat="42.44881" lon="3.16229">
        <ele>77.12</ele>
        <time>2024-09-21T14:38:36.999Z</time>
      </trkpt>
      <trkpt lat="42.44882" lon="3.16216">
        <ele>77.06</ele>
        <time>2024-09-21T14:38:43.999Z</time>
      </trkpt>
      <trkpt lat="42.44881" lon="3.16203">
        <ele>77.03</ele>
        <time>2024-09-21T14:38:50.999Z</time>
      </trkpt>
      <trkpt lat="42.44878" lon="3.16191">
        <ele>77.01</ele>
        <time>2024-09-21T14:38:57.999Z</time>
      </trkpt>
      <trkpt lat="42.44869" lon="3.16192">
        <ele>77.01</ele>
        <time>2024-09-21T14:39:05.999Z</time>
      </trkpt>
      <trkpt lat="42.44865" lon="3.16205">
        <ele>77.05</ele>
        <time>2024-09-21T14:39:13.999Z</time>
      </trkpt>
      <trkpt lat="42.44861" lon="3.16217">
        <ele>77.09</ele>
        <time>2024-09-21T14:39:20.999Z</time>
      </trkpt>
      <trkpt lat="42.44856" lon="3.16228">
        <ele>77.16</ele>
        <time>2024-09-21T14:39:27.999Z</time>
      </trkpt>
      <trkpt lat="42.44849" lon="3.16238">
        <ele>77.37</ele>
        <time>2024-09-21T14:39:59.999Z</time>
      </trkpt>
      <trkpt lat="42.44842" lon="3.16247">
        <ele>77.5</ele>
        <time>2024-09-21T14:40:06.999Z</time>
      </trkpt>
      <trkpt lat="42.44834" lon="3.16254">
        <ele>77.63</ele>
        <time>2024-09-21T14:40:13.999Z</time>
      </trkpt>
      <trkpt lat="42.44826" lon="3.16261">
        <ele>77.76</ele>
        <time>2024-09-21T14:40:20.999Z</time>
      </trkpt>
      <trkpt lat="42.44817" lon="3.16269">
        <ele>77.9</ele>
        <time>2024-09-21T14:40:27.999Z</time>
      </trkpt>
      <trkpt lat="42.44808" lon="3.16275">
        <ele>78.03</ele>
        <time>2024-09-21T14:40:34.999Z</time>
      </trkpt>
      <trkpt lat="42.44801" lon="3.16282">
        <ele>78.32</ele>
        <time>2024-09-21T14:40:48.999Z</time>
      </trkpt>
      <trkpt lat="42.44793" lon="3.16288">
        <ele>78.64</ele>
        <time>2024-09-21T14:40:58.999Z</time>
      </trkpt>
      <trkpt lat="42.44784" lon="3.16293">
        <ele>78.99</ele>
        <time>2024-09-21T14:41:08.999Z</time>
      </trkpt>
      <trkpt lat="42.44775" lon="3.16297">
        <ele>79.41</ele>
        <time>2024-09-21T14:41:20.000Z</time>
      </trkpt>
      <trkpt lat="42.44766" lon="3.16302">
        <ele>79.89</ele>
        <time>2024-09-21T14:41:31.000Z</time>
      </trkpt>
      <trkpt lat="42.44758" lon="3.1631">
        <ele>80.42</ele>
        <time>2024-09-21T14:41:48.000Z</time>
      </trkpt>
      <trkpt lat="42.44748" lon="3.16318">
        <ele>80.71</ele>
        <time>2024-09-21T14:41:53.000Z</time>
      </trkpt>
      <trkpt lat="42.44744" lon="3.16334">
        <ele>81</ele>
        <time>2024-09-21T14:41:58.000Z</time>
      </trkpt>
      <trkpt lat="42.44743" lon="3.1635">
        <ele>81.27</ele>
        <time>2024-09-21T14:42:03.000Z</time>
      </trkpt>
      <trkpt lat="42.44746" lon="3.16368">
        <ele>81.55</ele>
        <time>2024-09-21T14:42:08.000Z</time>
      </trkpt>
      <trkpt lat="42.44746" lon="3.16387">
        <ele>81.82</ele>
        <time>2024-09-21T14:42:13.000Z</time>
      </trkpt>
      <trkpt lat="42.44747" lon="3.16403">
        <ele>82.09</ele>
        <time>2024-09-21T14:42:18.000Z</time>
      </trkpt>
      <trkpt lat="42.44749" lon="3.1642">
        <ele>82.34</ele>
        <time>2024-09-21T14:42:23.000Z</time>
      </trkpt>
      <trkpt lat="42.44751" lon="3.16435">
        <ele>82.58</ele>
        <time>2024-09-21T14:42:28.000Z</time>
      </trkpt>
      <trkpt lat="42.44751" lon="3.16447">
        <ele>83.12</ele>
        <time>2024-09-21T14:42:50.000Z</time>
      </trkpt>
    </trkseg>
  </trk>
</gpx>